<?xml version='1.0' encoding='UTF-8'?><gpx version="1.1" creator="JPX - https://github.com/jenetics/jpx" xmlns="http://www.topografix.com/GPX/1/1"><trk><trkseg><trkpt lat="44.83159782193116" lon="10.401090901823496"><ele>35.0</ele><time>2026-04-09T13:52:58.998Z</time></trkpt><trkpt lat="44.831584442563525" lon="10.401214889713982"><ele>35.0</ele><time>2026-04-09T13:53:00.998Z</time></trkpt><trkpt lat="44.831554242554496" lon="10.401353564405246"><ele>35.0</ele><time>2026-04-09T13:53:02.998Z</time></trkpt><trkpt lat="44.831525030122684" lon="10.401464330300946"><ele>35.0</ele><time>2026-04-09T13:53:04.999Z</time></trkpt><trkpt lat="44.8314436750948" lon="10.401515241704665"><ele>35.0</ele><time>2026-04-09T13:53:08.999Z</time></trkpt><trkpt lat="44.83139308798109" lon="10.40161004567973"><ele>35.0</ele><time>2026-04-09T13:53:11.999Z</time></trkpt><trkpt lat="44.83136549058629" lon="10.401689910086114"><ele>35.0</ele><time>2026-04-09T13:53:13.999Z</time></trkpt><trkpt lat="44.8312931829631" lon="10.401696020767456"><ele>35.0</ele><time>2026-04-09T13:53:15.999Z</time></trkpt><trkpt lat="44.831211518826926" lon="10.40167428278843"><ele>35.0</ele><time>2026-04-09T13:53:16.999Z</time></trkpt><trkpt lat="44.83113189819312" lon="10.401638637516253"><ele>35.0</ele><time>2026-04-09T13:53:17.999Z</time></trkpt><trkpt lat="44.83105090440672" lon="10.401603208022193"><ele>35.0</ele><time>2026-04-09T13:53:19Z</time></trkpt><trkpt lat="44.83094475073692" lon="10.401555115806643"><ele>35.0</ele><time>2026-04-09T13:53:20Z</time></trkpt><trkpt lat="44.83082484460104" lon="10.401502244615795"><ele>35.0</ele><time>2026-04-09T13:53:21Z</time></trkpt><trkpt lat="44.83070531528428" lon="10.401451767516754"><ele>35.0</ele><time>2026-04-09T13:53:22Z</time></trkpt><trkpt lat="44.8305924429002" lon="10.401405265126494"><ele>35.0</ele><time>2026-04-09T13:53:23Z</time></trkpt><trkpt lat="44.83048480726901" lon="10.401348626187291"><ele>35.0</ele><time>2026-04-09T13:53:24Z</time></trkpt><trkpt lat="44.83039122875244" lon="10.401300981761382"><ele>35.0</ele><time>2026-04-09T13:53:25Z</time></trkpt><trkpt lat="44.83029385559976" lon="10.401260945114208"><ele>35.0</ele><time>2026-04-09T13:53:26Z</time></trkpt><trkpt lat="44.83019643064028" lon="10.401223110147237"><ele>35.0</ele><time>2026-04-09T13:53:27Z</time></trkpt><trkpt lat="44.830102107649616" lon="10.401178788068822"><ele>35.0</ele><time>2026-04-09T13:53:28Z</time></trkpt><trkpt lat="44.83001308282864" lon="10.401128288810314"><ele>35.0</ele><time>2026-04-09T13:53:29Z</time></trkpt><trkpt lat="44.82993167944867" lon="10.401061670883363"><ele>34.8</ele><time>2026-04-09T13:53:30Z</time></trkpt><trkpt lat="44.82986449996761" lon="10.400982442929788"><ele>34.6</ele><time>2026-04-09T13:53:31Z</time></trkpt><trkpt lat="44.82980350836016" lon="10.400873734505637"><ele>34.4</ele><time>2026-04-09T13:53:32Z</time></trkpt><trkpt lat="44.82975856261871" lon="10.400744624557406"><ele>34.2</ele><time>2026-04-09T13:53:33Z</time></trkpt><trkpt lat="44.82969180388709" lon="10.400645652365654"><ele>34.0</ele><time>2026-04-09T13:53:34Z</time></trkpt><trkpt lat="44.82968705373507" lon="10.400461159284438"><ele>34.0</ele><time>2026-04-09T13:53:35Z</time></trkpt><trkpt lat="44.829652561689734" lon="10.400322079152565"><ele>34.0</ele><time>2026-04-09T13:53:36Z</time></trkpt><trkpt lat="44.82961482119148" lon="10.40016949192013"><ele>34.0</ele><time>2026-04-09T13:53:37Z</time></trkpt><trkpt lat="44.829566926692806" lon="10.39999509377442"><ele>34.0</ele><time>2026-04-09T13:53:38Z</time></trkpt><trkpt lat="44.82951661977383" lon="10.399791012434099"><ele>33.66666666666667</ele><time>2026-04-09T13:53:39Z</time></trkpt><trkpt lat="44.82946833156913" lon="10.399573564678466"><ele>33.333333333333336</ele><time>2026-04-09T13:53:40Z</time></trkpt><trkpt lat="44.829436600709826" lon="10.399348341406188"><ele>33.0</ele><time>2026-04-09T13:53:41Z</time></trkpt><trkpt lat="44.82940430688201" lon="10.399156640463936"><ele>33.0</ele><time>2026-04-09T13:53:42Z</time></trkpt><trkpt lat="44.82937549038185" lon="10.398969783704963"><ele>33.0</ele><time>2026-04-09T13:53:43Z</time></trkpt><trkpt lat="44.82934388237958" lon="10.398774834695198"><ele>33.0</ele><time>2026-04-09T13:53:44Z</time></trkpt><trkpt lat="44.82930984743126" lon="10.39857284422373"><ele>33.0</ele><time>2026-04-09T13:53:45Z</time></trkpt><trkpt lat="44.82927313203661" lon="10.39834489422465"><ele>33.333333333333336</ele><time>2026-04-09T13:53:46Z</time></trkpt><trkpt lat="44.829235789089445" lon="10.398121546916224"><ele>33.66666666666667</ele><time>2026-04-09T13:53:47Z</time></trkpt><trkpt lat="44.829205703663376" lon="10.39791490887965"><ele>34.0</ele><time>2026-04-09T13:53:48Z</time></trkpt><trkpt lat="44.82917549951045" lon="10.39771267229396"><ele>34.0</ele><time>2026-04-09T13:53:49Z</time></trkpt><trkpt lat="44.82914220647175" lon="10.39751405731987"><ele>34.0</ele><time>2026-04-09T13:53:50Z</time></trkpt><trkpt lat="44.8291098065831" lon="10.397323877446054"><ele>34.0</ele><time>2026-04-09T13:53:51Z</time></trkpt><trkpt lat="44.82907982704832" lon="10.397142957424947"><ele>34.0</ele><time>2026-04-09T13:53:52Z</time></trkpt><trkpt lat="44.82905240018244" lon="10.396972766496107"><ele>34.5</ele><time>2026-04-09T13:53:53Z</time></trkpt><trkpt lat="44.829026169275124" lon="10.396806427413154"><ele>35.0</ele><time>2026-04-09T13:53:54Z</time></trkpt><trkpt lat="44.82899790061089" lon="10.39662956285197"><ele>35.5</ele><time>2026-04-09T13:53:55Z</time></trkpt><trkpt lat="44.828969092204815" lon="10.396446289636678"><ele>36.0</ele><time>2026-04-09T13:53:56Z</time></trkpt><trkpt lat="44.828940599166955" lon="10.396249342365174"><ele>36.0</ele><time>2026-04-09T13:53:57Z</time></trkpt><trkpt lat="44.82891166088725" lon="10.396048064351136"><ele>36.0</ele><time>2026-04-09T13:53:58Z</time></trkpt><trkpt lat="44.82887989574835" lon="10.395859989245107"><ele>36.0</ele><time>2026-04-09T13:53:59Z</time></trkpt><trkpt lat="44.82885034561796" lon="10.395688643846162"><ele>36.0</ele><time>2026-04-09T13:54:00Z</time></trkpt><trkpt lat="44.828823609475" lon="10.39552231131631"><ele>36.5</ele><time>2026-04-09T13:54:01Z</time></trkpt><trkpt lat="44.82879877973664" lon="10.395346400598983"><ele>37.0</ele><time>2026-04-09T13:54:02Z</time></trkpt><trkpt lat="44.82877113703379" lon="10.395162657992795"><ele>37.5</ele><time>2026-04-09T13:54:03Z</time></trkpt><trkpt lat="44.82873634115897" lon="10.394976798790998"><ele>38.0</ele><time>2026-04-09T13:54:04Z</time></trkpt><trkpt lat="44.82869803255947" lon="10.394811035109043"><ele>38.0</ele><time>2026-04-09T13:54:05Z</time></trkpt><trkpt lat="44.8286504238699" lon="10.394651697726587"><ele>38.0</ele><time>2026-04-09T13:54:06.001Z</time></trkpt><trkpt lat="44.82858855503096" lon="10.394497611753007"><ele>38.0</ele><time>2026-04-09T13:54:07.001Z</time></trkpt><trkpt lat="44.828517886640626" lon="10.394348245891806"><ele>38.0</ele><time>2026-04-09T13:54:08.001Z</time></trkpt><trkpt lat="44.82844483861665" lon="10.394196532460938"><ele>38.25</ele><time>2026-04-09T13:54:09.001Z</time></trkpt><trkpt lat="44.828377101767344" lon="10.394041734605738"><ele>38.5</ele><time>2026-04-09T13:54:10.001Z</time></trkpt><trkpt lat="44.82831006924627" lon="10.393879081530173"><ele>38.75</ele><time>2026-04-09T13:54:11.001Z</time></trkpt><trkpt lat="44.82823765958311" lon="10.393710620770023"><ele>39.0</ele><time>2026-04-09T13:54:12.001Z</time></trkpt><trkpt lat="44.828155736359996" lon="10.393533687822607"><ele>39.0</ele><time>2026-04-09T13:54:13.001Z</time></trkpt><trkpt lat="44.82807170304293" lon="10.393356828746404"><ele>39.0</ele><time>2026-04-09T13:54:14.001Z</time></trkpt><trkpt lat="44.827990366902156" lon="10.393181058864148"><ele>39.0</ele><time>2026-04-09T13:54:15.001Z</time></trkpt><trkpt lat="44.82789823749481" lon="10.39298216344641"><ele>38.666666666666664</ele><time>2026-04-09T13:54:16.001Z</time></trkpt><trkpt lat="44.82781324525809" lon="10.39274426942999"><ele>38.33333333333333</ele><time>2026-04-09T13:54:17.001Z</time></trkpt><trkpt lat="44.82770822448564" lon="10.392497985388847"><ele>38.0</ele><time>2026-04-09T13:54:18.001Z</time></trkpt><trkpt lat="44.82758972785627" lon="10.392259139418021"><ele>37.666666666666664</ele><time>2026-04-09T13:54:19.001Z</time></trkpt><trkpt lat="44.82748783154401" lon="10.392002291011227"><ele>37.333333333333336</ele><time>2026-04-09T13:54:20.001Z</time></trkpt><trkpt lat="44.827385819620226" lon="10.39175445331248"><ele>37.0</ele><time>2026-04-09T13:54:21.001Z</time></trkpt><trkpt lat="44.827284743019355" lon="10.39151406263545"><ele>37.333333333333336</ele><time>2026-04-09T13:54:22.001Z</time></trkpt><trkpt lat="44.827189034070535" lon="10.391288236689158"><ele>37.666666666666664</ele><time>2026-04-09T13:54:23.001Z</time></trkpt><trkpt lat="44.82709570684253" lon="10.391072209399129"><ele>38.0</ele><time>2026-04-09T13:54:24.001Z</time></trkpt><trkpt lat="44.82700708553619" lon="10.39086445163388"><ele>38.0</ele><time>2026-04-09T13:54:25.001Z</time></trkpt><trkpt lat="44.82691942001433" lon="10.390658699911008"><ele>38.0</ele><time>2026-04-09T13:54:26.001Z</time></trkpt><trkpt lat="44.826846830833496" lon="10.390445943083568"><ele>38.0</ele><time>2026-04-09T13:54:27.001Z</time></trkpt><trkpt lat="44.826757478730876" lon="10.390232993228008"><ele>37.666666666666664</ele><time>2026-04-09T13:54:28.001Z</time></trkpt><trkpt lat="44.82666769285705" lon="10.390017910953345"><ele>37.333333333333336</ele><time>2026-04-09T13:54:29.001Z</time></trkpt><trkpt lat="44.82658115745219" lon="10.389820521447634"><ele>37.0</ele><time>2026-04-09T13:54:30.001Z</time></trkpt><trkpt lat="44.826499904222125" lon="10.389645271819928"><ele>37.0</ele><time>2026-04-09T13:54:31.001Z</time></trkpt><trkpt lat="44.826426110825224" lon="10.389476155224783"><ele>37.0</ele><time>2026-04-09T13:54:32.001Z</time></trkpt><trkpt lat="44.82635786352687" lon="10.389315517515083"><ele>37.0</ele><time>2026-04-09T13:54:33.001Z</time></trkpt><trkpt lat="44.826288361275026" lon="10.389193020003221"><ele>37.0</ele><time>2026-04-09T13:54:34.001Z</time></trkpt><trkpt lat="44.826247487283" lon="10.389097083751963"><ele>37.0</ele><time>2026-04-09T13:54:35.001Z</time></trkpt><trkpt lat="44.82621660532328" lon="10.389018171535547"><ele>37.0</ele><time>2026-04-09T13:54:36.001Z</time></trkpt><trkpt lat="44.82619541087321" lon="10.388934498563232"><ele>37.0</ele><time>2026-04-09T13:54:37.001Z</time></trkpt><trkpt lat="44.826183132269854" lon="10.388846663585038"><ele>37.0</ele><time>2026-04-09T13:54:38.001Z</time></trkpt><trkpt lat="44.82622608806005" lon="10.388660545146118"><ele>37.0</ele><time>2026-04-09T13:54:40.001Z</time></trkpt><trkpt lat="44.8262867285197" lon="10.388568181029413"><ele>37.0</ele><time>2026-04-09T13:54:41.001Z</time></trkpt><trkpt lat="44.826335520159915" lon="10.388477978839111"><ele>36.85714285714286</ele><time>2026-04-09T13:54:42.001Z</time></trkpt><trkpt lat="44.82635113934365" lon="10.388384355352217"><ele>36.714285714285715</ele><time>2026-04-09T13:54:43.001Z</time></trkpt><trkpt lat="44.82632695068684" lon="10.388296395244396"><ele>36.57142857142857</ele><time>2026-04-09T13:54:44.001Z</time></trkpt><trkpt lat="44.82628039005621" lon="10.388211388719691"><ele>36.42857142857143</ele><time>2026-04-09T13:54:45.001Z</time></trkpt><trkpt lat="44.82621699612976" lon="10.388161612301541"><ele>36.285714285714285</ele><time>2026-04-09T13:54:46.001Z</time></trkpt><trkpt lat="44.82614261632156" lon="10.388153275748653"><ele>36.142857142857146</ele><time>2026-04-09T13:54:47.001Z</time></trkpt><trkpt lat="44.82607872565847" lon="10.388181771514763"><ele>36.0</ele><time>2026-04-09T13:54:48.001Z</time></trkpt><trkpt lat="44.826007682853444" lon="10.388197040681382"><ele>36.4</ele><time>2026-04-09T13:54:49.001Z</time></trkpt><trkpt lat="44.82593170137668" lon="10.388176973577172"><ele>36.8</ele><time>2026-04-09T13:54:50.001Z</time></trkpt><trkpt lat="44.8258751600708" lon="10.388097705652951"><ele>37.199999999999996</ele><time>2026-04-09T13:54:51.001Z</time></trkpt><trkpt lat="44.825813146274555" lon="10.388000635451844"><ele>37.6</ele><time>2026-04-09T13:54:52.001Z</time></trkpt><trkpt lat="44.82575882626591" lon="10.387867007768802"><ele>38.0</ele><time>2026-04-09T13:54:53.001Z</time></trkpt><trkpt lat="44.82568786226856" lon="10.387699342058493"><ele>38.0</ele><time>2026-04-09T13:54:54.001Z</time></trkpt><trkpt lat="44.82560703541477" lon="10.387508373039688"><ele>38.0</ele><time>2026-04-09T13:54:55.001Z</time></trkpt><trkpt lat="44.82551930888736" lon="10.387301618021912"><ele>38.0</ele><time>2026-04-09T13:54:56.001Z</time></trkpt><trkpt lat="44.8254180178467" lon="10.387095211305308"><ele>38.0</ele><time>2026-04-09T13:54:57.001Z</time></trkpt><trkpt lat="44.82533012583603" lon="10.386865519506415"><ele>38.0</ele><time>2026-04-09T13:54:58.001Z</time></trkpt><trkpt lat="44.82523259273244" lon="10.386639568605469"><ele>38.0</ele><time>2026-04-09T13:54:59.001Z</time></trkpt><trkpt lat="44.82511724252659" lon="10.38638360103172"><ele>38.666666666666664</ele><time>2026-04-09T13:55:00.001Z</time></trkpt><trkpt lat="44.825031626388444" lon="10.386173807414265"><ele>39.333333333333336</ele><time>2026-04-09T13:55:01.001Z</time></trkpt><trkpt lat="44.82494535065985" lon="10.385970535727903"><ele>40.0</ele><time>2026-04-09T13:55:02.001Z</time></trkpt><trkpt lat="44.82486274821354" lon="10.385782364443457"><ele>40.0</ele><time>2026-04-09T13:55:03Z</time></trkpt><trkpt lat="44.82478082677509" lon="10.385589904959843"><ele>40.0</ele><time>2026-04-09T13:55:04Z</time></trkpt><trkpt lat="44.824709211892625" lon="10.38541148850335"><ele>40.0</ele><time>2026-04-09T13:55:05Z</time></trkpt><trkpt lat="44.824634377601846" lon="10.385234168125857"><ele>40.25</ele><time>2026-04-09T13:55:06Z</time></trkpt><trkpt lat="44.82456274656607" lon="10.385070063915055"><ele>40.5</ele><time>2026-04-09T13:55:07Z</time></trkpt><trkpt lat="44.824488609755484" lon="10.384893906067813"><ele>40.75</ele><time>2026-04-09T13:55:08Z</time></trkpt><trkpt lat="44.82440883401581" lon="10.38469855267905"><ele>41.0</ele><time>2026-04-09T13:55:09Z</time></trkpt><trkpt lat="44.82431782541705" lon="10.384490618640571"><ele>39.666666666666664</ele><time>2026-04-09T13:55:10Z</time></trkpt><trkpt lat="44.82423012500654" lon="10.384277443010507"><ele>38.333333333333336</ele><time>2026-04-09T13:55:11Z</time></trkpt><trkpt lat="44.82413787477657" lon="10.384074154327447"><ele>37.0</ele><time>2026-04-09T13:55:12Z</time></trkpt><trkpt lat="44.82406156772179" lon="10.383899348678629"><ele>36.75</ele><time>2026-04-09T13:55:13Z</time></trkpt><trkpt lat="44.82398912116134" lon="10.383718455236291"><ele>36.5</ele><time>2026-04-09T13:55:14Z</time></trkpt><trkpt lat="44.823919726612544" lon="10.383546228950486"><ele>36.25</ele><time>2026-04-09T13:55:15Z</time></trkpt><trkpt lat="44.82384625976086" lon="10.383370285958224"><ele>36.0</ele><time>2026-04-09T13:55:16Z</time></trkpt><trkpt lat="44.82376907957478" lon="10.383190991972345"><ele>36.0</ele><time>2026-04-09T13:55:17Z</time></trkpt><trkpt lat="44.823693750196455" lon="10.383015408354986"><ele>36.0</ele><time>2026-04-09T13:55:18Z</time></trkpt><trkpt lat="44.82361777102351" lon="10.38283105710906"><ele>36.0</ele><time>2026-04-09T13:55:19Z</time></trkpt><trkpt lat="44.823539326664466" lon="10.382641154387775"><ele>36.0</ele><time>2026-04-09T13:55:20Z</time></trkpt><trkpt lat="44.82346204742737" lon="10.382453263330975"><ele>36.0</ele><time>2026-04-09T13:55:21Z</time></trkpt><trkpt lat="44.82338041190502" lon="10.38226620104147"><ele>36.0</ele><time>2026-04-09T13:55:22Z</time></trkpt><trkpt lat="44.8232972971159" lon="10.382074046536575"><ele>36.333333333333336</ele><time>2026-04-09T13:55:23Z</time></trkpt><trkpt lat="44.823214371281864" lon="10.38188333836575"><ele>36.66666666666667</ele><time>2026-04-09T13:55:24Z</time></trkpt><trkpt lat="44.82313064370864" lon="10.381684142341378"><ele>37.0</ele><time>2026-04-09T13:55:25Z</time></trkpt><trkpt lat="44.823049729534986" lon="10.38149630111754"><ele>37.5</ele><time>2026-04-09T13:55:26Z</time></trkpt><trkpt lat="44.82297352428811" lon="10.381322074959131"><ele>38.0</ele><time>2026-04-09T13:55:27Z</time></trkpt><trkpt lat="44.82290078601279" lon="10.381149341821162"><ele>38.5</ele><time>2026-04-09T13:55:28Z</time></trkpt><trkpt lat="44.82283905530252" lon="10.380989085302318"><ele>39.0</ele><time>2026-04-09T13:55:29Z</time></trkpt><trkpt lat="44.8227874650831" lon="10.380839394289014"><ele>39.0</ele><time>2026-04-09T13:55:30Z</time></trkpt><trkpt lat="44.82274313433298" lon="10.380695880583666"><ele>39.0</ele><time>2026-04-09T13:55:31Z</time></trkpt><trkpt lat="44.82270436818032" lon="10.380567165768774"><ele>39.0</ele><time>2026-04-09T13:55:32Z</time></trkpt><trkpt lat="44.822671959515866" lon="10.380451603765849"><ele>39.0</ele><time>2026-04-09T13:55:33Z</time></trkpt><trkpt lat="44.82264998924284" lon="10.38034806947073"><ele>39.0</ele><time>2026-04-09T13:55:34Z</time></trkpt><trkpt lat="44.82264336287031" lon="10.380238946415698"><ele>39.0</ele><time>2026-04-09T13:55:35Z</time></trkpt><trkpt lat="44.82266358266859" lon="10.3801225766927"><ele>39.0</ele><time>2026-04-09T13:55:36Z</time></trkpt><trkpt lat="44.82271021042684" lon="10.380008789713065"><ele>39.0</ele><time>2026-04-09T13:55:37Z</time></trkpt><trkpt lat="44.82276493122424" lon="10.379899863172412"><ele>39.0</ele><time>2026-04-09T13:55:38Z</time></trkpt><trkpt lat="44.82280017794015" lon="10.379792302769067"><ele>39.0</ele><time>2026-04-09T13:55:39Z</time></trkpt><trkpt lat="44.82280979628041" lon="10.379677506981887"><ele>39.0</ele><time>2026-04-09T13:55:40Z</time></trkpt><trkpt lat="44.82278529130089" lon="10.379579215249338"><ele>39.0</ele><time>2026-04-09T13:55:41Z</time></trkpt><trkpt lat="44.822745118759364" lon="10.379503040824305"><ele>39.0</ele><time>2026-04-09T13:55:42Z</time></trkpt><trkpt lat="44.8226941783545" lon="10.37944342761699"><ele>39.0</ele><time>2026-04-09T13:55:43Z</time></trkpt><trkpt lat="44.822634019388644" lon="10.379408700883891"><ele>39.0</ele><time>2026-04-09T13:55:44Z</time></trkpt><trkpt lat="44.822561489777335" lon="10.379397113826595"><ele>39.0</ele><time>2026-04-09T13:55:45Z</time></trkpt><trkpt lat="44.82248258424245" lon="10.379420181537474"><ele>39.0</ele><time>2026-04-09T13:55:46Z</time></trkpt><trkpt lat="44.82240670639358" lon="10.379441670276696"><ele>39.0</ele><time>2026-04-09T13:55:47Z</time></trkpt><trkpt lat="44.82233129453001" lon="10.379443468635058"><ele>39.166666666666664</ele><time>2026-04-09T13:55:48Z</time></trkpt><trkpt lat="44.822255927046314" lon="10.379403025246113"><ele>39.333333333333336</ele><time>2026-04-09T13:55:49Z</time></trkpt><trkpt lat="44.82219675330304" lon="10.379335534494787"><ele>39.5</ele><time>2026-04-09T13:55:50Z</time></trkpt><trkpt lat="44.82215697544172" lon="10.37925198204543"><ele>39.66666666666667</ele><time>2026-04-09T13:55:51Z</time></trkpt><trkpt lat="44.82210907857062" lon="10.379140075031753"><ele>39.833333333333336</ele><time>2026-04-09T13:55:52Z</time></trkpt><trkpt lat="44.822064899969476" lon="10.379004132836615"><ele>40.0</ele><time>2026-04-09T13:55:53.001Z</time></trkpt><trkpt lat="44.822023719095995" lon="10.378870867677799"><ele>40.5</ele><time>2026-04-09T13:55:54.001Z</time></trkpt><trkpt lat="44.82197936980014" lon="10.378730394887274"><ele>41.0</ele><time>2026-04-09T13:55:55.001Z</time></trkpt><trkpt lat="44.82193503527783" lon="10.378594965628652"><ele>41.5</ele><time>2026-04-09T13:55:56.001Z</time></trkpt><trkpt lat="44.82188628045246" lon="10.378450878917162"><ele>42.0</ele><time>2026-04-09T13:55:57.001Z</time></trkpt><trkpt lat="44.82183403516776" lon="10.378294862027987"><ele>42.0</ele><time>2026-04-09T13:55:58.001Z</time></trkpt><trkpt lat="44.82178883860741" lon="10.378144484299801"><ele>42.0</ele><time>2026-04-09T13:55:59.001Z</time></trkpt><trkpt lat="44.82174426030364" lon="10.378011147594236"><ele>42.0</ele><time>2026-04-09T13:56:00.001Z</time></trkpt><trkpt lat="44.82169756562611" lon="10.377869014610797"><ele>42.0</ele><time>2026-04-09T13:56:01.001Z</time></trkpt><trkpt lat="44.82164023396917" lon="10.37770195911159"><ele>41.666666666666664</ele><time>2026-04-09T13:56:02.001Z</time></trkpt><trkpt lat="44.82158445129838" lon="10.377493720875009"><ele>41.33333333333333</ele><time>2026-04-09T13:56:03.001Z</time></trkpt><trkpt lat="44.82151194153249" lon="10.377277760217567"><ele>41.0</ele><time>2026-04-09T13:56:04.001Z</time></trkpt><trkpt lat="44.821440872332" lon="10.377066090020003"><ele>41.0</ele><time>2026-04-09T13:56:05.001Z</time></trkpt><trkpt lat="44.821369182859655" lon="10.376853974354436"><ele>41.0</ele><time>2026-04-09T13:56:06.001Z</time></trkpt><trkpt lat="44.82128319416258" lon="10.376653647174523"><ele>41.0</ele><time>2026-04-09T13:56:07.001Z</time></trkpt><trkpt lat="44.82121349181502" lon="10.37645590208405"><ele>41.666666666666664</ele><time>2026-04-09T13:56:08.001Z</time></trkpt><trkpt lat="44.821131764827875" lon="10.37626059026259"><ele>42.333333333333336</ele><time>2026-04-09T13:56:09.001Z</time></trkpt><trkpt lat="44.821034921611805" lon="10.376068246476807"><ele>43.0</ele><time>2026-04-09T13:56:10Z</time></trkpt><trkpt lat="44.82094220194954" lon="10.375857760393647"><ele>43.0</ele><time>2026-04-09T13:56:11Z</time></trkpt><trkpt lat="44.820820622127066" lon="10.375641683035742"><ele>43.0</ele><time>2026-04-09T13:56:12Z</time></trkpt><trkpt lat="44.82067975956988" lon="10.375419102693657"><ele>43.0</ele><time>2026-04-09T13:56:13Z</time></trkpt><trkpt lat="44.82051938265785" lon="10.375191370881385"><ele>42.66666666666667</ele><time>2026-04-09T13:56:14Z</time></trkpt><trkpt lat="44.82035800412064" lon="10.375002856699323"><ele>42.333333333333336</ele><time>2026-04-09T13:56:15Z</time></trkpt><trkpt lat="44.82021872311054" lon="10.374808074245106"><ele>42.0</ele><time>2026-04-09T13:56:16Z</time></trkpt><trkpt lat="44.82006367028146" lon="10.374661650653316"><ele>42.0</ele><time>2026-04-09T13:56:17Z</time></trkpt><trkpt lat="44.819927244367825" lon="10.374521102214473"><ele>42.0</ele><time>2026-04-09T13:56:18Z</time></trkpt><trkpt lat="44.81979134183888" lon="10.374389859417514"><ele>42.0</ele><time>2026-04-09T13:56:19Z</time></trkpt><trkpt lat="44.81964785166708" lon="10.37427014764931"><ele>42.0</ele><time>2026-04-09T13:56:20Z</time></trkpt><trkpt lat="44.819516271930176" lon="10.374156781374964"><ele>42.0</ele><time>2026-04-09T13:56:21Z</time></trkpt><trkpt lat="44.81938559420857" lon="10.374031311036436"><ele>42.0</ele><time>2026-04-09T13:56:22Z</time></trkpt><trkpt lat="44.81925980822525" lon="10.37389019501486"><ele>41.333333333333336</ele><time>2026-04-09T13:56:23Z</time></trkpt><trkpt lat="44.819141096339756" lon="10.373733809494945"><ele>40.66666666666667</ele><time>2026-04-09T13:56:24Z</time></trkpt><trkpt lat="44.81902582864504" lon="10.373579057847465"><ele>40.0</ele><time>2026-04-09T13:56:25Z</time></trkpt><trkpt lat="44.818908153188076" lon="10.373425582373399"><ele>40.0</ele><time>2026-04-09T13:56:26Z</time></trkpt><trkpt lat="44.81878733029653" lon="10.373279106011223"><ele>40.0</ele><time>2026-04-09T13:56:27Z</time></trkpt><trkpt lat="44.818670864900604" lon="10.373137097563705"><ele>40.0</ele><time>2026-04-09T13:56:28Z</time></trkpt><trkpt lat="44.81856736788733" lon="10.373005745965738"><ele>40.2</ele><time>2026-04-09T13:56:29Z</time></trkpt><trkpt lat="44.818477980334514" lon="10.372889405265285"><ele>40.4</ele><time>2026-04-09T13:56:30Z</time></trkpt><trkpt lat="44.81839914312614" lon="10.372782021611165"><ele>40.599999999999994</ele><time>2026-04-09T13:56:31Z</time></trkpt><trkpt lat="44.81833083973937" lon="10.372689894136943"><ele>40.8</ele><time>2026-04-09T13:56:32Z</time></trkpt><trkpt lat="44.818273875995615" lon="10.37261247771452"><ele>41.0</ele><time>2026-04-09T13:56:33Z</time></trkpt><trkpt lat="44.81822383342105" lon="10.372542673636401"><ele>41.0</ele><time>2026-04-09T13:56:34Z</time></trkpt><trkpt lat="44.8181760200998" lon="10.372475466354713"><ele>41.0</ele><time>2026-04-09T13:56:35Z</time></trkpt><trkpt lat="44.81812802129326" lon="10.372392662543321"><ele>41.0</ele><time>2026-04-09T13:56:36Z</time></trkpt><trkpt lat="44.81809600534739" lon="10.372290714771074"><ele>41.0</ele><time>2026-04-09T13:56:37Z</time></trkpt><trkpt lat="44.81808934008737" lon="10.372170744878806"><ele>41.0</ele><time>2026-04-09T13:56:38Z</time></trkpt><trkpt lat="44.81809065685422" lon="10.372037798710826"><ele>41.0</ele><time>2026-04-09T13:56:39Z</time></trkpt><trkpt lat="44.81807169593243" lon="10.371939003429771"><ele>40.83333333333333</ele><time>2026-04-09T13:56:40Z</time></trkpt><trkpt lat="44.81802495918291" lon="10.37186363389613"><ele>40.666666666666664</ele><time>2026-04-09T13:56:41Z</time></trkpt><trkpt lat="44.81796069189555" lon="10.371798804903726"><ele>40.5</ele><time>2026-04-09T13:56:42Z</time></trkpt><trkpt lat="44.81788247451163" lon="10.371765177641407"><ele>40.333333333333336</ele><time>2026-04-09T13:56:43Z</time></trkpt><trkpt lat="44.81780954552355" lon="10.371758230448417"><ele>40.16666666666667</ele><time>2026-04-09T13:56:44Z</time></trkpt><trkpt lat="44.81773608677438" lon="10.371768951927454"><ele>40.0</ele><time>2026-04-09T13:56:45Z</time></trkpt><trkpt lat="44.81766237085944" lon="10.371764639685665"><ele>39.8</ele><time>2026-04-09T13:56:46Z</time></trkpt><trkpt lat="44.81760011724617" lon="10.371750598759245"><ele>39.6</ele><time>2026-04-09T13:56:47Z</time></trkpt><trkpt lat="44.81752326296814" lon="10.37164050737683"><ele>39.4</ele><time>2026-04-09T13:56:48Z</time></trkpt><trkpt lat="44.81745641498167" lon="10.371537946738702"><ele>39.2</ele><time>2026-04-09T13:56:49Z</time></trkpt><trkpt lat="44.817383485167625" lon="10.371433415824178"><ele>39.0</ele><time>2026-04-09T13:56:50Z</time></trkpt><trkpt lat="44.81730844888343" lon="10.371335708098844"><ele>39.0</ele><time>2026-04-09T13:56:51Z</time></trkpt><trkpt lat="44.81722842705323" lon="10.371233429229212"><ele>39.0</ele><time>2026-04-09T13:56:52Z</time></trkpt><trkpt lat="44.817142478688275" lon="10.371119710223804"><ele>39.0</ele><time>2026-04-09T13:56:53Z</time></trkpt><trkpt lat="44.817060264161306" lon="10.37100735443432"><ele>39.0</ele><time>2026-04-09T13:56:54Z</time></trkpt><trkpt lat="44.81698163420888" lon="10.370907983532728"><ele>39.0</ele><time>2026-04-09T13:56:55Z</time></trkpt><trkpt lat="44.81689946420373" lon="10.370805400771658"><ele>39.75</ele><time>2026-04-09T13:56:56Z</time></trkpt><trkpt lat="44.816811701998375" lon="10.37069026124613"><ele>40.5</ele><time>2026-04-09T13:56:57Z</time></trkpt><trkpt lat="44.816716929234545" lon="10.37056924076737"><ele>41.25</ele><time>2026-04-09T13:56:58Z</time></trkpt><trkpt lat="44.816608215547376" lon="10.370439135101995"><ele>42.0</ele><time>2026-04-09T13:56:59Z</time></trkpt><trkpt lat="44.816499712196496" lon="10.370264757551546"><ele>42.333333333333336</ele><time>2026-04-09T13:57:00Z</time></trkpt><trkpt lat="44.81638230782228" lon="10.370109771228531"><ele>42.66666666666667</ele><time>2026-04-09T13:57:01Z</time></trkpt><trkpt lat="44.81626403390266" lon="10.369953521623135"><ele>43.0</ele><time>2026-04-09T13:57:02Z</time></trkpt><trkpt lat="44.816139978399534" lon="10.369814194981792"><ele>43.333333333333336</ele><time>2026-04-09T13:57:03Z</time></trkpt><trkpt lat="44.81602479315003" lon="10.369652629399198"><ele>43.666666666666664</ele><time>2026-04-09T13:57:04Z</time></trkpt><trkpt lat="44.81591065123784" lon="10.369496436644146"><ele>44.0</ele><time>2026-04-09T13:57:05Z</time></trkpt><trkpt lat="44.8157941397115" lon="10.369345972566375"><ele>44.0</ele><time>2026-04-09T13:57:06Z</time></trkpt><trkpt lat="44.815678845916885" lon="10.369197095180667"><ele>44.0</ele><time>2026-04-09T13:57:07Z</time></trkpt><trkpt lat="44.81556405977685" lon="10.369046807031411"><ele>44.0</ele><time>2026-04-09T13:57:08Z</time></trkpt><trkpt lat="44.81544686757824" lon="10.368890354351233"><ele>44.33333333333333</ele><time>2026-04-09T13:57:08.999Z</time></trkpt><trkpt lat="44.81533041468753" lon="10.368737127930563"><ele>44.666666666666664</ele><time>2026-04-09T13:57:09.999Z</time></trkpt><trkpt lat="44.81521523485334" lon="10.368588788628697"><ele>45.0</ele><time>2026-04-09T13:57:10.999Z</time></trkpt><trkpt lat="44.81510349675784" lon="10.368448064654144"><ele>45.0</ele><time>2026-04-09T13:57:11.999Z</time></trkpt><trkpt lat="44.814992252074425" lon="10.36830349185417"><ele>45.0</ele><time>2026-04-09T13:57:12.999Z</time></trkpt><trkpt lat="44.81488842343228" lon="10.368167167958369"><ele>45.0</ele><time>2026-04-09T13:57:13.999Z</time></trkpt><trkpt lat="44.81478483538967" lon="10.368030462524093"><ele>45.0</ele><time>2026-04-09T13:57:14.999Z</time></trkpt><trkpt lat="44.814682835015056" lon="10.367894702930506"><ele>45.0</ele><time>2026-04-09T13:57:15.999Z</time></trkpt><trkpt lat="44.81458027505572" lon="10.367758498188314"><ele>45.0</ele><time>2026-04-09T13:57:16.999Z</time></trkpt><trkpt lat="44.814480856140825" lon="10.367621250249995"><ele>45.0</ele><time>2026-04-09T13:57:17.999Z</time></trkpt><trkpt lat="44.81438206708024" lon="10.367490057987203"><ele>45.0</ele><time>2026-04-09T13:57:18.999Z</time></trkpt><trkpt lat="44.81428127645816" lon="10.367369060869152"><ele>45.2</ele><time>2026-04-09T13:57:19.999Z</time></trkpt><trkpt lat="44.81420551702657" lon="10.367236406163961"><ele>45.4</ele><time>2026-04-09T13:57:20.999Z</time></trkpt><trkpt lat="44.81412918755912" lon="10.367135051776287"><ele>45.599999999999994</ele><time>2026-04-09T13:57:21.999Z</time></trkpt><trkpt lat="44.814059622448305" lon="10.367042679204273"><ele>45.8</ele><time>2026-04-09T13:57:22.999Z</time></trkpt><trkpt lat="44.813999717146835" lon="10.36696313378194"><ele>46.0</ele><time>2026-04-09T13:57:23.999Z</time></trkpt><trkpt lat="44.81395264170318" lon="10.366900970762934"><ele>46.0</ele><time>2026-04-09T13:57:24.999Z</time></trkpt><trkpt lat="44.81390194437951" lon="10.366834102682523"><ele>46.0</ele><time>2026-04-09T13:57:26.999Z</time></trkpt><trkpt lat="44.81381161937864" lon="10.366722370699595"><ele>46.0</ele><time>2026-04-09T13:57:32.999Z</time></trkpt><trkpt lat="44.813756412029726" lon="10.366651032900876"><ele>46.0</ele><time>2026-04-09T13:57:33.999Z</time></trkpt><trkpt lat="44.81368618996922" lon="10.36656297712071"><ele>46.0</ele><time>2026-04-09T13:57:35Z</time></trkpt><trkpt lat="44.8136014661154" lon="10.366454576518478"><ele>46.25</ele><time>2026-04-09T13:57:36Z</time></trkpt><trkpt lat="44.813509939888455" lon="10.366334076136065"><ele>46.5</ele><time>2026-04-09T13:57:37Z</time></trkpt><trkpt lat="44.8134106310716" lon="10.36620494869395"><ele>46.75</ele><time>2026-04-09T13:57:38Z</time></trkpt><trkpt lat="44.813302635323836" lon="10.366062602457445"><ele>47.0</ele><time>2026-04-09T13:57:39Z</time></trkpt><trkpt lat="44.813190976103016" lon="10.365914468831175"><ele>47.0</ele><time>2026-04-09T13:57:40Z</time></trkpt><trkpt lat="44.81308019902118" lon="10.365766765576408"><ele>47.0</ele><time>2026-04-09T13:57:41Z</time></trkpt><trkpt lat="44.812966369410724" lon="10.365618276855507"><ele>47.0</ele><time>2026-04-09T13:57:42Z</time></trkpt><trkpt lat="44.812849492081" lon="10.365466225870456"><ele>46.75</ele><time>2026-04-09T13:57:43Z</time></trkpt><trkpt lat="44.81273351289574" lon="10.36531250899804"><ele>46.5</ele><time>2026-04-09T13:57:44Z</time></trkpt><trkpt lat="44.81262792768228" lon="10.365174582707349"><ele>46.25</ele><time>2026-04-09T13:57:45Z</time></trkpt><trkpt lat="44.81253165219496" lon="10.365043662802002"><ele>46.0</ele><time>2026-04-09T13:57:46Z</time></trkpt><trkpt lat="44.812433936583666" lon="10.364913730874449"><ele>46.0</ele><time>2026-04-09T13:57:47Z</time></trkpt><trkpt lat="44.81232527926126" lon="10.3647733296959"><ele>46.0</ele><time>2026-04-09T13:57:48Z</time></trkpt><trkpt lat="44.81220920540476" lon="10.364622103013888"><ele>46.0</ele><time>2026-04-09T13:57:49Z</time></trkpt><trkpt lat="44.81208804794615" lon="10.364465262201412"><ele>46.0</ele><time>2026-04-09T13:57:50Z</time></trkpt><trkpt lat="44.81196515773831" lon="10.364303754554625"><ele>46.0</ele><time>2026-04-09T13:57:51Z</time></trkpt><trkpt lat="44.81184204059446" lon="10.364137434959401"><ele>46.0</ele><time>2026-04-09T13:57:52Z</time></trkpt><trkpt lat="44.81172010410461" lon="10.363968847895773"><ele>46.333333333333336</ele><time>2026-04-09T13:57:53Z</time></trkpt><trkpt lat="44.81159767891608" lon="10.363807253122985"><ele>46.666666666666664</ele><time>2026-04-09T13:57:54Z</time></trkpt><trkpt lat="44.81147495279456" lon="10.363652950306406"><ele>47.0</ele><time>2026-04-09T13:57:55Z</time></trkpt><trkpt lat="44.8113555793467" lon="10.36350294814638"><ele>47.0</ele><time>2026-04-09T13:57:56Z</time></trkpt><trkpt lat="44.81123821888349" lon="10.36335535744131"><ele>47.0</ele><time>2026-04-09T13:57:57Z</time></trkpt><trkpt lat="44.8111247292633" lon="10.363211634363374"><ele>47.0</ele><time>2026-04-09T13:57:58Z</time></trkpt><trkpt lat="44.811020818262165" lon="10.363076069483593"><ele>47.25</ele><time>2026-04-09T13:57:59Z</time></trkpt><trkpt lat="44.81092239772829" lon="10.362948942847149"><ele>47.5</ele><time>2026-04-09T13:58:00Z</time></trkpt><trkpt lat="44.81083660885551" lon="10.36283318836936"><ele>47.75</ele><time>2026-04-09T13:58:01Z</time></trkpt><trkpt lat="44.81076084695829" lon="10.362721372613063"><ele>48.0</ele><time>2026-04-09T13:58:02Z</time></trkpt><trkpt lat="44.810697281775525" lon="10.362611803320302"><ele>48.0</ele><time>2026-04-09T13:58:03Z</time></trkpt><trkpt lat="44.810659158405805" lon="10.36248430386828"><ele>48.0</ele><time>2026-04-09T13:58:04Z</time></trkpt><trkpt lat="44.81064718794753" lon="10.362340483801004"><ele>48.0</ele><time>2026-04-09T13:58:05Z</time></trkpt><trkpt lat="44.81064763013655" lon="10.362170239958225"><ele>48.0</ele><time>2026-04-09T13:58:06Z</time></trkpt><trkpt lat="44.8106435864279" lon="10.361994006296374"><ele>48.0</ele><time>2026-04-09T13:58:07Z</time></trkpt><trkpt lat="44.81064300521938" lon="10.361824027528629"><ele>47.5</ele><time>2026-04-09T13:58:08Z</time></trkpt><trkpt lat="44.81064814579504" lon="10.361648918819261"><ele>47.0</ele><time>2026-04-09T13:58:09Z</time></trkpt><trkpt lat="44.81065499762622" lon="10.361467758400345"><ele>46.5</ele><time>2026-04-09T13:58:10Z</time></trkpt><trkpt lat="44.81066300965077" lon="10.361283034656779"><ele>46.0</ele><time>2026-04-09T13:58:11Z</time></trkpt><trkpt lat="44.81066943002744" lon="10.361098826693974"><ele>46.0</ele><time>2026-04-09T13:58:12Z</time></trkpt><trkpt lat="44.810674776896626" lon="10.360921614029467"><ele>46.0</ele><time>2026-04-09T13:58:13Z</time></trkpt><trkpt lat="44.81067723208392" lon="10.360751962446376"><ele>46.0</ele><time>2026-04-09T13:58:14Z</time></trkpt><trkpt lat="44.81067965396904" lon="10.360577563976017"><ele>46.0</ele><time>2026-04-09T13:58:15Z</time></trkpt><trkpt lat="44.810685304074426" lon="10.360387783364589"><ele>45.75</ele><time>2026-04-09T13:58:16Z</time></trkpt><trkpt lat="44.81069544391988" lon="10.36018369077152"><ele>45.5</ele><time>2026-04-09T13:58:17Z</time></trkpt><trkpt lat="44.81070422679847" lon="10.35997311631383"><ele>45.25</ele><time>2026-04-09T13:58:18Z</time></trkpt><trkpt lat="44.81070431629951" lon="10.359766347932345"><ele>45.0</ele><time>2026-04-09T13:58:19Z</time></trkpt><trkpt lat="44.810702828972886" lon="10.359564964521992"><ele>45.0</ele><time>2026-04-09T13:58:20Z</time></trkpt><trkpt lat="44.810707437758836" lon="10.359368204157192"><ele>45.0</ele><time>2026-04-09T13:58:21Z</time></trkpt><trkpt lat="44.81071989782291" lon="10.35917806323549"><ele>45.0</ele><time>2026-04-09T13:58:22Z</time></trkpt><trkpt lat="44.81073556518762" lon="10.358990802668693"><ele>45.0</ele><time>2026-04-09T13:58:23Z</time></trkpt><trkpt lat="44.81075968954252" lon="10.358797473730107"><ele>45.25</ele><time>2026-04-09T13:58:24Z</time></trkpt><trkpt lat="44.81079432346289" lon="10.35861752084567"><ele>45.5</ele><time>2026-04-09T13:58:25Z</time></trkpt><trkpt lat="44.810830972859975" lon="10.358461561693476"><ele>45.75</ele><time>2026-04-09T13:58:26Z</time></trkpt><trkpt lat="44.81086275373656" lon="10.358318251425487"><ele>46.0</ele><time>2026-04-09T13:58:27Z</time></trkpt><trkpt lat="44.81089500679348" lon="10.358187006716914"><ele>46.0</ele><time>2026-04-09T13:58:28Z</time></trkpt><trkpt lat="44.8109351572814" lon="10.358069741539058"><ele>46.0</ele><time>2026-04-09T13:58:29Z</time></trkpt><trkpt lat="44.81099213633785" lon="10.357959251508685"><ele>46.0</ele><time>2026-04-09T13:58:30Z</time></trkpt><trkpt lat="44.8110763995606" lon="10.35786499410123"><ele>46.0</ele><time>2026-04-09T13:58:31Z</time></trkpt><trkpt lat="44.81117404497012" lon="10.357800693311836"><ele>46.0</ele><time>2026-04-09T13:58:32Z</time></trkpt><trkpt lat="44.811258995067476" lon="10.357737039780856"><ele>45.8</ele><time>2026-04-09T13:58:33Z</time></trkpt><trkpt lat="44.81132197696996" lon="10.357661043777794"><ele>45.599999999999994</ele><time>2026-04-09T13:58:34Z</time></trkpt><trkpt lat="44.811342446595994" lon="10.357532204647617"><ele>45.4</ele><time>2026-04-09T13:58:35Z</time></trkpt><trkpt lat="44.81132393251887" lon="10.357394257756617"><ele>45.2</ele><time>2026-04-09T13:58:36Z</time></trkpt><trkpt lat="44.8112714986296" lon="10.357270976674798"><ele>45.0</ele><time>2026-04-09T13:58:37Z</time></trkpt><trkpt lat="44.8111978711242" lon="10.357190516306224"><ele>45.0</ele><time>2026-04-09T13:58:38Z</time></trkpt><trkpt lat="44.81109748659896" lon="10.357169936357348"><ele>45.0</ele><time>2026-04-09T13:58:39Z</time></trkpt><trkpt lat="44.811003008611976" lon="10.357206472521773"><ele>45.0</ele><time>2026-04-09T13:58:40Z</time></trkpt><trkpt lat="44.810891864883985" lon="10.357198776982163"><ele>45.0</ele><time>2026-04-09T13:58:41Z</time></trkpt><trkpt lat="44.81077840211236" lon="10.35720059073944"><ele>45.0</ele><time>2026-04-09T13:58:42Z</time></trkpt><trkpt lat="44.81066095412333" lon="10.357150916832222"><ele>45.333333333333336</ele><time>2026-04-09T13:58:43Z</time></trkpt><trkpt lat="44.81053140941351" lon="10.357058946343505"><ele>45.66666666666667</ele><time>2026-04-09T13:58:44Z</time></trkpt><trkpt lat="44.810398081529016" lon="10.356946369948817"><ele>46.0</ele><time>2026-04-09T13:58:45Z</time></trkpt><trkpt lat="44.810258359423436" lon="10.356832164476494"><ele>46.0</ele><time>2026-04-09T13:58:46Z</time></trkpt><trkpt lat="44.810114595836104" lon="10.356721799749243"><ele>46.0</ele><time>2026-04-09T13:58:47Z</time></trkpt><trkpt lat="44.80996974337573" lon="10.3566126121266"><ele>46.0</ele><time>2026-04-09T13:58:48Z</time></trkpt><trkpt lat="44.809827779533336" lon="10.356503970939016"><ele>46.0</ele><time>2026-04-09T13:58:49Z</time></trkpt><trkpt lat="44.80968940836672" lon="10.356397876803817"><ele>46.0</ele><time>2026-04-09T13:58:50Z</time></trkpt><trkpt lat="44.809549081745594" lon="10.356287173725255"><ele>46.0</ele><time>2026-04-09T13:58:51Z</time></trkpt><trkpt lat="44.80942204479158" lon="10.356186208590154"><ele>46.66666666666667</ele><time>2026-04-09T13:58:52Z</time></trkpt><trkpt lat="44.809291314834404" lon="10.356079946043181"><ele>47.333333333333336</ele><time>2026-04-09T13:58:53Z</time></trkpt><trkpt lat="44.809157508805434" lon="10.355972415501805"><ele>48.0</ele><time>2026-04-09T13:58:54Z</time></trkpt><trkpt lat="44.80902884938061" lon="10.355869787213054"><ele>48.0</ele><time>2026-04-09T13:58:55Z</time></trkpt><trkpt lat="44.80890950382281" lon="10.35577467498319"><ele>48.0</ele><time>2026-04-09T13:58:56Z</time></trkpt><trkpt lat="44.80879015650953" lon="10.355679812283125"><ele>48.0</ele><time>2026-04-09T13:58:57Z</time></trkpt><trkpt lat="44.80867248323856" lon="10.35558319283707"><ele>48.0</ele><time>2026-04-09T13:58:58Z</time></trkpt><trkpt lat="44.80855476284873" lon="10.355485130032852"><ele>47.75</ele><time>2026-04-09T13:58:59Z</time></trkpt><trkpt lat="44.80843219073844" lon="10.355386594332431"><ele>47.5</ele><time>2026-04-09T13:59:00Z</time></trkpt><trkpt lat="44.808314130948865" lon="10.355297358942757"><ele>47.25</ele><time>2026-04-09T13:59:01.001Z</time></trkpt><trkpt lat="44.80819343091257" lon="10.355211724602908"><ele>47.0</ele><time>2026-04-09T13:59:02.001Z</time></trkpt><trkpt lat="44.808082061511165" lon="10.355127881288062"><ele>47.0</ele><time>2026-04-09T13:59:03.001Z</time></trkpt><trkpt lat="44.8079743925703" lon="10.355043192610232"><ele>47.0</ele><time>2026-04-09T13:59:04.001Z</time></trkpt><trkpt lat="44.807865798963086" lon="10.354957861485167"><ele>47.0</ele><time>2026-04-09T13:59:05.001Z</time></trkpt><trkpt lat="44.80775979605039" lon="10.354869386112936"><ele>47.0</ele><time>2026-04-09T13:59:06.001Z</time></trkpt><trkpt lat="44.80766711959065" lon="10.354769109215557"><ele>47.166666666666664</ele><time>2026-04-09T13:59:07.001Z</time></trkpt><trkpt lat="44.80759002339968" lon="10.354666322025118"><ele>47.33333333333333</ele><time>2026-04-09T13:59:08.001Z</time></trkpt><trkpt lat="44.80752343371866" lon="10.354567154171097"><ele>47.5</ele><time>2026-04-09T13:59:09.001Z</time></trkpt><trkpt lat="44.80747026503966" lon="10.354473344237993"><ele>47.666666666666664</ele><time>2026-04-09T13:59:10.001Z</time></trkpt><trkpt lat="44.807424433647405" lon="10.354380007358467"><ele>47.833333333333336</ele><time>2026-04-09T13:59:11.001Z</time></trkpt><trkpt lat="44.807384800126286" lon="10.354295227435689"><ele>48.0</ele><time>2026-04-09T13:59:12.001Z</time></trkpt><trkpt lat="44.80734173061559" lon="10.354199810293915"><ele>48.0</ele><time>2026-04-09T13:59:13.001Z</time></trkpt><trkpt lat="44.807304992171446" lon="10.354103767542234"><ele>48.0</ele><time>2026-04-09T13:59:14.001Z</time></trkpt><trkpt lat="44.80725610586416" lon="10.353987368808584"><ele>48.0</ele><time>2026-04-09T13:59:15.999Z</time></trkpt><trkpt lat="44.807231190615546" lon="10.35386837059698"><ele>48.0</ele><time>2026-04-09T13:59:23.999Z</time></trkpt><trkpt lat="44.80719744351124" lon="10.353752098626012"><ele>48.0</ele><time>2026-04-09T13:59:25.999Z</time></trkpt><trkpt lat="44.807162610077384" lon="10.35358088445418"><ele>48.0</ele><time>2026-04-09T13:59:27.999Z</time></trkpt><trkpt lat="44.807136008977906" lon="10.353463598086492"><ele>48.0</ele><time>2026-04-09T13:59:28.999Z</time></trkpt><trkpt lat="44.80714436803148" lon="10.35332278995569"><ele>48.0</ele><time>2026-04-09T13:59:29.999Z</time></trkpt><trkpt lat="44.807177579291654" lon="10.353178448477285"><ele>48.0</ele><time>2026-04-09T13:59:31Z</time></trkpt><trkpt lat="44.807154251644924" lon="10.353002388589584"><ele>48.0</ele><time>2026-04-09T13:59:32Z</time></trkpt><trkpt lat="44.80710081019901" lon="10.352841139294297"><ele>48.0</ele><time>2026-04-09T13:59:33Z</time></trkpt><trkpt lat="44.80705268573334" lon="10.352674510874941"><ele>48.0</ele><time>2026-04-09T13:59:34Z</time></trkpt><trkpt lat="44.807003572003005" lon="10.352522505766606"><ele>48.0</ele><time>2026-04-09T13:59:35Z</time></trkpt><trkpt lat="44.80695646561583" lon="10.352386171763687"><ele>48.0</ele><time>2026-04-09T13:59:36Z</time></trkpt><trkpt lat="44.80690877800115" lon="10.352269209915788"><ele>48.0</ele><time>2026-04-09T13:59:37Z</time></trkpt><trkpt lat="44.80685819554806" lon="10.352158875734057"><ele>48.2</ele><time>2026-04-09T13:59:38Z</time></trkpt><trkpt lat="44.806780346158504" lon="10.352079338329983"><ele>48.4</ele><time>2026-04-09T13:59:39Z</time></trkpt><trkpt lat="44.80669497803319" lon="10.352011846136582"><ele>48.6</ele><time>2026-04-09T13:59:40Z</time></trkpt><trkpt lat="44.80659882896754" lon="10.351954845160098"><ele>48.800000000000004</ele><time>2026-04-09T13:59:41Z</time></trkpt><trkpt lat="44.80649921711384" lon="10.351901340303337"><ele>49.0</ele><time>2026-04-09T13:59:42Z</time></trkpt><trkpt lat="44.80638777614345" lon="10.351851359316376"><ele>49.0</ele><time>2026-04-09T13:59:43Z</time></trkpt><trkpt lat="44.806264148818286" lon="10.351806386291221"><ele>49.0</ele><time>2026-04-09T13:59:44Z</time></trkpt><trkpt lat="44.80612644367961" lon="10.351783905797983"><ele>49.0</ele><time>2026-04-09T13:59:45Z</time></trkpt><trkpt lat="44.80598424815563" lon="10.351778142330893"><ele>49.0</ele><time>2026-04-09T13:59:46Z</time></trkpt><trkpt lat="44.80583551864674" lon="10.351772704868905"><ele>49.33333333333333</ele><time>2026-04-09T13:59:47Z</time></trkpt><trkpt lat="44.80568131363298" lon="10.35174694694558"><ele>49.66666666666667</ele><time>2026-04-09T13:59:48Z</time></trkpt><trkpt lat="44.805532644415976" lon="10.35171490893062"><ele>50.0</ele><time>2026-04-09T13:59:49Z</time></trkpt><trkpt lat="44.80537888505239" lon="10.351687819475393"><ele>50.0</ele><time>2026-04-09T13:59:50Z</time></trkpt><trkpt lat="44.805216381442044" lon="10.351651532500018"><ele>50.0</ele><time>2026-04-09T13:59:51Z</time></trkpt><trkpt lat="44.80505971825172" lon="10.351602876724428"><ele>50.0</ele><time>2026-04-09T13:59:52Z</time></trkpt><trkpt lat="44.80491641572446" lon="10.351563003331705"><ele>49.25</ele><time>2026-04-09T13:59:53Z</time></trkpt><trkpt lat="44.80477740311527" lon="10.351532238781232"><ele>48.5</ele><time>2026-04-09T13:59:54Z</time></trkpt><trkpt lat="44.80462872026005" lon="10.351502671073801"><ele>47.75</ele><time>2026-04-09T13:59:55Z</time></trkpt><trkpt lat="44.804489847468375" lon="10.351480550913603"><ele>47.0</ele><time>2026-04-09T13:59:56Z</time></trkpt><trkpt lat="44.8043657815658" lon="10.351487496632444"><ele>47.2</ele><time>2026-04-09T13:59:57Z</time></trkpt><trkpt lat="44.80425706546712" lon="10.351514332267294"><ele>47.400000000000006</ele><time>2026-04-09T13:59:58Z</time></trkpt><trkpt lat="44.80416077549769" lon="10.351553327637589"><ele>47.599999999999994</ele><time>2026-04-09T13:59:59Z</time></trkpt><trkpt lat="44.804075631531376" lon="10.351594756331918"><ele>47.8</ele><time>2026-04-09T14:00:00Z</time></trkpt><trkpt lat="44.804001939504" lon="10.351631883205918"><ele>48.0</ele><time>2026-04-09T14:00:01Z</time></trkpt><trkpt lat="44.80393319614353" lon="10.351664884261378"><ele>48.0</ele><time>2026-04-09T14:00:02Z</time></trkpt><trkpt lat="44.80386637262351" lon="10.351678205391307"><ele>48.0</ele><time>2026-04-09T14:00:03Z</time></trkpt><trkpt lat="44.80379074326687" lon="10.351663064171298"><ele>48.0</ele><time>2026-04-09T14:00:05Z</time></trkpt><trkpt lat="44.803727215116254" lon="10.351644305570675"><ele>48.0</ele><time>2026-04-09T14:00:07Z</time></trkpt><trkpt lat="44.80361881431396" lon="10.351571572538317"><ele>48.0</ele><time>2026-04-09T14:00:09Z</time></trkpt><trkpt lat="44.803552414750264" lon="10.351519786103992"><ele>48.0</ele><time>2026-04-09T14:00:10Z</time></trkpt><trkpt lat="44.803471321314746" lon="10.351458862151443"><ele>48.0</ele><time>2026-04-09T14:00:11Z</time></trkpt><trkpt lat="44.803386567186365" lon="10.351397588999742"><ele>48.0</ele><time>2026-04-09T14:00:12Z</time></trkpt><trkpt lat="44.80329399642359" lon="10.35132907840766"><ele>48.0</ele><time>2026-04-09T14:00:13Z</time></trkpt><trkpt lat="44.80319255479451" lon="10.351260292706993"><ele>48.0</ele><time>2026-04-09T14:00:14Z</time></trkpt><trkpt lat="44.80309237186055" lon="10.351199765156373"><ele>48.0</ele><time>2026-04-09T14:00:15Z</time></trkpt><trkpt lat="44.802970445327155" lon="10.351133593915073"><ele>48.0</ele><time>2026-04-09T14:00:16Z</time></trkpt><trkpt lat="44.80282325909561" lon="10.351024186436236"><ele>48.0</ele><time>2026-04-09T14:00:17Z</time></trkpt><trkpt lat="44.802663739076365" lon="10.350928131464826"><ele>48.0</ele><time>2026-04-09T14:00:18Z</time></trkpt><trkpt lat="44.80250317254827" lon="10.3508335350254"><ele>48.5</ele><time>2026-04-09T14:00:19Z</time></trkpt><trkpt lat="44.802345255099944" lon="10.350760288071541"><ele>49.0</ele><time>2026-04-09T14:00:20Z</time></trkpt><trkpt lat="44.802214846707365" lon="10.350681596710215"><ele>49.5</ele><time>2026-04-09T14:00:21Z</time></trkpt><trkpt lat="44.8020891230586" lon="10.350610239155252"><ele>50.0</ele><time>2026-04-09T14:00:22Z</time></trkpt><trkpt lat="44.80197196538898" lon="10.3505408199082"><ele>50.25</ele><time>2026-04-09T14:00:23Z</time></trkpt><trkpt lat="44.8018481241494" lon="10.350468686312254"><ele>50.5</ele><time>2026-04-09T14:00:24Z</time></trkpt><trkpt lat="44.80172076590834" lon="10.350394736707727"><ele>50.75</ele><time>2026-04-09T14:00:25Z</time></trkpt><trkpt lat="44.801599614163734" lon="10.350325220514307"><ele>51.0</ele><time>2026-04-09T14:00:26Z</time></trkpt><trkpt lat="44.801486790726976" lon="10.350257742733932"><ele>50.5</ele><time>2026-04-09T14:00:27Z</time></trkpt><trkpt lat="44.80138504277303" lon="10.350169212257056"><ele>50.0</ele><time>2026-04-09T14:00:28Z</time></trkpt><trkpt lat="44.8012679024992" lon="10.35011961393669"><ele>49.5</ele><time>2026-04-09T14:00:29Z</time></trkpt><trkpt lat="44.801158631261465" lon="10.350036178796238"><ele>49.0</ele><time>2026-04-09T14:00:30Z</time></trkpt><trkpt lat="44.8010551071028" lon="10.349949327003209"><ele>49.0</ele><time>2026-04-09T14:00:31Z</time></trkpt><trkpt lat="44.80097251622546" lon="10.349847931407165"><ele>49.0</ele><time>2026-04-09T14:00:32Z</time></trkpt><trkpt lat="44.80088843210522" lon="10.349764904309453"><ele>49.0</ele><time>2026-04-09T14:00:33Z</time></trkpt><trkpt lat="44.800796853891015" lon="10.349687860623234"><ele>49.0</ele><time>2026-04-09T14:00:34Z</time></trkpt><trkpt lat="44.800720775765846" lon="10.349600727719382"><ele>49.0</ele><time>2026-04-09T14:00:35Z</time></trkpt><trkpt lat="44.800652530923635" lon="10.34952290058013"><ele>49.0</ele><time>2026-04-09T14:00:36Z</time></trkpt><trkpt lat="44.80059124548567" lon="10.349449689850685"><ele>49.0</ele><time>2026-04-09T14:00:37Z</time></trkpt><trkpt lat="44.80053200817129" lon="10.34938080755169"><ele>49.0</ele><time>2026-04-09T14:00:38Z</time></trkpt><trkpt lat="44.800451290205174" lon="10.349286713797534"><ele>49.0</ele><time>2026-04-09T14:00:40Z</time></trkpt><trkpt lat="44.800396863546176" lon="10.349153795721003"><ele>49.0</ele><time>2026-04-09T14:00:42Z</time></trkpt><trkpt lat="44.80041491189642" lon="10.34899492424757"><ele>49.2</ele><time>2026-04-09T14:00:44Z</time></trkpt><trkpt lat="44.80041883855342" lon="10.34881460386287"><ele>49.400000000000006</ele><time>2026-04-09T14:00:46Z</time></trkpt><trkpt lat="44.80038024785188" lon="10.348720208609492"><ele>49.6</ele><time>2026-04-09T14:00:47Z</time></trkpt><trkpt lat="44.80031207601983" lon="10.348672771646477"><ele>49.8</ele><time>2026-04-09T14:00:48Z</time></trkpt><trkpt lat="44.800200173389285" lon="10.348683224070744"><ele>50.0</ele><time>2026-04-09T14:00:50.001Z</time></trkpt><trkpt lat="44.80016169462633" lon="10.348579222694417"><ele>50.0</ele><time>2026-04-09T14:00:51.001Z</time></trkpt><trkpt lat="44.800047407020635" lon="10.348612781107143"><ele>50.0</ele><time>2026-04-09T14:00:53.001Z</time></trkpt><trkpt lat="44.79993323452736" lon="10.348603731047216"><ele>50.0</ele><time>2026-04-09T14:00:55.001Z</time></trkpt><trkpt lat="44.799816452023435" lon="10.348527715257077"><ele>50.0</ele><time>2026-04-09T14:00:57.001Z</time></trkpt><trkpt lat="44.79975956444874" lon="10.348410477174975"><ele>50.0</ele><time>2026-04-09T14:00:58.001Z</time></trkpt><trkpt lat="44.79967653260596" lon="10.348301282565188"><ele>50.0</ele><time>2026-04-09T14:00:59.001Z</time></trkpt><trkpt lat="44.799588588946705" lon="10.348211283474749"><ele>50.0</ele><time>2026-04-09T14:01:00.001Z</time></trkpt><trkpt lat="44.79950220727347" lon="10.34810437045595"><ele>50.0</ele><time>2026-04-09T14:01:01.001Z</time></trkpt><trkpt lat="44.79939419971476" lon="10.347980803619418"><ele>50.75</ele><time>2026-04-09T14:01:02.001Z</time></trkpt><trkpt lat="44.79928237231234" lon="10.347841728975613"><ele>51.5</ele><time>2026-04-09T14:01:03.001Z</time></trkpt><trkpt lat="44.799191655230075" lon="10.34770700106929"><ele>52.25</ele><time>2026-04-09T14:01:04.001Z</time></trkpt><trkpt lat="44.79910850673976" lon="10.347579337879008"><ele>53.0</ele><time>2026-04-09T14:01:05.001Z</time></trkpt><trkpt lat="44.799021237057154" lon="10.347470233754416"><ele>53.0</ele><time>2026-04-09T14:01:06.001Z</time></trkpt><trkpt lat="44.79893113927316" lon="10.347368943606513"><ele>53.0</ele><time>2026-04-09T14:01:07.001Z</time></trkpt><trkpt lat="44.79884770607924" lon="10.347232511248928"><ele>53.0</ele><time>2026-04-09T14:01:08.001Z</time></trkpt><trkpt lat="44.7987356210788" lon="10.34708754961479"><ele>53.0</ele><time>2026-04-09T14:01:09.001Z</time></trkpt><trkpt lat="44.798618047204414" lon="10.346934107126037"><ele>52.5</ele><time>2026-04-09T14:01:10.001Z</time></trkpt><trkpt lat="44.79850458995394" lon="10.34680826055205"><ele>52.0</ele><time>2026-04-09T14:01:11.001Z</time></trkpt><trkpt lat="44.79840961010016" lon="10.346675367668805"><ele>51.5</ele><time>2026-04-09T14:01:12.001Z</time></trkpt><trkpt lat="44.79831139043444" lon="10.346547298886117"><ele>51.0</ele><time>2026-04-09T14:01:13.001Z</time></trkpt><trkpt lat="44.79821287541374" lon="10.346420647437474"><ele>50.75</ele><time>2026-04-09T14:01:14.001Z</time></trkpt><trkpt lat="44.798120515436906" lon="10.346298211741555"><ele>50.5</ele><time>2026-04-09T14:01:15.001Z</time></trkpt><trkpt lat="44.798030661970394" lon="10.346184101852591"><ele>50.25</ele><time>2026-04-09T14:01:16.001Z</time></trkpt><trkpt lat="44.797947648195134" lon="10.346079834024199"><ele>50.0</ele><time>2026-04-09T14:01:17.001Z</time></trkpt><trkpt lat="44.79786793304605" lon="10.345977377742626"><ele>50.0</ele><time>2026-04-09T14:01:18.001Z</time></trkpt><trkpt lat="44.797789631763386" lon="10.345873531260436"><ele>50.0</ele><time>2026-04-09T14:01:19.001Z</time></trkpt><trkpt lat="44.79771266299052" lon="10.345768109911841"><ele>50.0</ele><time>2026-04-09T14:01:20.001Z</time></trkpt><trkpt lat="44.797636720112614" lon="10.345667372978497"><ele>50.0</ele><time>2026-04-09T14:01:20.999Z</time></trkpt><trkpt lat="44.79755591434645" lon="10.345567169270048"><ele>50.0</ele><time>2026-04-09T14:01:21.999Z</time></trkpt><trkpt lat="44.797466287082145" lon="10.345459074665875"><ele>50.833333333333336</ele><time>2026-04-09T14:01:22.999Z</time></trkpt><trkpt lat="44.79738509452845" lon="10.345347783787128"><ele>51.66666666666667</ele><time>2026-04-09T14:01:23.999Z</time></trkpt><trkpt lat="44.797315215289224" lon="10.345255774014273"><ele>52.5</ele><time>2026-04-09T14:01:24.999Z</time></trkpt><trkpt lat="44.79725212574681" lon="10.345175889392925"><ele>53.33333333333333</ele><time>2026-04-09T14:01:25.999Z</time></trkpt><trkpt lat="44.7971993477506" lon="10.345105425389082"><ele>54.166666666666664</ele><time>2026-04-09T14:01:26.999Z</time></trkpt><trkpt lat="44.797153127474324" lon="10.345044395800436"><ele>55.0</ele><time>2026-04-09T14:01:27.999Z</time></trkpt><trkpt lat="44.79708429661711" lon="10.344943746007392"><ele>54.99999999999999</ele><time>2026-04-09T14:01:29.999Z</time></trkpt><trkpt lat="44.79706349955404" lon="10.344822794337608"><ele>55.0</ele><time>2026-04-09T14:01:31.999Z</time></trkpt><trkpt lat="44.79706690722811" lon="10.3447055045365"><ele>55.0</ele><time>2026-04-09T14:01:32.999Z</time></trkpt><trkpt lat="44.797102155115056" lon="10.344569664152921"><ele>55.0</ele><time>2026-04-09T14:01:33.999Z</time></trkpt><trkpt lat="44.79713208370953" lon="10.34444167931569"><ele>54.99999999999999</ele><time>2026-04-09T14:01:34.999Z</time></trkpt><trkpt lat="44.797144941667376" lon="10.344339175592095"><ele>55.0</ele><time>2026-04-09T14:01:35.999Z</time></trkpt><trkpt lat="44.79713915737712" lon="10.344237661521769"><ele>55.166666666666664</ele><time>2026-04-09T14:01:36.999Z</time></trkpt><trkpt lat="44.79704827917882" lon="10.344110798059779"><ele>55.33333333333333</ele><time>2026-04-09T14:01:38.999Z</time></trkpt><trkpt lat="44.79698119074638" lon="10.344074996651608"><ele>55.5</ele><time>2026-04-09T14:01:39.999Z</time></trkpt><trkpt lat="44.796925792616996" lon="10.344014464728494"><ele>55.66666666666667</ele><time>2026-04-09T14:01:40.999Z</time></trkpt><trkpt lat="44.79689223892737" lon="10.343922589371934"><ele>55.833333333333336</ele><time>2026-04-09T14:01:41.999Z</time></trkpt><trkpt lat="44.796875241242546" lon="10.343836901099381"><ele>56.0</ele><time>2026-04-09T14:01:42.999Z</time></trkpt><trkpt lat="44.796854731617685" lon="10.343724818164205"><ele>56.75</ele><time>2026-04-09T14:01:43.999Z</time></trkpt><trkpt lat="44.796835432911514" lon="10.34357136884744"><ele>57.5</ele><time>2026-04-09T14:01:44.999Z</time></trkpt><trkpt lat="44.79682404454137" lon="10.343403536428449"><ele>58.25</ele><time>2026-04-09T14:01:45.999Z</time></trkpt><trkpt lat="44.796812455959405" lon="10.343245622878658"><ele>59.0</ele><time>2026-04-09T14:01:46.999Z</time></trkpt><trkpt lat="44.796796506671384" lon="10.343068469545015"><ele>59.2</ele><time>2026-04-09T14:01:47.999Z</time></trkpt><trkpt lat="44.796774326816994" lon="10.342906307391937"><ele>59.400000000000006</ele><time>2026-04-09T14:01:49Z</time></trkpt><trkpt lat="44.79675559613606" lon="10.342765636740815"><ele>59.6</ele><time>2026-04-09T14:01:50Z</time></trkpt><trkpt lat="44.79674306221359" lon="10.34262736587473"><ele>59.8</ele><time>2026-04-09T14:01:51Z</time></trkpt><trkpt lat="44.796747880336554" lon="10.34251620218168"><ele>60.0</ele><time>2026-04-09T14:01:52Z</time></trkpt><trkpt lat="44.79677016828147" lon="10.342432948194453"><ele>60.0</ele><time>2026-04-09T14:01:53Z</time></trkpt><trkpt lat="44.79681896119031" lon="10.34229367074728"><ele>60.0</ele><time>2026-04-09T14:01:55Z</time></trkpt><trkpt lat="44.796790488966856" lon="10.342147498486263"><ele>60.0</ele><time>2026-04-09T14:01:57Z</time></trkpt><trkpt lat="44.796741426975395" lon="10.342066686064232"><ele>60.0</ele><time>2026-04-09T14:01:58Z</time></trkpt><trkpt lat="44.796688671807374" lon="10.341949087372987"><ele>60.0</ele><time>2026-04-09T14:01:59Z</time></trkpt><trkpt lat="44.796651642657956" lon="10.341788602047329"><ele>59.66666666666667</ele><time>2026-04-09T14:02:00Z</time></trkpt><trkpt lat="44.796625302302495" lon="10.341586885182114"><ele>59.333333333333336</ele><time>2026-04-09T14:02:01Z</time></trkpt><trkpt lat="44.79660538193225" lon="10.34136588761915"><ele>59.0</ele><time>2026-04-09T14:02:02Z</time></trkpt><trkpt lat="44.796577315748145" lon="10.341124469313034"><ele>59.0</ele><time>2026-04-09T14:02:03Z</time></trkpt><trkpt lat="44.796549280708696" lon="10.340878815515744"><ele>59.0</ele><time>2026-04-09T14:02:04Z</time></trkpt><trkpt lat="44.79652564391618" lon="10.340642768939194"><ele>59.0</ele><time>2026-04-09T14:02:05Z</time></trkpt><trkpt lat="44.7965078182521" lon="10.340444015420713"><ele>59.0</ele><time>2026-04-09T14:02:06Z</time></trkpt><trkpt lat="44.79648499851693" lon="10.340233559132553"><ele>59.0</ele><time>2026-04-09T14:02:07Z</time></trkpt><trkpt lat="44.79646382599819" lon="10.34001795935104"><ele>59.0</ele><time>2026-04-09T14:02:08Z</time></trkpt><trkpt lat="44.79644207261118" lon="10.339766521654441"><ele>60.0</ele><time>2026-04-09T14:02:09Z</time></trkpt><trkpt lat="44.796416476503836" lon="10.339503894014811"><ele>61.0</ele><time>2026-04-09T14:02:10Z</time></trkpt><trkpt lat="44.796387055863754" lon="10.339225915219437"><ele>62.0</ele><time>2026-04-09T14:02:11Z</time></trkpt><trkpt lat="44.79635230635825" lon="10.338961160479956"><ele>62.0</ele><time>2026-04-09T14:02:12Z</time></trkpt><trkpt lat="44.79632195677568" lon="10.3387089290171"><ele>62.0</ele><time>2026-04-09T14:02:13Z</time></trkpt><trkpt lat="44.796297468495915" lon="10.338475704478816"><ele>62.0</ele><time>2026-04-09T14:02:14Z</time></trkpt><trkpt lat="44.79627554954436" lon="10.338243392338446"><ele>62.0</ele><time>2026-04-09T14:02:15Z</time></trkpt><trkpt lat="44.79625260903326" lon="10.33802532608386"><ele>62.0</ele><time>2026-04-09T14:02:16Z</time></trkpt><trkpt lat="44.79623049649717" lon="10.337810019698582"><ele>62.0</ele><time>2026-04-09T14:02:17Z</time></trkpt><trkpt lat="44.79620767962574" lon="10.337593315381422"><ele>62.0</ele><time>2026-04-09T14:02:18Z</time></trkpt><trkpt lat="44.79618626961693" lon="10.33739328548771"><ele>62.0</ele><time>2026-04-09T14:02:19Z</time></trkpt><trkpt lat="44.79615612553833" lon="10.337203859406896"><ele>62.0</ele><time>2026-04-09T14:02:20Z</time></trkpt><trkpt lat="44.79613470932314" lon="10.337030340780794"><ele>62.0</ele><time>2026-04-09T14:02:21Z</time></trkpt><trkpt lat="44.79612135613595" lon="10.336873345215245"><ele>62.00000000000001</ele><time>2026-04-09T14:02:22Z</time></trkpt><trkpt lat="44.79610360915928" lon="10.336733230013811"><ele>62.0</ele><time>2026-04-09T14:02:23Z</time></trkpt><trkpt lat="44.79608841205427" lon="10.33661345473366"><ele>62.0</ele><time>2026-04-09T14:02:24Z</time></trkpt><trkpt lat="44.796072649980076" lon="10.336497381490972"><ele>62.0</ele><time>2026-04-09T14:02:25Z</time></trkpt><trkpt lat="44.796064278747075" lon="10.336393821195797"><ele>62.00000000000001</ele><time>2026-04-09T14:02:26Z</time></trkpt><trkpt lat="44.79605702710372" lon="10.336265055069376"><ele>62.0</ele><time>2026-04-09T14:02:28Z</time></trkpt><trkpt lat="44.796079054032695" lon="10.336137089443989"><ele>62.00000000000001</ele><time>2026-04-09T14:02:36Z</time></trkpt><trkpt lat="44.7961123751976" lon="10.33603940241771"><ele>62.0</ele><time>2026-04-09T14:02:37Z</time></trkpt><trkpt lat="44.796141591424075" lon="10.3359286148783"><ele>62.0</ele><time>2026-04-09T14:02:38Z</time></trkpt><trkpt lat="44.796144534917474" lon="10.335795872881617"><ele>62.0</ele><time>2026-04-09T14:02:39Z</time></trkpt><trkpt lat="44.79612629894196" lon="10.335658598286642"><ele>62.00000000000001</ele><time>2026-04-09T14:02:40Z</time></trkpt><trkpt lat="44.796093521028595" lon="10.33553949378302"><ele>62.0</ele><time>2026-04-09T14:02:41Z</time></trkpt><trkpt lat="44.79605462589068" lon="10.335442427809395"><ele>61.833333333333336</ele><time>2026-04-09T14:02:42Z</time></trkpt><trkpt lat="44.79600488544002" lon="10.335354663536409"><ele>61.66666666666667</ele><time>2026-04-09T14:02:43Z</time></trkpt><trkpt lat="44.79597202920073" lon="10.335267517546303"><ele>61.5</ele><time>2026-04-09T14:02:44Z</time></trkpt><trkpt lat="44.79593482313905" lon="10.335111797149048"><ele>61.33333333333333</ele><time>2026-04-09T14:02:46Z</time></trkpt><trkpt lat="44.79591697370099" lon="10.335022484699127"><ele>61.166666666666664</ele><time>2026-04-09T14:02:48Z</time></trkpt><trkpt lat="44.79590500092326" lon="10.33490938686483"><ele>61.0</ele><time>2026-04-09T14:02:52Z</time></trkpt><trkpt lat="44.795891193168835" lon="10.334739793291583"><ele>61.666666666666664</ele><time>2026-04-09T14:02:54Z</time></trkpt><trkpt lat="44.79588094480364" lon="10.33463861471154"><ele>62.33333333333333</ele><time>2026-04-09T14:02:55Z</time></trkpt><trkpt lat="44.79586956478474" lon="10.334522647029546"><ele>63.0</ele><time>2026-04-09T14:02:56Z</time></trkpt><trkpt lat="44.795858461140085" lon="10.334396574288144"><ele>63.66666666666667</ele><time>2026-04-09T14:02:57Z</time></trkpt><trkpt lat="44.79584259442575" lon="10.334261117915228"><ele>64.33333333333334</ele><time>2026-04-09T14:02:58Z</time></trkpt><trkpt lat="44.79582605717712" lon="10.334122463237886"><ele>65.0</ele><time>2026-04-09T14:02:59Z</time></trkpt><trkpt lat="44.79581092407999" lon="10.333974767975779"><ele>64.25</ele><time>2026-04-09T14:03:00Z</time></trkpt><trkpt lat="44.79579528253071" lon="10.333804481853711"><ele>63.5</ele><time>2026-04-09T14:03:01Z</time></trkpt><trkpt lat="44.79577385759204" lon="10.333626749473359"><ele>62.75</ele><time>2026-04-09T14:03:02Z</time></trkpt><trkpt lat="44.79575205010284" lon="10.333449711244613"><ele>62.0</ele><time>2026-04-09T14:03:03Z</time></trkpt><trkpt lat="44.795733566070325" lon="10.333281330535735"><ele>62.0</ele><time>2026-04-09T14:03:04Z</time></trkpt><trkpt lat="44.79571530848304" lon="10.33310729964244"><ele>62.0</ele><time>2026-04-09T14:03:05.001Z</time></trkpt><trkpt lat="44.795696204022676" lon="10.332926340374371"><ele>62.0</ele><time>2026-04-09T14:03:06.001Z</time></trkpt><trkpt lat="44.795677085382366" lon="10.332749101495706"><ele>62.0</ele><time>2026-04-09T14:03:07.001Z</time></trkpt><trkpt lat="44.795659314837316" lon="10.33258298916397"><ele>62.0</ele><time>2026-04-09T14:03:08.001Z</time></trkpt><trkpt lat="44.79564118377178" lon="10.332416906822731"><ele>62.0</ele><time>2026-04-09T14:03:09.001Z</time></trkpt><trkpt lat="44.79562431448188" lon="10.33225152883638"><ele>62.0</ele><time>2026-04-09T14:03:10.001Z</time></trkpt><trkpt lat="44.79560631718837" lon="10.332091397742099"><ele>62.0</ele><time>2026-04-09T14:03:11.001Z</time></trkpt><trkpt lat="44.79558889937594" lon="10.331936602623417"><ele>62.2</ele><time>2026-04-09T14:03:12.001Z</time></trkpt><trkpt lat="44.795571671384394" lon="10.33178145057071"><ele>62.400000000000006</ele><time>2026-04-09T14:03:13.001Z</time></trkpt><trkpt lat="44.79555702397102" lon="10.331638268564996"><ele>62.599999999999994</ele><time>2026-04-09T14:03:14.001Z</time></trkpt><trkpt lat="44.79554207434785" lon="10.331507839667603"><ele>62.8</ele><time>2026-04-09T14:03:15.001Z</time></trkpt><trkpt lat="44.795530726708286" lon="10.33138679570661"><ele>63.0</ele><time>2026-04-09T14:03:16.001Z</time></trkpt><trkpt lat="44.795520491220465" lon="10.331279530655522"><ele>63.2</ele><time>2026-04-09T14:03:17.001Z</time></trkpt><trkpt lat="44.795511736689114" lon="10.331187344149669"><ele>63.4</ele><time>2026-04-09T14:03:18.001Z</time></trkpt><trkpt lat="44.79549843412956" lon="10.33105621863331"><ele>63.60000000000001</ele><time>2026-04-09T14:03:20.001Z</time></trkpt><trkpt lat="44.79549473672432" lon="10.330954806693056"><ele>63.800000000000004</ele><time>2026-04-09T14:03:23.001Z</time></trkpt><trkpt lat="44.795485674219826" lon="10.330840510289214"><ele>64.0</ele><time>2026-04-09T14:03:26.999Z</time></trkpt><trkpt lat="44.795458252458374" lon="10.330628064384713"><ele>64.5</ele><time>2026-04-09T14:03:34.999Z</time></trkpt><trkpt lat="44.795440936479054" lon="10.330484276110687"><ele>65.0</ele><time>2026-04-09T14:03:35.999Z</time></trkpt><trkpt lat="44.79542134619604" lon="10.330307228112224"><ele>65.5</ele><time>2026-04-09T14:03:36.999Z</time></trkpt><trkpt lat="44.79539952026412" lon="10.330103108225593"><ele>66.0</ele><time>2026-04-09T14:03:37.999Z</time></trkpt><trkpt lat="44.795374230309136" lon="10.329881350586644"><ele>66.66666666666667</ele><time>2026-04-09T14:03:38.999Z</time></trkpt><trkpt lat="44.79534863638513" lon="10.329647868817782"><ele>67.33333333333334</ele><time>2026-04-09T14:03:39.999Z</time></trkpt><trkpt lat="44.7953220346909" lon="10.329403192507455"><ele>68.0</ele><time>2026-04-09T14:03:40.999Z</time></trkpt><trkpt lat="44.79529592943196" lon="10.329165224911105"><ele>68.0</ele><time>2026-04-09T14:03:41.999Z</time></trkpt><trkpt lat="44.79527117037126" lon="10.328923367869445"><ele>68.0</ele><time>2026-04-09T14:03:42.999Z</time></trkpt><trkpt lat="44.79524850911264" lon="10.328688973390662"><ele>68.0</ele><time>2026-04-09T14:03:43.999Z</time></trkpt><trkpt lat="44.79522434335759" lon="10.328464384644306"><ele>68.0</ele><time>2026-04-09T14:03:44.999Z</time></trkpt><trkpt lat="44.795203029087205" lon="10.328256004700275"><ele>68.0</ele><time>2026-04-09T14:03:45.999Z</time></trkpt><trkpt lat="44.795183146660875" lon="10.328053228076268"><ele>68.0</ele><time>2026-04-09T14:03:46.999Z</time></trkpt><trkpt lat="44.7951675282637" lon="10.327861126986535"><ele>68.0</ele><time>2026-04-09T14:03:47.999Z</time></trkpt><trkpt lat="44.795150270875205" lon="10.327687630270834"><ele>68.0</ele><time>2026-04-09T14:03:48.999Z</time></trkpt><trkpt lat="44.795125360613326" lon="10.32752678721836"><ele>68.0</ele><time>2026-04-09T14:03:49.999Z</time></trkpt><trkpt lat="44.79509841941775" lon="10.327371248188943"><ele>68.0</ele><time>2026-04-09T14:03:50.999Z</time></trkpt><trkpt lat="44.79507573182165" lon="10.327201243112988"><ele>68.0</ele><time>2026-04-09T14:03:51.999Z</time></trkpt><trkpt lat="44.795060402831425" lon="10.327012940102817"><ele>68.0</ele><time>2026-04-09T14:03:52.999Z</time></trkpt><trkpt lat="44.79504091118287" lon="10.32682706813814"><ele>68.0</ele><time>2026-04-09T14:03:53.999Z</time></trkpt><trkpt lat="44.795020604887874" lon="10.326662897737974"><ele>68.0</ele><time>2026-04-09T14:03:54.999Z</time></trkpt><trkpt lat="44.79500368820306" lon="10.326513525933404"><ele>68.0</ele><time>2026-04-09T14:03:55.999Z</time></trkpt><trkpt lat="44.79498750156696" lon="10.32635927346725"><ele>68.0</ele><time>2026-04-09T14:03:56.999Z</time></trkpt><trkpt lat="44.79497356898392" lon="10.32620394907914"><ele>68.0</ele><time>2026-04-09T14:03:57.999Z</time></trkpt><trkpt lat="44.79495645241009" lon="10.32604656479382"><ele>68.0</ele><time>2026-04-09T14:03:58.999Z</time></trkpt><trkpt lat="44.794937436596996" lon="10.32588595447037"><ele>68.0</ele><time>2026-04-09T14:03:59.999Z</time></trkpt><trkpt lat="44.794917312749845" lon="10.325746614817692"><ele>68.0</ele><time>2026-04-09T14:04:00.999Z</time></trkpt><trkpt lat="44.79489362145772" lon="10.325624393582904"><ele>67.83333333333334</ele><time>2026-04-09T14:04:01.999Z</time></trkpt><trkpt lat="44.79489197419747" lon="10.32550894563279"><ele>67.66666666666667</ele><time>2026-04-09T14:04:02.999Z</time></trkpt><trkpt lat="44.794880914854026" lon="10.325407962792369"><ele>67.5</ele><time>2026-04-09T14:04:03.999Z</time></trkpt><trkpt lat="44.794871294705324" lon="10.32532012123604"><ele>67.33333333333333</ele><time>2026-04-09T14:04:05Z</time></trkpt><trkpt lat="44.79484592649078" lon="10.325234102017971"><ele>67.16666666666666</ele><time>2026-04-09T14:04:06Z</time></trkpt><trkpt lat="44.79484573146478" lon="10.325086703422958"><ele>67.0</ele><time>2026-04-09T14:04:08Z</time></trkpt><trkpt lat="44.79481941915743" lon="10.324975817946559"><ele>67.0</ele><time>2026-04-09T14:04:10Z</time></trkpt><trkpt lat="44.79481549883908" lon="10.32487733016602"><ele>67.0</ele><time>2026-04-09T14:04:13Z</time></trkpt><trkpt lat="44.79481881032138" lon="10.324764738503903"><ele>67.0</ele><time>2026-04-09T14:04:36Z</time></trkpt><trkpt lat="44.79481059075995" lon="10.32465940341536"><ele>67.0</ele><time>2026-04-09T14:04:37Z</time></trkpt><trkpt lat="44.79480086161523" lon="10.324538475467508"><ele>67.0</ele><time>2026-04-09T14:04:38Z</time></trkpt><trkpt lat="44.794787269782596" lon="10.324403392745145"><ele>67.0</ele><time>2026-04-09T14:04:39Z</time></trkpt><trkpt lat="44.794774710881285" lon="10.324263509554084"><ele>65.5</ele><time>2026-04-09T14:04:40Z</time></trkpt><trkpt lat="44.7947601936375" lon="10.324118329140205"><ele>64.0</ele><time>2026-04-09T14:04:41Z</time></trkpt><trkpt lat="44.794743511093074" lon="10.323954348733354"><ele>62.5</ele><time>2026-04-09T14:04:42Z</time></trkpt><trkpt lat="44.794724146274554" lon="10.323771924748895"><ele>61.0</ele><time>2026-04-09T14:04:43Z</time></trkpt><trkpt lat="44.79470384058032" lon="10.323591368006635"><ele>60.75</ele><time>2026-04-09T14:04:44Z</time></trkpt><trkpt lat="44.79468360703192" lon="10.323408785868448"><ele>60.5</ele><time>2026-04-09T14:04:45Z</time></trkpt><trkpt lat="44.79466357988451" lon="10.323212675435464"><ele>60.25</ele><time>2026-04-09T14:04:46Z</time></trkpt><trkpt lat="44.79464216960725" lon="10.323018011987445"><ele>60.0</ele><time>2026-04-09T14:04:47Z</time></trkpt><trkpt lat="44.794620899202805" lon="10.322844713309703"><ele>60.0</ele><time>2026-04-09T14:04:48Z</time></trkpt><trkpt lat="44.794603713398075" lon="10.322686495040882"><ele>60.0</ele><time>2026-04-09T14:04:49Z</time></trkpt><trkpt lat="44.79458849264167" lon="10.322543335917187"><ele>60.0</ele><time>2026-04-09T14:04:50Z</time></trkpt><trkpt lat="44.79457241536233" lon="10.322409671720436"><ele>60.0</ele><time>2026-04-09T14:04:51Z</time></trkpt><trkpt lat="44.79455687644334" lon="10.3222917284319"><ele>60.0</ele><time>2026-04-09T14:04:52Z</time></trkpt><trkpt lat="44.794545206342384" lon="10.322189886339716"><ele>61.4</ele><time>2026-04-09T14:04:53Z</time></trkpt><trkpt lat="44.79452959486737" lon="10.322036221314434"><ele>62.8</ele><time>2026-04-09T14:04:55Z</time></trkpt><trkpt lat="44.794553617443086" lon="10.32188705185241"><ele>64.2</ele><time>2026-04-09T14:04:57Z</time></trkpt><trkpt lat="44.79458941153481" lon="10.32177118122208"><ele>65.6</ele><time>2026-04-09T14:04:58Z</time></trkpt><trkpt lat="44.79462475712185" lon="10.32165236322487"><ele>67.0</ele><time>2026-04-09T14:04:59Z</time></trkpt><trkpt lat="44.7946499058199" lon="10.321536418586163"><ele>67.0</ele><time>2026-04-09T14:05:00Z</time></trkpt><trkpt lat="44.79468007865446" lon="10.321425661196667"><ele>67.0</ele><time>2026-04-09T14:05:01Z</time></trkpt><trkpt lat="44.79474482536991" lon="10.321289118632388"><ele>67.0</ele><time>2026-04-09T14:05:02Z</time></trkpt><trkpt lat="44.794805005270334" lon="10.321094519583252"><ele>67.0</ele><time>2026-04-09T14:05:03Z</time></trkpt><trkpt lat="44.79486969365528" lon="10.320882041919425"><ele>66.66666666666666</ele><time>2026-04-09T14:05:04Z</time></trkpt><trkpt lat="44.7949381442432" lon="10.320641752010365"><ele>66.33333333333333</ele><time>2026-04-09T14:05:05Z</time></trkpt><trkpt lat="44.795014854555106" lon="10.32041066633129"><ele>66.0</ele><time>2026-04-09T14:05:06Z</time></trkpt><trkpt lat="44.795071740776315" lon="10.320201086678463"><ele>66.0</ele><time>2026-04-09T14:05:07Z</time></trkpt><trkpt lat="44.79513021553973" lon="10.320010934064483"><ele>66.0</ele><time>2026-04-09T14:05:08Z</time></trkpt><trkpt lat="44.79518728204106" lon="10.319829956598996"><ele>66.0</ele><time>2026-04-09T14:05:09Z</time></trkpt><trkpt lat="44.795236276311066" lon="10.319645218035387"><ele>66.0</ele><time>2026-04-09T14:05:10.001Z</time></trkpt><trkpt lat="44.79528466427099" lon="10.31946400251095"><ele>65.25</ele><time>2026-04-09T14:05:11.001Z</time></trkpt><trkpt lat="44.79533852315" lon="10.319293386911866"><ele>64.5</ele><time>2026-04-09T14:05:12.001Z</time></trkpt><trkpt lat="44.79538785214037" lon="10.319118968696534"><ele>63.75</ele><time>2026-04-09T14:05:13.001Z</time></trkpt><trkpt lat="44.795431517784955" lon="10.318947086944817"><ele>63.0</ele><time>2026-04-09T14:05:14.001Z</time></trkpt><trkpt lat="44.79547585320876" lon="10.318789833631921"><ele>62.75</ele><time>2026-04-09T14:05:15.001Z</time></trkpt><trkpt lat="44.79552214709021" lon="10.318631126739648"><ele>62.5</ele><time>2026-04-09T14:05:16.001Z</time></trkpt><trkpt lat="44.79555351103367" lon="10.31846526992421"><ele>62.25</ele><time>2026-04-09T14:05:17.001Z</time></trkpt><trkpt lat="44.795567997677004" lon="10.318303028730519"><ele>62.0</ele><time>2026-04-09T14:05:18.001Z</time></trkpt><trkpt lat="44.79558085587134" lon="10.318156359310215"><ele>62.2</ele><time>2026-04-09T14:05:19.001Z</time></trkpt><trkpt lat="44.79559468480978" lon="10.31802781494572"><ele>62.400000000000006</ele><time>2026-04-09T14:05:20.001Z</time></trkpt><trkpt lat="44.79561755798474" lon="10.317900977733393"><ele>62.599999999999994</ele><time>2026-04-09T14:05:21.001Z</time></trkpt><trkpt lat="44.79566771272226" lon="10.317772477527237"><ele>62.8</ele><time>2026-04-09T14:05:22.001Z</time></trkpt><trkpt lat="44.79573262710875" lon="10.317668712876529"><ele>63.0</ele><time>2026-04-09T14:05:23.001Z</time></trkpt><trkpt lat="44.79579113789152" lon="10.317569682962796"><ele>63.0</ele><time>2026-04-09T14:05:24.001Z</time></trkpt><trkpt lat="44.795833713281866" lon="10.317500041343832"><ele>63.0</ele><time>2026-04-09T14:05:25.001Z</time></trkpt><trkpt lat="44.79587801732765" lon="10.317425137152162"><ele>63.0</ele><time>2026-04-09T14:05:27.001Z</time></trkpt><trkpt lat="44.79592219824781" lon="10.3173471289676"><ele>63.0</ele><time>2026-04-09T14:05:32.001Z</time></trkpt><trkpt lat="44.79584609844588" lon="10.317230087297103"><ele>63.0</ele><time>2026-04-09T14:05:33.999Z</time></trkpt><trkpt lat="44.79575742627037" lon="10.31719021077736"><ele>63.0</ele><time>2026-04-09T14:05:35.999Z</time></trkpt><trkpt lat="44.79567183725381" lon="10.3171362485905"><ele>63.166666666666664</ele><time>2026-04-09T14:05:37.999Z</time></trkpt><trkpt lat="44.79560261395348" lon="10.31704614541111"><ele>63.33333333333333</ele><time>2026-04-09T14:05:39.999Z</time></trkpt><trkpt lat="44.795541610439074" lon="10.316916275277253"><ele>63.5</ele><time>2026-04-09T14:05:41.999Z</time></trkpt><trkpt lat="44.7955036470652" lon="10.316832853975985"><ele>63.666666666666664</ele><time>2026-04-09T14:05:42.999Z</time></trkpt><trkpt lat="44.795460662259885" lon="10.31673261333711"><ele>63.83333333333333</ele><time>2026-04-09T14:05:43.999Z</time></trkpt><trkpt lat="44.795416640068034" lon="10.316636827069221"><ele>64.0</ele><time>2026-04-09T14:05:44.999Z</time></trkpt><trkpt lat="44.79536753473669" lon="10.316533466338058"><ele>64.0</ele><time>2026-04-09T14:05:45.999Z</time></trkpt><trkpt lat="44.79532230516206" lon="10.316434013393028"><ele>64.0</ele><time>2026-04-09T14:05:46.999Z</time></trkpt><trkpt lat="44.795282410155416" lon="10.316341510926746"><ele>64.0</ele><time>2026-04-09T14:05:47.999Z</time></trkpt><trkpt lat="44.79523011657363" lon="10.316232100056052"><ele>64.0</ele><time>2026-04-09T14:05:48.999Z</time></trkpt><trkpt lat="44.7951621027377" lon="10.316102839206728"><ele>64.0</ele><time>2026-04-09T14:05:49.999Z</time></trkpt><trkpt lat="44.79509438476043" lon="10.315954820696236"><ele>64.0</ele><time>2026-04-09T14:05:50.999Z</time></trkpt><trkpt lat="44.79502762738705" lon="10.315794038877135"><ele>64.0</ele><time>2026-04-09T14:05:51.999Z</time></trkpt><trkpt lat="44.79496180599371" lon="10.315653998547583"><ele>64.0</ele><time>2026-04-09T14:05:52.999Z</time></trkpt><trkpt lat="44.7948977604647" lon="10.315530713158045"><ele>64.0</ele><time>2026-04-09T14:05:53.999Z</time></trkpt><trkpt lat="44.79484359216426" lon="10.3154118745825"><ele>64.5</ele><time>2026-04-09T14:05:54.999Z</time></trkpt><trkpt lat="44.79478720841249" lon="10.315294867523193"><ele>65.0</ele><time>2026-04-09T14:05:55.999Z</time></trkpt><trkpt lat="44.794749252541" lon="10.315215660031384"><ele>65.5</ele><time>2026-04-09T14:05:56.999Z</time></trkpt><trkpt lat="44.794708359614056" lon="10.31513980720932"><ele>66.0</ele><time>2026-04-09T14:05:57.999Z</time></trkpt><trkpt lat="44.79467426998756" lon="10.315057909812651"><ele>66.5</ele><time>2026-04-09T14:05:58.999Z</time></trkpt><trkpt lat="44.794626799298335" lon="10.31495357830903"><ele>67.0</ele><time>2026-04-09T14:05:59.999Z</time></trkpt><trkpt lat="44.7945719929091" lon="10.314821944633227"><ele>67.0</ele><time>2026-04-09T14:06:00.999Z</time></trkpt><trkpt lat="44.79451628298618" lon="10.314677404324234"><ele>67.0</ele><time>2026-04-09T14:06:01.999Z</time></trkpt><trkpt lat="44.79444442700069" lon="10.314525080033219"><ele>67.0</ele><time>2026-04-09T14:06:02.999Z</time></trkpt><trkpt lat="44.794373421194194" lon="10.31436158295966"><ele>67.0</ele><time>2026-04-09T14:06:03.999Z</time></trkpt><trkpt lat="44.79429685476745" lon="10.314210695291385"><ele>67.0</ele><time>2026-04-09T14:06:04.999Z</time></trkpt><trkpt lat="44.79422767546894" lon="10.314065005314394"><ele>67.0</ele><time>2026-04-09T14:06:05.999Z</time></trkpt><trkpt lat="44.794166937132346" lon="10.313931705509821"><ele>67.0</ele><time>2026-04-09T14:06:07Z</time></trkpt><trkpt lat="44.794114870423506" lon="10.313808095035588"><ele>67.0</ele><time>2026-04-09T14:06:08Z</time></trkpt><trkpt lat="44.79406266345681" lon="10.313701829308469"><ele>67.0</ele><time>2026-04-09T14:06:09Z</time></trkpt><trkpt lat="44.79402055405613" lon="10.313610093820031"><ele>66.8</ele><time>2026-04-09T14:06:10Z</time></trkpt><trkpt lat="44.79395854962602" lon="10.31347131065504"><ele>66.6</ele><time>2026-04-09T14:06:12Z</time></trkpt><trkpt lat="44.79390978347618" lon="10.313374962000797"><ele>66.39999999999999</ele><time>2026-04-09T14:06:14Z</time></trkpt><trkpt lat="44.79386881127044" lon="10.313302137967987"><ele>66.2</ele><time>2026-04-09T14:06:16Z</time></trkpt><trkpt lat="44.79380749040475" lon="10.313200165459014"><ele>66.0</ele><time>2026-04-09T14:06:19Z</time></trkpt><trkpt lat="44.79373840290165" lon="10.31305137861327"><ele>65.8</ele><time>2026-04-09T14:06:21Z</time></trkpt><trkpt lat="44.79370200355589" lon="10.312900901768018"><ele>65.6</ele><time>2026-04-09T14:06:22Z</time></trkpt><trkpt lat="44.79363754957933" lon="10.312790513194189"><ele>65.4</ele><time>2026-04-09T14:06:23Z</time></trkpt><trkpt lat="44.793577376646176" lon="10.312678168775864"><ele>65.2</ele><time>2026-04-09T14:06:24Z</time></trkpt><trkpt lat="44.793528344594016" lon="10.31255500279284"><ele>65.0</ele><time>2026-04-09T14:06:25Z</time></trkpt><trkpt lat="44.793495443233795" lon="10.31244512090412"><ele>64.83333333333334</ele><time>2026-04-09T14:06:26Z</time></trkpt><trkpt lat="44.79347269653492" lon="10.31232845325722"><ele>64.66666666666667</ele><time>2026-04-09T14:06:27Z</time></trkpt><trkpt lat="44.79347097409634" lon="10.312228855723756"><ele>64.5</ele><time>2026-04-09T14:06:28Z</time></trkpt><trkpt lat="44.79348090864221" lon="10.312139924888582"><ele>64.33333333333333</ele><time>2026-04-09T14:06:29Z</time></trkpt><trkpt lat="44.793458744828385" lon="10.311989919543215"><ele>64.16666666666666</ele><time>2026-04-09T14:06:31Z</time></trkpt><trkpt lat="44.793360401418106" lon="10.311892734077821"><ele>64.0</ele><time>2026-04-09T14:06:33Z</time></trkpt><trkpt lat="44.793241272720266" lon="10.311871346346651"><ele>63.800000000000004</ele><time>2026-04-09T14:06:35Z</time></trkpt><trkpt lat="44.79315429467112" lon="10.311733887039154"><ele>63.60000000000001</ele><time>2026-04-09T14:06:37Z</time></trkpt><trkpt lat="44.79309588684767" lon="10.311654624351409"><ele>63.4</ele><time>2026-04-09T14:06:38Z</time></trkpt><trkpt lat="44.79304590769419" lon="10.311538710447621"><ele>63.2</ele><time>2026-04-09T14:06:39Z</time></trkpt><trkpt lat="44.7929966825852" lon="10.311421572869673"><ele>63.0</ele><time>2026-04-09T14:06:40Z</time></trkpt><trkpt lat="44.792944622342866" lon="10.31130925906984"><ele>63.0</ele><time>2026-04-09T14:06:41Z</time></trkpt><trkpt lat="44.79288366685455" lon="10.311181002182828"><ele>63.0</ele><time>2026-04-09T14:06:42Z</time></trkpt><trkpt lat="44.792816270892764" lon="10.311031396173789"><ele>63.0</ele><time>2026-04-09T14:06:43Z</time></trkpt><trkpt lat="44.792741984232165" lon="10.310874777554353"><ele>63.0</ele><time>2026-04-09T14:06:44Z</time></trkpt><trkpt lat="44.79265097133781" lon="10.310690658906712"><ele>63.25</ele><time>2026-04-09T14:06:45Z</time></trkpt><trkpt lat="44.79256689834086" lon="10.310512794738028"><ele>63.5</ele><time>2026-04-09T14:06:46Z</time></trkpt><trkpt lat="44.79249780724485" lon="10.310346870536913"><ele>63.75</ele><time>2026-04-09T14:06:47Z</time></trkpt><trkpt lat="44.79242895442727" lon="10.310199750621686"><ele>64.0</ele><time>2026-04-09T14:06:48Z</time></trkpt><trkpt lat="44.79235648080911" lon="10.310047040444752"><ele>64.0</ele><time>2026-04-09T14:06:49Z</time></trkpt><trkpt lat="44.79228698069199" lon="10.309903523679102"><ele>64.0</ele><time>2026-04-09T14:06:50Z</time></trkpt><trkpt lat="44.79221730697426" lon="10.309758419189292"><ele>64.0</ele><time>2026-04-09T14:06:51Z</time></trkpt><trkpt lat="44.792138918522475" lon="10.309606790204171"><ele>64.0</ele><time>2026-04-09T14:06:52Z</time></trkpt><trkpt lat="44.79207236206954" lon="10.309411302465573"><ele>64.33333333333333</ele><time>2026-04-09T14:06:53Z</time></trkpt><trkpt lat="44.79198580555775" lon="10.309225519472584"><ele>64.66666666666667</ele><time>2026-04-09T14:06:54Z</time></trkpt><trkpt lat="44.79189123214972" lon="10.30904775909654"><ele>65.0</ele><time>2026-04-09T14:06:55Z</time></trkpt><trkpt lat="44.79180638752623" lon="10.30885406148378"><ele>65.5</ele><time>2026-04-09T14:06:56Z</time></trkpt><trkpt lat="44.791718694488495" lon="10.308669822753847"><ele>66.0</ele><time>2026-04-09T14:06:57Z</time></trkpt><trkpt lat="44.79164149524081" lon="10.30850736950149"><ele>66.5</ele><time>2026-04-09T14:06:58Z</time></trkpt><trkpt lat="44.791577436302" lon="10.308341985482965"><ele>67.0</ele><time>2026-04-09T14:06:59Z</time></trkpt><trkpt lat="44.791520950338786" lon="10.308186660850966"><ele>66.5</ele><time>2026-04-09T14:07:00Z</time></trkpt><trkpt lat="44.79144980416019" lon="10.30803294628277"><ele>66.0</ele><time>2026-04-09T14:07:01Z</time></trkpt><trkpt lat="44.79137586541379" lon="10.307876781774436"><ele>65.5</ele><time>2026-04-09T14:07:02.001Z</time></trkpt><trkpt lat="44.79131045994823" lon="10.307735340127898"><ele>65.0</ele><time>2026-04-09T14:07:03.001Z</time></trkpt><trkpt lat="44.791248214045616" lon="10.307595578770258"><ele>65.0</ele><time>2026-04-09T14:07:04.001Z</time></trkpt><trkpt lat="44.791173824395" lon="10.307446156864229"><ele>65.0</ele><time>2026-04-09T14:07:05.001Z</time></trkpt><trkpt lat="44.791093073944445" lon="10.307282881057107"><ele>65.0</ele><time>2026-04-09T14:07:06.001Z</time></trkpt><trkpt lat="44.79101034892622" lon="10.30711077695599"><ele>65.0</ele><time>2026-04-09T14:07:07.001Z</time></trkpt><trkpt lat="44.790930712309645" lon="10.30694569916284"><ele>65.25</ele><time>2026-04-09T14:07:08.001Z</time></trkpt><trkpt lat="44.79085233701352" lon="10.306778764371856"><ele>65.5</ele><time>2026-04-09T14:07:09.001Z</time></trkpt><trkpt lat="44.79077493837278" lon="10.306600777647073"><ele>65.75</ele><time>2026-04-09T14:07:10.001Z</time></trkpt><trkpt lat="44.79069203095813" lon="10.30642598069027"><ele>66.0</ele><time>2026-04-09T14:07:11.001Z</time></trkpt><trkpt lat="44.7906095554506" lon="10.306261174108414"><ele>66.5</ele><time>2026-04-09T14:07:12.001Z</time></trkpt><trkpt lat="44.790523908698454" lon="10.306098684100373"><ele>67.0</ele><time>2026-04-09T14:07:13.001Z</time></trkpt><trkpt lat="44.79045347553817" lon="10.305935206555565"><ele>67.5</ele><time>2026-04-09T14:07:14.001Z</time></trkpt><trkpt lat="44.79037715564505" lon="10.30576859840089"><ele>68.0</ele><time>2026-04-09T14:07:15.001Z</time></trkpt><trkpt lat="44.790301556952336" lon="10.305611111764525"><ele>68.25</ele><time>2026-04-09T14:07:16.001Z</time></trkpt><trkpt lat="44.7902327468965" lon="10.305467145967969"><ele>68.5</ele><time>2026-04-09T14:07:17.001Z</time></trkpt><trkpt lat="44.79016507062623" lon="10.305317896591824"><ele>68.75</ele><time>2026-04-09T14:07:18.001Z</time></trkpt><trkpt lat="44.79009445936569" lon="10.305162320280676"><ele>69.0</ele><time>2026-04-09T14:07:19.001Z</time></trkpt><trkpt lat="44.79002146455975" lon="10.305004419123792"><ele>69.0</ele><time>2026-04-09T14:07:20.001Z</time></trkpt><trkpt lat="44.78995030847796" lon="10.304856341570938"><ele>69.0</ele><time>2026-04-09T14:07:21.001Z</time></trkpt><trkpt lat="44.7898829193977" lon="10.304719717615829"><ele>69.0</ele><time>2026-04-09T14:07:22.001Z</time></trkpt><trkpt lat="44.78982560471633" lon="10.304596590261784"><ele>69.0</ele><time>2026-04-09T14:07:23.001Z</time></trkpt><trkpt lat="44.78977729635357" lon="10.304493196452926"><ele>69.0</ele><time>2026-04-09T14:07:24.001Z</time></trkpt><trkpt lat="44.78973377755087" lon="10.304395321253736"><ele>68.66666666666667</ele><time>2026-04-09T14:07:25.001Z</time></trkpt><trkpt lat="44.78969661707199" lon="10.304314176145118"><ele>68.33333333333333</ele><time>2026-04-09T14:07:26.001Z</time></trkpt><trkpt lat="44.789640527821206" lon="10.3041967296826"><ele>68.0</ele><time>2026-04-09T14:07:28.001Z</time></trkpt><trkpt lat="44.78961482375853" lon="10.304090174152716"><ele>67.66666666666666</ele><time>2026-04-09T14:07:30.001Z</time></trkpt><trkpt lat="44.789627273705996" lon="10.30396070603752"><ele>67.33333333333333</ele><time>2026-04-09T14:07:32.001Z</time></trkpt><trkpt lat="44.78965280446921" lon="10.30387860971261"><ele>67.0</ele><time>2026-04-09T14:07:33.001Z</time></trkpt><trkpt lat="44.78964550478093" lon="10.303760543566389"><ele>66.6</ele><time>2026-04-09T14:07:35.001Z</time></trkpt><trkpt lat="44.78956768295516" lon="10.303688275124655"><ele>66.2</ele><time>2026-04-09T14:07:37.001Z</time></trkpt><trkpt lat="44.78948136415378" lon="10.303650999669744"><ele>65.8</ele><time>2026-04-09T14:07:38.999Z</time></trkpt><trkpt lat="44.78939413281249" lon="10.303586350443345"><ele>65.4</ele><time>2026-04-09T14:07:40.999Z</time></trkpt><trkpt lat="44.78931134701429" lon="10.303493965900591"><ele>65.0</ele><time>2026-04-09T14:07:42.999Z</time></trkpt><trkpt lat="44.789245303330546" lon="10.303368700605255"><ele>65.0</ele><time>2026-04-09T14:07:44.999Z</time></trkpt><trkpt lat="44.78917682898441" lon="10.30320933703859"><ele>65.0</ele><time>2026-04-09T14:07:46.999Z</time></trkpt><trkpt lat="44.789130656990196" lon="10.303121250341635"><ele>65.0</ele><time>2026-04-09T14:07:47.999Z</time></trkpt><trkpt lat="44.78908242569697" lon="10.303022784703384"><ele>65.0</ele><time>2026-04-09T14:07:48.999Z</time></trkpt><trkpt lat="44.78904311444523" lon="10.30293951347186"><ele>65.0</ele><time>2026-04-09T14:07:49.999Z</time></trkpt><trkpt lat="44.789006142312374" lon="10.302866762351641"><ele>65.0</ele><time>2026-04-09T14:07:50.999Z</time></trkpt><trkpt lat="44.788975667917654" lon="10.302763095964282"><ele>65.0</ele><time>2026-04-09T14:07:51.999Z</time></trkpt><trkpt lat="44.788927866896366" lon="10.302657514872676"><ele>65.0</ele><time>2026-04-09T14:07:53Z</time></trkpt><trkpt lat="44.78887910860118" lon="10.302554527362823"><ele>65.0</ele><time>2026-04-09T14:07:54Z</time></trkpt><trkpt lat="44.78881264885917" lon="10.302461000612892"><ele>65.0</ele><time>2026-04-09T14:07:55Z</time></trkpt><trkpt lat="44.788772770136156" lon="10.302351782191716"><ele>65.0</ele><time>2026-04-09T14:07:56Z</time></trkpt><trkpt lat="44.78873944571159" lon="10.302274621629447"><ele>65.0</ele><time>2026-04-09T14:07:57Z</time></trkpt><trkpt lat="44.78870032449535" lon="10.302198657193955"><ele>65.0</ele><time>2026-04-09T14:07:58Z</time></trkpt><trkpt lat="44.788656201572806" lon="10.302109386431255"><ele>65.0</ele><time>2026-04-09T14:07:59Z</time></trkpt><trkpt lat="44.78859204199014" lon="10.301981649784446"><ele>65.0</ele><time>2026-04-09T14:08:00Z</time></trkpt><trkpt lat="44.78853266154985" lon="10.301845822719304"><ele>65.0</ele><time>2026-04-09T14:08:01Z</time></trkpt><trkpt lat="44.78848370006112" lon="10.301740150654604"><ele>65.0</ele><time>2026-04-09T14:08:02Z</time></trkpt><trkpt lat="44.788442838786466" lon="10.301650996480184"><ele>65.5</ele><time>2026-04-09T14:08:03Z</time></trkpt><trkpt lat="44.78839063289884" lon="10.301505601872154"><ele>66.0</ele><time>2026-04-09T14:08:05Z</time></trkpt><trkpt lat="44.78833561825938" lon="10.30143091740713"><ele>66.5</ele><time>2026-04-09T14:08:06Z</time></trkpt><trkpt lat="44.78829688242524" lon="10.30131538661394"><ele>67.0</ele><time>2026-04-09T14:08:08Z</time></trkpt><trkpt lat="44.788253209420425" lon="10.301226047610006"><ele>67.5</ele><time>2026-04-09T14:08:11Z</time></trkpt><trkpt lat="44.78822387366341" lon="10.30113754467"><ele>68.0</ele><time>2026-04-09T14:08:13Z</time></trkpt><trkpt lat="44.788195165853544" lon="10.301045193550351"><ele>67.99999999999999</ele><time>2026-04-09T14:08:15Z</time></trkpt><trkpt lat="44.78814725808498" lon="10.30097494592832"><ele>68.0</ele><time>2026-04-09T14:08:17Z</time></trkpt><trkpt lat="44.788104540285566" lon="10.300904749768362"><ele>68.0</ele><time>2026-04-09T14:08:18Z</time></trkpt><trkpt lat="44.7880650643913" lon="10.300831042957354"><ele>68.0</ele><time>2026-04-09T14:08:19Z</time></trkpt><trkpt lat="44.78802741607209" lon="10.300746136123937"><ele>68.0</ele><time>2026-04-09T14:08:20Z</time></trkpt><trkpt lat="44.78799082672203" lon="10.300664975255303"><ele>67.99999999999999</ele><time>2026-04-09T14:08:21Z</time></trkpt><trkpt lat="44.78794419636771" lon="10.300555641532258"><ele>68.0</ele><time>2026-04-09T14:08:23Z</time></trkpt><trkpt lat="44.78788224888052" lon="10.300425863836143"><ele>68.0</ele><time>2026-04-09T14:08:28Z</time></trkpt><trkpt lat="44.787834258604384" lon="10.3003308106457"><ele>68.0</ele><time>2026-04-09T14:08:29Z</time></trkpt><trkpt lat="44.7877916807761" lon="10.300228297317773"><ele>68.0</ele><time>2026-04-09T14:08:30Z</time></trkpt><trkpt lat="44.78774441708738" lon="10.300127469448395"><ele>68.0</ele><time>2026-04-09T14:08:31Z</time></trkpt><trkpt lat="44.787693457876806" lon="10.3000184206747"><ele>68.0</ele><time>2026-04-09T14:08:32Z</time></trkpt><trkpt lat="44.78764770419288" lon="10.299915985554085"><ele>68.0</ele><time>2026-04-09T14:08:33Z</time></trkpt><trkpt lat="44.787595079757295" lon="10.29980801144319"><ele>67.75</ele><time>2026-04-09T14:08:34Z</time></trkpt><trkpt lat="44.787528190256985" lon="10.299676781211298"><ele>67.5</ele><time>2026-04-09T14:08:35Z</time></trkpt><trkpt lat="44.787461367439626" lon="10.299517100711327"><ele>67.25</ele><time>2026-04-09T14:08:36Z</time></trkpt><trkpt lat="44.787398956656965" lon="10.299360489093745"><ele>67.0</ele><time>2026-04-09T14:08:37Z</time></trkpt><trkpt lat="44.78733970643523" lon="10.299205978874896"><ele>67.0</ele><time>2026-04-09T14:08:38Z</time></trkpt><trkpt lat="44.78727457391964" lon="10.29907316456787"><ele>67.0</ele><time>2026-04-09T14:08:39Z</time></trkpt><trkpt lat="44.787205831092635" lon="10.298947653154642"><ele>67.0</ele><time>2026-04-09T14:08:40Z</time></trkpt><trkpt lat="44.78714177841221" lon="10.298830027294194"><ele>67.0</ele><time>2026-04-09T14:08:41.001Z</time></trkpt><trkpt lat="44.78708472789188" lon="10.298704485439556"><ele>67.0</ele><time>2026-04-09T14:08:42.001Z</time></trkpt><trkpt lat="44.787025127251546" lon="10.298578844503908"><ele>67.0</ele><time>2026-04-09T14:08:43.001Z</time></trkpt><trkpt lat="44.78696956993316" lon="10.298451467490795"><ele>67.0</ele><time>2026-04-09T14:08:44.001Z</time></trkpt><trkpt lat="44.786912701574494" lon="10.298333872607012"><ele>67.0</ele><time>2026-04-09T14:08:45.001Z</time></trkpt><trkpt lat="44.78685596139159" lon="10.298213004326554"><ele>67.0</ele><time>2026-04-09T14:08:46.001Z</time></trkpt><trkpt lat="44.78680381566899" lon="10.298098500573921"><ele>67.0</ele><time>2026-04-09T14:08:47.001Z</time></trkpt><trkpt lat="44.786746489401516" lon="10.297988195758387"><ele>67.0</ele><time>2026-04-09T14:08:48.001Z</time></trkpt><trkpt lat="44.78669399022753" lon="10.297879520376263"><ele>67.0</ele><time>2026-04-09T14:08:49.001Z</time></trkpt><trkpt lat="44.78663641849973" lon="10.297758974953753"><ele>67.0</ele><time>2026-04-09T14:08:50.001Z</time></trkpt><trkpt lat="44.78657293361769" lon="10.297625484593114"><ele>67.0</ele><time>2026-04-09T14:08:51.001Z</time></trkpt><trkpt lat="44.78649797455773" lon="10.297479717413196"><ele>67.0</ele><time>2026-04-09T14:08:52.001Z</time></trkpt><trkpt lat="44.78642393689092" lon="10.297331323946505"><ele>67.0</ele><time>2026-04-09T14:08:53.001Z</time></trkpt><trkpt lat="44.78633744733205" lon="10.297153127514477"><ele>67.0</ele><time>2026-04-09T14:08:54.001Z</time></trkpt><trkpt lat="44.78624363775479" lon="10.296943843008435"><ele>67.0</ele><time>2026-04-09T14:08:55.001Z</time></trkpt><trkpt lat="44.786171042152084" lon="10.296756478432679"><ele>67.0</ele><time>2026-04-09T14:08:56.001Z</time></trkpt><trkpt lat="44.786103333525695" lon="10.296597940905816"><ele>67.0</ele><time>2026-04-09T14:08:57.001Z</time></trkpt><trkpt lat="44.78602898712398" lon="10.296442112185627"><ele>67.0</ele><time>2026-04-09T14:08:58.001Z</time></trkpt><trkpt lat="44.7859576968692" lon="10.296297598943159"><ele>67.0</ele><time>2026-04-09T14:08:59.001Z</time></trkpt><trkpt lat="44.78589296063905" lon="10.296159903003138"><ele>67.4</ele><time>2026-04-09T14:09:00.001Z</time></trkpt><trkpt lat="44.78583308834133" lon="10.296028682629512"><ele>67.80000000000001</ele><time>2026-04-09T14:09:01.001Z</time></trkpt><trkpt lat="44.78577445191953" lon="10.295901015315348"><ele>68.2</ele><time>2026-04-09T14:09:02.001Z</time></trkpt><trkpt lat="44.78571715848424" lon="10.295777914330737"><ele>68.60000000000001</ele><time>2026-04-09T14:09:03.001Z</time></trkpt><trkpt lat="44.78566326346487" lon="10.295653070676552"><ele>69.0</ele><time>2026-04-09T14:09:04.001Z</time></trkpt><trkpt lat="44.7856110731883" lon="10.2955332894549"><ele>69.0</ele><time>2026-04-09T14:09:05.001Z</time></trkpt><trkpt lat="44.785557626788666" lon="10.295422532571735"><ele>69.0</ele><time>2026-04-09T14:09:06.001Z</time></trkpt><trkpt lat="44.785505373987085" lon="10.295317535347188"><ele>69.0</ele><time>2026-04-09T14:09:07.001Z</time></trkpt><trkpt lat="44.7854525418152" lon="10.29521819487644"><ele>69.0</ele><time>2026-04-09T14:09:08.001Z</time></trkpt><trkpt lat="44.785409601038744" lon="10.295130286879806"><ele>69.0</ele><time>2026-04-09T14:09:09.001Z</time></trkpt><trkpt lat="44.78537241761344" lon="10.295043645272616"><ele>69.0</ele><time>2026-04-09T14:09:10.001Z</time></trkpt><trkpt lat="44.78533421907036" lon="10.294957633106142"><ele>69.0</ele><time>2026-04-09T14:09:11.001Z</time></trkpt><trkpt lat="44.785268074543794" lon="10.29481636755094"><ele>69.0</ele><time>2026-04-09T14:09:13.001Z</time></trkpt><trkpt lat="44.78523513840532" lon="10.294734011590656"><ele>69.0</ele><time>2026-04-09T14:09:14.001Z</time></trkpt><trkpt lat="44.78520273744677" lon="10.294650119748885"><ele>69.0</ele><time>2026-04-09T14:09:15.001Z</time></trkpt><trkpt lat="44.78516589687431" lon="10.294575006587396"><ele>69.0</ele><time>2026-04-09T14:09:16.001Z</time></trkpt><trkpt lat="44.78509296597235" lon="10.294462099224614"><ele>69.0</ele><time>2026-04-09T14:09:18.001Z</time></trkpt><trkpt lat="44.78503841399855" lon="10.294411368492932"><ele>69.2</ele><time>2026-04-09T14:09:19.001Z</time></trkpt><trkpt lat="44.78498289380094" lon="10.294353585869974"><ele>69.4</ele><time>2026-04-09T14:09:20.001Z</time></trkpt><trkpt lat="44.784897785375215" lon="10.29419354371799"><ele>69.6</ele><time>2026-04-09T14:09:22.001Z</time></trkpt><trkpt lat="44.78485684627903" lon="10.294080222531706"><ele>69.8</ele><time>2026-04-09T14:09:23.001Z</time></trkpt><trkpt lat="44.784819684401036" lon="10.293990318987479"><ele>70.0</ele><time>2026-04-09T14:09:24.001Z</time></trkpt><trkpt lat="44.78476117745641" lon="10.293868392835126"><ele>70.16666666666666</ele><time>2026-04-09T14:09:26.001Z</time></trkpt><trkpt lat="44.7847178598478" lon="10.29371708464434"><ele>70.33333333333333</ele><time>2026-04-09T14:09:28.001Z</time></trkpt><trkpt lat="44.78470237292346" lon="10.293623930981193"><ele>70.5</ele><time>2026-04-09T14:09:29.001Z</time></trkpt><trkpt lat="44.78464219665426" lon="10.293493976509794"><ele>70.66666666666667</ele><time>2026-04-09T14:09:31.001Z</time></trkpt><trkpt lat="44.7846006693017" lon="10.29340691420246"><ele>70.83333333333334</ele><time>2026-04-09T14:09:33.001Z</time></trkpt><trkpt lat="44.78456702363237" lon="10.293329733540387"><ele>71.0</ele><time>2026-04-09T14:09:35.001Z</time></trkpt><trkpt lat="44.78452766209419" lon="10.293242976115822"><ele>71.2</ele><time>2026-04-09T14:09:37.001Z</time></trkpt><trkpt lat="44.78444082262708" lon="10.29308662556273"><ele>71.39999999999999</ele><time>2026-04-09T14:09:39.002Z</time></trkpt><trkpt lat="44.78439942584267" lon="10.292987684407596"><ele>71.6</ele><time>2026-04-09T14:09:40.002Z</time></trkpt><trkpt lat="44.78435303759964" lon="10.292880743594822"><ele>71.8</ele><time>2026-04-09T14:09:41.002Z</time></trkpt><trkpt lat="44.78429953095738" lon="10.29276838609806"><ele>72.0</ele><time>2026-04-09T14:09:42.002Z</time></trkpt><trkpt lat="44.78424550880571" lon="10.292642152222049"><ele>72.2</ele><time>2026-04-09T14:09:43.002Z</time></trkpt><trkpt lat="44.784189631251934" lon="10.29250209705902"><ele>72.4</ele><time>2026-04-09T14:09:44.002Z</time></trkpt><trkpt lat="44.784133827019765" lon="10.292377807012853"><ele>72.6</ele><time>2026-04-09T14:09:44.999Z</time></trkpt><trkpt lat="44.78407755613162" lon="10.292259017021372"><ele>72.8</ele><time>2026-04-09T14:09:45.999Z</time></trkpt><trkpt lat="44.78402825411019" lon="10.29215448359631"><ele>73.0</ele><time>2026-04-09T14:09:46.999Z</time></trkpt><trkpt lat="44.78398466246636" lon="10.292060768027433"><ele>73.16666666666666</ele><time>2026-04-09T14:09:47.999Z</time></trkpt><trkpt lat="44.78394332403687" lon="10.2919690789391"><ele>73.33333333333333</ele><time>2026-04-09T14:09:48.999Z</time></trkpt><trkpt lat="44.78390176528493" lon="10.29187188249356"><ele>73.5</ele><time>2026-04-09T14:09:49.999Z</time></trkpt><trkpt lat="44.78385562504677" lon="10.291776037723107"><ele>73.66666666666667</ele><time>2026-04-09T14:09:50.999Z</time></trkpt><trkpt lat="44.78380862306936" lon="10.291677603475161"><ele>73.83333333333334</ele><time>2026-04-09T14:09:51.999Z</time></trkpt><trkpt lat="44.7837602063573" lon="10.29157226452385"><ele>74.0</ele><time>2026-04-09T14:09:53Z</time></trkpt><trkpt lat="44.78371235552528" lon="10.291467608408123"><ele>73.8</ele><time>2026-04-09T14:09:54Z</time></trkpt><trkpt lat="44.783660845898204" lon="10.291360418921265"><ele>73.60000000000001</ele><time>2026-04-09T14:09:55Z</time></trkpt><trkpt lat="44.78360550304878" lon="10.291249958082465"><ele>73.4</ele><time>2026-04-09T14:09:56Z</time></trkpt><trkpt lat="44.783556809586216" lon="10.29115131308451"><ele>73.2</ele><time>2026-04-09T14:09:57Z</time></trkpt><trkpt lat="44.783512012138594" lon="10.291057808603654"><ele>73.0</ele><time>2026-04-09T14:09:58Z</time></trkpt><trkpt lat="44.783457909764586" lon="10.290943647232872"><ele>73.0</ele><time>2026-04-09T14:09:59Z</time></trkpt><trkpt lat="44.783393550050135" lon="10.290805470325074"><ele>73.0</ele><time>2026-04-09T14:10:00Z</time></trkpt><trkpt lat="44.78332965909401" lon="10.290660345445726"><ele>73.0</ele><time>2026-04-09T14:10:01Z</time></trkpt><trkpt lat="44.78327148155382" lon="10.290526055128373"><ele>73.0</ele><time>2026-04-09T14:10:02Z</time></trkpt><trkpt lat="44.783219327800104" lon="10.290412372404957"><ele>73.0</ele><time>2026-04-09T14:10:03Z</time></trkpt><trkpt lat="44.78315911045857" lon="10.290297768916258"><ele>73.0</ele><time>2026-04-09T14:10:04Z</time></trkpt><trkpt lat="44.7830913552696" lon="10.29015536451301"><ele>73.0</ele><time>2026-04-09T14:10:05Z</time></trkpt><trkpt lat="44.78304173061204" lon="10.290027771207638"><ele>73.0</ele><time>2026-04-09T14:10:06Z</time></trkpt><trkpt lat="44.78300719556633" lon="10.289906096439472"><ele>73.0</ele><time>2026-04-09T14:10:07Z</time></trkpt><trkpt lat="44.782983835823956" lon="10.289783298959918"><ele>73.0</ele><time>2026-04-09T14:10:08Z</time></trkpt><trkpt lat="44.78297678900853" lon="10.28964132458995"><ele>73.2</ele><time>2026-04-09T14:10:09Z</time></trkpt><trkpt lat="44.78298343107207" lon="10.289484572739077"><ele>73.4</ele><time>2026-04-09T14:10:10Z</time></trkpt><trkpt lat="44.782976281908894" lon="10.289331493112035"><ele>73.60000000000001</ele><time>2026-04-09T14:10:11Z</time></trkpt><trkpt lat="44.782936619399045" lon="10.289204361744078"><ele>73.8</ele><time>2026-04-09T14:10:12Z</time></trkpt><trkpt lat="44.78287576020576" lon="10.289111754587758"><ele>74.0</ele><time>2026-04-09T14:10:13Z</time></trkpt><trkpt lat="44.78280097923139" lon="10.289054222781356"><ele>74.0</ele><time>2026-04-09T14:10:14Z</time></trkpt><trkpt lat="44.78271502189942" lon="10.28901167684453"><ele>74.0</ele><time>2026-04-09T14:10:15Z</time></trkpt><trkpt lat="44.78262394989965" lon="10.288964505771256"><ele>74.0</ele><time>2026-04-09T14:10:16Z</time></trkpt><trkpt lat="44.782552208284294" lon="10.288975123466917"><ele>74.0</ele><time>2026-04-09T14:10:17Z</time></trkpt><trkpt lat="44.78250062783625" lon="10.288843795683736"><ele>74.0</ele><time>2026-04-09T14:10:18Z</time></trkpt><trkpt lat="44.78243995876622" lon="10.28871305219088"><ele>74.0</ele><time>2026-04-09T14:10:20Z</time></trkpt><trkpt lat="44.782358499512846" lon="10.288534918062208"><ele>74.0</ele><time>2026-04-09T14:10:22Z</time></trkpt><trkpt lat="44.78230027606615" lon="10.288408165861414"><ele>74.0</ele><time>2026-04-09T14:10:23Z</time></trkpt><trkpt lat="44.782248923768314" lon="10.288296372124012"><ele>74.0</ele><time>2026-04-09T14:10:24Z</time></trkpt><trkpt lat="44.782191904058955" lon="10.28820036799738"><ele>74.0</ele><time>2026-04-09T14:10:25Z</time></trkpt><trkpt lat="44.782138441092336" lon="10.288091544384468"><ele>74.0</ele><time>2026-04-09T14:10:26Z</time></trkpt><trkpt lat="44.78209384982571" lon="10.287998727273738"><ele>74.0</ele><time>2026-04-09T14:10:27Z</time></trkpt><trkpt lat="44.78204808030032" lon="10.287892692477975"><ele>74.0</ele><time>2026-04-09T14:10:29Z</time></trkpt><trkpt lat="44.78202266938533" lon="10.287807628959895"><ele>74.0</ele><time>2026-04-09T14:10:47.001Z</time></trkpt><trkpt lat="44.78184834683363" lon="10.287918527553304"><ele>74.0</ele><time>2026-04-09T14:10:51.001Z</time></trkpt><trkpt lat="44.781795422199764" lon="10.288001064355571"><ele>74.0</ele><time>2026-04-09T14:10:52.001Z</time></trkpt><trkpt lat="44.78170576556022" lon="10.288069537302743"><ele>74.0</ele><time>2026-04-09T14:10:53.001Z</time></trkpt><trkpt lat="44.781633514440095" lon="10.288195141479934"><ele>74.0</ele><time>2026-04-09T14:10:54.001Z</time></trkpt><trkpt lat="44.78155535803843" lon="10.288324674680807"><ele>74.0</ele><time>2026-04-09T14:10:55.001Z</time></trkpt><trkpt lat="44.78147277529978" lon="10.288496656922943"><ele>74.0</ele><time>2026-04-09T14:10:56.001Z</time></trkpt><trkpt lat="44.781367471895" lon="10.288660602334872"><ele>74.0</ele><time>2026-04-09T14:10:57.001Z</time></trkpt><trkpt lat="44.78128115263773" lon="10.288856495378617"><ele>74.0</ele><time>2026-04-09T14:10:58.001Z</time></trkpt><trkpt lat="44.78118203987509" lon="10.289024055098748"><ele>74.0</ele><time>2026-04-09T14:10:59.001Z</time></trkpt><trkpt lat="44.781086173366276" lon="10.289213176993155"><ele>74.0</ele><time>2026-04-09T14:11:00.001Z</time></trkpt><trkpt lat="44.78099423064815" lon="10.289384240136982"><ele>74.0</ele><time>2026-04-09T14:11:01.001Z</time></trkpt><trkpt lat="44.78090074798929" lon="10.289555412788204"><ele>74.0</ele><time>2026-04-09T14:11:02.001Z</time></trkpt><trkpt lat="44.78080989646662" lon="10.289717544958394"><ele>74.0</ele><time>2026-04-09T14:11:03.001Z</time></trkpt><trkpt lat="44.780718419454786" lon="10.28988869633924"><ele>74.0</ele><time>2026-04-09T14:11:04.001Z</time></trkpt><trkpt lat="44.780625959867976" lon="10.29006511513225"><ele>74.25</ele><time>2026-04-09T14:11:05.001Z</time></trkpt><trkpt lat="44.78055146804332" lon="10.290228416735587"><ele>74.5</ele><time>2026-04-09T14:11:06.001Z</time></trkpt><trkpt lat="44.78047806798998" lon="10.29040865141328"><ele>74.75</ele><time>2026-04-09T14:11:07.001Z</time></trkpt><trkpt lat="44.78041389616108" lon="10.29058335418421"><ele>75.0</ele><time>2026-04-09T14:11:08.001Z</time></trkpt><trkpt lat="44.78034856061656" lon="10.29075521685457"><ele>75.0</ele><time>2026-04-09T14:11:09.001Z</time></trkpt><trkpt lat="44.780269212738055" lon="10.290895502807958"><ele>75.0</ele><time>2026-04-09T14:11:10.001Z</time></trkpt><trkpt lat="44.78020580851687" lon="10.29105297857193"><ele>75.0</ele><time>2026-04-09T14:11:11.001Z</time></trkpt><trkpt lat="44.78014617089631" lon="10.291201522924885"><ele>75.0</ele><time>2026-04-09T14:11:12.001Z</time></trkpt><trkpt lat="44.78008922277863" lon="10.291345035923735"><ele>75.33333333333333</ele><time>2026-04-09T14:11:13.001Z</time></trkpt><trkpt lat="44.7800355104141" lon="10.29148065663604"><ele>75.66666666666667</ele><time>2026-04-09T14:11:14.001Z</time></trkpt><trkpt lat="44.77998920658315" lon="10.291599717248765"><ele>76.0</ele><time>2026-04-09T14:11:15.001Z</time></trkpt><trkpt lat="44.77994818955431" lon="10.291705183969388"><ele>76.33333333333334</ele><time>2026-04-09T14:11:16.001Z</time></trkpt><trkpt lat="44.77991105607946" lon="10.291799102608456"><ele>76.66666666666667</ele><time>2026-04-09T14:11:17.001Z</time></trkpt><trkpt lat="44.77988162043434" lon="10.291882639554743"><ele>77.0</ele><time>2026-04-09T14:11:19.001Z</time></trkpt><trkpt lat="44.77974539777056" lon="10.291729434802717"><ele>77.0</ele><time>2026-04-09T14:11:37.001Z</time></trkpt><trkpt lat="44.779688846625334" lon="10.291655055190661"><ele>77.0</ele><time>2026-04-09T14:11:38.001Z</time></trkpt><trkpt lat="44.77960794800357" lon="10.29157699505305"><ele>77.0</ele><time>2026-04-09T14:11:39.002Z</time></trkpt><trkpt lat="44.779545050399534" lon="10.291455935011216"><ele>77.0</ele><time>2026-04-09T14:11:40.002Z</time></trkpt><trkpt lat="44.77947991054212" lon="10.291353070969317"><ele>77.0</ele><time>2026-04-09T14:11:41.002Z</time></trkpt><trkpt lat="44.77939807822174" lon="10.29126426311841"><ele>76.6</ele><time>2026-04-09T14:11:42.002Z</time></trkpt><trkpt lat="44.77930597214504" lon="10.291206262058413"><ele>76.2</ele><time>2026-04-09T14:11:43.002Z</time></trkpt><trkpt lat="44.77919900685774" lon="10.29115522577126"><ele>75.8</ele><time>2026-04-09T14:11:44.002Z</time></trkpt><trkpt lat="44.7790866557113" lon="10.291109766062126"><ele>75.4</ele><time>2026-04-09T14:11:45.002Z</time></trkpt><trkpt lat="44.778980182862725" lon="10.291054072951813"><ele>75.0</ele><time>2026-04-09T14:11:46.002Z</time></trkpt><trkpt lat="44.77887306254149" lon="10.290994691631958"><ele>75.0</ele><time>2026-04-09T14:11:47.002Z</time></trkpt><trkpt lat="44.778775727936626" lon="10.290941460511672"><ele>75.0</ele><time>2026-04-09T14:11:48.002Z</time></trkpt><trkpt lat="44.7786891125556" lon="10.290898557614755"><ele>75.0</ele><time>2026-04-09T14:11:49.002Z</time></trkpt><trkpt lat="44.778610697765146" lon="10.290863803809037"><ele>75.0</ele><time>2026-04-09T14:11:50.002Z</time></trkpt><trkpt lat="44.77854310941696" lon="10.290822970220757"><ele>75.0</ele><time>2026-04-09T14:11:50.999Z</time></trkpt><trkpt lat="44.77849362520801" lon="10.290760468382842"><ele>75.0</ele><time>2026-04-09T14:11:51.999Z</time></trkpt><trkpt lat="44.778443423354" lon="10.290684075349962"><ele>75.0</ele><time>2026-04-09T14:11:52.999Z</time></trkpt><trkpt lat="44.77837283796316" lon="10.290633174997929"><ele>75.0</ele><time>2026-04-09T14:11:53.999Z</time></trkpt><trkpt lat="44.77828555797938" lon="10.290618531086803"><ele>75.0</ele><time>2026-04-09T14:11:54.999Z</time></trkpt><trkpt lat="44.778185094342994" lon="10.29060881178709"><ele>75.0</ele><time>2026-04-09T14:11:56Z</time></trkpt><trkpt lat="44.77807590877837" lon="10.290565112986764"><ele>75.0</ele><time>2026-04-09T14:11:57Z</time></trkpt><trkpt lat="44.77796358212962" lon="10.290503650393298"><ele>75.25</ele><time>2026-04-09T14:11:58Z</time></trkpt><trkpt lat="44.77784376886387" lon="10.290439312545033"><ele>75.5</ele><time>2026-04-09T14:11:59Z</time></trkpt><trkpt lat="44.777713724428516" lon="10.29036747987953"><ele>75.75</ele><time>2026-04-09T14:12:00Z</time></trkpt><trkpt lat="44.7775757417084" lon="10.290293413928826"><ele>76.0</ele><time>2026-04-09T14:12:01Z</time></trkpt><trkpt lat="44.77744585211842" lon="10.290229206199136"><ele>76.39999999999999</ele><time>2026-04-09T14:12:02Z</time></trkpt><trkpt lat="44.77733553201976" lon="10.290173381793288"><ele>76.8</ele><time>2026-04-09T14:12:03Z</time></trkpt><trkpt lat="44.7772338638033" lon="10.290119824373603"><ele>77.19999999999999</ele><time>2026-04-09T14:12:04Z</time></trkpt><trkpt lat="44.77715236772292" lon="10.290072874643512"><ele>77.6</ele><time>2026-04-09T14:12:05Z</time></trkpt><trkpt lat="44.777069128495235" lon="10.290029271622865"><ele>78.0</ele><time>2026-04-09T14:12:07Z</time></trkpt><trkpt lat="44.77695251832688" lon="10.290223754209988"><ele>78.0</ele><time>2026-04-09T14:12:12Z</time></trkpt><trkpt lat="44.77690340497229" lon="10.290356866575218"><ele>78.0</ele><time>2026-04-09T14:12:13Z</time></trkpt><trkpt lat="44.776867116495964" lon="10.290507685333912"><ele>78.0</ele><time>2026-04-09T14:12:14Z</time></trkpt><trkpt lat="44.776822966743616" lon="10.29069386698797"><ele>78.0</ele><time>2026-04-09T14:12:15Z</time></trkpt><trkpt lat="44.77678041046719" lon="10.290874040354543"><ele>77.75</ele><time>2026-04-09T14:12:16Z</time></trkpt><trkpt lat="44.776742015913634" lon="10.291036593909187"><ele>77.5</ele><time>2026-04-09T14:12:17Z</time></trkpt><trkpt lat="44.776702221377526" lon="10.291205074687912"><ele>77.25</ele><time>2026-04-09T14:12:18Z</time></trkpt><trkpt lat="44.77666418284381" lon="10.29136962095237"><ele>77.0</ele><time>2026-04-09T14:12:19Z</time></trkpt><trkpt lat="44.77663039134161" lon="10.291531230470639"><ele>77.5</ele><time>2026-04-09T14:12:20Z</time></trkpt><trkpt lat="44.77661070697623" lon="10.291693968936944"><ele>78.0</ele><time>2026-04-09T14:12:21Z</time></trkpt><trkpt lat="44.77662576236609" lon="10.291858592636974"><ele>78.5</ele><time>2026-04-09T14:12:22Z</time></trkpt><trkpt lat="44.77663782682241" lon="10.292024783861422"><ele>79.0</ele><time>2026-04-09T14:12:23Z</time></trkpt><trkpt lat="44.77664383917276" lon="10.292208497507241"><ele>79.0</ele><time>2026-04-09T14:12:24Z</time></trkpt><trkpt lat="44.77666478341411" lon="10.292379350252272"><ele>79.0</ele><time>2026-04-09T14:12:25Z</time></trkpt><trkpt lat="44.776691093749974" lon="10.292529107947406"><ele>79.0</ele><time>2026-04-09T14:12:26Z</time></trkpt><trkpt lat="44.7767391775229" lon="10.29265458950347"><ele>79.0</ele><time>2026-04-09T14:12:27Z</time></trkpt><trkpt lat="44.776776337032445" lon="10.292769664204146"><ele>79.0</ele><time>2026-04-09T14:12:28Z</time></trkpt><trkpt lat="44.776814791524274" lon="10.292875673366137"><ele>79.0</ele><time>2026-04-09T14:12:29Z</time></trkpt><trkpt lat="44.776846788250296" lon="10.292988421324226"><ele>79.0</ele><time>2026-04-09T14:12:30Z</time></trkpt><trkpt lat="44.77689710281392" lon="10.29309836246509"><ele>79.0</ele><time>2026-04-09T14:12:31Z</time></trkpt><trkpt lat="44.77692855861067" lon="10.293229237038181"><ele>79.0</ele><time>2026-04-09T14:12:32Z</time></trkpt><trkpt lat="44.77697595845509" lon="10.293370666388746"><ele>79.0</ele><time>2026-04-09T14:12:33Z</time></trkpt><trkpt lat="44.777024671772686" lon="10.293524546877611"><ele>78.5</ele><time>2026-04-09T14:12:34Z</time></trkpt><trkpt lat="44.77706900914535" lon="10.293680599024569"><ele>78.0</ele><time>2026-04-09T14:12:35Z</time></trkpt><trkpt lat="44.77710149699802" lon="10.293832140948751"><ele>77.5</ele><time>2026-04-09T14:12:36Z</time></trkpt><trkpt lat="44.777108808387815" lon="10.293997329288395"><ele>77.0</ele><time>2026-04-09T14:12:37Z</time></trkpt><trkpt lat="44.777103589640106" lon="10.294160251908979"><ele>76.66666666666667</ele><time>2026-04-09T14:12:38Z</time></trkpt><trkpt lat="44.77710564770994" lon="10.294313648444811"><ele>76.33333333333334</ele><time>2026-04-09T14:12:39Z</time></trkpt><trkpt lat="44.777087263744264" lon="10.294447165084897"><ele>76.0</ele><time>2026-04-09T14:12:40Z</time></trkpt><trkpt lat="44.77707158350481" lon="10.294563456954638"><ele>75.66666666666667</ele><time>2026-04-09T14:12:41Z</time></trkpt><trkpt lat="44.77705889315595" lon="10.294673389595811"><ele>75.33333333333333</ele><time>2026-04-09T14:12:42.001Z</time></trkpt><trkpt lat="44.777068272829695" lon="10.29476580992914"><ele>75.0</ele><time>2026-04-09T14:12:43.001Z</time></trkpt><trkpt lat="44.77708678062138" lon="10.29485903440771"><ele>73.75</ele><time>2026-04-09T14:12:44.001Z</time></trkpt><trkpt lat="44.77718427932659" lon="10.294894427818964"><ele>72.5</ele><time>2026-04-09T14:12:45.001Z</time></trkpt><trkpt lat="44.77729144426829" lon="10.294939922342332"><ele>71.25</ele><time>2026-04-09T14:12:46.001Z</time></trkpt><trkpt lat="44.777414237066836" lon="10.295016758229469"><ele>70.0</ele><time>2026-04-09T14:12:47.001Z</time></trkpt><trkpt lat="44.7775692995414" lon="10.295087639641778"><ele>71.66666666666666</ele><time>2026-04-09T14:12:48.001Z</time></trkpt><trkpt lat="44.77773805958024" lon="10.295164782407172"><ele>73.33333333333333</ele><time>2026-04-09T14:12:49.001Z</time></trkpt><trkpt lat="44.77791643428791" lon="10.295246320191824"><ele>75.0</ele><time>2026-04-09T14:12:50.001Z</time></trkpt><trkpt lat="44.77809574103946" lon="10.295331477070208"><ele>75.0</ele><time>2026-04-09T14:12:51.001Z</time></trkpt><trkpt lat="44.77826406421211" lon="10.29539019333084"><ele>75.0</ele><time>2026-04-09T14:12:52.001Z</time></trkpt><trkpt lat="44.778408349319704" lon="10.295478598504499"><ele>75.0</ele><time>2026-04-09T14:12:53.001Z</time></trkpt><trkpt lat="44.778551551479595" lon="10.295519674379598"><ele>75.2</ele><time>2026-04-09T14:12:54.001Z</time></trkpt><trkpt lat="44.77866752287795" lon="10.295572903999032"><ele>75.4</ele><time>2026-04-09T14:12:55.001Z</time></trkpt><trkpt lat="44.778749089269084" lon="10.2956349065981"><ele>75.6</ele><time>2026-04-09T14:12:56.001Z</time></trkpt><trkpt lat="44.77883301327973" lon="10.295673418433774"><ele>75.8</ele><time>2026-04-09T14:12:57.001Z</time></trkpt><trkpt lat="44.778926813470676" lon="10.295716165285498"><ele>76.0</ele><time>2026-04-09T14:12:58.001Z</time></trkpt><trkpt lat="44.779035366075306" lon="10.295765425424065"><ele>76.0</ele><time>2026-04-09T14:12:59.001Z</time></trkpt><trkpt lat="44.77916307381838" lon="10.295806486179718"><ele>76.0</ele><time>2026-04-09T14:13:00.001Z</time></trkpt><trkpt lat="44.77929367661178" lon="10.29586697599135"><ele>76.0</ele><time>2026-04-09T14:13:01.001Z</time></trkpt><trkpt lat="44.77941445971567" lon="10.295922226899622"><ele>76.0</ele><time>2026-04-09T14:13:02.001Z</time></trkpt><trkpt lat="44.77952136598796" lon="10.295966326260807"><ele>75.5</ele><time>2026-04-09T14:13:03.001Z</time></trkpt><trkpt lat="44.77961404487756" lon="10.296004063626535"><ele>75.0</ele><time>2026-04-09T14:13:04.001Z</time></trkpt><trkpt lat="44.77968166055187" lon="10.296040998127921"><ele>74.5</ele><time>2026-04-09T14:13:05.001Z</time></trkpt><trkpt lat="44.77973275514094" lon="10.296103950080516"><ele>74.0</ele><time>2026-04-09T14:13:06.001Z</time></trkpt><trkpt lat="44.77976546601307" lon="10.29620129325331"><ele>73.5</ele><time>2026-04-09T14:13:07.001Z</time></trkpt><trkpt lat="44.77977622715738" lon="10.296331834108704"><ele>73.0</ele><time>2026-04-09T14:13:08.001Z</time></trkpt><trkpt lat="44.779764030795334" lon="10.296485708698974"><ele>72.75</ele><time>2026-04-09T14:13:09.001Z</time></trkpt><trkpt lat="44.7797549876709" lon="10.29665877534859"><ele>72.5</ele><time>2026-04-09T14:13:10.001Z</time></trkpt><trkpt lat="44.77973524811704" lon="10.296853307400198"><ele>72.25</ele><time>2026-04-09T14:13:11.001Z</time></trkpt><trkpt lat="44.779706630766356" lon="10.297051316082287"><ele>72.0</ele><time>2026-04-09T14:13:12.001Z</time></trkpt><trkpt lat="44.7796672658366" lon="10.297277224286345"><ele>72.0</ele><time>2026-04-09T14:13:13.001Z</time></trkpt><trkpt lat="44.77962031991518" lon="10.29750999424907"><ele>72.0</ele><time>2026-04-09T14:13:14.001Z</time></trkpt><trkpt lat="44.77957029097243" lon="10.297757489370818"><ele>72.0</ele><time>2026-04-09T14:13:15.001Z</time></trkpt><trkpt lat="44.77951594680919" lon="10.298024449648697"><ele>72.0</ele><time>2026-04-09T14:13:16.001Z</time></trkpt><trkpt lat="44.77946084157186" lon="10.298299261199487"><ele>72.0</ele><time>2026-04-09T14:13:17.001Z</time></trkpt><trkpt lat="44.77941169017009" lon="10.298554270627063"><ele>72.0</ele><time>2026-04-09T14:13:18.001Z</time></trkpt><trkpt lat="44.77936863637438" lon="10.298790036526254"><ele>72.66666666666667</ele><time>2026-04-09T14:13:19.001Z</time></trkpt><trkpt lat="44.77930760853237" lon="10.299015344295332"><ele>73.33333333333334</ele><time>2026-04-09T14:13:20.001Z</time></trkpt><trkpt lat="44.77927463639283" lon="10.299253922712406"><ele>74.0</ele><time>2026-04-09T14:13:21.001Z</time></trkpt><trkpt lat="44.77922054227241" lon="10.29949393546632"><ele>74.0</ele><time>2026-04-09T14:13:22.001Z</time></trkpt><trkpt lat="44.77917407236398" lon="10.299721938413887"><ele>74.0</ele><time>2026-04-09T14:13:23.001Z</time></trkpt><trkpt lat="44.779130733180025" lon="10.299933084644369"><ele>74.0</ele><time>2026-04-09T14:13:24.001Z</time></trkpt><trkpt lat="44.77908888744362" lon="10.300148551897829"><ele>74.66666666666667</ele><time>2026-04-09T14:13:25.001Z</time></trkpt><trkpt lat="44.77905128655205" lon="10.300358742515552"><ele>75.33333333333333</ele><time>2026-04-09T14:13:26.001Z</time></trkpt><trkpt lat="44.779010080327225" lon="10.300560084108687"><ele>76.0</ele><time>2026-04-09T14:13:27.001Z</time></trkpt><trkpt lat="44.77896710487166" lon="10.300763210646517"><ele>74.66666666666666</ele><time>2026-04-09T14:13:28.001Z</time></trkpt><trkpt lat="44.77892610780984" lon="10.300966999808763"><ele>73.33333333333333</ele><time>2026-04-09T14:13:29.001Z</time></trkpt><trkpt lat="44.77888415904203" lon="10.301177191007994"><ele>72.0</ele><time>2026-04-09T14:13:30.001Z</time></trkpt><trkpt lat="44.778842245487766" lon="10.301385733561093"><ele>72.75</ele><time>2026-04-09T14:13:31.001Z</time></trkpt><trkpt lat="44.77880090826307" lon="10.301583192743228"><ele>73.5</ele><time>2026-04-09T14:13:32.001Z</time></trkpt><trkpt lat="44.77876327499609" lon="10.30178251284731"><ele>74.25</ele><time>2026-04-09T14:13:33.001Z</time></trkpt><trkpt lat="44.778729007194876" lon="10.301968014711635"><ele>75.0</ele><time>2026-04-09T14:13:34.002Z</time></trkpt><trkpt lat="44.778693607267876" lon="10.302143539654224"><ele>75.0</ele><time>2026-04-09T14:13:35.002Z</time></trkpt><trkpt lat="44.77865985534545" lon="10.302299283416206"><ele>75.0</ele><time>2026-04-09T14:13:36.002Z</time></trkpt><trkpt lat="44.77863094200712" lon="10.30244233233111"><ele>75.0</ele><time>2026-04-09T14:13:37.002Z</time></trkpt><trkpt lat="44.77860270829778" lon="10.30255611298166"><ele>75.0</ele><time>2026-04-09T14:13:38.002Z</time></trkpt><trkpt lat="44.77856001515266" lon="10.302653898318432"><ele>75.0</ele><time>2026-04-09T14:13:39.002Z</time></trkpt><trkpt lat="44.778475139934116" lon="10.302704749856323"><ele>75.16666666666667</ele><time>2026-04-09T14:13:40.002Z</time></trkpt><trkpt lat="44.77839586057664" lon="10.302802283708742"><ele>75.33333333333333</ele><time>2026-04-09T14:13:41.002Z</time></trkpt><trkpt lat="44.77831009604022" lon="10.302866552919498"><ele>75.5</ele><time>2026-04-09T14:13:42.002Z</time></trkpt><trkpt lat="44.77823564594417" lon="10.30290751189403"><ele>75.66666666666666</ele><time>2026-04-09T14:13:43.002Z</time></trkpt><trkpt lat="44.77816916172466" lon="10.302910480717463"><ele>75.83333333333333</ele><time>2026-04-09T14:13:44.002Z</time></trkpt><trkpt lat="44.778110332957816" lon="10.302878364465991"><ele>76.0</ele><time>2026-04-09T14:13:45.002Z</time></trkpt><trkpt lat="44.778065864231706" lon="10.30277908600197"><ele>76.0</ele><time>2026-04-09T14:13:46.002Z</time></trkpt><trkpt lat="44.77798017786613" lon="10.30269425438543"><ele>76.0</ele><time>2026-04-09T14:13:47.002Z</time></trkpt><trkpt lat="44.77789776771468" lon="10.302573839191924"><ele>76.0</ele><time>2026-04-09T14:13:48.002Z</time></trkpt><trkpt lat="44.7778050657173" lon="10.302463002811248"><ele>76.0</ele><time>2026-04-09T14:13:49.002Z</time></trkpt><trkpt lat="44.77769835610087" lon="10.302361690778277"><ele>76.25</ele><time>2026-04-09T14:13:50.002Z</time></trkpt><trkpt lat="44.77757807676653" lon="10.302262028719955"><ele>76.5</ele><time>2026-04-09T14:13:51.002Z</time></trkpt><trkpt lat="44.777450641223005" lon="10.302168948082064"><ele>76.75</ele><time>2026-04-09T14:13:52.002Z</time></trkpt><trkpt lat="44.77732725375662" lon="10.302082014616781"><ele>77.0</ele><time>2026-04-09T14:13:53.002Z</time></trkpt><trkpt lat="44.777225404619365" lon="10.302013067879296"><ele>77.0</ele><time>2026-04-09T14:13:54.002Z</time></trkpt><trkpt lat="44.77714121641653" lon="10.301963234486742"><ele>77.0</ele><time>2026-04-09T14:13:55.002Z</time></trkpt><trkpt lat="44.777062299788014" lon="10.301924372174552"><ele>77.0</ele><time>2026-04-09T14:13:56.002Z</time></trkpt><trkpt lat="44.776978306080096" lon="10.301827886955495"><ele>77.0</ele><time>2026-04-09T14:13:57Z</time></trkpt><trkpt lat="44.776871820352156" lon="10.301725686320534"><ele>77.0</ele><time>2026-04-09T14:13:58Z</time></trkpt><trkpt lat="44.77674995857694" lon="10.301607220045474"><ele>76.66666666666667</ele><time>2026-04-09T14:13:59Z</time></trkpt><trkpt lat="44.776613065829125" lon="10.301498388590167"><ele>76.33333333333333</ele><time>2026-04-09T14:14:00Z</time></trkpt><trkpt lat="44.7764966041634" lon="10.301347257069931"><ele>76.0</ele><time>2026-04-09T14:14:01Z</time></trkpt><trkpt lat="44.7763584587116" lon="10.301211730055602"><ele>76.0</ele><time>2026-04-09T14:14:02Z</time></trkpt><trkpt lat="44.77622213182676" lon="10.301088530892573"><ele>76.0</ele><time>2026-04-09T14:14:03Z</time></trkpt><trkpt lat="44.776085374167096" lon="10.300990441646972"><ele>76.0</ele><time>2026-04-09T14:14:04Z</time></trkpt><trkpt lat="44.775965214425014" lon="10.300860255913499"><ele>76.66666666666666</ele><time>2026-04-09T14:14:05Z</time></trkpt><trkpt lat="44.77585176169835" lon="10.300722892124933"><ele>77.33333333333333</ele><time>2026-04-09T14:14:06Z</time></trkpt><trkpt lat="44.775735702510126" lon="10.300564431853743"><ele>78.0</ele><time>2026-04-09T14:14:07Z</time></trkpt><trkpt lat="44.77561582980579" lon="10.300384348137776"><ele>78.33333333333333</ele><time>2026-04-09T14:14:08Z</time></trkpt><trkpt lat="44.7754848110125" lon="10.300205153987903"><ele>78.66666666666666</ele><time>2026-04-09T14:14:09Z</time></trkpt><trkpt lat="44.77534027030407" lon="10.300042963825298"><ele>79.0</ele><time>2026-04-09T14:14:10Z</time></trkpt><trkpt lat="44.775185976130295" lon="10.299922917150806"><ele>79.0</ele><time>2026-04-09T14:14:11Z</time></trkpt><trkpt lat="44.77503988856437" lon="10.299810963199223"><ele>79.0</ele><time>2026-04-09T14:14:12Z</time></trkpt><trkpt lat="44.77490466873575" lon="10.299693596456668"><ele>79.0</ele><time>2026-04-09T14:14:13Z</time></trkpt><trkpt lat="44.77477411641447" lon="10.29960364799004"><ele>79.25</ele><time>2026-04-09T14:14:14Z</time></trkpt><trkpt lat="44.77464610583579" lon="10.299503122946744"><ele>79.5</ele><time>2026-04-09T14:14:15Z</time></trkpt><trkpt lat="44.774519317224616" lon="10.299405960985116"><ele>79.75</ele><time>2026-04-09T14:14:16Z</time></trkpt><trkpt lat="44.77439322348622" lon="10.299308808288513"><ele>80.0</ele><time>2026-04-09T14:14:17Z</time></trkpt><trkpt lat="44.77427722959159" lon="10.299189782629986"><ele>79.5</ele><time>2026-04-09T14:14:18Z</time></trkpt><trkpt lat="44.774146750518305" lon="10.299103104598231"><ele>79.0</ele><time>2026-04-09T14:14:19Z</time></trkpt><trkpt lat="44.77402929663166" lon="10.298986175417994"><ele>78.5</ele><time>2026-04-09T14:14:20Z</time></trkpt><trkpt lat="44.773918067991666" lon="10.298870056923025"><ele>78.0</ele><time>2026-04-09T14:14:21Z</time></trkpt><trkpt lat="44.77381516651062" lon="10.298761674655001"><ele>78.0</ele><time>2026-04-09T14:14:22Z</time></trkpt><trkpt lat="44.77372269881757" lon="10.29865346774453"><ele>78.0</ele><time>2026-04-09T14:14:23.001Z</time></trkpt><trkpt lat="44.77362436850982" lon="10.298544994001574"><ele>78.0</ele><time>2026-04-09T14:14:24.001Z</time></trkpt><trkpt lat="44.77351608616223" lon="10.29842433815553"><ele>78.0</ele><time>2026-04-09T14:14:25.001Z</time></trkpt><trkpt lat="44.77341643840274" lon="10.298292796268017"><ele>78.0</ele><time>2026-04-09T14:14:26.001Z</time></trkpt><trkpt lat="44.77332211627872" lon="10.29814315724647"><ele>78.0</ele><time>2026-04-09T14:14:27.001Z</time></trkpt><trkpt lat="44.77322737311266" lon="10.2979979740151"><ele>78.0</ele><time>2026-04-09T14:14:28.001Z</time></trkpt><trkpt lat="44.773131032617755" lon="10.297848767600014"><ele>78.0</ele><time>2026-04-09T14:14:29.001Z</time></trkpt><trkpt lat="44.77303934938842" lon="10.297689362157982"><ele>78.0</ele><time>2026-04-09T14:14:30.001Z</time></trkpt><trkpt lat="44.772947335100596" lon="10.297529921509296"><ele>78.0</ele><time>2026-04-09T14:14:31.001Z</time></trkpt><trkpt lat="44.77284889531336" lon="10.297364165626888"><ele>78.0</ele><time>2026-04-09T14:14:32.001Z</time></trkpt><trkpt lat="44.772759829984295" lon="10.2972062922571"><ele>78.0</ele><time>2026-04-09T14:14:33.001Z</time></trkpt><trkpt lat="44.77267605107294" lon="10.297056293875452"><ele>78.25</ele><time>2026-04-09T14:14:34.001Z</time></trkpt><trkpt lat="44.77259495697158" lon="10.296910219034187"><ele>78.5</ele><time>2026-04-09T14:14:35.001Z</time></trkpt><trkpt lat="44.77252625428562" lon="10.296750092755065"><ele>78.75</ele><time>2026-04-09T14:14:36.001Z</time></trkpt><trkpt lat="44.77249273664113" lon="10.296581248725376"><ele>79.0</ele><time>2026-04-09T14:14:37.001Z</time></trkpt><trkpt lat="44.77245201272192" lon="10.296427767556162"><ele>79.25</ele><time>2026-04-09T14:14:38.001Z</time></trkpt><trkpt lat="44.77239970372505" lon="10.296277703713777"><ele>79.5</ele><time>2026-04-09T14:14:39.001Z</time></trkpt><trkpt lat="44.7723591578726" lon="10.29610165394127"><ele>79.75</ele><time>2026-04-09T14:14:40.001Z</time></trkpt><trkpt lat="44.77231024646761" lon="10.295921057652548"><ele>80.0</ele><time>2026-04-09T14:14:41.001Z</time></trkpt><trkpt lat="44.772254707855446" lon="10.295734175805691"><ele>81.0</ele><time>2026-04-09T14:14:42.001Z</time></trkpt><trkpt lat="44.77219919325301" lon="10.295541292243426"><ele>82.0</ele><time>2026-04-09T14:14:43.001Z</time></trkpt><trkpt lat="44.77214327765123" lon="10.295342307761324"><ele>83.0</ele><time>2026-04-09T14:14:44.001Z</time></trkpt><trkpt lat="44.7720645201611" lon="10.295161005253268"><ele>83.0</ele><time>2026-04-09T14:14:45.001Z</time></trkpt><trkpt lat="44.77199020462685" lon="10.294979199702514"><ele>83.0</ele><time>2026-04-09T14:14:46.001Z</time></trkpt><trkpt lat="44.77191190291031" lon="10.29479483464012"><ele>83.0</ele><time>2026-04-09T14:14:47.001Z</time></trkpt><trkpt lat="44.771839121639054" lon="10.294624200486748"><ele>83.0</ele><time>2026-04-09T14:14:48.001Z</time></trkpt><trkpt lat="44.77177361154062" lon="10.294468532852727"><ele>82.60000000000001</ele><time>2026-04-09T14:14:49.001Z</time></trkpt><trkpt lat="44.771714378227365" lon="10.294325480584261"><ele>82.2</ele><time>2026-04-09T14:14:50.001Z</time></trkpt><trkpt lat="44.77166038517069" lon="10.294192754249087"><ele>81.8</ele><time>2026-04-09T14:14:51.001Z</time></trkpt><trkpt lat="44.771613045503436" lon="10.294069120307764"><ele>81.4</ele><time>2026-04-09T14:14:52.001Z</time></trkpt><trkpt lat="44.77157611403201" lon="10.293952029408016"><ele>81.0</ele><time>2026-04-09T14:14:53.001Z</time></trkpt><trkpt lat="44.77154242787216" lon="10.293819270380748"><ele>81.0</ele><time>2026-04-09T14:14:54.001Z</time></trkpt><trkpt lat="44.77150909778824" lon="10.293673308022662"><ele>81.0</ele><time>2026-04-09T14:14:55.001Z</time></trkpt><trkpt lat="44.77147331855585" lon="10.293516831295"><ele>81.0</ele><time>2026-04-09T14:14:56.001Z</time></trkpt><trkpt lat="44.77144266397602" lon="10.293347058753573"><ele>81.0</ele><time>2026-04-09T14:14:57.001Z</time></trkpt><trkpt lat="44.77141407021774" lon="10.29317127987131"><ele>82.25</ele><time>2026-04-09T14:14:58.001Z</time></trkpt><trkpt lat="44.771380577618814" lon="10.292990297037738"><ele>83.5</ele><time>2026-04-09T14:14:59.001Z</time></trkpt><trkpt lat="44.77134388531252" lon="10.292802419286097"><ele>84.75</ele><time>2026-04-09T14:15:00.001Z</time></trkpt><trkpt lat="44.77131124292747" lon="10.292612877110216"><ele>86.0</ele><time>2026-04-09T14:15:01.001Z</time></trkpt><trkpt lat="44.771263449920234" lon="10.292426961127969"><ele>85.5</ele><time>2026-04-09T14:15:02.001Z</time></trkpt><trkpt lat="44.771233199736244" lon="10.29222181027046"><ele>85.0</ele><time>2026-04-09T14:15:03.001Z</time></trkpt><trkpt lat="44.771175799071614" lon="10.292039193078002"><ele>84.5</ele><time>2026-04-09T14:15:04.001Z</time></trkpt><trkpt lat="44.7711387019556" lon="10.291862901396538"><ele>84.0</ele><time>2026-04-09T14:15:05.001Z</time></trkpt><trkpt lat="44.77109555332179" lon="10.291692834069806"><ele>84.0</ele><time>2026-04-09T14:15:06.001Z</time></trkpt><trkpt lat="44.77105171279653" lon="10.291510513552696"><ele>84.0</ele><time>2026-04-09T14:15:07.001Z</time></trkpt><trkpt lat="44.77099414600548" lon="10.291329548619165"><ele>84.0</ele><time>2026-04-09T14:15:08.001Z</time></trkpt><trkpt lat="44.77093400916995" lon="10.29116715432386"><ele>84.0</ele><time>2026-04-09T14:15:09.001Z</time></trkpt><trkpt lat="44.770873379832594" lon="10.291024677371988"><ele>84.0</ele><time>2026-04-09T14:15:10.001Z</time></trkpt><trkpt lat="44.77079859225779" lon="10.290896769352875"><ele>84.0</ele><time>2026-04-09T14:15:11.001Z</time></trkpt><trkpt lat="44.770700899061666" lon="10.290775689729893"><ele>84.0</ele><time>2026-04-09T14:15:12.001Z</time></trkpt><trkpt lat="44.770589913867205" lon="10.290676009753275"><ele>84.0</ele><time>2026-04-09T14:15:13.001Z</time></trkpt><trkpt lat="44.770479794781515" lon="10.290581234559205"><ele>84.0</ele><time>2026-04-09T14:15:14.001Z</time></trkpt><trkpt lat="44.77037017359932" lon="10.290487192868836"><ele>84.0</ele><time>2026-04-09T14:15:15.001Z</time></trkpt><trkpt lat="44.7702614349854" lon="10.29039396877396"><ele>84.0</ele><time>2026-04-09T14:15:16.001Z</time></trkpt><trkpt lat="44.7701680691285" lon="10.290313924079799"><ele>84.0</ele><time>2026-04-09T14:15:17.001Z</time></trkpt><trkpt lat="44.77007407560865" lon="10.290235343204753"><ele>84.5</ele><time>2026-04-09T14:15:18.002Z</time></trkpt><trkpt lat="44.76997695618912" lon="10.290157904560248"><ele>85.0</ele><time>2026-04-09T14:15:19.002Z</time></trkpt><trkpt lat="44.76985907793342" lon="10.29009577340493"><ele>85.5</ele><time>2026-04-09T14:15:20.002Z</time></trkpt><trkpt lat="44.76974554776949" lon="10.290022847859083"><ele>86.0</ele><time>2026-04-09T14:15:21.002Z</time></trkpt><trkpt lat="44.769626982916094" lon="10.289973136775435"><ele>86.0</ele><time>2026-04-09T14:15:22.002Z</time></trkpt><trkpt lat="44.769503088683685" lon="10.289949883145233"><ele>86.0</ele><time>2026-04-09T14:15:23.002Z</time></trkpt><trkpt lat="44.769374556369264" lon="10.289966567147403"><ele>86.0</ele><time>2026-04-09T14:15:24.002Z</time></trkpt><trkpt lat="44.76924138825323" lon="10.29000832598406"><ele>86.0</ele><time>2026-04-09T14:15:25.002Z</time></trkpt><trkpt lat="44.76910785501962" lon="10.290041498565376"><ele>85.75</ele><time>2026-04-09T14:15:26.002Z</time></trkpt><trkpt lat="44.768969994013716" lon="10.290054886410774"><ele>85.5</ele><time>2026-04-09T14:15:27.002Z</time></trkpt><trkpt lat="44.768832376958024" lon="10.290038263918088"><ele>85.25</ele><time>2026-04-09T14:15:28.002Z</time></trkpt><trkpt lat="44.76870108605647" lon="10.289998343581594"><ele>85.0</ele><time>2026-04-09T14:15:29.002Z</time></trkpt><trkpt lat="44.76859308455249" lon="10.289919925805126"><ele>85.2</ele><time>2026-04-09T14:15:30.002Z</time></trkpt><trkpt lat="44.768499516015844" lon="10.289870712248995"><ele>85.4</ele><time>2026-04-09T14:15:31.002Z</time></trkpt><trkpt lat="44.768412011145706" lon="10.289785567873578"><ele>85.6</ele><time>2026-04-09T14:15:32.002Z</time></trkpt><trkpt lat="44.768328092566676" lon="10.289681827949199"><ele>85.8</ele><time>2026-04-09T14:15:33.002Z</time></trkpt><trkpt lat="44.768247090061514" lon="10.289548522262166"><ele>86.0</ele><time>2026-04-09T14:15:34.002Z</time></trkpt><trkpt lat="44.76815734927301" lon="10.289409992960351"><ele>86.0</ele><time>2026-04-09T14:15:35.002Z</time></trkpt><trkpt lat="44.768068846073135" lon="10.289278054149527"><ele>86.0</ele><time>2026-04-09T14:15:36.002Z</time></trkpt><trkpt lat="44.76798318541661" lon="10.289148987770881"><ele>86.0</ele><time>2026-04-09T14:15:37.002Z</time></trkpt><trkpt lat="44.76790293895026" lon="10.289036150383131"><ele>86.0</ele><time>2026-04-09T14:15:38.002Z</time></trkpt><trkpt lat="44.7678376012629" lon="10.288937045859353"><ele>86.16666666666667</ele><time>2026-04-09T14:15:39.002Z</time></trkpt><trkpt lat="44.76778456120959" lon="10.288856848036126"><ele>86.33333333333334</ele><time>2026-04-09T14:15:40.002Z</time></trkpt><trkpt lat="44.767723748643114" lon="10.288765073258082"><ele>86.5</ele><time>2026-04-09T14:15:42.002Z</time></trkpt><trkpt lat="44.76767098562826" lon="10.288689350666132"><ele>86.66666666666667</ele><time>2026-04-09T14:15:44.002Z</time></trkpt><trkpt lat="44.76758343644871" lon="10.288576776594295"><ele>86.83333333333333</ele><time>2026-04-09T14:15:46.002Z</time></trkpt><trkpt lat="44.76753789738309" lon="10.288512673282007"><ele>87.0</ele><time>2026-04-09T14:15:47.002Z</time></trkpt><trkpt lat="44.76748487095852" lon="10.288438102434428"><ele>86.0</ele><time>2026-04-09T14:15:48.002Z</time></trkpt><trkpt lat="44.767427918002966" lon="10.28835256970584"><ele>85.0</ele><time>2026-04-09T14:15:49.002Z</time></trkpt><trkpt lat="44.76736812636796" lon="10.28826400342019"><ele>84.0</ele><time>2026-04-09T14:15:50.002Z</time></trkpt><trkpt lat="44.76730556129871" lon="10.288174203038128"><ele>83.0</ele><time>2026-04-09T14:15:51.002Z</time></trkpt><trkpt lat="44.76723693503244" lon="10.288069210351793"><ele>82.0</ele><time>2026-04-09T14:15:52.002Z</time></trkpt><trkpt lat="44.76716642897477" lon="10.28795975301275"><ele>82.0</ele><time>2026-04-09T14:15:53.002Z</time></trkpt><trkpt lat="44.767094043619664" lon="10.28784333821268"><ele>82.0</ele><time>2026-04-09T14:15:54.002Z</time></trkpt><trkpt lat="44.76701879602014" lon="10.287712039108868"><ele>82.0</ele><time>2026-04-09T14:15:55.002Z</time></trkpt><trkpt lat="44.76695793260946" lon="10.287550021616545"><ele>82.0</ele><time>2026-04-09T14:15:56.002Z</time></trkpt><trkpt lat="44.76687739494844" lon="10.287413002867321"><ele>82.0</ele><time>2026-04-09T14:15:57.002Z</time></trkpt><trkpt lat="44.766814569923206" lon="10.287288228418866"><ele>82.0</ele><time>2026-04-09T14:15:58.002Z</time></trkpt><trkpt lat="44.76676822548539" lon="10.287156581380973"><ele>82.0</ele><time>2026-04-09T14:15:59.002Z</time></trkpt><trkpt lat="44.766693137997784" lon="10.2870351287484"><ele>82.0</ele><time>2026-04-09T14:16:00.002Z</time></trkpt><trkpt lat="44.766629801686044" lon="10.286888406359152"><ele>82.0</ele><time>2026-04-09T14:16:01.002Z</time></trkpt><trkpt lat="44.766561483933735" lon="10.286730468405235"><ele>82.25</ele><time>2026-04-09T14:16:02.002Z</time></trkpt><trkpt lat="44.766492606253976" lon="10.286565990616488"><ele>82.5</ele><time>2026-04-09T14:16:03.001Z</time></trkpt><trkpt lat="44.76642561346524" lon="10.286399059211346"><ele>82.75</ele><time>2026-04-09T14:16:04.001Z</time></trkpt><trkpt lat="44.766361837468004" lon="10.286229136266254"><ele>83.0</ele><time>2026-04-09T14:16:05.001Z</time></trkpt><trkpt lat="44.766299266230156" lon="10.2860603219918"><ele>84.75</ele><time>2026-04-09T14:16:06.001Z</time></trkpt><trkpt lat="44.76623468735768" lon="10.28588177215395"><ele>86.5</ele><time>2026-04-09T14:16:07.001Z</time></trkpt><trkpt lat="44.76617356293236" lon="10.285709003860026"><ele>88.25</ele><time>2026-04-09T14:16:08.001Z</time></trkpt><trkpt lat="44.76611343085087" lon="10.285545019486731"><ele>90.0</ele><time>2026-04-09T14:16:09.001Z</time></trkpt><trkpt lat="44.76605099339614" lon="10.285379887414145"><ele>90.0</ele><time>2026-04-09T14:16:10.001Z</time></trkpt><trkpt lat="44.76599516905271" lon="10.28521032848899"><ele>90.0</ele><time>2026-04-09T14:16:11.001Z</time></trkpt><trkpt lat="44.7659362077979" lon="10.285041913125099"><ele>90.0</ele><time>2026-04-09T14:16:12.001Z</time></trkpt><trkpt lat="44.76587842648191" lon="10.284868795039676"><ele>90.0</ele><time>2026-04-09T14:16:13.001Z</time></trkpt><trkpt lat="44.76581421301773" lon="10.284693617378807"><ele>90.75</ele><time>2026-04-09T14:16:14.001Z</time></trkpt><trkpt lat="44.76575222920121" lon="10.284510908420383"><ele>91.5</ele><time>2026-04-09T14:16:15.001Z</time></trkpt><trkpt lat="44.765685738165075" lon="10.284332353567924"><ele>92.25</ele><time>2026-04-09T14:16:16.001Z</time></trkpt><trkpt lat="44.765615911749364" lon="10.284155489223004"><ele>93.0</ele><time>2026-04-09T14:16:17.001Z</time></trkpt><trkpt lat="44.76553768762283" lon="10.283983158305793"><ele>92.5</ele><time>2026-04-09T14:16:18.001Z</time></trkpt><trkpt lat="44.76545805607008" lon="10.283811186673777"><ele>92.0</ele><time>2026-04-09T14:16:19.001Z</time></trkpt><trkpt lat="44.7653765984311" lon="10.283642564139239"><ele>91.5</ele><time>2026-04-09T14:16:20.001Z</time></trkpt><trkpt lat="44.76528690231746" lon="10.283480226622427"><ele>91.0</ele><time>2026-04-09T14:16:21.001Z</time></trkpt><trkpt lat="44.76519908996426" lon="10.283321979296549"><ele>90.5</ele><time>2026-04-09T14:16:22.001Z</time></trkpt><trkpt lat="44.7651114405817" lon="10.283167819643609"><ele>90.0</ele><time>2026-04-09T14:16:23.001Z</time></trkpt><trkpt lat="44.765014504200245" lon="10.283031380079843"><ele>89.5</ele><time>2026-04-09T14:16:24.001Z</time></trkpt><trkpt lat="44.76490699506594" lon="10.282913539567852"><ele>89.0</ele><time>2026-04-09T14:16:25.001Z</time></trkpt><trkpt lat="44.76479220478713" lon="10.282799131775159"><ele>89.0</ele><time>2026-04-09T14:16:26.001Z</time></trkpt><trkpt lat="44.764678960607306" lon="10.282684748001714"><ele>89.0</ele><time>2026-04-09T14:16:27.001Z</time></trkpt><trkpt lat="44.76456359581926" lon="10.28258255245897"><ele>89.0</ele><time>2026-04-09T14:16:28.001Z</time></trkpt><trkpt lat="44.7644475685095" lon="10.28246472211394"><ele>89.0</ele><time>2026-04-09T14:16:29.001Z</time></trkpt><trkpt lat="44.7643294745779" lon="10.282348631388722"><ele>91.0</ele><time>2026-04-09T14:16:30.001Z</time></trkpt><trkpt lat="44.76419909514359" lon="10.282237835580457"><ele>93.0</ele><time>2026-04-09T14:16:31.001Z</time></trkpt><trkpt lat="44.7640665033631" lon="10.282120735754438"><ele>95.0</ele><time>2026-04-09T14:16:32.001Z</time></trkpt><trkpt lat="44.76392759814657" lon="10.28200891684275"><ele>95.0</ele><time>2026-04-09T14:16:33.001Z</time></trkpt><trkpt lat="44.763786382590354" lon="10.28189872346482"><ele>95.0</ele><time>2026-04-09T14:16:34.001Z</time></trkpt><trkpt lat="44.76364437065818" lon="10.281787824386848"><ele>95.0</ele><time>2026-04-09T14:16:35.001Z</time></trkpt><trkpt lat="44.76350481359124" lon="10.28168047141206"><ele>94.5</ele><time>2026-04-09T14:16:36.001Z</time></trkpt><trkpt lat="44.76337339437854" lon="10.28158498023179"><ele>94.0</ele><time>2026-04-09T14:16:37.001Z</time></trkpt><trkpt lat="44.76324359437809" lon="10.281488291538999"><ele>93.5</ele><time>2026-04-09T14:16:38.001Z</time></trkpt><trkpt lat="44.763124689395056" lon="10.28139685784034"><ele>93.0</ele><time>2026-04-09T14:16:39.001Z</time></trkpt><trkpt lat="44.762998133483116" lon="10.281311469510772"><ele>92.5</ele><time>2026-04-09T14:16:40.001Z</time></trkpt><trkpt lat="44.76286958721598" lon="10.281219845108724"><ele>92.0</ele><time>2026-04-09T14:16:41.001Z</time></trkpt><trkpt lat="44.76272723178198" lon="10.281152753426483"><ele>91.5</ele><time>2026-04-09T14:16:42.001Z</time></trkpt><trkpt lat="44.76258336442721" lon="10.281089035436958"><ele>91.0</ele><time>2026-04-09T14:16:43.001Z</time></trkpt><trkpt lat="44.76243196771416" lon="10.281045501830322"><ele>91.0</ele><time>2026-04-09T14:16:44.001Z</time></trkpt><trkpt lat="44.76227598931141" lon="10.280975735514659"><ele>91.0</ele><time>2026-04-09T14:16:45.001Z</time></trkpt><trkpt lat="44.76213011406087" lon="10.280912133921408"><ele>91.0</ele><time>2026-04-09T14:16:46.001Z</time></trkpt><trkpt lat="44.76198770486705" lon="10.280827753674773"><ele>92.25</ele><time>2026-04-09T14:16:47.001Z</time></trkpt><trkpt lat="44.761857381142775" lon="10.280768459456892"><ele>93.5</ele><time>2026-04-09T14:16:48.001Z</time></trkpt><trkpt lat="44.761742501152725" lon="10.280716751684155"><ele>94.75</ele><time>2026-04-09T14:16:49.001Z</time></trkpt><trkpt lat="44.76163680142799" lon="10.280691162984521"><ele>96.0</ele><time>2026-04-09T14:16:50.001Z</time></trkpt><trkpt lat="44.761546280169064" lon="10.280644344170705"><ele>96.0</ele><time>2026-04-09T14:16:51.001Z</time></trkpt><trkpt lat="44.761472468891604" lon="10.280606410069097"><ele>96.0</ele><time>2026-04-09T14:16:52.001Z</time></trkpt><trkpt lat="44.761406127908145" lon="10.280569713181833"><ele>96.0</ele><time>2026-04-09T14:16:53.001Z</time></trkpt><trkpt lat="44.76134076964883" lon="10.280497671759973"><ele>96.0</ele><time>2026-04-09T14:16:54.001Z</time></trkpt><trkpt lat="44.76127515430583" lon="10.280398040633317"><ele>96.0</ele><time>2026-04-09T14:16:55.001Z</time></trkpt><trkpt lat="44.761206041193134" lon="10.280285617255494"><ele>96.0</ele><time>2026-04-09T14:16:56.001Z</time></trkpt><trkpt lat="44.76113069120637" lon="10.280164469815073"><ele>96.0</ele><time>2026-04-09T14:16:57.001Z</time></trkpt><trkpt lat="44.761047081963554" lon="10.280030925236632"><ele>96.0</ele><time>2026-04-09T14:16:58.001Z</time></trkpt><trkpt lat="44.76097576366004" lon="10.279909105691537"><ele>96.0</ele><time>2026-04-09T14:16:59.001Z</time></trkpt><trkpt lat="44.76090869648315" lon="10.279795679238543"><ele>96.0</ele><time>2026-04-09T14:17:00.002Z</time></trkpt><trkpt lat="44.76085197868236" lon="10.279664376964572"><ele>96.0</ele><time>2026-04-09T14:17:01.002Z</time></trkpt><trkpt lat="44.76081652536083" lon="10.279537738946514"><ele>96.0</ele><time>2026-04-09T14:17:02.002Z</time></trkpt><trkpt lat="44.760799936105066" lon="10.27939719080597"><ele>96.0</ele><time>2026-04-09T14:17:03.002Z</time></trkpt><trkpt lat="44.76079287493931" lon="10.279229066726236"><ele>96.0</ele><time>2026-04-09T14:17:04.002Z</time></trkpt><trkpt lat="44.76077030050039" lon="10.27904665755558"><ele>96.0</ele><time>2026-04-09T14:17:05.002Z</time></trkpt><trkpt lat="44.76075074109419" lon="10.27885791552695"><ele>95.75</ele><time>2026-04-09T14:17:06.002Z</time></trkpt><trkpt lat="44.760731290817375" lon="10.278672714051492"><ele>95.5</ele><time>2026-04-09T14:17:07.002Z</time></trkpt><trkpt lat="44.760713978991035" lon="10.278503507493854"><ele>95.25</ele><time>2026-04-09T14:17:08.002Z</time></trkpt><trkpt lat="44.76069542670059" lon="10.278351805157971"><ele>95.0</ele><time>2026-04-09T14:17:09.002Z</time></trkpt><trkpt lat="44.76067457212552" lon="10.278220623201525"><ele>95.0</ele><time>2026-04-09T14:17:10.002Z</time></trkpt><trkpt lat="44.76065016667083" lon="10.278103636061676"><ele>95.0</ele><time>2026-04-09T14:17:11.002Z</time></trkpt><trkpt lat="44.760613536685916" lon="10.277960044294868"><ele>95.0</ele><time>2026-04-09T14:17:12.002Z</time></trkpt><trkpt lat="44.760568109724936" lon="10.277799990773266"><ele>95.0</ele><time>2026-04-09T14:17:13.002Z</time></trkpt><trkpt lat="44.76052434404772" lon="10.277625261290522"><ele>95.0</ele><time>2026-04-09T14:17:14.002Z</time></trkpt><trkpt lat="44.760473310201036" lon="10.27744970647584"><ele>94.5</ele><time>2026-04-09T14:17:15.002Z</time></trkpt><trkpt lat="44.76041193939241" lon="10.27727023999979"><ele>94.0</ele><time>2026-04-09T14:17:16.002Z</time></trkpt><trkpt lat="44.76031404881417" lon="10.27710729094369"><ele>93.5</ele><time>2026-04-09T14:17:17.002Z</time></trkpt><trkpt lat="44.76021246598418" lon="10.27695679607616"><ele>93.0</ele><time>2026-04-09T14:17:18.002Z</time></trkpt><trkpt lat="44.76010768069671" lon="10.276802759099606"><ele>93.0</ele><time>2026-04-09T14:17:19.002Z</time></trkpt><trkpt lat="44.75999151166686" lon="10.276664641729212"><ele>93.0</ele><time>2026-04-09T14:17:20.002Z</time></trkpt><trkpt lat="44.75991052824894" lon="10.276493879125823"><ele>93.0</ele><time>2026-04-09T14:17:21.002Z</time></trkpt><trkpt lat="44.75981901412898" lon="10.276330894325774"><ele>93.0</ele><time>2026-04-09T14:17:22.002Z</time></trkpt><trkpt lat="44.75971398025843" lon="10.27617755289413"><ele>93.0</ele><time>2026-04-09T14:17:23.002Z</time></trkpt><trkpt lat="44.75962800761351" lon="10.276001934475872"><ele>93.0</ele><time>2026-04-09T14:17:24.002Z</time></trkpt><trkpt lat="44.75955969087182" lon="10.275812249542415"><ele>93.0</ele><time>2026-04-09T14:17:25.002Z</time></trkpt><trkpt lat="44.75948139689423" lon="10.275630648153708"><ele>91.66666666666667</ele><time>2026-04-09T14:17:26.002Z</time></trkpt><trkpt lat="44.75940137015996" lon="10.275434445727216"><ele>90.33333333333334</ele><time>2026-04-09T14:17:27.002Z</time></trkpt><trkpt lat="44.75932162309244" lon="10.275231141200791"><ele>89.0</ele><time>2026-04-09T14:17:28.002Z</time></trkpt><trkpt lat="44.759244049147725" lon="10.275026823224124"><ele>91.66666666666667</ele><time>2026-04-09T14:17:29.002Z</time></trkpt><trkpt lat="44.759166580267085" lon="10.274821892884725"><ele>94.33333333333334</ele><time>2026-04-09T14:17:30.002Z</time></trkpt><trkpt lat="44.75909326305904" lon="10.27463533867125"><ele>97.0</ele><time>2026-04-09T14:17:31.002Z</time></trkpt><trkpt lat="44.75900995440681" lon="10.274470836711679"><ele>97.0</ele><time>2026-04-09T14:17:32.002Z</time></trkpt><trkpt lat="44.758949707941845" lon="10.274310314080186"><ele>97.0</ele><time>2026-04-09T14:17:33.002Z</time></trkpt><trkpt lat="44.75889531251521" lon="10.274161901012643"><ele>97.0</ele><time>2026-04-09T14:17:34.002Z</time></trkpt><trkpt lat="44.75884148108103" lon="10.274026938576702"><ele>97.0</ele><time>2026-04-09T14:17:35.002Z</time></trkpt><trkpt lat="44.758792889658565" lon="10.27389651953705"><ele>97.0</ele><time>2026-04-09T14:17:36.002Z</time></trkpt><trkpt lat="44.758749296128286" lon="10.273782780003613"><ele>97.0</ele><time>2026-04-09T14:17:37.002Z</time></trkpt><trkpt lat="44.75869415347689" lon="10.273679334739697"><ele>97.0</ele><time>2026-04-09T14:17:38.002Z</time></trkpt><trkpt lat="44.7586132051861" lon="10.273591007654856"><ele>97.0</ele><time>2026-04-09T14:17:39.002Z</time></trkpt><trkpt lat="44.758523018189074" lon="10.273520945118708"><ele>97.0</ele><time>2026-04-09T14:17:40.002Z</time></trkpt><trkpt lat="44.758433433104976" lon="10.273468513785401"><ele>97.5</ele><time>2026-04-09T14:17:41.002Z</time></trkpt><trkpt lat="44.75832974858879" lon="10.273419887688904"><ele>98.0</ele><time>2026-04-09T14:17:42.002Z</time></trkpt><trkpt lat="44.75821925170103" lon="10.273368771019234"><ele>98.5</ele><time>2026-04-09T14:17:43.002Z</time></trkpt><trkpt lat="44.7581136165465" lon="10.273288599693643"><ele>99.0</ele><time>2026-04-09T14:17:44.002Z</time></trkpt><trkpt lat="44.757996083465855" lon="10.27322691434059"><ele>99.0</ele><time>2026-04-09T14:17:45.002Z</time></trkpt><trkpt lat="44.757876009490914" lon="10.27316389381558"><ele>99.0</ele><time>2026-04-09T14:17:46.002Z</time></trkpt><trkpt lat="44.757752428501085" lon="10.273100360514968"><ele>99.0</ele><time>2026-04-09T14:17:47.002Z</time></trkpt><trkpt lat="44.75762586231112" lon="10.273038725086396"><ele>99.0</ele><time>2026-04-09T14:17:48.002Z</time></trkpt><trkpt lat="44.75749410482514" lon="10.272976526420937"><ele>98.75</ele><time>2026-04-09T14:17:49.002Z</time></trkpt><trkpt lat="44.75735882675847" lon="10.272916148981773"><ele>98.5</ele><time>2026-04-09T14:17:50.002Z</time></trkpt><trkpt lat="44.75722340906435" lon="10.272858767998237"><ele>98.25</ele><time>2026-04-09T14:17:51.002Z</time></trkpt><trkpt lat="44.75707871223065" lon="10.272799341920729"><ele>98.0</ele><time>2026-04-09T14:17:52.002Z</time></trkpt><trkpt lat="44.756933078133166" lon="10.272736198558576"><ele>98.33333333333333</ele><time>2026-04-09T14:17:53.002Z</time></trkpt><trkpt lat="44.75677905717217" lon="10.272675912419947"><ele>98.66666666666666</ele><time>2026-04-09T14:17:54.002Z</time></trkpt><trkpt lat="44.75662284860668" lon="10.272632127730189"><ele>99.0</ele><time>2026-04-09T14:17:55.002Z</time></trkpt><trkpt lat="44.75646676107156" lon="10.272621855097524"><ele>99.0</ele><time>2026-04-09T14:17:56.002Z</time></trkpt><trkpt lat="44.756320733247975" lon="10.272592664528373"><ele>99.0</ele><time>2026-04-09T14:17:57.002Z</time></trkpt><trkpt lat="44.756189473383294" lon="10.272569854789534"><ele>99.0</ele><time>2026-04-09T14:17:58.002Z</time></trkpt><trkpt lat="44.75605387385542" lon="10.272537646847846"><ele>99.0</ele><time>2026-04-09T14:17:59.002Z</time></trkpt><trkpt lat="44.75592422438847" lon="10.272479730060004"><ele>100.25</ele><time>2026-04-09T14:18:00.002Z</time></trkpt><trkpt lat="44.75578377606329" lon="10.272454724381515"><ele>101.5</ele><time>2026-04-09T14:18:01.003Z</time></trkpt><trkpt lat="44.755643192058905" lon="10.272406940781574"><ele>102.75</ele><time>2026-04-09T14:18:02.003Z</time></trkpt><trkpt lat="44.75550065547827" lon="10.272350386342435"><ele>104.0</ele><time>2026-04-09T14:18:03.003Z</time></trkpt><trkpt lat="44.75535154690196" lon="10.27228700542823"><ele>104.33333333333333</ele><time>2026-04-09T14:18:04.003Z</time></trkpt><trkpt lat="44.755196536911264" lon="10.272223323528157"><ele>104.66666666666666</ele><time>2026-04-09T14:18:05.003Z</time></trkpt><trkpt lat="44.75504580915623" lon="10.272163840187236"><ele>105.0</ele><time>2026-04-09T14:18:06.003Z</time></trkpt><trkpt lat="44.75489968847697" lon="10.27207971274654"><ele>105.0</ele><time>2026-04-09T14:18:07.003Z</time></trkpt><trkpt lat="44.7547552446053" lon="10.272019659599007"><ele>105.0</ele><time>2026-04-09T14:18:08.003Z</time></trkpt><trkpt lat="44.75460943741478" lon="10.271957162155957"><ele>105.0</ele><time>2026-04-09T14:18:09.002Z</time></trkpt><trkpt lat="44.754455540186584" lon="10.271893738436566"><ele>104.33333333333334</ele><time>2026-04-09T14:18:10.002Z</time></trkpt><trkpt lat="44.754291259057794" lon="10.271828253261353"><ele>103.66666666666667</ele><time>2026-04-09T14:18:11.002Z</time></trkpt><trkpt lat="44.754115686262324" lon="10.27175947556549"><ele>103.0</ele><time>2026-04-09T14:18:12.002Z</time></trkpt><trkpt lat="44.75394704986529" lon="10.271694881084201"><ele>103.0</ele><time>2026-04-09T14:18:13.002Z</time></trkpt><trkpt lat="44.75378769251425" lon="10.271632361003572"><ele>103.0</ele><time>2026-04-09T14:18:14.002Z</time></trkpt><trkpt lat="44.753637325448786" lon="10.271570988207316"><ele>103.0</ele><time>2026-04-09T14:18:15.002Z</time></trkpt><trkpt lat="44.753497809487726" lon="10.271510886808322"><ele>103.0</ele><time>2026-04-09T14:18:16.002Z</time></trkpt><trkpt lat="44.753356012132045" lon="10.271454373350076"><ele>103.0</ele><time>2026-04-09T14:18:17.002Z</time></trkpt><trkpt lat="44.753228712689854" lon="10.271338520515249"><ele>103.0</ele><time>2026-04-09T14:18:18.002Z</time></trkpt><trkpt lat="44.75310749484925" lon="10.271223077753108"><ele>103.0</ele><time>2026-04-09T14:18:19.002Z</time></trkpt><trkpt lat="44.752996598204035" lon="10.271092508701093"><ele>103.0</ele><time>2026-04-09T14:18:20.002Z</time></trkpt><trkpt lat="44.75288646737599" lon="10.270947228924621"><ele>103.0</ele><time>2026-04-09T14:18:21.002Z</time></trkpt><trkpt lat="44.7527745709816" lon="10.270799649007504"><ele>103.0</ele><time>2026-04-09T14:18:22.002Z</time></trkpt><trkpt lat="44.752658843255524" lon="10.270647016322055"><ele>103.33333333333334</ele><time>2026-04-09T14:18:23.002Z</time></trkpt><trkpt lat="44.752542570191075" lon="10.270493664435831"><ele>103.66666666666666</ele><time>2026-04-09T14:18:24.002Z</time></trkpt><trkpt lat="44.75242434228074" lon="10.270337735602295"><ele>104.0</ele><time>2026-04-09T14:18:25.002Z</time></trkpt><trkpt lat="44.75230465517735" lon="10.270179880946575"><ele>104.0</ele><time>2026-04-09T14:18:26.002Z</time></trkpt><trkpt lat="44.75218214130008" lon="10.270018297955751"><ele>104.0</ele><time>2026-04-09T14:18:27.002Z</time></trkpt><trkpt lat="44.75206067250072" lon="10.269858093303645"><ele>104.0</ele><time>2026-04-09T14:18:28.002Z</time></trkpt><trkpt lat="44.75193927288948" lon="10.269697979849788"><ele>105.66666666666666</ele><time>2026-04-09T14:18:29.002Z</time></trkpt><trkpt lat="44.751816058529094" lon="10.269535472999538"><ele>107.33333333333334</ele><time>2026-04-09T14:18:30.002Z</time></trkpt><trkpt lat="44.75169155698264" lon="10.269371268676673"><ele>109.0</ele><time>2026-04-09T14:18:31.002Z</time></trkpt><trkpt lat="44.75156116711162" lon="10.269199297971063"><ele>109.0</ele><time>2026-04-09T14:18:32.002Z</time></trkpt><trkpt lat="44.751440052441595" lon="10.26903956036644"><ele>109.0</ele><time>2026-04-09T14:18:33.001Z</time></trkpt><trkpt lat="44.75132451931623" lon="10.268887184457313"><ele>109.0</ele><time>2026-04-09T14:18:34.001Z</time></trkpt><trkpt lat="44.751206621945535" lon="10.268731690179196"><ele>108.66666666666667</ele><time>2026-04-09T14:18:35.001Z</time></trkpt><trkpt lat="44.75108902170743" lon="10.268577187743746"><ele>108.33333333333334</ele><time>2026-04-09T14:18:36.001Z</time></trkpt><trkpt lat="44.7509732417058" lon="10.268425147113431"><ele>108.0</ele><time>2026-04-09T14:18:37.001Z</time></trkpt><trkpt lat="44.750854014536515" lon="10.268271066447912"><ele>108.0</ele><time>2026-04-09T14:18:38.001Z</time></trkpt><trkpt lat="44.75073527531926" lon="10.268121526173593"><ele>108.0</ele><time>2026-04-09T14:18:39.001Z</time></trkpt><trkpt lat="44.75061456528407" lon="10.267975153871578"><ele>108.0</ele><time>2026-04-09T14:18:40.001Z</time></trkpt><trkpt lat="44.75049182699146" lon="10.267829455856111"><ele>108.0</ele><time>2026-04-09T14:18:41.001Z</time></trkpt><trkpt lat="44.75035751789822" lon="10.267699291195418"><ele>108.0</ele><time>2026-04-09T14:18:42.002Z</time></trkpt><trkpt lat="44.75022837271822" lon="10.26755025405097"><ele>108.0</ele><time>2026-04-09T14:18:43.002Z</time></trkpt><trkpt lat="44.750103738276636" lon="10.267386601617911"><ele>107.66666666666666</ele><time>2026-04-09T14:18:44.002Z</time></trkpt><trkpt lat="44.749968459087015" lon="10.2672460119898"><ele>107.33333333333333</ele><time>2026-04-09T14:18:45.002Z</time></trkpt><trkpt lat="44.749829945932355" lon="10.267129663074764"><ele>107.0</ele><time>2026-04-09T14:18:46.002Z</time></trkpt><trkpt lat="44.749708028387516" lon="10.267005621055127"><ele>107.0</ele><time>2026-04-09T14:18:47.002Z</time></trkpt><trkpt lat="44.749593702431454" lon="10.26688725798459"><ele>107.0</ele><time>2026-04-09T14:18:48.002Z</time></trkpt><trkpt lat="44.749477556663486" lon="10.266769637360238"><ele>107.0</ele><time>2026-04-09T14:18:49.002Z</time></trkpt><trkpt lat="44.74936719891588" lon="10.266647836901715"><ele>107.0</ele><time>2026-04-09T14:18:50.002Z</time></trkpt><trkpt lat="44.74926719030402" lon="10.266510052453892"><ele>108.0</ele><time>2026-04-09T14:18:51.002Z</time></trkpt><trkpt lat="44.749177902735944" lon="10.266356546135356"><ele>109.0</ele><time>2026-04-09T14:18:52.002Z</time></trkpt><trkpt lat="44.749097672567686" lon="10.26619218490303"><ele>110.0</ele><time>2026-04-09T14:18:53.002Z</time></trkpt><trkpt lat="44.749021672298774" lon="10.266018577317542"><ele>111.0</ele><time>2026-04-09T14:18:54.002Z</time></trkpt><trkpt lat="44.748953653849526" lon="10.265862938215074"><ele>111.0</ele><time>2026-04-09T14:18:55.002Z</time></trkpt><trkpt lat="44.748885660206945" lon="10.265710878036629"><ele>111.0</ele><time>2026-04-09T14:18:56.002Z</time></trkpt><trkpt lat="44.748826492364195" lon="10.265569598871688"><ele>111.0</ele><time>2026-04-09T14:18:57.002Z</time></trkpt><trkpt lat="44.74876637900023" lon="10.265433291525348"><ele>111.0</ele><time>2026-04-09T14:18:58.002Z</time></trkpt><trkpt lat="44.74871001172876" lon="10.265302254501043"><ele>111.0</ele><time>2026-04-09T14:18:59.002Z</time></trkpt><trkpt lat="44.748655752503886" lon="10.265178082216392"><ele>111.0</ele><time>2026-04-09T14:19:00.002Z</time></trkpt><trkpt lat="44.74860194710847" lon="10.265058950345573"><ele>111.0</ele><time>2026-04-09T14:19:01.002Z</time></trkpt><trkpt lat="44.74854579001992" lon="10.264932216051513"><ele>111.0</ele><time>2026-04-09T14:19:02.002Z</time></trkpt><trkpt lat="44.748486573070316" lon="10.26480191180896"><ele>111.0</ele><time>2026-04-09T14:19:03.002Z</time></trkpt><trkpt lat="44.74843052081964" lon="10.264670535284957"><ele>111.75</ele><time>2026-04-09T14:19:04.002Z</time></trkpt><trkpt lat="44.74837389739638" lon="10.264525682333161"><ele>112.5</ele><time>2026-04-09T14:19:05.002Z</time></trkpt><trkpt lat="44.748317601347544" lon="10.264357110721159"><ele>113.25</ele><time>2026-04-09T14:19:06.002Z</time></trkpt><trkpt lat="44.74826717223376" lon="10.264172791590992"><ele>114.0</ele><time>2026-04-09T14:19:07.002Z</time></trkpt><trkpt lat="44.74822572044812" lon="10.263988535649997"><ele>113.25</ele><time>2026-04-09T14:19:08.002Z</time></trkpt><trkpt lat="44.74818843424203" lon="10.263818858547035"><ele>112.5</ele><time>2026-04-09T14:19:09.002Z</time></trkpt><trkpt lat="44.74816142984541" lon="10.263658700830138"><ele>111.75</ele><time>2026-04-09T14:19:10.002Z</time></trkpt><trkpt lat="44.74813747054303" lon="10.263485238680987"><ele>111.0</ele><time>2026-04-09T14:19:11.002Z</time></trkpt><trkpt lat="44.748107316164834" lon="10.263309713439853"><ele>111.0</ele><time>2026-04-09T14:19:12.002Z</time></trkpt><trkpt lat="44.74806376609839" lon="10.263134072472361"><ele>111.0</ele><time>2026-04-09T14:19:13.002Z</time></trkpt><trkpt lat="44.74801366079138" lon="10.262951612045844"><ele>111.0</ele><time>2026-04-09T14:19:14.002Z</time></trkpt><trkpt lat="44.74796034400752" lon="10.262761263113983"><ele>111.0</ele><time>2026-04-09T14:19:15.002Z</time></trkpt><trkpt lat="44.74790250588441" lon="10.262579471737725"><ele>111.0</ele><time>2026-04-09T14:19:16.002Z</time></trkpt><trkpt lat="44.74785201011037" lon="10.26241784020858"><ele>111.0</ele><time>2026-04-09T14:19:17.002Z</time></trkpt><trkpt lat="44.74779329630255" lon="10.262261531918735"><ele>111.0</ele><time>2026-04-09T14:19:18.002Z</time></trkpt><trkpt lat="44.74772139539885" lon="10.262119523468785"><ele>111.0</ele><time>2026-04-09T14:19:19.002Z</time></trkpt><trkpt lat="44.74763651309283" lon="10.26198721533513"><ele>112.5</ele><time>2026-04-09T14:19:20.002Z</time></trkpt><trkpt lat="44.74754312552285" lon="10.261867860159692"><ele>114.0</ele><time>2026-04-09T14:19:21.002Z</time></trkpt><trkpt lat="44.74744265697839" lon="10.261759325747798"><ele>115.5</ele><time>2026-04-09T14:19:22.002Z</time></trkpt><trkpt lat="44.74735518954758" lon="10.261629632375698"><ele>117.0</ele><time>2026-04-09T14:19:23.002Z</time></trkpt><trkpt lat="44.74725724965945" lon="10.261512154215145"><ele>116.75</ele><time>2026-04-09T14:19:24.002Z</time></trkpt><trkpt lat="44.74716037497962" lon="10.26139971988508"><ele>116.5</ele><time>2026-04-09T14:19:25.002Z</time></trkpt><trkpt lat="44.74706597062898" lon="10.26129221563582"><ele>116.25</ele><time>2026-04-09T14:19:26.002Z</time></trkpt><trkpt lat="44.746960693277565" lon="10.261203146196467"><ele>116.0</ele><time>2026-04-09T14:19:27.002Z</time></trkpt><trkpt lat="44.7468724120039" lon="10.261079297764915"><ele>116.5</ele><time>2026-04-09T14:19:28.002Z</time></trkpt><trkpt lat="44.74676843653999" lon="10.260972048469043"><ele>117.0</ele><time>2026-04-09T14:19:29.002Z</time></trkpt><trkpt lat="44.746657278876974" lon="10.260863017456046"><ele>117.5</ele><time>2026-04-09T14:19:30.002Z</time></trkpt><trkpt lat="44.746532559412415" lon="10.260774750023877"><ele>118.0</ele><time>2026-04-09T14:19:31.002Z</time></trkpt><trkpt lat="44.74642512132872" lon="10.26068225898234"><ele>117.75</ele><time>2026-04-09T14:19:32.002Z</time></trkpt><trkpt lat="44.74632480627744" lon="10.260570176419096"><ele>117.5</ele><time>2026-04-09T14:19:33.002Z</time></trkpt><trkpt lat="44.746213185099556" lon="10.2604752924493"><ele>117.25</ele><time>2026-04-09T14:19:34.002Z</time></trkpt><trkpt lat="44.74609904914172" lon="10.260380210598472"><ele>117.0</ele><time>2026-04-09T14:19:35.002Z</time></trkpt><trkpt lat="44.74598070328949" lon="10.260283621423754"><ele>117.0</ele><time>2026-04-09T14:19:36.002Z</time></trkpt><trkpt lat="44.745863897186574" lon="10.260177801970267"><ele>117.0</ele><time>2026-04-09T14:19:37.002Z</time></trkpt><trkpt lat="44.74574161544402" lon="10.260063267476774"><ele>117.0</ele><time>2026-04-09T14:19:38.002Z</time></trkpt><trkpt lat="44.74561683642063" lon="10.259945431252465"><ele>117.0</ele><time>2026-04-09T14:19:39.002Z</time></trkpt><trkpt lat="44.74548600362036" lon="10.259819705018447"><ele>117.0</ele><time>2026-04-09T14:19:40.002Z</time></trkpt><trkpt lat="44.74534813534881" lon="10.259687217992642"><ele>117.0</ele><time>2026-04-09T14:19:41.002Z</time></trkpt><trkpt lat="44.74521869591893" lon="10.259562760835172"><ele>117.0</ele><time>2026-04-09T14:19:42.002Z</time></trkpt><trkpt lat="44.74509131429062" lon="10.259438746121791"><ele>117.0</ele><time>2026-04-09T14:19:43.002Z</time></trkpt><trkpt lat="44.744960578833144" lon="10.259311466237955"><ele>117.0</ele><time>2026-04-09T14:19:44.002Z</time></trkpt><trkpt lat="44.74482547650392" lon="10.259179934913476"><ele>117.0</ele><time>2026-04-09T14:19:45.002Z</time></trkpt><trkpt lat="44.74468882665851" lon="10.259047101359648"><ele>117.33333333333334</ele><time>2026-04-09T14:19:46.002Z</time></trkpt><trkpt lat="44.74454926213005" lon="10.258913368676774"><ele>117.66666666666667</ele><time>2026-04-09T14:19:47.002Z</time></trkpt><trkpt lat="44.744411464291" lon="10.25878132884558"><ele>118.0</ele><time>2026-04-09T14:19:48.002Z</time></trkpt><trkpt lat="44.7442840431958" lon="10.258659232191425"><ele>118.66666666666667</ele><time>2026-04-09T14:19:49.002Z</time></trkpt><trkpt lat="44.74415447137181" lon="10.258535074629853"><ele>119.33333333333334</ele><time>2026-04-09T14:19:50.002Z</time></trkpt><trkpt lat="44.744022889207294" lon="10.258408120526756"><ele>120.0</ele><time>2026-04-09T14:19:51.002Z</time></trkpt><trkpt lat="44.743893346925084" lon="10.258282676574735"><ele>120.0</ele><time>2026-04-09T14:19:52.002Z</time></trkpt><trkpt lat="44.74377250750663" lon="10.258165660251663"><ele>120.0</ele><time>2026-04-09T14:19:53.002Z</time></trkpt><trkpt lat="44.74364784175847" lon="10.258041791733852"><ele>120.0</ele><time>2026-04-09T14:19:54.002Z</time></trkpt><trkpt lat="44.74352409159145" lon="10.257913991950717"><ele>120.0</ele><time>2026-04-09T14:19:55.002Z</time></trkpt><trkpt lat="44.74340963056989" lon="10.257788745873846"><ele>120.0</ele><time>2026-04-09T14:19:56.002Z</time></trkpt><trkpt lat="44.743302605623015" lon="10.25765852648938"><ele>120.0</ele><time>2026-04-09T14:19:57.002Z</time></trkpt><trkpt lat="44.74320036101994" lon="10.257514931558482"><ele>120.0</ele><time>2026-04-09T14:19:58.002Z</time></trkpt><trkpt lat="44.743109072502385" lon="10.257376394801911"><ele>119.75</ele><time>2026-04-09T14:19:59.002Z</time></trkpt><trkpt lat="44.743016617678364" lon="10.257251965150461"><ele>119.5</ele><time>2026-04-09T14:20:00.002Z</time></trkpt><trkpt lat="44.74294364228945" lon="10.257106168359625"><ele>119.25</ele><time>2026-04-09T14:20:01.002Z</time></trkpt><trkpt lat="44.742854855609366" lon="10.256955930132744"><ele>119.0</ele><time>2026-04-09T14:20:02.002Z</time></trkpt><trkpt lat="44.74274859172618" lon="10.256809737494931"><ele>118.66666666666666</ele><time>2026-04-09T14:20:03.002Z</time></trkpt><trkpt lat="44.74265030585335" lon="10.256638707119611"><ele>118.33333333333334</ele><time>2026-04-09T14:20:04.003Z</time></trkpt><trkpt lat="44.7425527211391" lon="10.256475467981266"><ele>118.0</ele><time>2026-04-09T14:20:05.003Z</time></trkpt><trkpt lat="44.74246222892157" lon="10.256320441768292"><ele>118.0</ele><time>2026-04-09T14:20:06.003Z</time></trkpt><trkpt lat="44.742379578782604" lon="10.256169921324611"><ele>118.0</ele><time>2026-04-09T14:20:07.003Z</time></trkpt><trkpt lat="44.742293835070186" lon="10.256019650670682"><ele>118.0</ele><time>2026-04-09T14:20:08.003Z</time></trkpt><trkpt lat="44.742207167995055" lon="10.255869088756507"><ele>118.0</ele><time>2026-04-09T14:20:09.003Z</time></trkpt><trkpt lat="44.742119668191975" lon="10.25571839986695"><ele>119.0</ele><time>2026-04-09T14:20:10.003Z</time></trkpt><trkpt lat="44.742034197539034" lon="10.255566456383663"><ele>120.0</ele><time>2026-04-09T14:20:11.003Z</time></trkpt><trkpt lat="44.74195685971331" lon="10.255429786711156"><ele>121.0</ele><time>2026-04-09T14:20:12.003Z</time></trkpt><trkpt lat="44.74189079107873" lon="10.255312000343604"><ele>122.0</ele><time>2026-04-09T14:20:13.003Z</time></trkpt><trkpt lat="44.74183833596012" lon="10.255218764913941"><ele>122.33333333333333</ele><time>2026-04-09T14:20:14.003Z</time></trkpt><trkpt lat="44.74179558885949" lon="10.255146307088136"><ele>122.66666666666666</ele><time>2026-04-09T14:20:15.002Z</time></trkpt><trkpt lat="44.741751160458314" lon="10.255067394846202"><ele>123.0</ele><time>2026-04-09T14:20:17.002Z</time></trkpt><trkpt lat="44.74169568420296" lon="10.254959048539172"><ele>123.33333333333334</ele><time>2026-04-09T14:20:21.002Z</time></trkpt><trkpt lat="44.741635189233406" lon="10.254843250148237"><ele>123.66666666666667</ele><time>2026-04-09T14:20:23.002Z</time></trkpt><trkpt lat="44.74158111448" lon="10.254747247147812"><ele>124.0</ele><time>2026-04-09T14:20:24.002Z</time></trkpt><trkpt lat="44.74151325741716" lon="10.254626775460432"><ele>124.25</ele><time>2026-04-09T14:20:25.002Z</time></trkpt><trkpt lat="44.74142062025791" lon="10.254498324669134"><ele>124.5</ele><time>2026-04-09T14:20:26.002Z</time></trkpt><trkpt lat="44.74133563113981" lon="10.254336624458084"><ele>124.75</ele><time>2026-04-09T14:20:27.002Z</time></trkpt><trkpt lat="44.741246121497944" lon="10.25415754202835"><ele>125.0</ele><time>2026-04-09T14:20:28.002Z</time></trkpt><trkpt lat="44.74115795121935" lon="10.25397048765519"><ele>125.0</ele><time>2026-04-09T14:20:29.002Z</time></trkpt><trkpt lat="44.741070049096734" lon="10.25377334018386"><ele>125.0</ele><time>2026-04-09T14:20:30.002Z</time></trkpt><trkpt lat="44.740980256818446" lon="10.253565669366097"><ele>125.0</ele><time>2026-04-09T14:20:31.002Z</time></trkpt><trkpt lat="44.74088952357265" lon="10.253355452070629"><ele>125.33333333333333</ele><time>2026-04-09T14:20:32.002Z</time></trkpt><trkpt lat="44.74079818669935" lon="10.253140569449478"><ele>125.66666666666666</ele><time>2026-04-09T14:20:33.002Z</time></trkpt><trkpt lat="44.74070366173655" lon="10.252920557502895"><ele>126.0</ele><time>2026-04-09T14:20:34.002Z</time></trkpt><trkpt lat="44.740607081294485" lon="10.252694920064489"><ele>126.66666666666666</ele><time>2026-04-09T14:20:35.002Z</time></trkpt><trkpt lat="44.7405098099695" lon="10.252469445209817"><ele>127.33333333333333</ele><time>2026-04-09T14:20:36.002Z</time></trkpt><trkpt lat="44.74042222658447" lon="10.252259459358726"><ele>128.0</ele><time>2026-04-09T14:20:37.002Z</time></trkpt><trkpt lat="44.74033365202445" lon="10.252046683072885"><ele>128.0</ele><time>2026-04-09T14:20:38.002Z</time></trkpt><trkpt lat="44.740248536538395" lon="10.251848343868422"><ele>128.0</ele><time>2026-04-09T14:20:39.002Z</time></trkpt><trkpt lat="44.740169357715075" lon="10.251664298085844"><ele>128.0</ele><time>2026-04-09T14:20:40.002Z</time></trkpt><trkpt lat="44.74009849738084" lon="10.251498847299326"><ele>128.0</ele><time>2026-04-09T14:20:41.002Z</time></trkpt><trkpt lat="44.740031127196936" lon="10.251341698887607"><ele>128.0</ele><time>2026-04-09T14:20:42.002Z</time></trkpt><trkpt lat="44.73997428710388" lon="10.251209289228546"><ele>128.0</ele><time>2026-04-09T14:20:43.002Z</time></trkpt><trkpt lat="44.73992256665199" lon="10.251088851554671"><ele>128.0</ele><time>2026-04-09T14:20:44.002Z</time></trkpt><trkpt lat="44.739879422917795" lon="10.250972953343698"><ele>128.0</ele><time>2026-04-09T14:20:45.002Z</time></trkpt><trkpt lat="44.73985485321218" lon="10.250857042190715"><ele>128.0</ele><time>2026-04-09T14:20:46.002Z</time></trkpt><trkpt lat="44.73985436359009" lon="10.250742627004403"><ele>128.0</ele><time>2026-04-09T14:20:47.002Z</time></trkpt><trkpt lat="44.739876408854585" lon="10.250625415314754"><ele>128.0</ele><time>2026-04-09T14:20:48.002Z</time></trkpt><trkpt lat="44.73989944215623" lon="10.250492309074028"><ele>128.0</ele><time>2026-04-09T14:20:49.002Z</time></trkpt><trkpt lat="44.73993243100949" lon="10.250338782962"><ele>128.0</ele><time>2026-04-09T14:20:50.002Z</time></trkpt><trkpt lat="44.73996934860918" lon="10.25015990468812"><ele>127.66666666666666</ele><time>2026-04-09T14:20:51.002Z</time></trkpt><trkpt lat="44.740007786085854" lon="10.249968334619913"><ele>127.33333333333334</ele><time>2026-04-09T14:20:52.002Z</time></trkpt><trkpt lat="44.74004823858054" lon="10.249759343212931"><ele>127.0</ele><time>2026-04-09T14:20:53.002Z</time></trkpt><trkpt lat="44.74008997770271" lon="10.249541172537352"><ele>127.0</ele><time>2026-04-09T14:20:54.002Z</time></trkpt><trkpt lat="44.74013454161726" lon="10.249312195661828"><ele>127.0</ele><time>2026-04-09T14:20:55.002Z</time></trkpt><trkpt lat="44.740184935418924" lon="10.249065019937236"><ele>127.0</ele><time>2026-04-09T14:20:56.002Z</time></trkpt><trkpt lat="44.740236112817584" lon="10.248814093932111"><ele>127.33333333333334</ele><time>2026-04-09T14:20:57.002Z</time></trkpt><trkpt lat="44.74028690291735" lon="10.248551658721102"><ele>127.66666666666666</ele><time>2026-04-09T14:20:58.002Z</time></trkpt><trkpt lat="44.74033988356313" lon="10.248281152668827"><ele>128.0</ele><time>2026-04-09T14:20:59.002Z</time></trkpt><trkpt lat="44.74039416876861" lon="10.248006121611906"><ele>128.0</ele><time>2026-04-09T14:21:00.002Z</time></trkpt><trkpt lat="44.74044696430059" lon="10.247742509117812"><ele>128.0</ele><time>2026-04-09T14:21:01.002Z</time></trkpt><trkpt lat="44.740497691054486" lon="10.247493057363494"><ele>128.0</ele><time>2026-04-09T14:21:02.002Z</time></trkpt><trkpt lat="44.74054747512677" lon="10.24723852297662"><ele>128.33333333333331</ele><time>2026-04-09T14:21:03.002Z</time></trkpt><trkpt lat="44.74059645785205" lon="10.24699053141295"><ele>128.66666666666666</ele><time>2026-04-09T14:21:04.002Z</time></trkpt><trkpt lat="44.74064226660834" lon="10.246763129395974"><ele>129.0</ele><time>2026-04-09T14:21:05.002Z</time></trkpt><trkpt lat="44.74068791404901" lon="10.24653746702276"><ele>128.66666666666666</ele><time>2026-04-09T14:21:06.002Z</time></trkpt><trkpt lat="44.7407334614511" lon="10.246310995025354"><ele>128.33333333333331</ele><time>2026-04-09T14:21:07.002Z</time></trkpt><trkpt lat="44.7407787245689" lon="10.246077836602254"><ele>128.0</ele><time>2026-04-09T14:21:08.002Z</time></trkpt><trkpt lat="44.740822232335184" lon="10.245849205443513"><ele>128.0</ele><time>2026-04-09T14:21:09.002Z</time></trkpt><trkpt lat="44.74087792386127" lon="10.245642197010712"><ele>128.0</ele><time>2026-04-09T14:21:10.002Z</time></trkpt><trkpt lat="44.74091798062359" lon="10.245443710093669"><ele>128.0</ele><time>2026-04-09T14:21:11.002Z</time></trkpt><trkpt lat="44.74095596480644" lon="10.245255493001228"><ele>128.0</ele><time>2026-04-09T14:21:12.002Z</time></trkpt><trkpt lat="44.74099168736382" lon="10.24507848325338"><ele>128.0</ele><time>2026-04-09T14:21:13.002Z</time></trkpt><trkpt lat="44.74101097890192" lon="10.244905057430742"><ele>128.0</ele><time>2026-04-09T14:21:14.002Z</time></trkpt><trkpt lat="44.74104772494141" lon="10.244722690219897"><ele>128.0</ele><time>2026-04-09T14:21:15.002Z</time></trkpt><trkpt lat="44.74108588310522" lon="10.244522391370788"><ele>128.0</ele><time>2026-04-09T14:21:16.002Z</time></trkpt><trkpt lat="44.741144413593844" lon="10.244314366299998"><ele>126.66666666666666</ele><time>2026-04-09T14:21:17.002Z</time></trkpt><trkpt lat="44.74117349712821" lon="10.244084389788794"><ele>125.33333333333334</ele><time>2026-04-09T14:21:18.002Z</time></trkpt><trkpt lat="44.7412147585741" lon="10.243883289504337"><ele>124.0</ele><time>2026-04-09T14:21:19.002Z</time></trkpt><trkpt lat="44.74125390984818" lon="10.24369121939832"><ele>124.25</ele><time>2026-04-09T14:21:20.002Z</time></trkpt><trkpt lat="44.74128987200309" lon="10.243506077105275"><ele>124.5</ele><time>2026-04-09T14:21:21.002Z</time></trkpt><trkpt lat="44.74132834807898" lon="10.243310763228745"><ele>124.75</ele><time>2026-04-09T14:21:22.002Z</time></trkpt><trkpt lat="44.741368668054335" lon="10.243106312013916"><ele>125.0</ele><time>2026-04-09T14:21:23.002Z</time></trkpt><trkpt lat="44.74141212801058" lon="10.242890042502031"><ele>125.0</ele><time>2026-04-09T14:21:24.002Z</time></trkpt><trkpt lat="44.74145740946442" lon="10.24266436740736"><ele>125.0</ele><time>2026-04-09T14:21:25.002Z</time></trkpt><trkpt lat="44.74150130677386" lon="10.24244496966705"><ele>125.0</ele><time>2026-04-09T14:21:26.002Z</time></trkpt><trkpt lat="44.74154125376302" lon="10.242239047938355"><ele>124.75</ele><time>2026-04-09T14:21:27.002Z</time></trkpt><trkpt lat="44.741579518360176" lon="10.242041049273402"><ele>124.5</ele><time>2026-04-09T14:21:28.002Z</time></trkpt><trkpt lat="44.74163001715065" lon="10.241867887895944"><ele>124.25</ele><time>2026-04-09T14:21:29.002Z</time></trkpt><trkpt lat="44.741650433081276" lon="10.241688962855163"><ele>124.0</ele><time>2026-04-09T14:21:30.002Z</time></trkpt><trkpt lat="44.741682029775966" lon="10.241527741491518"><ele>123.6</ele><time>2026-04-09T14:21:31.002Z</time></trkpt><trkpt lat="44.741711672572144" lon="10.241373697314632"><ele>123.2</ele><time>2026-04-09T14:21:32.002Z</time></trkpt><trkpt lat="44.74174253850441" lon="10.241224186782198"><ele>122.79999999999998</ele><time>2026-04-09T14:21:33.002Z</time></trkpt><trkpt lat="44.74177263630796" lon="10.241077013846708"><ele>122.39999999999999</ele><time>2026-04-09T14:21:34.002Z</time></trkpt><trkpt lat="44.741802605770964" lon="10.2409333465654"><ele>122.0</ele><time>2026-04-09T14:21:35.002Z</time></trkpt><trkpt lat="44.74183143880699" lon="10.240783864287804"><ele>121.99999999999999</ele><time>2026-04-09T14:21:36.002Z</time></trkpt><trkpt lat="44.74186050111206" lon="10.240644797156865"><ele>122.0</ele><time>2026-04-09T14:21:37.002Z</time></trkpt><trkpt lat="44.741886932912266" lon="10.240510670781369"><ele>122.0</ele><time>2026-04-09T14:21:38.002Z</time></trkpt><trkpt lat="44.7419111907284" lon="10.24038183200986"><ele>122.0</ele><time>2026-04-09T14:21:39.002Z</time></trkpt><trkpt lat="44.741933566676956" lon="10.24026538248794"><ele>121.99999999999999</ele><time>2026-04-09T14:21:40.002Z</time></trkpt><trkpt lat="44.74195274979867" lon="10.240177871418075"><ele>122.0</ele><time>2026-04-09T14:21:41.002Z</time></trkpt><trkpt lat="44.741985900875044" lon="10.240058964881104"><ele>122.16666666666666</ele><time>2026-04-09T14:21:43.002Z</time></trkpt><trkpt lat="44.742021960343955" lon="10.239945478264113"><ele>122.33333333333333</ele><time>2026-04-09T14:21:45.002Z</time></trkpt><trkpt lat="44.74206511975285" lon="10.239850336934268"><ele>122.5</ele><time>2026-04-09T14:21:46.002Z</time></trkpt><trkpt lat="44.74210034815005" lon="10.239754068721782"><ele>122.66666666666666</ele><time>2026-04-09T14:21:47.002Z</time></trkpt><trkpt lat="44.742109918758345" lon="10.239648168233535"><ele>122.83333333333333</ele><time>2026-04-09T14:21:48.002Z</time></trkpt><trkpt lat="44.742106791649334" lon="10.23952908607232"><ele>123.0</ele><time>2026-04-09T14:21:49.002Z</time></trkpt><trkpt lat="44.7421073402379" lon="10.239351285723622"><ele>123.0</ele><time>2026-04-09T14:21:50.002Z</time></trkpt><trkpt lat="44.742131571003156" lon="10.239177940747716"><ele>123.0</ele><time>2026-04-09T14:21:51.002Z</time></trkpt><trkpt lat="44.74218945103853" lon="10.238997544221752"><ele>123.0</ele><time>2026-04-09T14:21:52.002Z</time></trkpt><trkpt lat="44.74223025334352" lon="10.238791095387894"><ele>123.0</ele><time>2026-04-09T14:21:53.002Z</time></trkpt><trkpt lat="44.7422761632443" lon="10.238558803371967"><ele>124.0</ele><time>2026-04-09T14:21:54.002Z</time></trkpt><trkpt lat="44.74232473534154" lon="10.2383130414277"><ele>125.0</ele><time>2026-04-09T14:21:55.002Z</time></trkpt><trkpt lat="44.74237117575499" lon="10.2380780652099"><ele>126.0</ele><time>2026-04-09T14:21:56.002Z</time></trkpt><trkpt lat="44.74242043341763" lon="10.237828834454858"><ele>126.0</ele><time>2026-04-09T14:21:57.002Z</time></trkpt><trkpt lat="44.742470922880635" lon="10.237573529355718"><ele>126.0</ele><time>2026-04-09T14:21:58.002Z</time></trkpt><trkpt lat="44.74251950321136" lon="10.237330484037305"><ele>126.0</ele><time>2026-04-09T14:21:59.002Z</time></trkpt><trkpt lat="44.7425736888074" lon="10.237059395917289"><ele>126.0</ele><time>2026-04-09T14:22:00.002Z</time></trkpt><trkpt lat="44.74261501715038" lon="10.236770025065114"><ele>126.0</ele><time>2026-04-09T14:22:01.002Z</time></trkpt><trkpt lat="44.742674732695846" lon="10.236475488601064"><ele>126.0</ele><time>2026-04-09T14:22:02.002Z</time></trkpt><trkpt lat="44.74273825547789" lon="10.236163042696182"><ele>126.5</ele><time>2026-04-09T14:22:03.002Z</time></trkpt><trkpt lat="44.742801853309246" lon="10.235841048493025"><ele>127.0</ele><time>2026-04-09T14:22:04.002Z</time></trkpt><trkpt lat="44.742881796167296" lon="10.235520318431746"><ele>126.0</ele><time>2026-04-09T14:22:05.002Z</time></trkpt><trkpt lat="44.7429492875387" lon="10.235186355444283"><ele>125.0</ele><time>2026-04-09T14:22:06.002Z</time></trkpt><trkpt lat="44.743016143045196" lon="10.234855202210339"><ele>124.5</ele><time>2026-04-09T14:22:07.002Z</time></trkpt><trkpt lat="44.743077820850246" lon="10.234542932801503"><ele>124.0</ele><time>2026-04-09T14:22:08.002Z</time></trkpt><trkpt lat="44.74313987877165" lon="10.234228738843148"><ele>125.0</ele><time>2026-04-09T14:22:09.002Z</time></trkpt><trkpt lat="44.74320050722677" lon="10.233921782252775"><ele>126.0</ele><time>2026-04-09T14:22:10.002Z</time></trkpt><trkpt lat="44.743262403883556" lon="10.233608404791145"><ele>126.0</ele><time>2026-04-09T14:22:11.002Z</time></trkpt><trkpt lat="44.743323344153545" lon="10.233300902651878"><ele>126.0</ele><time>2026-04-09T14:22:12.002Z</time></trkpt><trkpt lat="44.743383131495236" lon="10.233003305070884"><ele>126.0</ele><time>2026-04-09T14:22:13.002Z</time></trkpt><trkpt lat="44.74344375382732" lon="10.232701551229463"><ele>125.66666666666666</ele><time>2026-04-09T14:22:14.002Z</time></trkpt><trkpt lat="44.74350353121799" lon="10.23240400314307"><ele>125.33333333333333</ele><time>2026-04-09T14:22:15.002Z</time></trkpt><trkpt lat="44.74356302498585" lon="10.232105290307343"><ele>125.0</ele><time>2026-04-09T14:22:16.002Z</time></trkpt><trkpt lat="44.74361985579998" lon="10.231816330674985"><ele>125.0</ele><time>2026-04-09T14:22:17.002Z</time></trkpt><trkpt lat="44.74367561047456" lon="10.23153284277426"><ele>125.0</ele><time>2026-04-09T14:22:18.002Z</time></trkpt><trkpt lat="44.743730349788585" lon="10.231254517500338"><ele>125.0</ele><time>2026-04-09T14:22:19.003Z</time></trkpt><trkpt lat="44.743786418356216" lon="10.230969734055963"><ele>125.0</ele><time>2026-04-09T14:22:20.003Z</time></trkpt><trkpt lat="44.74384181139847" lon="10.230694286839825"><ele>125.0</ele><time>2026-04-09T14:22:21.002Z</time></trkpt><trkpt lat="44.74389445465125" lon="10.230432513148445"><ele>125.0</ele><time>2026-04-09T14:22:22.002Z</time></trkpt><trkpt lat="44.74394517816478" lon="10.23018028562573"><ele>125.0</ele><time>2026-04-09T14:22:23.002Z</time></trkpt><trkpt lat="44.74399224615003" lon="10.229943516932444"><ele>125.0</ele><time>2026-04-09T14:22:24.002Z</time></trkpt><trkpt lat="44.744021876660845" lon="10.229702878111697"><ele>125.0</ele><time>2026-04-09T14:22:25.002Z</time></trkpt><trkpt lat="44.74406338883082" lon="10.229487142810056"><ele>125.25</ele><time>2026-04-09T14:22:26.002Z</time></trkpt><trkpt lat="44.744109143846224" lon="10.229288937731463"><ele>125.5</ele><time>2026-04-09T14:22:27.002Z</time></trkpt><trkpt lat="44.744114192109194" lon="10.229076969753562"><ele>125.75</ele><time>2026-04-09T14:22:28.002Z</time></trkpt><trkpt lat="44.74414132473308" lon="10.228870458939706"><ele>126.0</ele><time>2026-04-09T14:22:29.002Z</time></trkpt><trkpt lat="44.74414678043531" lon="10.228641629105336"><ele>126.0</ele><time>2026-04-09T14:22:30.002Z</time></trkpt><trkpt lat="44.74413628031543" lon="10.22841818294067"><ele>126.0</ele><time>2026-04-09T14:22:31.002Z</time></trkpt><trkpt lat="44.74413972227529" lon="10.228184891522972"><ele>126.0</ele><time>2026-04-09T14:22:32.002Z</time></trkpt><trkpt lat="44.74414675799168" lon="10.227969637127405"><ele>126.0</ele><time>2026-04-09T14:22:33.002Z</time></trkpt><trkpt lat="44.7441456053859" lon="10.227749258601815"><ele>126.0</ele><time>2026-04-09T14:22:34.002Z</time></trkpt><trkpt lat="44.74414010960232" lon="10.227523913718626"><ele>126.0</ele><time>2026-04-09T14:22:35.002Z</time></trkpt><trkpt lat="44.744140245156785" lon="10.227295612179354"><ele>125.0</ele><time>2026-04-09T14:22:36.002Z</time></trkpt><trkpt lat="44.74415276332895" lon="10.227055510690516"><ele>124.0</ele><time>2026-04-09T14:22:37.002Z</time></trkpt><trkpt lat="44.744150777222984" lon="10.226805470354117"><ele>123.0</ele><time>2026-04-09T14:22:38.002Z</time></trkpt><trkpt lat="44.74413892330584" lon="10.226564745006709"><ele>123.0</ele><time>2026-04-09T14:22:39.002Z</time></trkpt><trkpt lat="44.74414088779253" lon="10.226340312085416"><ele>123.0</ele><time>2026-04-09T14:22:40.002Z</time></trkpt><trkpt lat="44.744138552463355" lon="10.22612803908264"><ele>123.0</ele><time>2026-04-09T14:22:41.002Z</time></trkpt><trkpt lat="44.74415548388272" lon="10.225929016266814"><ele>123.0</ele><time>2026-04-09T14:22:42.002Z</time></trkpt><trkpt lat="44.74414397946888" lon="10.225745135015313"><ele>123.0</ele><time>2026-04-09T14:22:43.002Z</time></trkpt><trkpt lat="44.74414749557192" lon="10.225570565734378"><ele>123.0</ele><time>2026-04-09T14:22:44.002Z</time></trkpt><trkpt lat="44.7441463111944" lon="10.225417155073599"><ele>123.0</ele><time>2026-04-09T14:22:45.002Z</time></trkpt><trkpt lat="44.7441433300957" lon="10.225296206398566"><ele>123.16666666666667</ele><time>2026-04-09T14:22:46.002Z</time></trkpt><trkpt lat="44.744146508128416" lon="10.225192856132157"><ele>123.33333333333334</ele><time>2026-04-09T14:22:47.002Z</time></trkpt><trkpt lat="44.744204178568054" lon="10.225024474748825"><ele>123.5</ele><time>2026-04-09T14:22:49.002Z</time></trkpt><trkpt lat="44.74428397698433" lon="10.224961323974979"><ele>123.66666666666667</ele><time>2026-04-09T14:22:50.002Z</time></trkpt><trkpt lat="44.74431526022597" lon="10.224873618485963"><ele>123.83333333333334</ele><time>2026-04-09T14:22:51.002Z</time></trkpt><trkpt lat="44.74431802499048" lon="10.2247707191011"><ele>124.0</ele><time>2026-04-09T14:22:52.002Z</time></trkpt><trkpt lat="44.744234454931544" lon="10.224670533341577"><ele>124.2</ele><time>2026-04-09T14:22:53.002Z</time></trkpt><trkpt lat="44.744172499450684" lon="10.224589447049915"><ele>124.4</ele><time>2026-04-09T14:22:54.002Z</time></trkpt><trkpt lat="44.74413392479415" lon="10.224479300273345"><ele>124.6</ele><time>2026-04-09T14:22:55.002Z</time></trkpt><trkpt lat="44.74413666207848" lon="10.224348258008597"><ele>124.8</ele><time>2026-04-09T14:22:56.002Z</time></trkpt><trkpt lat="44.744147770172034" lon="10.22420099305507"><ele>125.0</ele><time>2026-04-09T14:22:57.002Z</time></trkpt><trkpt lat="44.74414841483035" lon="10.224032209300235"><ele>124.75</ele><time>2026-04-09T14:22:58.002Z</time></trkpt><trkpt lat="44.744147818134955" lon="10.223853080223046"><ele>124.5</ele><time>2026-04-09T14:22:59.002Z</time></trkpt><trkpt lat="44.74415174255964" lon="10.223659198463599"><ele>124.25</ele><time>2026-04-09T14:23:00.002Z</time></trkpt><trkpt lat="44.744157453901735" lon="10.223460886077698"><ele>124.0</ele><time>2026-04-09T14:23:01.002Z</time></trkpt><trkpt lat="44.744185174479355" lon="10.223258726836587"><ele>123.75</ele><time>2026-04-09T14:23:02.002Z</time></trkpt><trkpt lat="44.74419022079357" lon="10.22305276813215"><ele>123.5</ele><time>2026-04-09T14:23:03.002Z</time></trkpt><trkpt lat="44.744213513433735" lon="10.222878882224355"><ele>123.25</ele><time>2026-04-09T14:23:04.002Z</time></trkpt><trkpt lat="44.74423406962188" lon="10.222715965012199"><ele>123.0</ele><time>2026-04-09T14:23:05.002Z</time></trkpt><trkpt lat="44.744251336523554" lon="10.222563219399465"><ele>123.0</ele><time>2026-04-09T14:23:06.002Z</time></trkpt><trkpt lat="44.74426909750367" lon="10.222398883315236"><ele>123.0</ele><time>2026-04-09T14:23:07.002Z</time></trkpt><trkpt lat="44.74428532884042" lon="10.222226172315645"><ele>123.0</ele><time>2026-04-09T14:23:08.002Z</time></trkpt><trkpt lat="44.74430102196915" lon="10.222040520806747"><ele>123.0</ele><time>2026-04-09T14:23:09.002Z</time></trkpt><trkpt lat="44.744320221516666" lon="10.22186692556458"><ele>123.0</ele><time>2026-04-09T14:23:10.002Z</time></trkpt><trkpt lat="44.74433757970976" lon="10.221712861971604"><ele>123.00000000000001</ele><time>2026-04-09T14:23:11.002Z</time></trkpt><trkpt lat="44.74436918545724" lon="10.221576893931166"><ele>123.00000000000001</ele><time>2026-04-09T14:23:12.002Z</time></trkpt><trkpt lat="44.74437559256718" lon="10.221447386547467"><ele>123.0</ele><time>2026-04-09T14:23:13.002Z</time></trkpt><trkpt lat="44.74440179675406" lon="10.221294960987324"><ele>123.0</ele><time>2026-04-09T14:23:14.002Z</time></trkpt><trkpt lat="44.74443381578128" lon="10.221159973049728"><ele>123.0</ele><time>2026-04-09T14:23:15.002Z</time></trkpt><trkpt lat="44.7444748159623" lon="10.221043950897071"><ele>123.00000000000001</ele><time>2026-04-09T14:23:16.002Z</time></trkpt><trkpt lat="44.74452133034243" lon="10.220949367269291"><ele>123.00000000000001</ele><time>2026-04-09T14:23:17.002Z</time></trkpt><trkpt lat="44.74458554647261" lon="10.220849102399699"><ele>123.0</ele><time>2026-04-09T14:23:18.002Z</time></trkpt><trkpt lat="44.74466628907337" lon="10.220760660475882"><ele>123.0</ele><time>2026-04-09T14:23:19.002Z</time></trkpt><trkpt lat="44.74474627917189" lon="10.22067163079308"><ele>123.80000000000001</ele><time>2026-04-09T14:23:20.002Z</time></trkpt><trkpt lat="44.744826408854514" lon="10.220578455966084"><ele>124.60000000000001</ele><time>2026-04-09T14:23:21.002Z</time></trkpt><trkpt lat="44.74490891585805" lon="10.220481627434719"><ele>125.39999999999999</ele><time>2026-04-09T14:23:22.002Z</time></trkpt><trkpt lat="44.74499307742056" lon="10.220397007209176"><ele>126.19999999999999</ele><time>2026-04-09T14:23:23.002Z</time></trkpt><trkpt lat="44.74507705390823" lon="10.220308459003673"><ele>127.0</ele><time>2026-04-09T14:23:24.002Z</time></trkpt><trkpt lat="44.74514882084577" lon="10.220214980885524"><ele>127.16666666666667</ele><time>2026-04-09T14:23:25.002Z</time></trkpt><trkpt lat="44.745214326970725" lon="10.22012922785097"><ele>127.33333333333334</ele><time>2026-04-09T14:23:26.002Z</time></trkpt><trkpt lat="44.74528095957742" lon="10.220050490929271"><ele>127.5</ele><time>2026-04-09T14:23:27.002Z</time></trkpt><trkpt lat="44.74535085604514" lon="10.219976692955509"><ele>127.66666666666666</ele><time>2026-04-09T14:23:28.002Z</time></trkpt><trkpt lat="44.74541215620457" lon="10.219912857912636"><ele>127.83333333333333</ele><time>2026-04-09T14:23:29.002Z</time></trkpt><trkpt lat="44.74546888893489" lon="10.219852237897152"><ele>128.0</ele><time>2026-04-09T14:23:30.002Z</time></trkpt><trkpt lat="44.745537506211754" lon="10.2197711681392"><ele>128.83333333333331</ele><time>2026-04-09T14:23:31.002Z</time></trkpt><trkpt lat="44.7455927404104" lon="10.219694760933903"><ele>129.66666666666666</ele><time>2026-04-09T14:23:32.002Z</time></trkpt><trkpt lat="44.74564160828646" lon="10.219615556299416"><ele>130.5</ele><time>2026-04-09T14:23:33.002Z</time></trkpt><trkpt lat="44.745685990821144" lon="10.219528610191746"><ele>131.33333333333334</ele><time>2026-04-09T14:23:34.002Z</time></trkpt><trkpt lat="44.74572333942466" lon="10.21944499030158"><ele>132.16666666666669</ele><time>2026-04-09T14:23:35.002Z</time></trkpt><trkpt lat="44.74575838157673" lon="10.219360471049878"><ele>133.0</ele><time>2026-04-09T14:23:36.002Z</time></trkpt><trkpt lat="44.7458093212353" lon="10.2192279385543"><ele>133.0</ele><time>2026-04-09T14:23:38.002Z</time></trkpt><trkpt lat="44.74584346227474" lon="10.219142078275654"><ele>133.0</ele><time>2026-04-09T14:23:40.002Z</time></trkpt><trkpt lat="44.74586652011098" lon="10.219039121159803"><ele>133.0</ele><time>2026-04-09T14:23:43.002Z</time></trkpt><trkpt lat="44.74584070735539" lon="10.219136201460728"><ele>133.0</ele><time>2026-04-09T14:23:48.002Z</time></trkpt><trkpt lat="44.745775719256244" lon="10.219283596485806"><ele>133.0</ele><time>2026-04-09T14:23:50.002Z</time></trkpt><trkpt lat="44.74573037203807" lon="10.219385770844369"><ele>133.0</ele><time>2026-04-09T14:23:51.002Z</time></trkpt><trkpt lat="44.74567241785443" lon="10.21950628336794"><ele>133.0</ele><time>2026-04-09T14:23:52.002Z</time></trkpt><trkpt lat="44.74560666993658" lon="10.219628098826266"><ele>133.0</ele><time>2026-04-09T14:23:53.002Z</time></trkpt><trkpt lat="44.745537225796404" lon="10.219733487554102"><ele>133.0</ele><time>2026-04-09T14:23:54.002Z</time></trkpt><trkpt lat="44.74545849797334" lon="10.219839390692893"><ele>133.0</ele><time>2026-04-09T14:23:55.002Z</time></trkpt><trkpt lat="44.7453816452552" lon="10.21993269005463"><ele>133.0</ele><time>2026-04-09T14:23:56.002Z</time></trkpt><trkpt lat="44.74530400214862" lon="10.220026896186697"><ele>132.0</ele><time>2026-04-09T14:23:57.002Z</time></trkpt><trkpt lat="44.745221690645266" lon="10.22010977680474"><ele>131.0</ele><time>2026-04-09T14:23:58.002Z</time></trkpt><trkpt lat="44.74514330446145" lon="10.220189061573581"><ele>130.0</ele><time>2026-04-09T14:23:59.002Z</time></trkpt><trkpt lat="44.745065959267485" lon="10.22028525489328"><ele>129.0</ele><time>2026-04-09T14:24:00.002Z</time></trkpt><trkpt lat="44.74498616034081" lon="10.220381536587862"><ele>128.0</ele><time>2026-04-09T14:24:01.002Z</time></trkpt><trkpt lat="44.744911809945435" lon="10.220466897998907"><ele>127.80000000000001</ele><time>2026-04-09T14:24:02.002Z</time></trkpt><trkpt lat="44.74483926123653" lon="10.220551953211153"><ele>127.60000000000001</ele><time>2026-04-09T14:24:03.002Z</time></trkpt><trkpt lat="44.74476683699216" lon="10.220635981724522"><ele>127.39999999999999</ele><time>2026-04-09T14:24:04.002Z</time></trkpt><trkpt lat="44.74469056018348" lon="10.220716885520362"><ele>127.19999999999999</ele><time>2026-04-09T14:24:05.002Z</time></trkpt><trkpt lat="44.74461328852899" lon="10.220804124432645"><ele>127.0</ele><time>2026-04-09T14:24:06.002Z</time></trkpt><trkpt lat="44.74453797721157" lon="10.2208913650682"><ele>126.6</ele><time>2026-04-09T14:24:07.002Z</time></trkpt><trkpt lat="44.74447416801373" lon="10.220985994434239"><ele>126.19999999999999</ele><time>2026-04-09T14:24:08.002Z</time></trkpt><trkpt lat="44.74441949826178" lon="10.22110532717232"><ele>125.8</ele><time>2026-04-09T14:24:09.002Z</time></trkpt><trkpt lat="44.74438078795357" lon="10.221241636056998"><ele>125.4</ele><time>2026-04-09T14:24:10.002Z</time></trkpt><trkpt lat="44.744358734712655" lon="10.22138857380397"><ele>125.0</ele><time>2026-04-09T14:24:11.002Z</time></trkpt><trkpt lat="44.74434875602342" lon="10.221523084221658"><ele>124.6</ele><time>2026-04-09T14:24:12.002Z</time></trkpt><trkpt lat="44.744336286899674" lon="10.221648031851956"><ele>124.2</ele><time>2026-04-09T14:24:13.002Z</time></trkpt><trkpt lat="44.74431793772548" lon="10.221785238809865"><ele>123.80000000000001</ele><time>2026-04-09T14:24:14.002Z</time></trkpt><trkpt lat="44.74430306337571" lon="10.221912610417718"><ele>123.4</ele><time>2026-04-09T14:24:15.002Z</time></trkpt><trkpt lat="44.74428938414859" lon="10.222055323446241"><ele>123.0</ele><time>2026-04-09T14:24:16.002Z</time></trkpt><trkpt lat="44.744277276488944" lon="10.22218174955788"><ele>123.0</ele><time>2026-04-09T14:24:17.002Z</time></trkpt><trkpt lat="44.74426713583578" lon="10.222303623076614"><ele>123.0</ele><time>2026-04-09T14:24:18.002Z</time></trkpt><trkpt lat="44.74425653341283" lon="10.222414113690949"><ele>123.0</ele><time>2026-04-09T14:24:19.002Z</time></trkpt><trkpt lat="44.74424353171948" lon="10.222514294948938"><ele>123.0</ele><time>2026-04-09T14:24:20.002Z</time></trkpt><trkpt lat="44.74422543789442" lon="10.222677664783472"><ele>123.0</ele><time>2026-04-09T14:24:22.002Z</time></trkpt><trkpt lat="44.744201462482266" lon="10.222765458779131"><ele>123.0</ele><time>2026-04-09T14:24:24.002Z</time></trkpt><trkpt lat="44.74434660768919" lon="10.222804482185945"><ele>123.0</ele><time>2026-04-09T14:24:25.002Z</time></trkpt><trkpt lat="44.744422641923734" lon="10.222801363252701"><ele>123.00000000000001</ele><time>2026-04-09T14:24:26.002Z</time></trkpt><trkpt lat="44.744501034813055" lon="10.222788851526671"><ele>123.00000000000001</ele><time>2026-04-09T14:24:27.002Z</time></trkpt><trkpt lat="44.744593792313296" lon="10.222780051088856"><ele>123.0</ele><time>2026-04-09T14:24:28.002Z</time></trkpt><trkpt lat="44.74469343457453" lon="10.222781965199315"><ele>123.0</ele><time>2026-04-09T14:24:29.002Z</time></trkpt><trkpt lat="44.744803134028544" lon="10.222786845295607"><ele>123.0</ele><time>2026-04-09T14:24:30.002Z</time></trkpt><trkpt lat="44.74491644563216" lon="10.222779518800985"><ele>123.0</ele><time>2026-04-09T14:24:31.002Z</time></trkpt><trkpt lat="44.745030766862996" lon="10.222769814317408"><ele>123.0</ele><time>2026-04-09T14:24:32.002Z</time></trkpt><trkpt lat="44.745143686368834" lon="10.222780180935832"><ele>123.0</ele><time>2026-04-09T14:24:33.002Z</time></trkpt><trkpt lat="44.74525490223423" lon="10.222788561175047"><ele>123.2</ele><time>2026-04-09T14:24:34.002Z</time></trkpt><trkpt lat="44.74536524995122" lon="10.22278382079292"><ele>123.4</ele><time>2026-04-09T14:24:35.002Z</time></trkpt><trkpt lat="44.74546680432908" lon="10.222781052032117"><ele>123.60000000000001</ele><time>2026-04-09T14:24:36.002Z</time></trkpt><trkpt lat="44.74555784648613" lon="10.222785490794752"><ele>123.80000000000001</ele><time>2026-04-09T14:24:37.002Z</time></trkpt><trkpt lat="44.74564090511364" lon="10.22278795851696"><ele>124.0</ele><time>2026-04-09T14:24:38.002Z</time></trkpt><trkpt lat="44.74570744137628" lon="10.222777762240373"><ele>124.0</ele><time>2026-04-09T14:24:39.002Z</time></trkpt><trkpt lat="44.7458234035885" lon="10.222697063184432"><ele>124.0</ele><time>2026-04-09T14:24:41.002Z</time></trkpt><trkpt lat="44.745826964312364" lon="10.222553112303704"><ele>124.0</ele><time>2026-04-09T14:24:42.002Z</time></trkpt><trkpt lat="44.745820662991406" lon="10.222423451299987"><ele>124.0</ele><time>2026-04-09T14:24:43.002Z</time></trkpt><trkpt lat="44.74581174560982" lon="10.222293411125932"><ele>124.0</ele><time>2026-04-09T14:24:44.002Z</time></trkpt><trkpt lat="44.74581178876684" lon="10.222162093470534"><ele>124.0</ele><time>2026-04-09T14:24:45.002Z</time></trkpt><trkpt lat="44.74581064210726" lon="10.222038724720457"><ele>124.0</ele><time>2026-04-09T14:24:46.002Z</time></trkpt><trkpt lat="44.74580074865635" lon="10.221939564391555"><ele>124.0</ele><time>2026-04-09T14:24:47.002Z</time></trkpt><trkpt lat="44.74579970031893" lon="10.221850682207213"><ele>124.0</ele><time>2026-04-09T14:24:48.001Z</time></trkpt><trkpt lat="44.745836480927856" lon="10.22169526777285"><ele>124.0</ele><time>2026-04-09T14:24:50.001Z</time></trkpt><trkpt lat="44.74595734798939" lon="10.221614832760958"><ele>124.0</ele><time>2026-04-09T14:24:52.001Z</time></trkpt><trkpt lat="44.74604253539987" lon="10.221626668419288"><ele>124.0</ele><time>2026-04-09T14:24:53.001Z</time></trkpt><trkpt lat="44.74612686490818" lon="10.221639711214893"><ele>124.0</ele><time>2026-04-09T14:24:54.001Z</time></trkpt><trkpt lat="44.74621611345955" lon="10.221640969029794"><ele>124.0</ele><time>2026-04-09T14:24:55.001Z</time></trkpt><trkpt lat="44.746314088203405" lon="10.221634551169972"><ele>124.0</ele><time>2026-04-09T14:24:56.001Z</time></trkpt><trkpt lat="44.74641631213371" lon="10.221633400420767"><ele>123.25</ele><time>2026-04-09T14:24:57.001Z</time></trkpt><trkpt lat="44.74653114972635" lon="10.221629752760332"><ele>122.5</ele><time>2026-04-09T14:24:58.001Z</time></trkpt><trkpt lat="44.74664948042547" lon="10.221620600708716"><ele>121.75</ele><time>2026-04-09T14:24:59.001Z</time></trkpt><trkpt lat="44.74677896052113" lon="10.221611797446716"><ele>121.0</ele><time>2026-04-09T14:25:00.001Z</time></trkpt><trkpt lat="44.74691494143345" lon="10.221598969681517"><ele>121.0</ele><time>2026-04-09T14:25:01.001Z</time></trkpt><trkpt lat="44.74703559010738" lon="10.221581636740357"><ele>121.0</ele><time>2026-04-09T14:25:02.001Z</time></trkpt><trkpt lat="44.747150713693834" lon="10.221562935211177"><ele>121.0</ele><time>2026-04-09T14:25:03.001Z</time></trkpt><trkpt lat="44.74726563070374" lon="10.221539113655082"><ele>121.0</ele><time>2026-04-09T14:25:04.001Z</time></trkpt><trkpt lat="44.747382287173565" lon="10.221522293422304"><ele>121.0</ele><time>2026-04-09T14:25:05.001Z</time></trkpt><trkpt lat="44.74749530752225" lon="10.221515009691927"><ele>121.0</ele><time>2026-04-09T14:25:06.001Z</time></trkpt><trkpt lat="44.747595325627415" lon="10.221502848942425"><ele>121.0</ele><time>2026-04-09T14:25:07.001Z</time></trkpt><trkpt lat="44.74768743739148" lon="10.221491062667402"><ele>121.0</ele><time>2026-04-09T14:25:08.001Z</time></trkpt><trkpt lat="44.74777697833816" lon="10.22148669053518"><ele>121.0</ele><time>2026-04-09T14:25:09.001Z</time></trkpt><trkpt lat="44.74786313401656" lon="10.221471512165603"><ele>120.8</ele><time>2026-04-09T14:25:10.001Z</time></trkpt><trkpt lat="44.74794241795492" lon="10.22145779795211"><ele>120.6</ele><time>2026-04-09T14:25:11.001Z</time></trkpt><trkpt lat="44.748007516126876" lon="10.221457423257053"><ele>120.4</ele><time>2026-04-09T14:25:12.001Z</time></trkpt><trkpt lat="44.74809014327735" lon="10.22144121360397"><ele>120.2</ele><time>2026-04-09T14:25:14.001Z</time></trkpt><trkpt lat="44.748156651803264" lon="10.22143588339564"><ele>120.0</ele><time>2026-04-09T14:25:17.001Z</time></trkpt><trkpt lat="44.74815610931742" lon="10.221204367114169"><ele>120.0</ele><time>2026-04-09T14:25:19.001Z</time></trkpt><trkpt lat="44.748139671628685" lon="10.221076151370795"><ele>120.0</ele><time>2026-04-09T14:25:20.001Z</time></trkpt><trkpt lat="44.74813102535267" lon="10.220937742110038"><ele>120.0</ele><time>2026-04-09T14:25:21.001Z</time></trkpt><trkpt lat="44.74812731992341" lon="10.220792589892985"><ele>120.0</ele><time>2026-04-09T14:25:22.001Z</time></trkpt><trkpt lat="44.74813233143237" lon="10.220662768658784"><ele>120.0</ele><time>2026-04-09T14:25:23.001Z</time></trkpt><trkpt lat="44.74815605418839" lon="10.220548756909556"><ele>120.0</ele><time>2026-04-09T14:25:24.001Z</time></trkpt><trkpt lat="44.74817908038384" lon="10.220455166108833"><ele>120.0</ele><time>2026-04-09T14:25:25.001Z</time></trkpt><trkpt lat="44.748206481375384" lon="10.220359410967733"><ele>120.0</ele><time>2026-04-09T14:25:26.001Z</time></trkpt><trkpt lat="44.74823483644123" lon="10.220256564302643"><ele>120.0</ele><time>2026-04-09T14:25:27.001Z</time></trkpt><trkpt lat="44.748267888565586" lon="10.220147540547604"><ele>120.0</ele><time>2026-04-09T14:25:28.001Z</time></trkpt><trkpt lat="44.748309012562636" lon="10.220015471157929"><ele>120.0</ele><time>2026-04-09T14:25:29.001Z</time></trkpt><trkpt lat="44.74835034071346" lon="10.219871539191097"><ele>120.4</ele><time>2026-04-09T14:25:30.001Z</time></trkpt><trkpt lat="44.748391422606005" lon="10.219719006394175"><ele>120.8</ele><time>2026-04-09T14:25:31.001Z</time></trkpt><trkpt lat="44.7484315255683" lon="10.219576425753454"><ele>121.19999999999999</ele><time>2026-04-09T14:25:32.001Z</time></trkpt><trkpt lat="44.74846383331041" lon="10.219463551044187"><ele>121.6</ele><time>2026-04-09T14:25:33.001Z</time></trkpt><trkpt lat="44.7484978512198" lon="10.21933281319509"><ele>122.0</ele><time>2026-04-09T14:25:35.001Z</time></trkpt><trkpt lat="44.74857659536211" lon="10.21931499349737"><ele>121.19999999999999</ele><time>2026-04-09T14:25:37.001Z</time></trkpt><trkpt lat="44.74868968765361" lon="10.219398897839874"><ele>120.39999999999999</ele><time>2026-04-09T14:25:39.001Z</time></trkpt><trkpt lat="44.748771556384156" lon="10.219446081298974"><ele>119.60000000000001</ele><time>2026-04-09T14:25:40.001Z</time></trkpt><trkpt lat="44.748843993002" lon="10.219486499286875"><ele>118.80000000000001</ele><time>2026-04-09T14:25:41.001Z</time></trkpt><trkpt lat="44.74894301927813" lon="10.219545166524552"><ele>118.0</ele><time>2026-04-09T14:25:43.001Z</time></trkpt><trkpt lat="44.749010976323" lon="10.219568253734982"><ele>118.0</ele><time>2026-04-09T14:25:45.001Z</time></trkpt><trkpt lat="44.749100475713234" lon="10.219490084855213"><ele>118.00000000000001</ele><time>2026-04-09T14:25:49.001Z</time></trkpt><trkpt lat="44.7491319767994" lon="10.21939293928749"><ele>118.00000000000001</ele><time>2026-04-09T14:25:50.001Z</time></trkpt><trkpt lat="44.74916543301609" lon="10.219259487762542"><ele>118.0</ele><time>2026-04-09T14:25:51.001Z</time></trkpt><trkpt lat="44.74919816635963" lon="10.219134722232678"><ele>118.0</ele><time>2026-04-09T14:25:52.001Z</time></trkpt><trkpt lat="44.74923800540538" lon="10.218997972763413"><ele>118.50000000000001</ele><time>2026-04-09T14:25:53.001Z</time></trkpt><trkpt lat="44.74927728373375" lon="10.218873564255425"><ele>119.0</ele><time>2026-04-09T14:25:54.001Z</time></trkpt><trkpt lat="44.74931102644789" lon="10.218765143564413"><ele>119.5</ele><time>2026-04-09T14:25:55.001Z</time></trkpt><trkpt lat="44.74934300533305" lon="10.218673667349956"><ele>120.0</ele><time>2026-04-09T14:25:56.001Z</time></trkpt><trkpt lat="44.749366823328096" lon="10.218588274878977"><ele>120.50000000000001</ele><time>2026-04-09T14:25:57.002Z</time></trkpt><trkpt lat="44.74943212017605" lon="10.21851849950528"><ele>121.0</ele><time>2026-04-09T14:25:59.002Z</time></trkpt><trkpt lat="44.74953074146173" lon="10.218598190122657"><ele>121.50000000000001</ele><time>2026-04-09T14:26:01.002Z</time></trkpt><trkpt lat="44.74959559736304" lon="10.21865872826723"><ele>122.0</ele><time>2026-04-09T14:26:02.002Z</time></trkpt><trkpt lat="44.749666062806696" lon="10.21871317098134"><ele>122.5</ele><time>2026-04-09T14:26:03.002Z</time></trkpt><trkpt lat="44.749765311351844" lon="10.218778938530795"><ele>123.0</ele><time>2026-04-09T14:26:05.002Z</time></trkpt><trkpt lat="44.74982775995988" lon="10.2188176125299"><ele>123.50000000000001</ele><time>2026-04-09T14:26:07.002Z</time></trkpt><trkpt lat="44.7499120654962" lon="10.218801787144598"><ele>124.0</ele><time>2026-04-09T14:26:10.002Z</time></trkpt><trkpt lat="44.750035857481905" lon="10.218765413441309"><ele>124.00000000000001</ele><time>2026-04-09T14:26:12.002Z</time></trkpt><trkpt lat="44.750127581648414" lon="10.218769270137877"><ele>124.0</ele><time>2026-04-09T14:26:13.002Z</time></trkpt><trkpt lat="44.75022316350619" lon="10.218770764584617"><ele>124.0</ele><time>2026-04-09T14:26:14.002Z</time></trkpt><trkpt lat="44.75032032446211" lon="10.218765503928637"><ele>124.0</ele><time>2026-04-09T14:26:15.002Z</time></trkpt><trkpt lat="44.75039706738472" lon="10.218762146251938"><ele>124.00000000000001</ele><time>2026-04-09T14:26:16.002Z</time></trkpt><trkpt lat="44.750461394275206" lon="10.218767388797895"><ele>124.0</ele><time>2026-04-09T14:26:17.002Z</time></trkpt><trkpt lat="44.75052439104885" lon="10.218745040072154"><ele>123.4</ele><time>2026-04-09T14:26:18.002Z</time></trkpt><trkpt lat="44.75057708130505" lon="10.218694844819382"><ele>122.80000000000001</ele><time>2026-04-09T14:26:19.002Z</time></trkpt><trkpt lat="44.75062040403128" lon="10.218517653839672"><ele>122.19999999999999</ele><time>2026-04-09T14:26:21.002Z</time></trkpt><trkpt lat="44.75062520324855" lon="10.218393784316826"><ele>121.6</ele><time>2026-04-09T14:26:22.002Z</time></trkpt><trkpt lat="44.75063580982758" lon="10.218234291292594"><ele>121.0</ele><time>2026-04-09T14:26:23.002Z</time></trkpt><trkpt lat="44.750655728843284" lon="10.218064206890933"><ele>121.0</ele><time>2026-04-09T14:26:24.002Z</time></trkpt><trkpt lat="44.75066457402611" lon="10.217899439375234"><ele>121.0</ele><time>2026-04-09T14:26:25.002Z</time></trkpt><trkpt lat="44.750664435611746" lon="10.217741489461789"><ele>121.0</ele><time>2026-04-09T14:26:26.002Z</time></trkpt><trkpt lat="44.75066556950775" lon="10.217585142756164"><ele>121.0</ele><time>2026-04-09T14:26:27.001Z</time></trkpt><trkpt lat="44.75064871606688" lon="10.217420651937859"><ele>120.6</ele><time>2026-04-09T14:26:28.001Z</time></trkpt><trkpt lat="44.75064471071648" lon="10.217259400243133"><ele>120.19999999999999</ele><time>2026-04-09T14:26:29.001Z</time></trkpt><trkpt lat="44.75063254761911" lon="10.217116577530902"><ele>119.80000000000001</ele><time>2026-04-09T14:26:30.001Z</time></trkpt><trkpt lat="44.75062005000954" lon="10.216999163659478"><ele>119.4</ele><time>2026-04-09T14:26:31.001Z</time></trkpt><trkpt lat="44.75062557655167" lon="10.216867789477805"><ele>119.0</ele><time>2026-04-09T14:26:33Z</time></trkpt><trkpt lat="44.75063739393865" lon="10.216779838393721"><ele>118.99999999999999</ele><time>2026-04-09T14:26:36Z</time></trkpt><trkpt lat="44.75064728497824" lon="10.216682264177425"><ele>119.0</ele><time>2026-04-09T14:26:37Z</time></trkpt><trkpt lat="44.750663235252354" lon="10.216563494411185"><ele>119.0</ele><time>2026-04-09T14:26:38Z</time></trkpt><trkpt lat="44.75068765596687" lon="10.216424022973149"><ele>119.0</ele><time>2026-04-09T14:26:39Z</time></trkpt><trkpt lat="44.75070902769627" lon="10.216298791765874"><ele>118.99999999999999</ele><time>2026-04-09T14:26:40Z</time></trkpt><trkpt lat="44.75073621934482" lon="10.216188328083705"><ele>119.0</ele><time>2026-04-09T14:26:41Z</time></trkpt><trkpt lat="44.75076106277913" lon="10.216079610818548"><ele>118.99999999999999</ele><time>2026-04-09T14:26:42Z</time></trkpt><trkpt lat="44.75077780921539" lon="10.215948817953535"><ele>119.0</ele><time>2026-04-09T14:26:43Z</time></trkpt><trkpt lat="44.75078262177889" lon="10.215836799345636"><ele>119.0</ele><time>2026-04-09T14:26:44Z</time></trkpt><trkpt lat="44.75072623606489" lon="10.215731333255613"><ele>119.0</ele><time>2026-04-09T14:26:45Z</time></trkpt><trkpt lat="44.75070486282087" lon="10.215593091154862"><ele>118.99999999999999</ele><time>2026-04-09T14:26:47Z</time></trkpt><trkpt lat="44.75068559106394" lon="10.215491564591353"><ele>119.0</ele><time>2026-04-09T14:27:01Z</time></trkpt><trkpt lat="44.750658539212125" lon="10.215399711116772"><ele>119.42857142857143</ele><time>2026-04-09T14:27:03Z</time></trkpt><trkpt lat="44.750603419136155" lon="10.21532407735203"><ele>119.85714285714286</ele><time>2026-04-09T14:27:04Z</time></trkpt><trkpt lat="44.75058021209846" lon="10.2152327274656"><ele>120.28571428571428</ele><time>2026-04-09T14:27:05Z</time></trkpt><trkpt lat="44.75054995661406" lon="10.215118940737838"><ele>120.71428571428571</ele><time>2026-04-09T14:27:06Z</time></trkpt><trkpt lat="44.750520013478024" lon="10.215018202898145"><ele>121.14285714285714</ele><time>2026-04-09T14:27:07Z</time></trkpt><trkpt lat="44.75050377145977" lon="10.214920442275625"><ele>121.57142857142856</ele><time>2026-04-09T14:27:09Z</time></trkpt><trkpt lat="44.75047386458263" lon="10.2148355680905"><ele>121.99999999999999</ele><time>2026-04-09T14:27:11Z</time></trkpt><trkpt lat="44.7504424670627" lon="10.214748888464642"><ele>122.0</ele><time>2026-04-09T14:27:12Z</time></trkpt><trkpt lat="44.75041397195269" lon="10.214640676228084"><ele>121.99999999999999</ele><time>2026-04-09T14:27:13Z</time></trkpt><trkpt lat="44.75038218454383" lon="10.214512751118095"><ele>121.99999999999999</ele><time>2026-04-09T14:27:14Z</time></trkpt><trkpt lat="44.750352747209234" lon="10.214402426330402"><ele>122.0</ele><time>2026-04-09T14:27:15Z</time></trkpt><trkpt lat="44.7503259415456" lon="10.214308278443378"><ele>122.0</ele><time>2026-04-09T14:27:16Z</time></trkpt><trkpt lat="44.75027921941627" lon="10.214140164022066"><ele>122.0</ele><time>2026-04-09T14:27:18Z</time></trkpt><trkpt lat="44.750254819427724" lon="10.214051417997558"><ele>121.99999999999999</ele><time>2026-04-09T14:27:19Z</time></trkpt><trkpt lat="44.75021765046749" lon="10.213917563902148"><ele>121.99999999999999</ele><time>2026-04-09T14:27:21Z</time></trkpt><trkpt lat="44.75019562950181" lon="10.21381450880422"><ele>122.0</ele><time>2026-04-09T14:27:32Z</time></trkpt><trkpt lat="44.75016502176007" lon="10.213694622145313"><ele>122.0</ele><time>2026-04-09T14:27:34Z</time></trkpt><trkpt lat="44.750122317575276" lon="10.213542961546787"><ele>121.49999999999999</ele><time>2026-04-09T14:27:36Z</time></trkpt><trkpt lat="44.75009958804599" lon="10.213452395150032"><ele>121.0</ele><time>2026-04-09T14:27:37Z</time></trkpt><trkpt lat="44.75007765997829" lon="10.213365251438065"><ele>120.5</ele><time>2026-04-09T14:27:38Z</time></trkpt><trkpt lat="44.750031402327934" lon="10.213210106625997"><ele>120.0</ele><time>2026-04-09T14:27:40Z</time></trkpt><trkpt lat="44.74999575162663" lon="10.213130643949494"><ele>119.49999999999999</ele><time>2026-04-09T14:27:41Z</time></trkpt><trkpt lat="44.7499507007321" lon="10.213054356823827"><ele>119.0</ele><time>2026-04-09T14:27:42Z</time></trkpt><trkpt lat="44.74989033432112" lon="10.2129878387087"><ele>118.99999999999999</ele><time>2026-04-09T14:27:43Z</time></trkpt><trkpt lat="44.74982745560001" lon="10.212923508135948"><ele>119.0</ele><time>2026-04-09T14:27:44Z</time></trkpt><trkpt lat="44.749752562157056" lon="10.21286619874053"><ele>119.0</ele><time>2026-04-09T14:27:45Z</time></trkpt><trkpt lat="44.74967135992994" lon="10.212808916121983"><ele>119.0</ele><time>2026-04-09T14:27:46Z</time></trkpt><trkpt lat="44.74958850633619" lon="10.21275257394861"><ele>118.99999999999999</ele><time>2026-04-09T14:27:47Z</time></trkpt><trkpt lat="44.74949969192683" lon="10.212689729789824"><ele>119.0</ele><time>2026-04-09T14:27:48Z</time></trkpt><trkpt lat="44.7494181887497" lon="10.212634907460389"><ele>119.83333333333333</ele><time>2026-04-09T14:27:49Z</time></trkpt><trkpt lat="44.74934515856409" lon="10.212581523762736"><ele>120.66666666666666</ele><time>2026-04-09T14:27:50Z</time></trkpt><trkpt lat="44.749273276907694" lon="10.212532234453594"><ele>121.5</ele><time>2026-04-09T14:27:51Z</time></trkpt><trkpt lat="44.74920918914543" lon="10.212485126656125"><ele>122.33333333333334</ele><time>2026-04-09T14:27:52Z</time></trkpt><trkpt lat="44.74914764636198" lon="10.212445984580848"><ele>123.16666666666667</ele><time>2026-04-09T14:27:53Z</time></trkpt><trkpt lat="44.74907406800316" lon="10.212404570407523"><ele>124.0</ele><time>2026-04-09T14:27:54Z</time></trkpt><trkpt lat="44.74900205970759" lon="10.212389392029342"><ele>124.00000000000001</ele><time>2026-04-09T14:27:55Z</time></trkpt><trkpt lat="44.74892563984221" lon="10.212405337542217"><ele>124.0</ele><time>2026-04-09T14:27:56Z</time></trkpt><trkpt lat="44.74885157854052" lon="10.21245249546677"><ele>124.0</ele><time>2026-04-09T14:27:57Z</time></trkpt><trkpt lat="44.74877502787042" lon="10.212519137713377"><ele>124.0</ele><time>2026-04-09T14:27:58Z</time></trkpt><trkpt lat="44.748711315284936" lon="10.212578902442994"><ele>124.00000000000001</ele><time>2026-04-09T14:27:59Z</time></trkpt><trkpt lat="44.74861583139794" lon="10.212651624999731"><ele>124.0</ele><time>2026-04-09T14:28:01Z</time></trkpt><trkpt lat="44.748531245315036" lon="10.212612766212533"><ele>124.00000000000001</ele><time>2026-04-09T14:28:04Z</time></trkpt><trkpt lat="44.748542805925176" lon="10.21250739340245"><ele>124.0</ele><time>2026-04-09T14:28:05Z</time></trkpt><trkpt lat="44.74858588377835" lon="10.212401213093324"><ele>124.0</ele><time>2026-04-09T14:28:06Z</time></trkpt><trkpt lat="44.74863229852981" lon="10.21230520156344"><ele>124.0</ele><time>2026-04-09T14:28:07Z</time></trkpt><trkpt lat="44.748689302805154" lon="10.21221321583021"><ele>124.00000000000001</ele><time>2026-04-09T14:28:08Z</time></trkpt><trkpt lat="44.74875861230672" lon="10.212135316403442"><ele>124.0</ele><time>2026-04-09T14:28:09Z</time></trkpt><trkpt lat="44.74884547960819" lon="10.212057554160573"><ele>122.0</ele><time>2026-04-09T14:28:10Z</time></trkpt><trkpt lat="44.74893368920843" lon="10.211997807628055"><ele>120.0</ele><time>2026-04-09T14:28:11Z</time></trkpt><trkpt lat="44.74902728847789" lon="10.21195773735008"><ele>118.0</ele><time>2026-04-09T14:28:12Z</time></trkpt><trkpt lat="44.749117828840454" lon="10.211922579859435"><ele>116.0</ele><time>2026-04-09T14:28:13Z</time></trkpt><trkpt lat="44.749209064160006" lon="10.211881780728476"><ele>114.0</ele><time>2026-04-09T14:28:14Z</time></trkpt><trkpt lat="44.74930503644023" lon="10.21181306720919"><ele>113.6</ele><time>2026-04-09T14:28:15Z</time></trkpt><trkpt lat="44.74939334269038" lon="10.211710103987519"><ele>113.2</ele><time>2026-04-09T14:28:16Z</time></trkpt><trkpt lat="44.74947603182815" lon="10.211587274895084"><ele>112.79999999999998</ele><time>2026-04-09T14:28:17Z</time></trkpt><trkpt lat="44.749553020801464" lon="10.21147652428533"><ele>112.39999999999999</ele><time>2026-04-09T14:28:18Z</time></trkpt><trkpt lat="44.74961484336999" lon="10.211379743485598"><ele>112.0</ele><time>2026-04-09T14:28:19Z</time></trkpt><trkpt lat="44.749668598777134" lon="10.211292010811485"><ele>111.83333333333334</ele><time>2026-04-09T14:28:20Z</time></trkpt><trkpt lat="44.74971473684213" lon="10.211217695754133"><ele>111.66666666666667</ele><time>2026-04-09T14:28:21Z</time></trkpt><trkpt lat="44.74976406250174" lon="10.211141522636682"><ele>111.5</ele><time>2026-04-09T14:28:23Z</time></trkpt><trkpt lat="44.74974938901125" lon="10.210996728526553"><ele>111.33333333333334</ele><time>2026-04-09T14:28:34Z</time></trkpt><trkpt lat="44.74970167353438" lon="10.21091617631185"><ele>111.16666666666667</ele><time>2026-04-09T14:28:35Z</time></trkpt><trkpt lat="44.7496474896751" lon="10.210820471872479"><ele>111.0</ele><time>2026-04-09T14:28:36Z</time></trkpt><trkpt lat="44.749589207282064" lon="10.210712037883987"><ele>110.75</ele><time>2026-04-09T14:28:37Z</time></trkpt><trkpt lat="44.74952620641476" lon="10.210586061389956"><ele>110.5</ele><time>2026-04-09T14:28:38Z</time></trkpt><trkpt lat="44.74945355324971" lon="10.21045197378061"><ele>110.25</ele><time>2026-04-09T14:28:39Z</time></trkpt><trkpt lat="44.74937256033914" lon="10.210303515623382"><ele>110.0</ele><time>2026-04-09T14:28:40Z</time></trkpt><trkpt lat="44.74930327049927" lon="10.210133386883856"><ele>110.0</ele><time>2026-04-09T14:28:41Z</time></trkpt><trkpt lat="44.74921630730493" lon="10.209967374501314"><ele>110.0</ele><time>2026-04-09T14:28:42Z</time></trkpt><trkpt lat="44.74912807818706" lon="10.209797944114603"><ele>110.0</ele><time>2026-04-09T14:28:43Z</time></trkpt><trkpt lat="44.74903248921133" lon="10.209614655705348"><ele>110.0</ele><time>2026-04-09T14:28:44Z</time></trkpt><trkpt lat="44.74892558216291" lon="10.209448703991344"><ele>110.0</ele><time>2026-04-09T14:28:45Z</time></trkpt><trkpt lat="44.74885274928639" lon="10.20926693705887"><ele>110.0</ele><time>2026-04-09T14:28:46Z</time></trkpt><trkpt lat="44.74875553900729" lon="10.20911711280668"><ele>110.0</ele><time>2026-04-09T14:28:47Z</time></trkpt><trkpt lat="44.7486730273558" lon="10.208953433371002"><ele>110.0</ele><time>2026-04-09T14:28:48Z</time></trkpt><trkpt lat="44.74859172216008" lon="10.208797098247857"><ele>110.0</ele><time>2026-04-09T14:28:49Z</time></trkpt><trkpt lat="44.748518586884494" lon="10.208652954421545"><ele>110.0</ele><time>2026-04-09T14:28:50Z</time></trkpt><trkpt lat="44.74844937301088" lon="10.208507980272607"><ele>110.0</ele><time>2026-04-09T14:28:51Z</time></trkpt><trkpt lat="44.74838198968966" lon="10.208368401809029"><ele>110.0</ele><time>2026-04-09T14:28:52Z</time></trkpt><trkpt lat="44.74830406214366" lon="10.208216179724257"><ele>110.0</ele><time>2026-04-09T14:28:53Z</time></trkpt><trkpt lat="44.748220775284565" lon="10.208056365724875"><ele>110.0</ele><time>2026-04-09T14:28:54Z</time></trkpt><trkpt lat="44.74813457076355" lon="10.207889858624462"><ele>110.0</ele><time>2026-04-09T14:28:55Z</time></trkpt><trkpt lat="44.7480455618487" lon="10.207717991395866"><ele>110.0</ele><time>2026-04-09T14:28:56Z</time></trkpt><trkpt lat="44.74795750353841" lon="10.20754337226288"><ele>110.0</ele><time>2026-04-09T14:28:57Z</time></trkpt><trkpt lat="44.747866355866115" lon="10.207359590493184"><ele>110.0</ele><time>2026-04-09T14:28:58Z</time></trkpt><trkpt lat="44.74777450845961" lon="10.207177345067786"><ele>110.0</ele><time>2026-04-09T14:28:59Z</time></trkpt><trkpt lat="44.74767668200513" lon="10.206988904417935"><ele>110.0</ele><time>2026-04-09T14:29:00Z</time></trkpt><trkpt lat="44.74758089663982" lon="10.206802622061707"><ele>110.0</ele><time>2026-04-09T14:29:01Z</time></trkpt><trkpt lat="44.74748154940737" lon="10.206616259044154"><ele>110.0</ele><time>2026-04-09T14:29:02Z</time></trkpt><trkpt lat="44.747380391016954" lon="10.206424070404106"><ele>110.0</ele><time>2026-04-09T14:29:03Z</time></trkpt><trkpt lat="44.7472825973003" lon="10.206236058819432"><ele>110.25</ele><time>2026-04-09T14:29:04Z</time></trkpt><trkpt lat="44.747196589752654" lon="10.20606522698026"><ele>110.5</ele><time>2026-04-09T14:29:05Z</time></trkpt><trkpt lat="44.74711478921712" lon="10.205906993908801"><ele>110.75</ele><time>2026-04-09T14:29:06Z</time></trkpt><trkpt lat="44.747031732709736" lon="10.20574533499434"><ele>111.0</ele><time>2026-04-09T14:29:07Z</time></trkpt><trkpt lat="44.74695403403259" lon="10.205595249295088"><ele>111.0</ele><time>2026-04-09T14:29:08Z</time></trkpt><trkpt lat="44.74688551203184" lon="10.20545663218438"><ele>111.0</ele><time>2026-04-09T14:29:09Z</time></trkpt><trkpt lat="44.74681753153542" lon="10.205324598996738"><ele>111.0</ele><time>2026-04-09T14:29:10Z</time></trkpt><trkpt lat="44.746751148066295" lon="10.205196805041691"><ele>111.0</ele><time>2026-04-09T14:29:11Z</time></trkpt><trkpt lat="44.74667922825083" lon="10.205060683677422"><ele>111.25</ele><time>2026-04-09T14:29:12Z</time></trkpt><trkpt lat="44.74659956078145" lon="10.204911764342608"><ele>111.5</ele><time>2026-04-09T14:29:13Z</time></trkpt><trkpt lat="44.74651375733031" lon="10.20474470105864"><ele>111.75</ele><time>2026-04-09T14:29:14Z</time></trkpt><trkpt lat="44.746427543433235" lon="10.20457652665788"><ele>112.0</ele><time>2026-04-09T14:29:15Z</time></trkpt><trkpt lat="44.7463531548608" lon="10.20442852593934"><ele>112.0</ele><time>2026-04-09T14:29:16Z</time></trkpt><trkpt lat="44.74628707215584" lon="10.204288082238046"><ele>111.99999999999999</ele><time>2026-04-09T14:29:17Z</time></trkpt><trkpt lat="44.746225691806686" lon="10.204162155866719"><ele>111.99999999999999</ele><time>2026-04-09T14:29:18Z</time></trkpt><trkpt lat="44.74616539538101" lon="10.204044259531344"><ele>112.0</ele><time>2026-04-09T14:29:19Z</time></trkpt><trkpt lat="44.74609944069562" lon="10.203922580037858"><ele>112.0</ele><time>2026-04-09T14:29:20Z</time></trkpt><trkpt lat="44.74602214857573" lon="10.203777049289588"><ele>112.0</ele><time>2026-04-09T14:29:21Z</time></trkpt><trkpt lat="44.745934092051236" lon="10.203612735804253"><ele>112.0</ele><time>2026-04-09T14:29:22Z</time></trkpt><trkpt lat="44.74584385428408" lon="10.203444650948915"><ele>112.0</ele><time>2026-04-09T14:29:23Z</time></trkpt><trkpt lat="44.74576497564606" lon="10.203255153259372"><ele>112.33333333333334</ele><time>2026-04-09T14:29:24Z</time></trkpt><trkpt lat="44.745671831589064" lon="10.203075801803854"><ele>112.66666666666666</ele><time>2026-04-09T14:29:25Z</time></trkpt><trkpt lat="44.74558035385962" lon="10.202899658807194"><ele>113.0</ele><time>2026-04-09T14:29:26Z</time></trkpt><trkpt lat="44.74549336357306" lon="10.202731884704349"><ele>113.0</ele><time>2026-04-09T14:29:27Z</time></trkpt><trkpt lat="44.74540863485354" lon="10.202564931355885"><ele>113.0</ele><time>2026-04-09T14:29:28Z</time></trkpt><trkpt lat="44.745313269386635" lon="10.202377018854268"><ele>113.0</ele><time>2026-04-09T14:29:29Z</time></trkpt><trkpt lat="44.74519747093102" lon="10.202187619051026"><ele>113.0</ele><time>2026-04-09T14:29:30Z</time></trkpt><trkpt lat="44.745102949767855" lon="10.20196100156387"><ele>113.0</ele><time>2026-04-09T14:29:31Z</time></trkpt><trkpt lat="44.744987435676144" lon="10.201732812565774"><ele>113.0</ele><time>2026-04-09T14:29:32Z</time></trkpt><trkpt lat="44.744871263463125" lon="10.201502209959628"><ele>112.66666666666666</ele><time>2026-04-09T14:29:33Z</time></trkpt><trkpt lat="44.74476058125001" lon="10.20128250512059"><ele>112.33333333333334</ele><time>2026-04-09T14:29:34Z</time></trkpt><trkpt lat="44.744639609293756" lon="10.201080772423254"><ele>112.0</ele><time>2026-04-09T14:29:35Z</time></trkpt><trkpt lat="44.74453366144277" lon="10.200872065322903"><ele>112.0</ele><time>2026-04-09T14:29:36Z</time></trkpt><trkpt lat="44.74444552269142" lon="10.200658716752633"><ele>112.0</ele><time>2026-04-09T14:29:37Z</time></trkpt><trkpt lat="44.74433137436227" lon="10.200471948273563"><ele>112.0</ele><time>2026-04-09T14:29:38Z</time></trkpt><trkpt lat="44.7442364266363" lon="10.200284135863145"><ele>112.0</ele><time>2026-04-09T14:29:39Z</time></trkpt><trkpt lat="44.74416164536833" lon="10.200098569300852"><ele>112.0</ele><time>2026-04-09T14:29:40Z</time></trkpt><trkpt lat="44.744084550377295" lon="10.199946445253332"><ele>112.0</ele><time>2026-04-09T14:29:41Z</time></trkpt><trkpt lat="44.74401617096843" lon="10.199811836884585"><ele>112.0</ele><time>2026-04-09T14:29:42Z</time></trkpt><trkpt lat="44.74395207005211" lon="10.199702037732383"><ele>112.19999999999999</ele><time>2026-04-09T14:29:43Z</time></trkpt><trkpt lat="44.743926547971824" lon="10.199575181413755"><ele>112.39999999999999</ele><time>2026-04-09T14:29:44Z</time></trkpt><trkpt lat="44.74390196097433" lon="10.199488650078802"><ele>112.60000000000001</ele><time>2026-04-09T14:29:45Z</time></trkpt><trkpt lat="44.74395283378499" lon="10.199307204744915"><ele>112.80000000000001</ele><time>2026-04-09T14:29:46Z</time></trkpt><trkpt lat="44.74402956464806" lon="10.19918570493514"><ele>113.0</ele><time>2026-04-09T14:29:47Z</time></trkpt><trkpt lat="44.74409177155458" lon="10.199039820195853"><ele>113.25</ele><time>2026-04-09T14:29:48Z</time></trkpt><trkpt lat="44.744152172247766" lon="10.198876981325741"><ele>113.5</ele><time>2026-04-09T14:29:49Z</time></trkpt><trkpt lat="44.744213269852736" lon="10.19870141457972"><ele>113.75</ele><time>2026-04-09T14:29:50Z</time></trkpt><trkpt lat="44.74428448210997" lon="10.198516860986505"><ele>114.0</ele><time>2026-04-09T14:29:51Z</time></trkpt><trkpt lat="44.74435444288577" lon="10.198326339604238"><ele>112.66666666666666</ele><time>2026-04-09T14:29:52Z</time></trkpt><trkpt lat="44.74442085270256" lon="10.198120616706378"><ele>111.33333333333333</ele><time>2026-04-09T14:29:53Z</time></trkpt><trkpt lat="44.744508217874156" lon="10.197919197118477"><ele>110.0</ele><time>2026-04-09T14:29:54Z</time></trkpt><trkpt lat="44.74457490977608" lon="10.19771695426188"><ele>110.0</ele><time>2026-04-09T14:29:55Z</time></trkpt><trkpt lat="44.744620531816196" lon="10.197521976859317"><ele>110.0</ele><time>2026-04-09T14:29:56Z</time></trkpt><trkpt lat="44.744682152282195" lon="10.19735027880109"><ele>110.0</ele><time>2026-04-09T14:29:57Z</time></trkpt><trkpt lat="44.74473536529817" lon="10.197193771136554"><ele>110.0</ele><time>2026-04-09T14:29:58Z</time></trkpt><trkpt lat="44.74478044237308" lon="10.197054857481655"><ele>109.99999999999999</ele><time>2026-04-09T14:29:59Z</time></trkpt><trkpt lat="44.74481711903467" lon="10.196951258270314"><ele>110.0</ele><time>2026-04-09T14:30:00Z</time></trkpt><trkpt lat="44.74484841167972" lon="10.196872058508683"><ele>110.0</ele><time>2026-04-09T14:30:01Z</time></trkpt><trkpt lat="44.7449322245034" lon="10.196763897016515"><ele>110.0</ele><time>2026-04-09T14:30:03Z</time></trkpt><trkpt lat="44.74495043734493" lon="10.196672451190285"><ele>109.99999999999999</ele><time>2026-04-09T14:30:04Z</time></trkpt><trkpt lat="44.74497746902627" lon="10.196589363181946"><ele>110.0</ele><time>2026-04-09T14:30:05Z</time></trkpt><trkpt lat="44.74500731428535" lon="10.196497957742963"><ele>109.99999999999999</ele><time>2026-04-09T14:30:06Z</time></trkpt><trkpt lat="44.74503477301274" lon="10.196413855219202"><ele>110.0</ele><time>2026-04-09T14:30:07Z</time></trkpt><trkpt lat="44.7449784387956" lon="10.196352968410375"><ele>110.0</ele><time>2026-04-09T14:30:08Z</time></trkpt><trkpt lat="44.744929168719075" lon="10.196279434873956"><ele>110.0</ele><time>2026-04-09T14:30:09Z</time></trkpt><trkpt lat="44.74490744119543" lon="10.196097225679132"><ele>109.99999999999999</ele><time>2026-04-09T14:30:11Z</time></trkpt><trkpt lat="44.74487690636781" lon="10.195955639275775"><ele>110.0</ele><time>2026-04-09T14:30:12Z</time></trkpt><trkpt lat="44.744833738308984" lon="10.195793634628862"><ele>110.25</ele><time>2026-04-09T14:30:13Z</time></trkpt><trkpt lat="44.74478482584695" lon="10.195642390384469"><ele>110.5</ele><time>2026-04-09T14:30:14Z</time></trkpt><trkpt lat="44.74468378864446" lon="10.195494493253648"><ele>110.75</ele><time>2026-04-09T14:30:15Z</time></trkpt><trkpt lat="44.7445468367987" lon="10.195412877622282"><ele>111.0</ele><time>2026-04-09T14:30:16Z</time></trkpt><trkpt lat="44.744440095400066" lon="10.195373837256383"><ele>111.0</ele><time>2026-04-09T14:30:17Z</time></trkpt><trkpt lat="44.74429874911854" lon="10.195377141565585"><ele>111.0</ele><time>2026-04-09T14:30:18Z</time></trkpt><trkpt lat="44.74417409957732" lon="10.195435622219552"><ele>111.0</ele><time>2026-04-09T14:30:19Z</time></trkpt><trkpt lat="44.744064785833594" lon="10.195502922232594"><ele>111.0</ele><time>2026-04-09T14:30:20Z</time></trkpt><trkpt lat="44.74398824449618" lon="10.195527676265785"><ele>111.0</ele><time>2026-04-09T14:30:21Z</time></trkpt><trkpt lat="44.743890643143246" lon="10.195534245797846"><ele>111.0</ele><time>2026-04-09T14:30:22Z</time></trkpt><trkpt lat="44.74381601531732" lon="10.19549888606482"><ele>111.0</ele><time>2026-04-09T14:30:23Z</time></trkpt><trkpt lat="44.7437423242929" lon="10.195439688393282"><ele>111.0</ele><time>2026-04-09T14:30:24Z</time></trkpt><trkpt lat="44.74370382062775" lon="10.195362952053665"><ele>111.0</ele><time>2026-04-09T14:30:25Z</time></trkpt><trkpt lat="44.743626647467316" lon="10.195261604777755"><ele>111.0</ele><time>2026-04-09T14:30:26Z</time></trkpt><trkpt lat="44.743546217831884" lon="10.195152001922413"><ele>111.0</ele><time>2026-04-09T14:30:27Z</time></trkpt><trkpt lat="44.74348217970065" lon="10.195060238661249"><ele>111.0</ele><time>2026-04-09T14:30:28Z</time></trkpt><trkpt lat="44.74342851700508" lon="10.194982342730125"><ele>111.0</ele><time>2026-04-09T14:30:29Z</time></trkpt><trkpt lat="44.74337013946394" lon="10.19489760260687"><ele>111.0</ele><time>2026-04-09T14:30:30Z</time></trkpt><trkpt lat="44.74329238749028" lon="10.194784739073603"><ele>111.0</ele><time>2026-04-09T14:30:31Z</time></trkpt><trkpt lat="44.74319651868563" lon="10.194648786503844"><ele>111.66666666666666</ele><time>2026-04-09T14:30:32Z</time></trkpt><trkpt lat="44.74309531173228" lon="10.194508282424119"><ele>112.33333333333333</ele><time>2026-04-09T14:30:33Z</time></trkpt><trkpt lat="44.742974187085046" lon="10.194356348291151"><ele>113.0</ele><time>2026-04-09T14:30:34Z</time></trkpt><trkpt lat="44.74284089685742" lon="10.194204857120269"><ele>113.0</ele><time>2026-04-09T14:30:35Z</time></trkpt><trkpt lat="44.74269731558672" lon="10.194052199897845"><ele>113.0</ele><time>2026-04-09T14:30:36Z</time></trkpt><trkpt lat="44.742547783062115" lon="10.19390577525515"><ele>113.0</ele><time>2026-04-09T14:30:37Z</time></trkpt><trkpt lat="44.74238682929126" lon="10.19376264115973"><ele>113.33333333333333</ele><time>2026-04-09T14:30:38Z</time></trkpt><trkpt lat="44.74221738034539" lon="10.193615669102389"><ele>113.66666666666666</ele><time>2026-04-09T14:30:39Z</time></trkpt><trkpt lat="44.74206703035085" lon="10.193456711079717"><ele>114.0</ele><time>2026-04-09T14:30:40Z</time></trkpt><trkpt lat="44.74191675214721" lon="10.193291495783543"><ele>114.0</ele><time>2026-04-09T14:30:41Z</time></trkpt><trkpt lat="44.74199092271937" lon="10.193074219859524"><ele>114.0</ele><time>2026-04-09T14:30:42Z</time></trkpt><trkpt lat="44.7419053736066" lon="10.192877914807017"><ele>114.0</ele><time>2026-04-09T14:30:43Z</time></trkpt><trkpt lat="44.74134870243565" lon="10.19301821788122"><ele>114.0</ele><time>2026-04-09T14:30:44Z</time></trkpt><trkpt lat="44.74119018255802" lon="10.192882896799805"><ele>114.0</ele><time>2026-04-09T14:30:45Z</time></trkpt><trkpt lat="44.741035236796954" lon="10.192748557856637"><ele>114.0</ele><time>2026-04-09T14:30:46Z</time></trkpt><trkpt lat="44.74088294855364" lon="10.192618120469415"><ele>113.66666666666666</ele><time>2026-04-09T14:30:47Z</time></trkpt><trkpt lat="44.74073991103792" lon="10.192500117686556"><ele>113.33333333333333</ele><time>2026-04-09T14:30:48Z</time></trkpt><trkpt lat="44.74060202627996" lon="10.192386961820977"><ele>113.0</ele><time>2026-04-09T14:30:49Z</time></trkpt><trkpt lat="44.74047266280148" lon="10.192280563436135"><ele>113.0</ele><time>2026-04-09T14:30:50Z</time></trkpt><trkpt lat="44.74034694751913" lon="10.192182649838923"><ele>113.0</ele><time>2026-04-09T14:30:51Z</time></trkpt><trkpt lat="44.740226960388256" lon="10.192093230943916"><ele>113.0</ele><time>2026-04-09T14:30:52Z</time></trkpt><trkpt lat="44.740116160346304" lon="10.192008119500251"><ele>113.0</ele><time>2026-04-09T14:30:53Z</time></trkpt><trkpt lat="44.74000099685765" lon="10.191918226396758"><ele>113.75</ele><time>2026-04-09T14:30:54Z</time></trkpt><trkpt lat="44.73988823427907" lon="10.19183047082966"><ele>114.5</ele><time>2026-04-09T14:30:55Z</time></trkpt><trkpt lat="44.739780305352284" lon="10.191747052203846"><ele>115.25</ele><time>2026-04-09T14:30:56Z</time></trkpt><trkpt lat="44.739681918048795" lon="10.191670325618682"><ele>116.0</ele><time>2026-04-09T14:30:57Z</time></trkpt><trkpt lat="44.739589096759914" lon="10.191597803183587"><ele>115.75</ele><time>2026-04-09T14:30:58Z</time></trkpt><trkpt lat="44.73950085629695" lon="10.191500657623509"><ele>115.5</ele><time>2026-04-09T14:30:59Z</time></trkpt><trkpt lat="44.73939497582511" lon="10.191415824604277"><ele>115.25</ele><time>2026-04-09T14:31:00Z</time></trkpt><trkpt lat="44.73928399656224" lon="10.191326085161027"><ele>115.0</ele><time>2026-04-09T14:31:01Z</time></trkpt><trkpt lat="44.73916661628847" lon="10.19122912598631"><ele>115.0</ele><time>2026-04-09T14:31:02Z</time></trkpt><trkpt lat="44.73904426206431" lon="10.191125918296652"><ele>115.0</ele><time>2026-04-09T14:31:03Z</time></trkpt><trkpt lat="44.73891747433203" lon="10.191016952483197"><ele>115.0</ele><time>2026-04-09T14:31:04Z</time></trkpt><trkpt lat="44.738794150427665" lon="10.1909093517252"><ele>115.0</ele><time>2026-04-09T14:31:05Z</time></trkpt><trkpt lat="44.738678401623496" lon="10.190811473498535"><ele>115.0</ele><time>2026-04-09T14:31:06Z</time></trkpt><trkpt lat="44.73857429962239" lon="10.19072418615858"><ele>115.0</ele><time>2026-04-09T14:31:07Z</time></trkpt><trkpt lat="44.73847722106617" lon="10.190643457496567"><ele>115.0</ele><time>2026-04-09T14:31:08Z</time></trkpt><trkpt lat="44.738399885337216" lon="10.190579146751292"><ele>115.0</ele><time>2026-04-09T14:31:09Z</time></trkpt><trkpt lat="44.738336173431996" lon="10.190526165407094"><ele>115.0</ele><time>2026-04-09T14:31:10Z</time></trkpt><trkpt lat="44.7382528844341" lon="10.190456902865062"><ele>115.0</ele><time>2026-04-09T14:31:12Z</time></trkpt><trkpt lat="44.73815584377055" lon="10.190661241211304"><ele>115.0</ele><time>2026-04-09T14:31:14Z</time></trkpt><trkpt lat="44.738129338230756" lon="10.190784914720746"><ele>115.0</ele><time>2026-04-09T14:31:15Z</time></trkpt><trkpt lat="44.73809267111023" lon="10.190928721731105"><ele>115.0</ele><time>2026-04-09T14:31:16Z</time></trkpt><trkpt lat="44.73804810345043" lon="10.19107205790843"><ele>115.0</ele><time>2026-04-09T14:31:17Z</time></trkpt><trkpt lat="44.73800160045464" lon="10.191229642715196"><ele>115.0</ele><time>2026-04-09T14:31:18Z</time></trkpt><trkpt lat="44.73795204658918" lon="10.191388231520635"><ele>115.0</ele><time>2026-04-09T14:31:19Z</time></trkpt><trkpt lat="44.737907222548984" lon="10.191534245562538"><ele>115.0</ele><time>2026-04-09T14:31:20Z</time></trkpt><trkpt lat="44.73786633015628" lon="10.191681767128596"><ele>115.0</ele><time>2026-04-09T14:31:21Z</time></trkpt><trkpt lat="44.73782235888747" lon="10.19182991111907"><ele>115.0</ele><time>2026-04-09T14:31:22Z</time></trkpt><trkpt lat="44.73777257847622" lon="10.191981994133542"><ele>115.0</ele><time>2026-04-09T14:31:23Z</time></trkpt><trkpt lat="44.73772457969511" lon="10.19212593608648"><ele>115.0</ele><time>2026-04-09T14:31:24Z</time></trkpt><trkpt lat="44.73767106547912" lon="10.19224909988174"><ele>115.0</ele><time>2026-04-09T14:31:25Z</time></trkpt><trkpt lat="44.737600566237624" lon="10.192342377907108"><ele>115.0</ele><time>2026-04-09T14:31:26Z</time></trkpt><trkpt lat="44.7375072342932" lon="10.192398010861128"><ele>115.0</ele><time>2026-04-09T14:31:27Z</time></trkpt><trkpt lat="44.737398904482525" lon="10.19239697447475"><ele>115.0</ele><time>2026-04-09T14:31:28Z</time></trkpt><trkpt lat="44.73727893924583" lon="10.1923915815844"><ele>115.0</ele><time>2026-04-09T14:31:29Z</time></trkpt><trkpt lat="44.73714433584899" lon="10.192377192730742"><ele>115.0</ele><time>2026-04-09T14:31:30Z</time></trkpt><trkpt lat="44.737005991773124" lon="10.192363494476044"><ele>115.0</ele><time>2026-04-09T14:31:31Z</time></trkpt><trkpt lat="44.736858312269426" lon="10.192370947408044"><ele>115.0</ele><time>2026-04-09T14:31:32Z</time></trkpt><trkpt lat="44.73671032221003" lon="10.192346614915818"><ele>115.0</ele><time>2026-04-09T14:31:33Z</time></trkpt><trkpt lat="44.736580775103" lon="10.192342910540415"><ele>115.5</ele><time>2026-04-09T14:31:34Z</time></trkpt><trkpt lat="44.73646448888984" lon="10.192307480662594"><ele>116.0</ele><time>2026-04-09T14:31:35Z</time></trkpt><trkpt lat="44.73635033625793" lon="10.192296418178767"><ele>116.5</ele><time>2026-04-09T14:31:36Z</time></trkpt><trkpt lat="44.73622714303522" lon="10.19228824969115"><ele>117.0</ele><time>2026-04-09T14:31:37Z</time></trkpt><trkpt lat="44.73609047185971" lon="10.19228611331413"><ele>118.25</ele><time>2026-04-09T14:31:38Z</time></trkpt><trkpt lat="44.735949934854254" lon="10.192282138878156"><ele>119.5</ele><time>2026-04-09T14:31:39Z</time></trkpt><trkpt lat="44.73580355702953" lon="10.19226816164034"><ele>120.75</ele><time>2026-04-09T14:31:40Z</time></trkpt><trkpt lat="44.735666669262365" lon="10.19222864727321"><ele>122.0</ele><time>2026-04-09T14:31:41Z</time></trkpt><trkpt lat="44.73552905410834" lon="10.192213073960017"><ele>122.0</ele><time>2026-04-09T14:31:42Z</time></trkpt><trkpt lat="44.735391537412625" lon="10.192196749921038"><ele>122.0</ele><time>2026-04-09T14:31:43Z</time></trkpt><trkpt lat="44.73525044551037" lon="10.19217614491979"><ele>122.0</ele><time>2026-04-09T14:31:44Z</time></trkpt><trkpt lat="44.73511604102046" lon="10.192166678329576"><ele>122.0</ele><time>2026-04-09T14:31:45Z</time></trkpt><trkpt lat="44.73497890551987" lon="10.192191421948216"><ele>123.5</ele><time>2026-04-09T14:31:46Z</time></trkpt><trkpt lat="44.73485159241038" lon="10.192204765570802"><ele>125.0</ele><time>2026-04-09T14:31:47Z</time></trkpt><trkpt lat="44.73473115704415" lon="10.192234119825649"><ele>126.5</ele><time>2026-04-09T14:31:48Z</time></trkpt><trkpt lat="44.73460761179597" lon="10.19227352065948"><ele>128.0</ele><time>2026-04-09T14:31:49Z</time></trkpt><trkpt lat="44.73448600671049" lon="10.192321234323616"><ele>127.25</ele><time>2026-04-09T14:31:50Z</time></trkpt><trkpt lat="44.734364012100215" lon="10.19238870033907"><ele>126.5</ele><time>2026-04-09T14:31:51Z</time></trkpt><trkpt lat="44.73424137696034" lon="10.192436224918627"><ele>125.75</ele><time>2026-04-09T14:31:52Z</time></trkpt><trkpt lat="44.734114247697576" lon="10.192498603972759"><ele>125.0</ele><time>2026-04-09T14:31:53Z</time></trkpt><trkpt lat="44.733980470485136" lon="10.192548727634845"><ele>125.0</ele><time>2026-04-09T14:31:54Z</time></trkpt><trkpt lat="44.73383493024296" lon="10.192595741867402"><ele>125.0</ele><time>2026-04-09T14:31:55Z</time></trkpt><trkpt lat="44.7336797784254" lon="10.192640134301415"><ele>125.0</ele><time>2026-04-09T14:31:56Z</time></trkpt><trkpt lat="44.73352981419739" lon="10.192680034693556"><ele>126.66666666666666</ele><time>2026-04-09T14:31:57Z</time></trkpt><trkpt lat="44.733378676559276" lon="10.192720915227255"><ele>128.33333333333334</ele><time>2026-04-09T14:31:58Z</time></trkpt><trkpt lat="44.73323320986747" lon="10.192785132933995"><ele>130.0</ele><time>2026-04-09T14:31:59Z</time></trkpt><trkpt lat="44.733085208651936" lon="10.192803934571854"><ele>130.0</ele><time>2026-04-09T14:32:00Z</time></trkpt><trkpt lat="44.73295260633764" lon="10.192865585227029"><ele>130.0</ele><time>2026-04-09T14:32:01Z</time></trkpt><trkpt lat="44.732824464103814" lon="10.19290672226952"><ele>130.0</ele><time>2026-04-09T14:32:02Z</time></trkpt><trkpt lat="44.732695864453525" lon="10.192957310772147"><ele>130.0</ele><time>2026-04-09T14:32:03Z</time></trkpt><trkpt lat="44.7325991073258" lon="10.19301855735585"><ele>131.0</ele><time>2026-04-09T14:32:04Z</time></trkpt><trkpt lat="44.73250455780053" lon="10.193054471161366"><ele>132.0</ele><time>2026-04-09T14:32:05Z</time></trkpt><trkpt lat="44.732373125441995" lon="10.19313606423281"><ele>133.0</ele><time>2026-04-09T14:32:06Z</time></trkpt><trkpt lat="44.732237107666954" lon="10.193214534476274"><ele>134.0</ele><time>2026-04-09T14:32:07Z</time></trkpt><trkpt lat="44.7321005920697" lon="10.193292393300332"><ele>132.0</ele><time>2026-04-09T14:32:08Z</time></trkpt><trkpt lat="44.7319987997271" lon="10.193351739118127"><ele>130.0</ele><time>2026-04-09T14:32:09Z</time></trkpt><trkpt lat="44.731879773010014" lon="10.193423451542946"><ele>128.0</ele><time>2026-04-09T14:32:10Z</time></trkpt><trkpt lat="44.73175857181395" lon="10.193497073993518"><ele>126.0</ele><time>2026-04-09T14:32:11Z</time></trkpt><trkpt lat="44.731633399669064" lon="10.193574898114292"><ele>126.0</ele><time>2026-04-09T14:32:12Z</time></trkpt><trkpt lat="44.73151257920185" lon="10.193648920981195"><ele>126.0</ele><time>2026-04-09T14:32:13Z</time></trkpt><trkpt lat="44.73138378147269" lon="10.193723706362693"><ele>126.0</ele><time>2026-04-09T14:32:14Z</time></trkpt><trkpt lat="44.73125243850099" lon="10.193801604763326"><ele>126.0</ele><time>2026-04-09T14:32:15Z</time></trkpt><trkpt lat="44.731123754984836" lon="10.193878517137497"><ele>125.75</ele><time>2026-04-09T14:32:16Z</time></trkpt><trkpt lat="44.73098965893133" lon="10.193953397126188"><ele>125.5</ele><time>2026-04-09T14:32:17Z</time></trkpt><trkpt lat="44.73084997497964" lon="10.194031207335447"><ele>125.25</ele><time>2026-04-09T14:32:18Z</time></trkpt><trkpt lat="44.73071124252323" lon="10.194105698706268"><ele>125.0</ele><time>2026-04-09T14:32:19Z</time></trkpt><trkpt lat="44.73058522672137" lon="10.194172464646043"><ele>125.0</ele><time>2026-04-09T14:32:20Z</time></trkpt><trkpt lat="44.730455353569155" lon="10.194241274264536"><ele>125.0</ele><time>2026-04-09T14:32:21Z</time></trkpt><trkpt lat="44.7303337725026" lon="10.194327060536896"><ele>125.0</ele><time>2026-04-09T14:32:22Z</time></trkpt><trkpt lat="44.7302103693832" lon="10.19438760026008"><ele>125.0</ele><time>2026-04-09T14:32:23Z</time></trkpt><trkpt lat="44.73009391937998" lon="10.194446774778053"><ele>126.25</ele><time>2026-04-09T14:32:24Z</time></trkpt><trkpt lat="44.729975739204065" lon="10.19449896237349"><ele>127.5</ele><time>2026-04-09T14:32:25Z</time></trkpt><trkpt lat="44.72984664312592" lon="10.194515193449638"><ele>128.75</ele><time>2026-04-09T14:32:26Z</time></trkpt><trkpt lat="44.72972446920831" lon="10.194607887638687"><ele>130.0</ele><time>2026-04-09T14:32:27Z</time></trkpt><trkpt lat="44.72957728047321" lon="10.194532636814182"><ele>130.0</ele><time>2026-04-09T14:32:28Z</time></trkpt><trkpt lat="44.72943677267002" lon="10.19450238622492"><ele>130.0</ele><time>2026-04-09T14:32:29Z</time></trkpt><trkpt lat="44.72929790260387" lon="10.194472196320108"><ele>130.0</ele><time>2026-04-09T14:32:30Z</time></trkpt><trkpt lat="44.72915996377766" lon="10.19444247662288"><ele>130.0</ele><time>2026-04-09T14:32:31Z</time></trkpt><trkpt lat="44.72903220282239" lon="10.194387027675418"><ele>130.25</ele><time>2026-04-09T14:32:32Z</time></trkpt><trkpt lat="44.72890107469464" lon="10.194377567994287"><ele>130.5</ele><time>2026-04-09T14:32:33Z</time></trkpt><trkpt lat="44.72877181049543" lon="10.194345313194367"><ele>130.75</ele><time>2026-04-09T14:32:34Z</time></trkpt><trkpt lat="44.72864510948303" lon="10.194314620378334"><ele>131.0</ele><time>2026-04-09T14:32:35Z</time></trkpt><trkpt lat="44.7285138916234" lon="10.194282754275141"><ele>131.0</ele><time>2026-04-09T14:32:36Z</time></trkpt><trkpt lat="44.728388578644" lon="10.194249356779594"><ele>131.0</ele><time>2026-04-09T14:32:37Z</time></trkpt><trkpt lat="44.728260846958264" lon="10.194219325003099"><ele>131.0</ele><time>2026-04-09T14:32:38Z</time></trkpt><trkpt lat="44.72813693967733" lon="10.19418978694273"><ele>131.0</ele><time>2026-04-09T14:32:39Z</time></trkpt><trkpt lat="44.728009702369576" lon="10.19416373387469"><ele>131.0</ele><time>2026-04-09T14:32:40Z</time></trkpt><trkpt lat="44.72788735443988" lon="10.194140097497556"><ele>131.0</ele><time>2026-04-09T14:32:41Z</time></trkpt><trkpt lat="44.727766509443974" lon="10.19411714578773"><ele>131.0</ele><time>2026-04-09T14:32:42Z</time></trkpt><trkpt lat="44.72764175163671" lon="10.194087128631512"><ele>131.0</ele><time>2026-04-09T14:32:43Z</time></trkpt><trkpt lat="44.72752285058865" lon="10.194048533132738"><ele>131.0</ele><time>2026-04-09T14:32:44Z</time></trkpt><trkpt lat="44.72739902552485" lon="10.194021977671744"><ele>131.0</ele><time>2026-04-09T14:32:45Z</time></trkpt><trkpt lat="44.727267990486986" lon="10.193996661157511"><ele>131.0</ele><time>2026-04-09T14:32:46Z</time></trkpt><trkpt lat="44.72713113761267" lon="10.193972455006918"><ele>131.0</ele><time>2026-04-09T14:32:47Z</time></trkpt><trkpt lat="44.726989613012805" lon="10.19396854591689"><ele>132.5</ele><time>2026-04-09T14:32:48Z</time></trkpt><trkpt lat="44.7268499621399" lon="10.193940067511534"><ele>134.0</ele><time>2026-04-09T14:32:49Z</time></trkpt><trkpt lat="44.726722746666766" lon="10.193918233063938"><ele>135.5</ele><time>2026-04-09T14:32:50Z</time></trkpt><trkpt lat="44.72660570828192" lon="10.193872511109278"><ele>137.0</ele><time>2026-04-09T14:32:51Z</time></trkpt><trkpt lat="44.72648583273904" lon="10.193849298103139"><ele>137.0</ele><time>2026-04-09T14:32:52Z</time></trkpt><trkpt lat="44.726375940270884" lon="10.193841965074123"><ele>137.0</ele><time>2026-04-09T14:32:53Z</time></trkpt><trkpt lat="44.72627143143366" lon="10.193827811515904"><ele>137.0</ele><time>2026-04-09T14:32:54Z</time></trkpt><trkpt lat="44.726174293742275" lon="10.193808725053403"><ele>137.0</ele><time>2026-04-09T14:32:55Z</time></trkpt><trkpt lat="44.726088791247825" lon="10.19379284099541"><ele>137.0</ele><time>2026-04-09T14:32:56Z</time></trkpt><trkpt lat="44.72601973012424" lon="10.193781962260969"><ele>137.0</ele><time>2026-04-09T14:32:57Z</time></trkpt><trkpt lat="44.725955079079746" lon="10.193753756481472"><ele>137.0</ele><time>2026-04-09T14:32:58Z</time></trkpt><trkpt lat="44.72585750221275" lon="10.19372570748943"><ele>137.0</ele><time>2026-04-09T14:33:00Z</time></trkpt><trkpt lat="44.72585710475348" lon="10.19360653043808"><ele>137.0</ele><time>2026-04-09T14:33:01Z</time></trkpt><trkpt lat="44.72581001953027" lon="10.193495667311598"><ele>137.0</ele><time>2026-04-09T14:33:02Z</time></trkpt><trkpt lat="44.72574814205486" lon="10.19337935055886"><ele>137.0</ele><time>2026-04-09T14:33:03Z</time></trkpt><trkpt lat="44.72567528255267" lon="10.193251918260874"><ele>137.75</ele><time>2026-04-09T14:33:04Z</time></trkpt><trkpt lat="44.725592307833296" lon="10.193125590412043"><ele>138.5</ele><time>2026-04-09T14:33:05Z</time></trkpt><trkpt lat="44.725492812857006" lon="10.19301068065822"><ele>139.25</ele><time>2026-04-09T14:33:06Z</time></trkpt><trkpt lat="44.72540869170806" lon="10.192874422230238"><ele>140.0</ele><time>2026-04-09T14:33:07Z</time></trkpt><trkpt lat="44.725342583118305" lon="10.192727855513555"><ele>140.0</ele><time>2026-04-09T14:33:08Z</time></trkpt><trkpt lat="44.72527127845364" lon="10.192598078066178"><ele>140.0</ele><time>2026-04-09T14:33:09Z</time></trkpt><trkpt lat="44.72520844769264" lon="10.192487743400273"><ele>140.0</ele><time>2026-04-09T14:33:10Z</time></trkpt><trkpt lat="44.72512285217834" lon="10.192391633590024"><ele>140.0</ele><time>2026-04-09T14:33:11Z</time></trkpt><trkpt lat="44.72502459670059" lon="10.192319497704727"><ele>140.0</ele><time>2026-04-09T14:33:12Z</time></trkpt><trkpt lat="44.72491196753855" lon="10.192282038659435"><ele>143.0</ele><time>2026-04-09T14:33:13Z</time></trkpt><trkpt lat="44.72480848098551" lon="10.19221528838205"><ele>146.0</ele><time>2026-04-09T14:33:14Z</time></trkpt><trkpt lat="44.72471416681278" lon="10.192129261695838"><ele>149.0</ele><time>2026-04-09T14:33:15Z</time></trkpt><trkpt lat="44.72462710536362" lon="10.192031086502954"><ele>152.0</ele><time>2026-04-09T14:33:16Z</time></trkpt><trkpt lat="44.72453341290072" lon="10.19192879567078"><ele>152.0</ele><time>2026-04-09T14:33:17Z</time></trkpt><trkpt lat="44.724449861341945" lon="10.191814023606717"><ele>152.0</ele><time>2026-04-09T14:33:18Z</time></trkpt><trkpt lat="44.72434751539812" lon="10.19172677830212"><ele>152.0</ele><time>2026-04-09T14:33:19Z</time></trkpt><trkpt lat="44.72424167035155" lon="10.191642736051708"><ele>152.0</ele><time>2026-04-09T14:33:20Z</time></trkpt><trkpt lat="44.72413372888518" lon="10.191563454508298"><ele>154.6</ele><time>2026-04-09T14:33:21Z</time></trkpt><trkpt lat="44.72402556388746" lon="10.191487382413753"><ele>157.2</ele><time>2026-04-09T14:33:22Z</time></trkpt><trkpt lat="44.723925367606434" lon="10.1914322812263"><ele>159.8</ele><time>2026-04-09T14:33:23Z</time></trkpt><trkpt lat="44.72384743934651" lon="10.191345169893555"><ele>162.4</ele><time>2026-04-09T14:33:24Z</time></trkpt><trkpt lat="44.72378963362838" lon="10.191236780806133"><ele>165.0</ele><time>2026-04-09T14:33:25Z</time></trkpt><trkpt lat="44.72377623903513" lon="10.191088191523983"><ele>165.0</ele><time>2026-04-09T14:33:26Z</time></trkpt><trkpt lat="44.72373040265966" lon="10.190946446958188"><ele>165.0</ele><time>2026-04-09T14:33:27Z</time></trkpt><trkpt lat="44.723666141653474" lon="10.190817127489149"><ele>165.0</ele><time>2026-04-09T14:33:28Z</time></trkpt><trkpt lat="44.72358535422295" lon="10.190692535304763"><ele>165.0</ele><time>2026-04-09T14:33:29Z</time></trkpt><trkpt lat="44.72348821061114" lon="10.190580868015964"><ele>167.0</ele><time>2026-04-09T14:33:30Z</time></trkpt><trkpt lat="44.723386042656806" lon="10.190469693941829"><ele>169.0</ele><time>2026-04-09T14:33:31Z</time></trkpt><trkpt lat="44.72328456900683" lon="10.190357456566172"><ele>171.0</ele><time>2026-04-09T14:33:32Z</time></trkpt><trkpt lat="44.72318035491666" lon="10.190242784109193"><ele>173.0</ele><time>2026-04-09T14:33:33Z</time></trkpt><trkpt lat="44.72307461857211" lon="10.190129144817979"><ele>173.0</ele><time>2026-04-09T14:33:34Z</time></trkpt><trkpt lat="44.72297076478504" lon="10.190012655273215"><ele>173.0</ele><time>2026-04-09T14:33:35Z</time></trkpt><trkpt lat="44.72285563442702" lon="10.189916349760786"><ele>173.0</ele><time>2026-04-09T14:33:36Z</time></trkpt><trkpt lat="44.722757229185596" lon="10.189807155628792"><ele>173.0</ele><time>2026-04-09T14:33:37Z</time></trkpt><trkpt lat="44.722665734257475" lon="10.189705823364525"><ele>176.0</ele><time>2026-04-09T14:33:38Z</time></trkpt><trkpt lat="44.722581378177445" lon="10.189600109670277"><ele>179.0</ele><time>2026-04-09T14:33:39Z</time></trkpt><trkpt lat="44.722515737038925" lon="10.189473184297416"><ele>182.0</ele><time>2026-04-09T14:33:40Z</time></trkpt><trkpt lat="44.72243877947871" lon="10.189356572407473"><ele>185.0</ele><time>2026-04-09T14:33:41Z</time></trkpt><trkpt lat="44.72236428345241" lon="10.189220966520406"><ele>185.0</ele><time>2026-04-09T14:33:42Z</time></trkpt><trkpt lat="44.72229205785715" lon="10.189067538919433"><ele>185.0</ele><time>2026-04-09T14:33:43Z</time></trkpt><trkpt lat="44.722216771586325" lon="10.188908291838732"><ele>185.0</ele><time>2026-04-09T14:33:44Z</time></trkpt><trkpt lat="44.722141238302896" lon="10.188742280419506"><ele>185.0</ele><time>2026-04-09T14:33:45Z</time></trkpt><trkpt lat="44.72206715919131" lon="10.188568884729271"><ele>185.66666666666666</ele><time>2026-04-09T14:33:46Z</time></trkpt><trkpt lat="44.72198840735436" lon="10.18839222712581"><ele>186.33333333333334</ele><time>2026-04-09T14:33:47Z</time></trkpt><trkpt lat="44.721893306135726" lon="10.188220819888267"><ele>187.0</ele><time>2026-04-09T14:33:48Z</time></trkpt><trkpt lat="44.721825101329834" lon="10.188017157503056"><ele>191.33333333333334</ele><time>2026-04-09T14:33:49Z</time></trkpt><trkpt lat="44.72173218388936" lon="10.187843596010373"><ele>195.66666666666669</ele><time>2026-04-09T14:33:50Z</time></trkpt><trkpt lat="44.72165656154223" lon="10.187652666333113"><ele>200.0</ele><time>2026-04-09T14:33:51Z</time></trkpt><trkpt lat="44.72160051014536" lon="10.18745966370827"><ele>200.5</ele><time>2026-04-09T14:33:52Z</time></trkpt><trkpt lat="44.72152319820473" lon="10.187305610596095"><ele>201.0</ele><time>2026-04-09T14:33:53Z</time></trkpt><trkpt lat="44.72146009272207" lon="10.187133073863711"><ele>201.5</ele><time>2026-04-09T14:33:54Z</time></trkpt><trkpt lat="44.72139500434122" lon="10.186963726834007"><ele>202.0</ele><time>2026-04-09T14:33:55Z</time></trkpt><trkpt lat="44.721328571492236" lon="10.18679143313143"><ele>202.0</ele><time>2026-04-09T14:33:56Z</time></trkpt><trkpt lat="44.72126296742354" lon="10.186606348884895"><ele>202.0</ele><time>2026-04-09T14:33:57Z</time></trkpt><trkpt lat="44.721193074735496" lon="10.186407594158563"><ele>202.0</ele><time>2026-04-09T14:33:58Z</time></trkpt><trkpt lat="44.72112628432904" lon="10.186217526121624"><ele>204.25</ele><time>2026-04-09T14:33:59Z</time></trkpt><trkpt lat="44.72106548011671" lon="10.186036785732396"><ele>206.5</ele><time>2026-04-09T14:34:00Z</time></trkpt><trkpt lat="44.72100256480423" lon="10.185862629153647"><ele>208.75</ele><time>2026-04-09T14:34:01Z</time></trkpt><trkpt lat="44.720934362485615" lon="10.185703061259483"><ele>211.0</ele><time>2026-04-09T14:34:02Z</time></trkpt><trkpt lat="44.72086086006134" lon="10.185555796654644"><ele>211.0</ele><time>2026-04-09T14:34:03Z</time></trkpt><trkpt lat="44.72079760899453" lon="10.185404235807814"><ele>211.0</ele><time>2026-04-09T14:34:04Z</time></trkpt><trkpt lat="44.72073403567875" lon="10.185275959986605"><ele>211.0</ele><time>2026-04-09T14:34:05Z</time></trkpt><trkpt lat="44.72066623648084" lon="10.185147776992997"><ele>211.0</ele><time>2026-04-09T14:34:06Z</time></trkpt><trkpt lat="44.72060798867934" lon="10.184993697638323"><ele>211.0</ele><time>2026-04-09T14:34:07Z</time></trkpt><trkpt lat="44.720535560407576" lon="10.18485981477773"><ele>211.0</ele><time>2026-04-09T14:34:08Z</time></trkpt><trkpt lat="44.72048358279962" lon="10.184692285702061"><ele>211.0</ele><time>2026-04-09T14:34:09Z</time></trkpt><trkpt lat="44.72042520113364" lon="10.18452965668783"><ele>211.0</ele><time>2026-04-09T14:34:10Z</time></trkpt><trkpt lat="44.720373204051995" lon="10.184361035333305"><ele>211.5</ele><time>2026-04-09T14:34:11Z</time></trkpt><trkpt lat="44.7203155100863" lon="10.184192865271854"><ele>212.0</ele><time>2026-04-09T14:34:12Z</time></trkpt><trkpt lat="44.720268638898645" lon="10.184027393818823"><ele>212.5</ele><time>2026-04-09T14:34:13Z</time></trkpt><trkpt lat="44.7202037928346" lon="10.183873703212026"><ele>213.0</ele><time>2026-04-09T14:34:14Z</time></trkpt><trkpt lat="44.72015499826569" lon="10.183731221458064"><ele>215.33333333333334</ele><time>2026-04-09T14:34:15Z</time></trkpt><trkpt lat="44.720127635182344" lon="10.183610674748095"><ele>217.66666666666669</ele><time>2026-04-09T14:34:16Z</time></trkpt><trkpt lat="44.720084460024154" lon="10.183531096349002"><ele>220.0</ele><time>2026-04-09T14:34:17Z</time></trkpt><trkpt lat="44.720059296634744" lon="10.183444575574313"><ele>222.33333333333334</ele><time>2026-04-09T14:34:18Z</time></trkpt><trkpt lat="44.72002789093547" lon="10.183353675969418"><ele>224.66666666666669</ele><time>2026-04-09T14:34:19Z</time></trkpt><trkpt lat="44.719990453210784" lon="10.18324517017464"><ele>227.0</ele><time>2026-04-09T14:34:20Z</time></trkpt><trkpt lat="44.71994621694517" lon="10.18312191876966"><ele>227.0</ele><time>2026-04-09T14:34:21Z</time></trkpt><trkpt lat="44.71990210601755" lon="10.182988659143447"><ele>227.0</ele><time>2026-04-09T14:34:22Z</time></trkpt><trkpt lat="44.719857314367935" lon="10.182855191862961"><ele>227.0</ele><time>2026-04-09T14:34:23Z</time></trkpt><trkpt lat="44.719822351687895" lon="10.182707636947807"><ele>227.0</ele><time>2026-04-09T14:34:24Z</time></trkpt><trkpt lat="44.71976098076441" lon="10.18257479324891"><ele>227.0</ele><time>2026-04-09T14:34:25Z</time></trkpt><trkpt lat="44.71971483090715" lon="10.182430477732229"><ele>228.6</ele><time>2026-04-09T14:34:26Z</time></trkpt><trkpt lat="44.71966230511273" lon="10.18228631966981"><ele>230.2</ele><time>2026-04-09T14:34:27Z</time></trkpt><trkpt lat="44.71961567088947" lon="10.182145272902247"><ele>231.8</ele><time>2026-04-09T14:34:28Z</time></trkpt><trkpt lat="44.719584789265106" lon="10.182001313859766"><ele>233.4</ele><time>2026-04-09T14:34:29Z</time></trkpt><trkpt lat="44.71954368757501" lon="10.181877124776793"><ele>235.0</ele><time>2026-04-09T14:34:30Z</time></trkpt><trkpt lat="44.719488812319966" lon="10.181760971304678"><ele>234.99999999999997</ele><time>2026-04-09T14:34:31Z</time></trkpt><trkpt lat="44.71946182043125" lon="10.181621232528554"><ele>235.0</ele><time>2026-04-09T14:34:32Z</time></trkpt><trkpt lat="44.71940834577763" lon="10.1815102014986"><ele>235.0</ele><time>2026-04-09T14:34:33Z</time></trkpt><trkpt lat="44.71938511980933" lon="10.181410694090621"><ele>235.0</ele><time>2026-04-09T14:34:34Z</time></trkpt><trkpt lat="44.71936657434757" lon="10.181323317304972"><ele>234.99999999999997</ele><time>2026-04-09T14:34:35Z</time></trkpt><trkpt lat="44.71934737650274" lon="10.181225744622543"><ele>235.0</ele><time>2026-04-09T14:34:37Z</time></trkpt><trkpt lat="44.7193516627663" lon="10.181329559923409"><ele>235.0</ele><time>2026-04-09T14:36:25Z</time></trkpt><trkpt lat="44.719396734160924" lon="10.181445753524303"><ele>235.0</ele><time>2026-04-09T14:36:27Z</time></trkpt><trkpt lat="44.719418061294064" lon="10.18154131466189"><ele>235.0</ele><time>2026-04-09T14:36:28Z</time></trkpt><trkpt lat="44.71943940867688" lon="10.181627223651333"><ele>235.0</ele><time>2026-04-09T14:36:29Z</time></trkpt><trkpt lat="44.719483845207925" lon="10.181777317337543"><ele>235.0</ele><time>2026-04-09T14:36:31Z</time></trkpt><trkpt lat="44.719529424290116" lon="10.181909983267635"><ele>235.0</ele><time>2026-04-09T14:36:33Z</time></trkpt><trkpt lat="44.71956998349301" lon="10.182039678985637"><ele>235.0</ele><time>2026-04-09T14:36:35Z</time></trkpt><trkpt lat="44.71961663750485" lon="10.18217934855909"><ele>235.0</ele><time>2026-04-09T14:36:37Z</time></trkpt><trkpt lat="44.71965119580992" lon="10.182283067843905"><ele>235.0</ele><time>2026-04-09T14:36:38Z</time></trkpt><trkpt lat="44.719690104642" lon="10.182405923180417"><ele>235.0</ele><time>2026-04-09T14:36:39Z</time></trkpt><trkpt lat="44.71974169655308" lon="10.182548002271899"><ele>233.4</ele><time>2026-04-09T14:36:40Z</time></trkpt><trkpt lat="44.71979108146225" lon="10.182683301419328"><ele>231.8</ele><time>2026-04-09T14:36:41Z</time></trkpt><trkpt lat="44.71983567340803" lon="10.182818668085067"><ele>230.2</ele><time>2026-04-09T14:36:42Z</time></trkpt><trkpt lat="44.71988624757818" lon="10.182955390103947"><ele>228.6</ele><time>2026-04-09T14:36:43Z</time></trkpt><trkpt lat="44.71993252944205" lon="10.183091453917585"><ele>227.0</ele><time>2026-04-09T14:36:44Z</time></trkpt><trkpt lat="44.71997682799001" lon="10.183223464662024"><ele>227.0</ele><time>2026-04-09T14:36:45Z</time></trkpt><trkpt lat="44.72002185513985" lon="10.183359778178886"><ele>227.0</ele><time>2026-04-09T14:36:46Z</time></trkpt><trkpt lat="44.720065468843316" lon="10.183494066761245"><ele>227.0</ele><time>2026-04-09T14:36:47Z</time></trkpt><trkpt lat="44.72011173844382" lon="10.183622402114192"><ele>227.0</ele><time>2026-04-09T14:36:48Z</time></trkpt><trkpt lat="44.720141226300726" lon="10.183760533622655"><ele>227.0</ele><time>2026-04-09T14:36:49Z</time></trkpt><trkpt lat="44.72018389086261" lon="10.183887380173802"><ele>227.0</ele><time>2026-04-09T14:36:50Z</time></trkpt><trkpt lat="44.720224827158845" lon="10.18400847272085"><ele>227.0</ele><time>2026-04-09T14:36:51Z</time></trkpt><trkpt lat="44.72026644109729" lon="10.18412652321855"><ele>227.0</ele><time>2026-04-09T14:36:52Z</time></trkpt><trkpt lat="44.72031886344733" lon="10.184229307214096"><ele>227.0</ele><time>2026-04-09T14:36:53Z</time></trkpt><trkpt lat="44.7203466353123" lon="10.184320947409883"><ele>227.0</ele><time>2026-04-09T14:36:54Z</time></trkpt><trkpt lat="44.7203978082781" lon="10.184461724210372"><ele>224.66666666666669</ele><time>2026-04-09T14:36:56Z</time></trkpt><trkpt lat="44.72042387041794" lon="10.184546327810223"><ele>222.33333333333334</ele><time>2026-04-09T14:36:59Z</time></trkpt><trkpt lat="44.72045286461438" lon="10.184675200053722"><ele>220.0</ele><time>2026-04-09T14:37:14.999Z</time></trkpt><trkpt lat="44.720486692017246" lon="10.184778736215208"><ele>217.66666666666669</ele><time>2026-04-09T14:37:15.999Z</time></trkpt><trkpt lat="44.72053861145505" lon="10.184879216207174"><ele>215.33333333333334</ele><time>2026-04-09T14:37:16.999Z</time></trkpt><trkpt lat="44.72057660739949" lon="10.18498096010294"><ele>213.0</ele><time>2026-04-09T14:37:17.999Z</time></trkpt><trkpt lat="44.72060964310312" lon="10.185072104203329"><ele>212.60000000000002</ele><time>2026-04-09T14:37:18.999Z</time></trkpt><trkpt lat="44.72066665754255" lon="10.18517008585884"><ele>212.20000000000002</ele><time>2026-04-09T14:37:19.999Z</time></trkpt><trkpt lat="44.72073118153551" lon="10.185289336361492"><ele>211.8</ele><time>2026-04-09T14:37:20.999Z</time></trkpt><trkpt lat="44.72079608812799" lon="10.185422391877633"><ele>211.4</ele><time>2026-04-09T14:37:21.999Z</time></trkpt><trkpt lat="44.72085739764221" lon="10.1855731543749"><ele>211.0</ele><time>2026-04-09T14:37:22.999Z</time></trkpt><trkpt lat="44.720922649019" lon="10.185742804828758"><ele>211.0</ele><time>2026-04-09T14:37:23.999Z</time></trkpt><trkpt lat="44.72099804465998" lon="10.185889519746226"><ele>211.0</ele><time>2026-04-09T14:37:24.999Z</time></trkpt><trkpt lat="44.72105693988231" lon="10.186032522799469"><ele>211.0</ele><time>2026-04-09T14:37:25.999Z</time></trkpt><trkpt lat="44.72110352050441" lon="10.186182183852342"><ele>211.0</ele><time>2026-04-09T14:37:26.999Z</time></trkpt><trkpt lat="44.72114880107573" lon="10.186325602781988"><ele>209.20000000000002</ele><time>2026-04-09T14:37:27.999Z</time></trkpt><trkpt lat="44.72119758335478" lon="10.186466281694692"><ele>207.4</ele><time>2026-04-09T14:37:28.999Z</time></trkpt><trkpt lat="44.72124569733482" lon="10.18660257626921"><ele>205.6</ele><time>2026-04-09T14:37:29.999Z</time></trkpt><trkpt lat="44.72129646837524" lon="10.186731192499817"><ele>203.8</ele><time>2026-04-09T14:37:30.999Z</time></trkpt><trkpt lat="44.7213392675533" lon="10.186857182999887"><ele>202.0</ele><time>2026-04-09T14:37:31.999Z</time></trkpt><trkpt lat="44.72138910542996" lon="10.186989247963675"><ele>202.0</ele><time>2026-04-09T14:37:32.999Z</time></trkpt><trkpt lat="44.72143671367467" lon="10.187133795157267"><ele>202.0</ele><time>2026-04-09T14:37:33.999Z</time></trkpt><trkpt lat="44.72149783611156" lon="10.187278912664077"><ele>202.0</ele><time>2026-04-09T14:37:34.999Z</time></trkpt><trkpt lat="44.72156047499728" lon="10.187421651723074"><ele>202.0</ele><time>2026-04-09T14:37:35.999Z</time></trkpt><trkpt lat="44.72161634948612" lon="10.187570743826916"><ele>201.5</ele><time>2026-04-09T14:37:36.999Z</time></trkpt><trkpt lat="44.72167373250537" lon="10.187722617427879"><ele>201.0</ele><time>2026-04-09T14:37:37.999Z</time></trkpt><trkpt lat="44.721733107961484" lon="10.18785708981004"><ele>200.5</ele><time>2026-04-09T14:37:38.999Z</time></trkpt><trkpt lat="44.72179102790828" lon="10.188006838647711"><ele>200.0</ele><time>2026-04-09T14:37:39.999Z</time></trkpt><trkpt lat="44.72184916510605" lon="10.188144166191385"><ele>197.4</ele><time>2026-04-09T14:37:40.999Z</time></trkpt><trkpt lat="44.721913148487594" lon="10.188277979092405"><ele>194.8</ele><time>2026-04-09T14:37:41.999Z</time></trkpt><trkpt lat="44.72197214240547" lon="10.188408453714564"><ele>192.2</ele><time>2026-04-09T14:37:42.999Z</time></trkpt><trkpt lat="44.72203239124142" lon="10.188540128573305"><ele>189.6</ele><time>2026-04-09T14:37:43.999Z</time></trkpt><trkpt lat="44.72207545564654" lon="10.18867774610631"><ele>187.0</ele><time>2026-04-09T14:37:44.999Z</time></trkpt><trkpt lat="44.72212883423536" lon="10.188802740703359"><ele>187.0</ele><time>2026-04-09T14:37:45.999Z</time></trkpt><trkpt lat="44.72219378823596" lon="10.188905601532472"><ele>187.0</ele><time>2026-04-09T14:37:46.999Z</time></trkpt><trkpt lat="44.72224174785876" lon="10.189015530014817"><ele>187.0</ele><time>2026-04-09T14:37:47.999Z</time></trkpt><trkpt lat="44.7222863667966" lon="10.189108299339951"><ele>187.0</ele><time>2026-04-09T14:37:48.999Z</time></trkpt><trkpt lat="44.722324640032745" lon="10.189188202713998"><ele>187.0</ele><time>2026-04-09T14:37:49.999Z</time></trkpt><trkpt lat="44.72235683291924" lon="10.189264546497304"><ele>187.0</ele><time>2026-04-09T14:37:50.999Z</time></trkpt><trkpt lat="44.72238549375035" lon="10.189364468582905"><ele>186.66666666666669</ele><time>2026-04-09T14:37:53Z</time></trkpt><trkpt lat="44.72230830997164" lon="10.189494294932523"><ele>186.33333333333334</ele><time>2026-04-09T14:37:55Z</time></trkpt><trkpt lat="44.722270853452855" lon="10.189579176100532"><ele>186.0</ele><time>2026-04-09T14:37:56Z</time></trkpt><trkpt lat="44.722218916820886" lon="10.189656296856752"><ele>185.66666666666666</ele><time>2026-04-09T14:37:57Z</time></trkpt><trkpt lat="44.722156642841135" lon="10.189717282428228"><ele>185.33333333333331</ele><time>2026-04-09T14:37:58Z</time></trkpt><trkpt lat="44.72210271116771" lon="10.189796575082356"><ele>185.0</ele><time>2026-04-09T14:37:59Z</time></trkpt><trkpt lat="44.72204749260462" lon="10.189877411593532"><ele>184.66666666666666</ele><time>2026-04-09T14:38:00Z</time></trkpt><trkpt lat="44.721992166249855" lon="10.189951656352958"><ele>184.33333333333331</ele><time>2026-04-09T14:38:01Z</time></trkpt><trkpt lat="44.72192660193284" lon="10.190015700457614"><ele>184.0</ele><time>2026-04-09T14:38:02Z</time></trkpt><trkpt lat="44.72184624168428" lon="10.190058243402067"><ele>183.66666666666666</ele><time>2026-04-09T14:38:03Z</time></trkpt><trkpt lat="44.72176797965235" lon="10.190100036005253"><ele>183.33333333333334</ele><time>2026-04-09T14:38:04Z</time></trkpt><trkpt lat="44.7216895915944" lon="10.190138618768675"><ele>183.0</ele><time>2026-04-09T14:38:05Z</time></trkpt><trkpt lat="44.721621742460734" lon="10.190187423562199"><ele>183.0</ele><time>2026-04-09T14:38:06Z</time></trkpt><trkpt lat="44.721545836316615" lon="10.190200790352073"><ele>183.0</ele><time>2026-04-09T14:38:07Z</time></trkpt><trkpt lat="44.72146600415967" lon="10.19017951013661"><ele>183.0</ele><time>2026-04-09T14:38:08Z</time></trkpt><trkpt lat="44.72138571764559" lon="10.19015550405708"><ele>183.0</ele><time>2026-04-09T14:38:09Z</time></trkpt><trkpt lat="44.72131295866274" lon="10.190126088299857"><ele>183.0</ele><time>2026-04-09T14:38:10Z</time></trkpt><trkpt lat="44.72124242729012" lon="10.190098844707963"><ele>183.0</ele><time>2026-04-09T14:38:11Z</time></trkpt><trkpt lat="44.7211789059053" lon="10.190081250192152"><ele>183.0</ele><time>2026-04-09T14:38:12Z</time></trkpt><trkpt lat="44.7211020402174" lon="10.190063485321826"><ele>183.0</ele><time>2026-04-09T14:38:13Z</time></trkpt><trkpt lat="44.72101942865761" lon="10.190026860871823"><ele>183.0</ele><time>2026-04-09T14:38:14Z</time></trkpt><trkpt lat="44.72094373365078" lon="10.190004158624594"><ele>183.0</ele><time>2026-04-09T14:38:15Z</time></trkpt><trkpt lat="44.720872713842326" lon="10.189995607918313"><ele>183.0</ele><time>2026-04-09T14:38:16Z</time></trkpt><trkpt lat="44.72081105755717" lon="10.189941848166095"><ele>183.0</ele><time>2026-04-09T14:38:17Z</time></trkpt><trkpt lat="44.72076288668166" lon="10.189869260746375"><ele>183.4</ele><time>2026-04-09T14:38:18Z</time></trkpt><trkpt lat="44.720713752713095" lon="10.18978219965118"><ele>183.8</ele><time>2026-04-09T14:38:19Z</time></trkpt><trkpt lat="44.720668251144126" lon="10.189664292159035"><ele>184.2</ele><time>2026-04-09T14:38:20Z</time></trkpt><trkpt lat="44.72060126871974" lon="10.189563886474309"><ele>184.6</ele><time>2026-04-09T14:38:21Z</time></trkpt><trkpt lat="44.72053810519077" lon="10.189463093939858"><ele>185.0</ele><time>2026-04-09T14:38:22Z</time></trkpt><trkpt lat="44.72047997446939" lon="10.189350348905522"><ele>185.0</ele><time>2026-04-09T14:38:23Z</time></trkpt><trkpt lat="44.72043176279694" lon="10.18922496144141"><ele>185.0</ele><time>2026-04-09T14:38:24Z</time></trkpt><trkpt lat="44.720361511522064" lon="10.18912127777177"><ele>185.0</ele><time>2026-04-09T14:38:25Z</time></trkpt><trkpt lat="44.72030357937901" lon="10.189005768702055"><ele>185.0</ele><time>2026-04-09T14:38:26Z</time></trkpt><trkpt lat="44.72024165176956" lon="10.188889714306143"><ele>185.0</ele><time>2026-04-09T14:38:27Z</time></trkpt><trkpt lat="44.72018427850029" lon="10.188783914201677"><ele>182.16666666666666</ele><time>2026-04-09T14:38:28Z</time></trkpt><trkpt lat="44.72012520632888" lon="10.188694024961535"><ele>179.33333333333331</ele><time>2026-04-09T14:38:29Z</time></trkpt><trkpt lat="44.72006499982631" lon="10.188608637333306"><ele>176.5</ele><time>2026-04-09T14:38:30Z</time></trkpt><trkpt lat="44.72000721236055" lon="10.188526504076707"><ele>173.66666666666666</ele><time>2026-04-09T14:38:31Z</time></trkpt><trkpt lat="44.71995034725222" lon="10.188458432605156"><ele>170.83333333333334</ele><time>2026-04-09T14:38:32Z</time></trkpt><trkpt lat="44.719892526902285" lon="10.188382038769491"><ele>168.0</ele><time>2026-04-09T14:38:33Z</time></trkpt><trkpt lat="44.719842786617306" lon="10.188315932197703"><ele>168.0</ele><time>2026-04-09T14:38:34Z</time></trkpt><trkpt lat="44.71977184851631" lon="10.188212883703827"><ele>168.0</ele><time>2026-04-09T14:38:36Z</time></trkpt><trkpt lat="44.71970464631264" lon="10.188137501222304"><ele>168.0</ele><time>2026-04-09T14:38:38Z</time></trkpt><trkpt lat="44.71959930627777" lon="10.188117835278248"><ele>168.0</ele><time>2026-04-09T14:38:40Z</time></trkpt><trkpt lat="44.7195297733279" lon="10.188173220432297"><ele>168.0</ele><time>2026-04-09T14:38:41Z</time></trkpt><trkpt lat="44.71945849416152" lon="10.188266797394604"><ele>163.4</ele><time>2026-04-09T14:38:42Z</time></trkpt><trkpt lat="44.719382007910966" lon="10.188360038719331"><ele>158.8</ele><time>2026-04-09T14:38:43Z</time></trkpt><trkpt lat="44.71930546736018" lon="10.188458681532202"><ele>154.2</ele><time>2026-04-09T14:38:44Z</time></trkpt><trkpt lat="44.719237177603304" lon="10.188546690960937"><ele>149.6</ele><time>2026-04-09T14:38:45Z</time></trkpt><trkpt lat="44.71917199941017" lon="10.188630122763408"><ele>145.0</ele><time>2026-04-09T14:38:46Z</time></trkpt><trkpt lat="44.71910419439236" lon="10.188712455382221"><ele>145.0</ele><time>2026-04-09T14:38:47Z</time></trkpt><trkpt lat="44.71903692902264" lon="10.188794132876415"><ele>145.0</ele><time>2026-04-09T14:38:48Z</time></trkpt><trkpt lat="44.71897280201216" lon="10.18887199952787"><ele>145.0</ele><time>2026-04-09T14:38:49Z</time></trkpt><trkpt lat="44.718912970715195" lon="10.188944898071789"><ele>145.0</ele><time>2026-04-09T14:38:50Z</time></trkpt><trkpt lat="44.71885805466764" lon="10.189012376853434"><ele>145.0</ele><time>2026-04-09T14:38:51Z</time></trkpt><trkpt lat="44.7188078954442" lon="10.189074010596165"><ele>145.0</ele><time>2026-04-09T14:38:52Z</time></trkpt><trkpt lat="44.71872108922682" lon="10.189175862037134"><ele>144.16666666666669</ele><time>2026-04-09T14:38:54Z</time></trkpt><trkpt lat="44.71867599866739" lon="10.189262232003307"><ele>143.33333333333334</ele><time>2026-04-09T14:38:56Z</time></trkpt><trkpt lat="44.718610727656795" lon="10.189323022201375"><ele>142.5</ele><time>2026-04-09T14:39:01Z</time></trkpt><trkpt lat="44.71855180240641" lon="10.189250811703486"><ele>141.66666666666666</ele><time>2026-04-09T14:39:03Z</time></trkpt><trkpt lat="44.718497980788506" lon="10.189192660636257"><ele>140.83333333333331</ele><time>2026-04-09T14:39:04Z</time></trkpt><trkpt lat="44.71843620119047" lon="10.189125967110735"><ele>140.0</ele><time>2026-04-09T14:39:05Z</time></trkpt><trkpt lat="44.71836007045514" lon="10.189043780948536"><ele>140.0</ele><time>2026-04-09T14:39:06Z</time></trkpt><trkpt lat="44.71826007795019" lon="10.188966433495994"><ele>140.0</ele><time>2026-04-09T14:39:07Z</time></trkpt><trkpt lat="44.71816269825" lon="10.18886097996535"><ele>140.0</ele><time>2026-04-09T14:39:07.999Z</time></trkpt><trkpt lat="44.71805716424379" lon="10.188746764041625"><ele>140.0</ele><time>2026-04-09T14:39:08.999Z</time></trkpt><trkpt lat="44.71794103117782" lon="10.188624584996159"><ele>140.0</ele><time>2026-04-09T14:39:09.999Z</time></trkpt><trkpt lat="44.717824728469225" lon="10.188503117289667"><ele>140.0</ele><time>2026-04-09T14:39:10.999Z</time></trkpt><trkpt lat="44.717703744379975" lon="10.188376966299288"><ele>140.0</ele><time>2026-04-09T14:39:11.999Z</time></trkpt><trkpt lat="44.717579568339495" lon="10.18824339451902"><ele>139.75</ele><time>2026-04-09T14:39:12.999Z</time></trkpt><trkpt lat="44.71745828569863" lon="10.18811305822899"><ele>139.5</ele><time>2026-04-09T14:39:13.999Z</time></trkpt><trkpt lat="44.71734491309042" lon="10.187996454622"><ele>139.25</ele><time>2026-04-09T14:39:14.999Z</time></trkpt><trkpt lat="44.71723988728873" lon="10.187890761233438"><ele>139.0</ele><time>2026-04-09T14:39:15.999Z</time></trkpt><trkpt lat="44.71714164442574" lon="10.187788933375497"><ele>139.0</ele><time>2026-04-09T14:39:16.999Z</time></trkpt><trkpt lat="44.71704828703824" lon="10.187691791754402"><ele>139.0</ele><time>2026-04-09T14:39:17.999Z</time></trkpt><trkpt lat="44.71694909377698" lon="10.187593292297882"><ele>139.0</ele><time>2026-04-09T14:39:18.999Z</time></trkpt><trkpt lat="44.71684672958987" lon="10.187484039715766"><ele>139.0</ele><time>2026-04-09T14:39:19.999Z</time></trkpt><trkpt lat="44.71674775365805" lon="10.187376024187103"><ele>139.25</ele><time>2026-04-09T14:39:20.999Z</time></trkpt><trkpt lat="44.716661328505346" lon="10.18726529134139"><ele>139.5</ele><time>2026-04-09T14:39:21.999Z</time></trkpt><trkpt lat="44.71658220455857" lon="10.18713430282158"><ele>139.75</ele><time>2026-04-09T14:39:22.999Z</time></trkpt><trkpt lat="44.71652300494625" lon="10.18698739226634"><ele>140.0</ele><time>2026-04-09T14:39:23.999Z</time></trkpt><trkpt lat="44.716489935044926" lon="10.186814100404249"><ele>140.0</ele><time>2026-04-09T14:39:24.999Z</time></trkpt><trkpt lat="44.71646643579432" lon="10.186626036627647"><ele>140.0</ele><time>2026-04-09T14:39:25.999Z</time></trkpt><trkpt lat="44.71644134616866" lon="10.18644017979488"><ele>140.0</ele><time>2026-04-09T14:39:26.999Z</time></trkpt><trkpt lat="44.71640730410622" lon="10.186263184089977"><ele>140.0</ele><time>2026-04-09T14:39:27.999Z</time></trkpt><trkpt lat="44.716362698938056" lon="10.186111036631964"><ele>141.0</ele><time>2026-04-09T14:39:28.999Z</time></trkpt><trkpt lat="44.71629038574884" lon="10.185969306561628"><ele>142.0</ele><time>2026-04-09T14:39:30Z</time></trkpt><trkpt lat="44.71620650955205" lon="10.185816924828089"><ele>143.0</ele><time>2026-04-09T14:39:31Z</time></trkpt><trkpt lat="44.71610069980928" lon="10.185675908111728"><ele>144.0</ele><time>2026-04-09T14:39:32Z</time></trkpt><trkpt lat="44.71598671700113" lon="10.185534924440335"><ele>144.0</ele><time>2026-04-09T14:39:33Z</time></trkpt><trkpt lat="44.71585836140833" lon="10.18540406595749"><ele>144.0</ele><time>2026-04-09T14:39:34Z</time></trkpt><trkpt lat="44.715739013503786" lon="10.185243520023612"><ele>144.0</ele><time>2026-04-09T14:39:35Z</time></trkpt><trkpt lat="44.71561295819073" lon="10.185089628695563"><ele>144.0</ele><time>2026-04-09T14:39:36Z</time></trkpt><trkpt lat="44.71550175353426" lon="10.184917126599792"><ele>144.0</ele><time>2026-04-09T14:39:37Z</time></trkpt><trkpt lat="44.715374837250316" lon="10.184752906539902"><ele>144.0</ele><time>2026-04-09T14:39:38Z</time></trkpt><trkpt lat="44.71525602206244" lon="10.18460170871286"><ele>144.25</ele><time>2026-04-09T14:39:39Z</time></trkpt><trkpt lat="44.71514632207485" lon="10.184457474851648"><ele>144.5</ele><time>2026-04-09T14:39:40Z</time></trkpt><trkpt lat="44.71504215890422" lon="10.1843260050729"><ele>144.75</ele><time>2026-04-09T14:39:41Z</time></trkpt><trkpt lat="44.71494562785008" lon="10.184204879812263"><ele>145.0</ele><time>2026-04-09T14:39:42Z</time></trkpt><trkpt lat="44.714854977088194" lon="10.184089845976516"><ele>145.4</ele><time>2026-04-09T14:39:43Z</time></trkpt><trkpt lat="44.71476238326549" lon="10.183999116372798"><ele>145.8</ele><time>2026-04-09T14:39:44Z</time></trkpt><trkpt lat="44.71468495523522" lon="10.18389927540866"><ele>146.2</ele><time>2026-04-09T14:39:45Z</time></trkpt><trkpt lat="44.71461038942456" lon="10.183806697731153"><ele>146.6</ele><time>2026-04-09T14:39:46Z</time></trkpt><trkpt lat="44.71452600923807" lon="10.183706659667115"><ele>147.0</ele><time>2026-04-09T14:39:47Z</time></trkpt><trkpt lat="44.71442951067067" lon="10.183625867010857"><ele>147.0</ele><time>2026-04-09T14:39:48Z</time></trkpt><trkpt lat="44.71431486439768" lon="10.183575970626132"><ele>147.0</ele><time>2026-04-09T14:39:49Z</time></trkpt><trkpt lat="44.714187616162256" lon="10.183562039320426"><ele>147.0</ele><time>2026-04-09T14:39:50Z</time></trkpt><trkpt lat="44.71406095428581" lon="10.183551318547048"><ele>147.0</ele><time>2026-04-09T14:39:51Z</time></trkpt><trkpt lat="44.71392437620663" lon="10.183541464596056"><ele>147.0</ele><time>2026-04-09T14:39:52Z</time></trkpt><trkpt lat="44.7137732823449" lon="10.183553492128357"><ele>147.0</ele><time>2026-04-09T14:39:53Z</time></trkpt><trkpt lat="44.713611868636164" lon="10.183571631480172"><ele>147.0</ele><time>2026-04-09T14:39:54Z</time></trkpt><trkpt lat="44.7134454221013" lon="10.183595254197929"><ele>147.75</ele><time>2026-04-09T14:39:55Z</time></trkpt><trkpt lat="44.71329175450292" lon="10.183617672910033"><ele>148.5</ele><time>2026-04-09T14:39:56Z</time></trkpt><trkpt lat="44.71315379533662" lon="10.18361027724646"><ele>149.25</ele><time>2026-04-09T14:39:57Z</time></trkpt><trkpt lat="44.71301490945742" lon="10.183650649501317"><ele>150.0</ele><time>2026-04-09T14:39:58Z</time></trkpt><trkpt lat="44.712871960682925" lon="10.183667285403482"><ele>152.0</ele><time>2026-04-09T14:39:59Z</time></trkpt><trkpt lat="44.712723896374285" lon="10.183679561737653"><ele>154.0</ele><time>2026-04-09T14:40:00Z</time></trkpt><trkpt lat="44.71258122529479" lon="10.183692097575166"><ele>156.0</ele><time>2026-04-09T14:40:01Z</time></trkpt><trkpt lat="44.71245295895999" lon="10.183713195523563"><ele>158.0</ele><time>2026-04-09T14:40:02Z</time></trkpt><trkpt lat="44.71232529734494" lon="10.183728341402448"><ele>158.0</ele><time>2026-04-09T14:40:03Z</time></trkpt><trkpt lat="44.71220433522681" lon="10.183730880062441"><ele>158.0</ele><time>2026-04-09T14:40:04Z</time></trkpt><trkpt lat="44.7120867406064" lon="10.183735840049998"><ele>158.0</ele><time>2026-04-09T14:40:05Z</time></trkpt><trkpt lat="44.711962505052355" lon="10.183731009927127"><ele>158.0</ele><time>2026-04-09T14:40:06Z</time></trkpt><trkpt lat="44.71183189781521" lon="10.183718198368519"><ele>158.33333333333331</ele><time>2026-04-09T14:40:07Z</time></trkpt><trkpt lat="44.711690536492405" lon="10.183702777419585"><ele>158.66666666666666</ele><time>2026-04-09T14:40:08Z</time></trkpt><trkpt lat="44.71153767228986" lon="10.183669358186068"><ele>159.0</ele><time>2026-04-09T14:40:09Z</time></trkpt><trkpt lat="44.71137746096971" lon="10.183627207611234"><ele>159.0</ele><time>2026-04-09T14:40:10Z</time></trkpt><trkpt lat="44.71121722241194" lon="10.183584922486437"><ele>159.0</ele><time>2026-04-09T14:40:11Z</time></trkpt><trkpt lat="44.71104918095007" lon="10.183539931544868"><ele>159.0</ele><time>2026-04-09T14:40:12Z</time></trkpt><trkpt lat="44.71087660128125" lon="10.183492751484152"><ele>158.33333333333334</ele><time>2026-04-09T14:40:13Z</time></trkpt><trkpt lat="44.71070157580766" lon="10.183444217984883"><ele>157.66666666666669</ele><time>2026-04-09T14:40:14Z</time></trkpt><trkpt lat="44.710532516940745" lon="10.18337585918849"><ele>157.0</ele><time>2026-04-09T14:40:15Z</time></trkpt><trkpt lat="44.710369180417864" lon="10.18333120011062"><ele>156.33333333333334</ele><time>2026-04-09T14:40:16Z</time></trkpt><trkpt lat="44.71020752076586" lon="10.183290325269368"><ele>155.66666666666666</ele><time>2026-04-09T14:40:17Z</time></trkpt><trkpt lat="44.71004946226428" lon="10.183270600930095"><ele>155.0</ele><time>2026-04-09T14:40:18Z</time></trkpt><trkpt lat="44.709906549981724" lon="10.18322662953766"><ele>155.0</ele><time>2026-04-09T14:40:19Z</time></trkpt><trkpt lat="44.70976890553934" lon="10.183186446136196"><ele>155.0</ele><time>2026-04-09T14:40:20Z</time></trkpt><trkpt lat="44.709633660353994" lon="10.183151185781066"><ele>155.0</ele><time>2026-04-09T14:40:21Z</time></trkpt><trkpt lat="44.709506149695336" lon="10.183114416798078"><ele>155.0</ele><time>2026-04-09T14:40:22Z</time></trkpt><trkpt lat="44.70938464365875" lon="10.183164663607421"><ele>154.75</ele><time>2026-04-09T14:40:23Z</time></trkpt><trkpt lat="44.70926784485636" lon="10.183179546046638"><ele>154.5</ele><time>2026-04-09T14:40:24Z</time></trkpt><trkpt lat="44.709154712246914" lon="10.183219536543035"><ele>154.25</ele><time>2026-04-09T14:40:25Z</time></trkpt><trkpt lat="44.70904798906771" lon="10.18328308160321"><ele>154.0</ele><time>2026-04-09T14:40:26Z</time></trkpt><trkpt lat="44.70894576806077" lon="10.183320874549732"><ele>154.0</ele><time>2026-04-09T14:40:27Z</time></trkpt><trkpt lat="44.70884345484072" lon="10.183332701253937"><ele>154.0</ele><time>2026-04-09T14:40:28Z</time></trkpt><trkpt lat="44.708749037201756" lon="10.183388505147953"><ele>154.0</ele><time>2026-04-09T14:40:29Z</time></trkpt><trkpt lat="44.70863523448794" lon="10.183411078806094"><ele>154.0</ele><time>2026-04-09T14:40:30Z</time></trkpt><trkpt lat="44.70851490959563" lon="10.183412643637958"><ele>154.0</ele><time>2026-04-09T14:40:31Z</time></trkpt><trkpt lat="44.70838500994046" lon="10.183392087089738"><ele>154.25</ele><time>2026-04-09T14:40:32Z</time></trkpt><trkpt lat="44.70825902600617" lon="10.18338597963033"><ele>154.5</ele><time>2026-04-09T14:40:33Z</time></trkpt><trkpt lat="44.70814194421577" lon="10.18341260710176"><ele>154.75</ele><time>2026-04-09T14:40:34Z</time></trkpt><trkpt lat="44.70803131564433" lon="10.183483508297268"><ele>155.0</ele><time>2026-04-09T14:40:35Z</time></trkpt><trkpt lat="44.70792478395647" lon="10.18357365193505"><ele>155.0</ele><time>2026-04-09T14:40:36Z</time></trkpt><trkpt lat="44.70781783538174" lon="10.183674003706733"><ele>155.0</ele><time>2026-04-09T14:40:37Z</time></trkpt><trkpt lat="44.70770744287174" lon="10.18375387290035"><ele>155.0</ele><time>2026-04-09T14:40:38Z</time></trkpt><trkpt lat="44.70759602263317" lon="10.183816605036847"><ele>155.0</ele><time>2026-04-09T14:40:39Z</time></trkpt><trkpt lat="44.70748160469261" lon="10.183856022153734"><ele>154.8</ele><time>2026-04-09T14:40:40Z</time></trkpt><trkpt lat="44.70737739325797" lon="10.183870728378473"><ele>154.6</ele><time>2026-04-09T14:40:41Z</time></trkpt><trkpt lat="44.707280411427675" lon="10.183874350906658"><ele>154.4</ele><time>2026-04-09T14:40:42Z</time></trkpt><trkpt lat="44.70719540900112" lon="10.183843524720972"><ele>154.2</ele><time>2026-04-09T14:40:43Z</time></trkpt><trkpt lat="44.70710952877762" lon="10.18377556535877"><ele>154.0</ele><time>2026-04-09T14:40:44Z</time></trkpt><trkpt lat="44.70703391855842" lon="10.183677456439511"><ele>154.0</ele><time>2026-04-09T14:40:45Z</time></trkpt><trkpt lat="44.70696527267477" lon="10.183560167159268"><ele>154.0</ele><time>2026-04-09T14:40:46Z</time></trkpt><trkpt lat="44.70689832667024" lon="10.183436512893183"><ele>154.0</ele><time>2026-04-09T14:40:47Z</time></trkpt><trkpt lat="44.70683232717496" lon="10.183304618390194"><ele>154.0</ele><time>2026-04-09T14:40:48Z</time></trkpt><trkpt lat="44.70677917819711" lon="10.183155371775563"><ele>154.25</ele><time>2026-04-09T14:40:49Z</time></trkpt><trkpt lat="44.70673624950991" lon="10.18298889715497"><ele>154.5</ele><time>2026-04-09T14:40:50Z</time></trkpt><trkpt lat="44.70669675953154" lon="10.18281989987905"><ele>154.75</ele><time>2026-04-09T14:40:51Z</time></trkpt><trkpt lat="44.70665652922365" lon="10.182646641205846"><ele>155.0</ele><time>2026-04-09T14:40:52Z</time></trkpt><trkpt lat="44.70661824871333" lon="10.182469256831208"><ele>155.0</ele><time>2026-04-09T14:40:53Z</time></trkpt><trkpt lat="44.70658305483887" lon="10.182306174046625"><ele>155.0</ele><time>2026-04-09T14:40:54Z</time></trkpt><trkpt lat="44.706545067330346" lon="10.182151181275932"><ele>155.0</ele><time>2026-04-09T14:40:55Z</time></trkpt><trkpt lat="44.706513018014775" lon="10.18199590199291"><ele>155.0</ele><time>2026-04-09T14:40:56Z</time></trkpt><trkpt lat="44.70650208459475" lon="10.18183252316937"><ele>155.0</ele><time>2026-04-09T14:40:57Z</time></trkpt><trkpt lat="44.70649715218756" lon="10.181661762509007"><ele>155.0</ele><time>2026-04-09T14:40:58Z</time></trkpt><trkpt lat="44.706502706421176" lon="10.181498101583015"><ele>155.0</ele><time>2026-04-09T14:40:59Z</time></trkpt><trkpt lat="44.70651513628334" lon="10.181348171813475"><ele>155.0</ele><time>2026-04-09T14:41:00Z</time></trkpt><trkpt lat="44.706521395602444" lon="10.181204202821906"><ele>155.0</ele><time>2026-04-09T14:41:01Z</time></trkpt><trkpt lat="44.70651768863889" lon="10.181066918173487"><ele>155.5</ele><time>2026-04-09T14:41:02Z</time></trkpt><trkpt lat="44.70650218707606" lon="10.180946982628129"><ele>156.0</ele><time>2026-04-09T14:41:03Z</time></trkpt><trkpt lat="44.70647998146832" lon="10.180843028807352"><ele>156.5</ele><time>2026-04-09T14:41:04Z</time></trkpt><trkpt lat="44.70644843904052" lon="10.18076013881491"><ele>157.0</ele><time>2026-04-09T14:41:05Z</time></trkpt><trkpt lat="44.70637827730123" lon="10.180648401876796"><ele>157.5</ele><time>2026-04-09T14:41:07Z</time></trkpt><trkpt lat="44.70629841083628" lon="10.180633579586404"><ele>158.0</ele><time>2026-04-09T14:41:09Z</time></trkpt><trkpt lat="44.706224737239054" lon="10.180725220075157"><ele>158.0</ele><time>2026-04-09T14:41:11Z</time></trkpt><trkpt lat="44.7061742726659" lon="10.18078040943477"><ele>158.0</ele><time>2026-04-09T14:41:13Z</time></trkpt><trkpt lat="44.70606741412493" lon="10.180831990758444"><ele>158.0</ele><time>2026-04-09T14:41:16Z</time></trkpt><trkpt lat="44.70594728808825" lon="10.18076868012644"><ele>158.0</ele><time>2026-04-09T14:41:18Z</time></trkpt><trkpt lat="44.705875149373256" lon="10.180714902420348"><ele>158.0</ele><time>2026-04-09T14:41:19Z</time></trkpt><trkpt lat="44.705799030818106" lon="10.180658745003713"><ele>158.5</ele><time>2026-04-09T14:41:20Z</time></trkpt><trkpt lat="44.70572106850888" lon="10.180601154484819"><ele>159.0</ele><time>2026-04-09T14:41:21Z</time></trkpt><trkpt lat="44.70565382378743" lon="10.18055264385238"><ele>159.5</ele><time>2026-04-09T14:41:22Z</time></trkpt><trkpt lat="44.705585097583196" lon="10.180509410965271"><ele>160.0</ele><time>2026-04-09T14:41:23Z</time></trkpt><trkpt lat="44.70549976110144" lon="10.18045308896665"><ele>160.5</ele><time>2026-04-09T14:41:24Z</time></trkpt><trkpt lat="44.705418468752725" lon="10.180413258597522"><ele>161.0</ele><time>2026-04-09T14:41:25Z</time></trkpt><trkpt lat="44.70533151931067" lon="10.180369699778794"><ele>161.0</ele><time>2026-04-09T14:41:26Z</time></trkpt><trkpt lat="44.705268218990774" lon="10.180268191664972"><ele>161.0</ele><time>2026-04-09T14:41:27Z</time></trkpt><trkpt lat="44.705179457456836" lon="10.180213038853692"><ele>161.0</ele><time>2026-04-09T14:41:28Z</time></trkpt><trkpt lat="44.70509559579463" lon="10.180162152439587"><ele>161.0</ele><time>2026-04-09T14:41:29Z</time></trkpt><trkpt lat="44.705011494610844" lon="10.180113620243208"><ele>161.0</ele><time>2026-04-09T14:41:30Z</time></trkpt><trkpt lat="44.70493513002045" lon="10.180077904094313"><ele>162.66666666666666</ele><time>2026-04-09T14:41:31Z</time></trkpt><trkpt lat="44.70486909785282" lon="10.180067988230808"><ele>164.33333333333331</ele><time>2026-04-09T14:41:32Z</time></trkpt><trkpt lat="44.70480960098149" lon="10.180015827138668"><ele>166.0</ele><time>2026-04-09T14:41:33Z</time></trkpt><trkpt lat="44.70473823324304" lon="10.179981426159898"><ele>167.66666666666666</ele><time>2026-04-09T14:41:34Z</time></trkpt><trkpt lat="44.704661573801175" lon="10.179971125941293"><ele>169.33333333333334</ele><time>2026-04-09T14:41:35Z</time></trkpt><trkpt lat="44.704568498842804" lon="10.179967315740429"><ele>171.0</ele><time>2026-04-09T14:41:36Z</time></trkpt><trkpt lat="44.704488569484425" lon="10.179950770462847"><ele>171.0</ele><time>2026-04-09T14:41:37Z</time></trkpt><trkpt lat="44.70442515578561" lon="10.179969747154907"><ele>171.0</ele><time>2026-04-09T14:41:38Z</time></trkpt><trkpt lat="44.70435056188073" lon="10.180000890040825"><ele>171.0</ele><time>2026-04-09T14:41:39Z</time></trkpt><trkpt lat="44.70426533624329" lon="10.180061890323538"><ele>171.0</ele><time>2026-04-09T14:41:40Z</time></trkpt><trkpt lat="44.704189461977975" lon="10.180082425381674"><ele>171.0</ele><time>2026-04-09T14:41:41Z</time></trkpt><trkpt lat="44.70410518038655" lon="10.180127858446673"><ele>171.0</ele><time>2026-04-09T14:41:42Z</time></trkpt><trkpt lat="44.70403819459988" lon="10.180184379336403"><ele>173.5</ele><time>2026-04-09T14:41:43Z</time></trkpt><trkpt lat="44.70397437020506" lon="10.180210078789782"><ele>176.0</ele><time>2026-04-09T14:41:44Z</time></trkpt><trkpt lat="44.703904515422856" lon="10.180274761981817"><ele>178.5</ele><time>2026-04-09T14:41:46Z</time></trkpt><trkpt lat="44.70382633853058" lon="10.180309751001445"><ele>181.0</ele><time>2026-04-09T14:41:48Z</time></trkpt><trkpt lat="44.70374788618741" lon="10.18033332965877"><ele>183.5</ele><time>2026-04-09T14:41:50Z</time></trkpt><trkpt lat="44.70367757869561" lon="10.180276291136053"><ele>186.0</ele><time>2026-04-09T14:41:52Z</time></trkpt><trkpt lat="44.70364961147329" lon="10.180196237408387"><ele>186.0</ele><time>2026-04-09T14:41:53Z</time></trkpt><trkpt lat="44.70361902117756" lon="10.180022094291068"><ele>186.0</ele><time>2026-04-09T14:41:55Z</time></trkpt><trkpt lat="44.703563601971446" lon="10.179873908646103"><ele>186.0</ele><time>2026-04-09T14:41:57Z</time></trkpt><trkpt lat="44.703518344653695" lon="10.179800322933714"><ele>186.0</ele><time>2026-04-09T14:41:58Z</time></trkpt><trkpt lat="44.70346390689378" lon="10.179737326402556"><ele>186.0</ele><time>2026-04-09T14:41:59Z</time></trkpt><trkpt lat="44.70335561975356" lon="10.179674957181456"><ele>186.57142857142858</ele><time>2026-04-09T14:42:01Z</time></trkpt><trkpt lat="44.70327679081645" lon="10.179649124183129"><ele>187.14285714285714</ele><time>2026-04-09T14:42:02Z</time></trkpt><trkpt lat="44.70320900961986" lon="10.179605172324662"><ele>187.71428571428572</ele><time>2026-04-09T14:42:03Z</time></trkpt><trkpt lat="44.703145104719134" lon="10.179605744996675"><ele>188.28571428571428</ele><time>2026-04-09T14:42:04Z</time></trkpt><trkpt lat="44.7030713151798" lon="10.179581291693669"><ele>188.85714285714286</ele><time>2026-04-09T14:42:05Z</time></trkpt><trkpt lat="44.70300292086861" lon="10.179547740025889"><ele>189.42857142857144</ele><time>2026-04-09T14:42:06Z</time></trkpt><trkpt lat="44.70293740650285" lon="10.179531933962675"><ele>190.0</ele><time>2026-04-09T14:42:07Z</time></trkpt><trkpt lat="44.70286091814194" lon="10.179549757296865"><ele>190.0</ele><time>2026-04-09T14:42:08Z</time></trkpt><trkpt lat="44.702789710202666" lon="10.179518113559586"><ele>190.0</ele><time>2026-04-09T14:42:09Z</time></trkpt><trkpt lat="44.70266311591934" lon="10.179475154752403"><ele>190.0</ele><time>2026-04-09T14:42:11Z</time></trkpt><trkpt lat="44.70259085102629" lon="10.179453902368508"><ele>190.0</ele><time>2026-04-09T14:42:12Z</time></trkpt><trkpt lat="44.70250667428301" lon="10.179452791372219"><ele>190.0</ele><time>2026-04-09T14:42:13Z</time></trkpt><trkpt lat="44.70243275093422" lon="10.179427101657605"><ele>190.0</ele><time>2026-04-09T14:42:14Z</time></trkpt><trkpt lat="44.702355375554745" lon="10.179401823174954"><ele>192.66666666666669</ele><time>2026-04-09T14:42:15Z</time></trkpt><trkpt lat="44.70228244154378" lon="10.17937999345007"><ele>195.33333333333334</ele><time>2026-04-09T14:42:16Z</time></trkpt><trkpt lat="44.702207567059396" lon="10.179355049520007"><ele>198.0</ele><time>2026-04-09T14:42:17Z</time></trkpt><trkpt lat="44.70213645562627" lon="10.179333931685434"><ele>200.66666666666669</ele><time>2026-04-09T14:42:18Z</time></trkpt><trkpt lat="44.70204906099393" lon="10.179307853500456"><ele>203.33333333333334</ele><time>2026-04-09T14:42:19Z</time></trkpt><trkpt lat="44.70196140945548" lon="10.179277003654892"><ele>206.0</ele><time>2026-04-09T14:42:20Z</time></trkpt><trkpt lat="44.70187734819912" lon="10.179251040869447"><ele>207.99999999999997</ele><time>2026-04-09T14:42:21Z</time></trkpt><trkpt lat="44.701800502330734" lon="10.179227646728537"><ele>210.0</ele><time>2026-04-09T14:42:22Z</time></trkpt><trkpt lat="44.70172537726936" lon="10.179213713949546"><ele>212.0</ele><time>2026-04-09T14:42:23Z</time></trkpt><trkpt lat="44.70165720883882" lon="10.179176725828249"><ele>214.0</ele><time>2026-04-09T14:42:24Z</time></trkpt><trkpt lat="44.70157177224895" lon="10.179176083261002"><ele>216.0</ele><time>2026-04-09T14:42:26Z</time></trkpt><trkpt lat="44.701509643045284" lon="10.179158691135987"><ele>217.99999999999997</ele><time>2026-04-09T14:42:30Z</time></trkpt><trkpt lat="44.701460999514914" lon="10.17914780235263"><ele>220.0</ele><time>2026-04-09T14:47:50.999Z</time></trkpt><trkpt lat="44.70136082226037" lon="10.179118934340973"><ele>219.99999999999997</ele><time>2026-04-09T14:47:52.999Z</time></trkpt><trkpt lat="44.701261849783926" lon="10.179088557339549"><ele>220.0</ele><time>2026-04-09T14:47:54.999Z</time></trkpt><trkpt lat="44.70119333324329" lon="10.179063903240692"><ele>220.0</ele><time>2026-04-09T14:47:55.999Z</time></trkpt><trkpt lat="44.70112025341775" lon="10.179016570388299"><ele>220.0</ele><time>2026-04-09T14:47:56.999Z</time></trkpt><trkpt lat="44.70103778693911" lon="10.179014069661793"><ele>219.99999999999997</ele><time>2026-04-09T14:47:57.999Z</time></trkpt><trkpt lat="44.70096123867933" lon="10.17896707482002"><ele>220.0</ele><time>2026-04-09T14:47:58.999Z</time></trkpt><trkpt lat="44.70087906177642" lon="10.178941496082837"><ele>219.6</ele><time>2026-04-09T14:47:59.999Z</time></trkpt><trkpt lat="44.700786441359966" lon="10.178936531281744"><ele>219.2</ele><time>2026-04-09T14:48:00.999Z</time></trkpt><trkpt lat="44.70069421584116" lon="10.178902624001532"><ele>218.8</ele><time>2026-04-09T14:48:02Z</time></trkpt><trkpt lat="44.70060644190342" lon="10.178874272895472"><ele>218.4</ele><time>2026-04-09T14:48:03Z</time></trkpt><trkpt lat="44.7005163075905" lon="10.178844676729184"><ele>218.0</ele><time>2026-04-09T14:48:04Z</time></trkpt><trkpt lat="44.70043231536601" lon="10.178813020650413"><ele>218.0</ele><time>2026-04-09T14:48:05Z</time></trkpt><trkpt lat="44.70035301699478" lon="10.178787857478568"><ele>218.0</ele><time>2026-04-09T14:48:06Z</time></trkpt><trkpt lat="44.700273842441206" lon="10.17875932230207"><ele>218.0</ele><time>2026-04-09T14:48:07Z</time></trkpt><trkpt lat="44.70020873958662" lon="10.178746204975715"><ele>218.0</ele><time>2026-04-09T14:48:08Z</time></trkpt><trkpt lat="44.70010925213084" lon="10.178800283148659"><ele>218.0</ele><time>2026-04-09T14:48:10Z</time></trkpt><trkpt lat="44.69786882302817" lon="10.1781391290694"><ele>222.16666666666669</ele><time>2026-04-09T14:49:11Z</time></trkpt><trkpt lat="44.69778182941797" lon="10.178086679812832"><ele>226.33333333333334</ele><time>2026-04-09T14:49:25.999Z</time></trkpt><trkpt lat="44.69769691902633" lon="10.1780617727478"><ele>230.5</ele><time>2026-04-09T14:49:27.999Z</time></trkpt><trkpt lat="44.697645360498534" lon="10.17800772792484"><ele>234.66666666666669</ele><time>2026-04-09T14:49:28.999Z</time></trkpt><trkpt lat="44.69757083194096" lon="10.17796549906646"><ele>238.83333333333334</ele><time>2026-04-09T14:49:29.999Z</time></trkpt><trkpt lat="44.69750366731495" lon="10.177941349642284"><ele>243.0</ele><time>2026-04-09T14:49:30.999Z</time></trkpt><trkpt lat="44.69739147394256" lon="10.177880824172295"><ele>244.28571428571428</ele><time>2026-04-09T14:49:32.999Z</time></trkpt><trkpt lat="44.697334457079855" lon="10.177817537016095"><ele>245.57142857142858</ele><time>2026-04-09T14:49:33.999Z</time></trkpt><trkpt lat="44.697278308082765" lon="10.177771403144478"><ele>246.85714285714286</ele><time>2026-04-09T14:49:34.999Z</time></trkpt><trkpt lat="44.697223822716374" lon="10.177725857812511"><ele>248.14285714285714</ele><time>2026-04-09T14:49:35.999Z</time></trkpt><trkpt lat="44.697155045601875" lon="10.177692884615372"><ele>249.42857142857144</ele><time>2026-04-09T14:49:36.999Z</time></trkpt><trkpt lat="44.69708698176521" lon="10.177633431315378"><ele>250.71428571428572</ele><time>2026-04-09T14:49:37.999Z</time></trkpt><trkpt lat="44.69702093375047" lon="10.17757891607578"><ele>252.0</ele><time>2026-04-09T14:49:38.999Z</time></trkpt><trkpt lat="44.69695917281769" lon="10.177530947968288"><ele>252.6</ele><time>2026-04-09T14:49:39.999Z</time></trkpt><trkpt lat="44.69684069790764" lon="10.177442851996629"><ele>253.2</ele><time>2026-04-09T14:49:41.999Z</time></trkpt><trkpt lat="44.69678045352632" lon="10.177403911537253"><ele>253.8</ele><time>2026-04-09T14:49:42.999Z</time></trkpt><trkpt lat="44.696672498474264" lon="10.177311932614517"><ele>254.4</ele><time>2026-04-09T14:49:44.999Z</time></trkpt><trkpt lat="44.69656508908523" lon="10.17726423455156"><ele>255.0</ele><time>2026-04-09T14:49:47Z</time></trkpt><trkpt lat="44.69649987595556" lon="10.177227762422323"><ele>255.0</ele><time>2026-04-09T14:49:48Z</time></trkpt><trkpt lat="44.696432235134914" lon="10.17719145255832"><ele>255.0</ele><time>2026-04-09T14:49:49Z</time></trkpt><trkpt lat="44.69635887620856" lon="10.177148873100212"><ele>255.0</ele><time>2026-04-09T14:49:50Z</time></trkpt><trkpt lat="44.696287978475084" lon="10.177109004973392"><ele>255.0</ele><time>2026-04-09T14:49:51Z</time></trkpt><trkpt lat="44.696234263357816" lon="10.177045069055639"><ele>255.0</ele><time>2026-04-09T14:49:52Z</time></trkpt><trkpt lat="44.696148533461795" lon="10.176957940055507"><ele>255.0</ele><time>2026-04-09T14:49:54Z</time></trkpt><trkpt lat="44.696159513555045" lon="10.176795745761526"><ele>255.0</ele><time>2026-04-09T14:49:56Z</time></trkpt><trkpt lat="44.69617468106795" lon="10.176702447993428"><ele>255.0</ele><time>2026-04-09T14:49:57Z</time></trkpt><trkpt lat="44.69618458150864" lon="10.176609778998536"><ele>255.0</ele><time>2026-04-09T14:49:59Z</time></trkpt><trkpt lat="44.69617321478275" lon="10.176492653179015"><ele>255.0</ele><time>2026-04-09T14:50:02Z</time></trkpt><trkpt lat="44.69615830338332" lon="10.176385869141043"><ele>255.0</ele><time>2026-04-09T14:50:04Z</time></trkpt><trkpt lat="44.69613093767202" lon="10.176290661108567"><ele>255.0</ele><time>2026-04-09T14:50:06Z</time></trkpt><trkpt lat="44.69606995263343" lon="10.176196200976866"><ele>256.0</ele><time>2026-04-09T14:50:09Z</time></trkpt><trkpt lat="44.692882463267566" lon="10.17499031051264"><ele>255.99999999999997</ele><time>2026-04-09T14:52:11Z</time></trkpt><trkpt lat="44.69282545578219" lon="10.174893492970279"><ele>256.0</ele><time>2026-04-09T14:52:12Z</time></trkpt><trkpt lat="44.69277861196773" lon="10.174803286266624"><ele>256.0</ele><time>2026-04-09T14:52:13Z</time></trkpt><trkpt lat="44.6927372862502" lon="10.174729147265847"><ele>256.0</ele><time>2026-04-09T14:52:14Z</time></trkpt><trkpt lat="44.692680779355726" lon="10.174641683116883"><ele>255.99999999999997</ele><time>2026-04-09T14:52:15Z</time></trkpt><trkpt lat="44.692615400600474" lon="10.174578823946568"><ele>256.0</ele><time>2026-04-09T14:52:16Z</time></trkpt><trkpt lat="44.69253611713999" lon="10.174516747758862"><ele>257.16666666666663</ele><time>2026-04-09T14:52:17Z</time></trkpt><trkpt lat="44.69246820304214" lon="10.174462346983173"><ele>258.3333333333333</ele><time>2026-04-09T14:52:18Z</time></trkpt><trkpt lat="44.69237041215221" lon="10.174384250684012"><ele>259.5</ele><time>2026-04-09T14:52:20Z</time></trkpt><trkpt lat="44.69229542282247" lon="10.174344839756769"><ele>260.6666666666667</ele><time>2026-04-09T14:52:21Z</time></trkpt><trkpt lat="44.692219371583" lon="10.174329542682974"><ele>261.83333333333337</ele><time>2026-04-09T14:52:22Z</time></trkpt><trkpt lat="44.692150092547145" lon="10.17430221769629"><ele>263.0</ele><time>2026-04-09T14:52:23Z</time></trkpt><trkpt lat="44.69208574292752" lon="10.17428565487013"><ele>263.0</ele><time>2026-04-09T14:52:24Z</time></trkpt><trkpt lat="44.69201637880998" lon="10.174243663057613"><ele>263.0</ele><time>2026-04-09T14:52:25Z</time></trkpt><trkpt lat="44.691944712969395" lon="10.174228182991728"><ele>263.0</ele><time>2026-04-09T14:52:26Z</time></trkpt><trkpt lat="44.69187942213505" lon="10.17420111901808"><ele>263.0</ele><time>2026-04-09T14:52:27Z</time></trkpt><trkpt lat="44.691806781598075" lon="10.17416954465086"><ele>263.0</ele><time>2026-04-09T14:52:28Z</time></trkpt><trkpt lat="44.691731951989496" lon="10.174149795621329"><ele>263.0</ele><time>2026-04-09T14:52:29Z</time></trkpt><trkpt lat="44.69166611173822" lon="10.174147861451058"><ele>263.0</ele><time>2026-04-09T14:52:30Z</time></trkpt><trkpt lat="44.69159980555727" lon="10.174162103457878"><ele>264.1666666666667</ele><time>2026-04-09T14:52:31Z</time></trkpt><trkpt lat="44.69153252648349" lon="10.174196932185037"><ele>265.33333333333337</ele><time>2026-04-09T14:52:32Z</time></trkpt><trkpt lat="44.69146844680875" lon="10.174242959567474"><ele>266.5</ele><time>2026-04-09T14:52:33Z</time></trkpt><trkpt lat="44.69139684379054" lon="10.17429890310811"><ele>267.6666666666667</ele><time>2026-04-09T14:52:34Z</time></trkpt><trkpt lat="44.691312773158316" lon="10.174344596116722"><ele>268.8333333333333</ele><time>2026-04-09T14:52:35Z</time></trkpt><trkpt lat="44.691227669479964" lon="10.174399586546444"><ele>270.0</ele><time>2026-04-09T14:52:36Z</time></trkpt><trkpt lat="44.691144607023276" lon="10.174450642079117"><ele>270.3333333333333</ele><time>2026-04-09T14:52:37Z</time></trkpt><trkpt lat="44.69105378927363" lon="10.174476038922444"><ele>270.6666666666667</ele><time>2026-04-09T14:52:38Z</time></trkpt><trkpt lat="44.69098556439608" lon="10.174489732325183"><ele>271.0</ele><time>2026-04-09T14:52:39Z</time></trkpt><trkpt lat="44.69090158784906" lon="10.174525613907495"><ele>271.33333333333337</ele><time>2026-04-09T14:52:40Z</time></trkpt><trkpt lat="44.690821038623106" lon="10.174544950952614"><ele>271.6666666666667</ele><time>2026-04-09T14:52:41Z</time></trkpt><trkpt lat="44.69074429845913" lon="10.174574782388145"><ele>272.0</ele><time>2026-04-09T14:52:42Z</time></trkpt><trkpt lat="44.69067511229537" lon="10.174583087974236"><ele>272.0</ele><time>2026-04-09T14:52:43Z</time></trkpt><trkpt lat="44.690602676676924" lon="10.174609926507735"><ele>272.0</ele><time>2026-04-09T14:52:44Z</time></trkpt><trkpt lat="44.69050497496502" lon="10.174646034286917"><ele>272.0</ele><time>2026-04-09T14:52:45Z</time></trkpt><trkpt lat="44.690400205070716" lon="10.174681467544021"><ele>272.0</ele><time>2026-04-09T14:52:46Z</time></trkpt><trkpt lat="44.69030958751672" lon="10.174712114522993"><ele>272.0</ele><time>2026-04-09T14:52:47Z</time></trkpt><trkpt lat="44.69019677438168" lon="10.174772296504546"><ele>272.83333333333337</ele><time>2026-04-09T14:52:49Z</time></trkpt><trkpt lat="44.6901290718197" lon="10.174775829669338"><ele>273.6666666666667</ele><time>2026-04-09T14:52:50Z</time></trkpt><trkpt lat="44.69006961201887" lon="10.174818486556592"><ele>274.5</ele><time>2026-04-09T14:52:52Z</time></trkpt><trkpt lat="44.689970529075204" lon="10.174838180386027"><ele>275.3333333333333</ele><time>2026-04-09T14:53:05Z</time></trkpt><trkpt lat="44.68990202512322" lon="10.174866760941653"><ele>276.16666666666663</ele><time>2026-04-09T14:53:06Z</time></trkpt><trkpt lat="44.68982091366878" lon="10.174897147328219"><ele>277.0</ele><time>2026-04-09T14:53:07Z</time></trkpt><trkpt lat="44.689724882690534" lon="10.17493329888377"><ele>280.0</ele><time>2026-04-09T14:53:08Z</time></trkpt><trkpt lat="44.68962672672056" lon="10.17499390328662"><ele>283.0</ele><time>2026-04-09T14:53:09Z</time></trkpt><trkpt lat="44.68953551975644" lon="10.175027797521533"><ele>286.0</ele><time>2026-04-09T14:53:10Z</time></trkpt><trkpt lat="44.68865559567848" lon="10.175305094233034"><ele>288.2</ele><time>2026-04-09T14:54:11Z</time></trkpt><trkpt lat="44.6885783905233" lon="10.17538573766434"><ele>290.40000000000003</ele><time>2026-04-09T14:54:13Z</time></trkpt><trkpt lat="44.68850966691331" lon="10.17548805303644"><ele>292.6</ele><time>2026-04-09T14:54:15Z</time></trkpt><trkpt lat="44.688418347001615" lon="10.175518594725737"><ele>294.8</ele><time>2026-04-09T14:54:17Z</time></trkpt><trkpt lat="44.68833250836978" lon="10.175514948574934"><ele>297.0</ele><time>2026-04-09T14:54:19Z</time></trkpt><trkpt lat="44.68825812322483" lon="10.17551064496029"><ele>297.0</ele><time>2026-04-09T14:54:21Z</time></trkpt><trkpt lat="44.68819138067913" lon="10.175517779000387"><ele>297.0</ele><time>2026-04-09T14:54:23Z</time></trkpt><trkpt lat="44.68811312272643" lon="10.17560774078261"><ele>297.0</ele><time>2026-04-09T14:54:25Z</time></trkpt><trkpt lat="44.688062920208964" lon="10.175760448170196"><ele>297.0</ele><time>2026-04-09T14:54:27Z</time></trkpt><trkpt lat="44.687994942616236" lon="10.175896863816105"><ele>297.0</ele><time>2026-04-09T14:54:29Z</time></trkpt><trkpt lat="44.687957395813235" lon="10.175973092015845"><ele>296.8333333333333</ele><time>2026-04-09T14:54:30Z</time></trkpt><trkpt lat="44.687911889219485" lon="10.176057049831655"><ele>296.6666666666667</ele><time>2026-04-09T14:54:31Z</time></trkpt><trkpt lat="44.6878693419252" lon="10.176136559611143"><ele>296.5</ele><time>2026-04-09T14:54:32Z</time></trkpt><trkpt lat="44.68782096683551" lon="10.176196408159011"><ele>296.33333333333337</ele><time>2026-04-09T14:54:33Z</time></trkpt><trkpt lat="44.687790674463244" lon="10.176283517291457"><ele>296.1666666666667</ele><time>2026-04-09T14:54:34Z</time></trkpt><trkpt lat="44.68774766350117" lon="10.17638047096077"><ele>296.0</ele><time>2026-04-09T14:54:35Z</time></trkpt><trkpt lat="44.687684696926915" lon="10.176501195177334"><ele>296.1666666666667</ele><time>2026-04-09T14:54:36Z</time></trkpt><trkpt lat="44.68762588335066" lon="10.176616552325347"><ele>296.33333333333337</ele><time>2026-04-09T14:54:37Z</time></trkpt><trkpt lat="44.687574881361556" lon="10.176714434681003"><ele>296.5</ele><time>2026-04-09T14:54:38Z</time></trkpt><trkpt lat="44.68752655700329" lon="10.176820995346603"><ele>296.6666666666667</ele><time>2026-04-09T14:54:39Z</time></trkpt><trkpt lat="44.68748923613439" lon="10.176925632544638"><ele>296.8333333333333</ele><time>2026-04-09T14:54:40Z</time></trkpt><trkpt lat="44.687458585247974" lon="10.177030613297132"><ele>297.0</ele><time>2026-04-09T14:54:41Z</time></trkpt><trkpt lat="44.687429622234795" lon="10.177149775743946"><ele>297.0</ele><time>2026-04-09T14:54:42Z</time></trkpt><trkpt lat="44.68740171699763" lon="10.177299161254787"><ele>297.0</ele><time>2026-04-09T14:54:43Z</time></trkpt><trkpt lat="44.687376642844605" lon="10.177424485478888"><ele>297.0</ele><time>2026-04-09T14:54:44Z</time></trkpt><trkpt lat="44.6873541106758" lon="10.177534679382783"><ele>297.0</ele><time>2026-04-09T14:54:45Z</time></trkpt><trkpt lat="44.687333710607945" lon="10.17764191261565"><ele>297.0</ele><time>2026-04-09T14:54:46Z</time></trkpt><trkpt lat="44.687317340088306" lon="10.177729475106348"><ele>297.0</ele><time>2026-04-09T14:54:47Z</time></trkpt><trkpt lat="44.68730303227443" lon="10.177817195548695"><ele>296.4</ele><time>2026-04-09T14:54:48Z</time></trkpt><trkpt lat="44.6872849187619" lon="10.177982545932034"><ele>295.79999999999995</ele><time>2026-04-09T14:54:50Z</time></trkpt><trkpt lat="44.687275264385086" lon="10.178085085442024"><ele>295.2</ele><time>2026-04-09T14:54:51Z</time></trkpt><trkpt lat="44.68728378453556" lon="10.178199881560618"><ele>294.59999999999997</ele><time>2026-04-09T14:54:52Z</time></trkpt><trkpt lat="44.68726512940236" lon="10.17833459988715"><ele>294.0</ele><time>2026-04-09T14:54:53Z</time></trkpt><trkpt lat="44.68722699977052" lon="10.178456740748793"><ele>292.8333333333333</ele><time>2026-04-09T14:54:54Z</time></trkpt><trkpt lat="44.6872023166368" lon="10.178577386005902"><ele>291.6666666666667</ele><time>2026-04-09T14:54:55Z</time></trkpt><trkpt lat="44.68717803541326" lon="10.178696066662948"><ele>290.5</ele><time>2026-04-09T14:54:56Z</time></trkpt><trkpt lat="44.68717071949552" lon="10.178813979348373"><ele>289.33333333333337</ele><time>2026-04-09T14:54:57Z</time></trkpt><trkpt lat="44.68715078039193" lon="10.178931985579535"><ele>288.1666666666667</ele><time>2026-04-09T14:54:58Z</time></trkpt><trkpt lat="44.68711291399405" lon="10.179041867021796"><ele>287.0</ele><time>2026-04-09T14:54:59Z</time></trkpt><trkpt lat="44.687093285622815" lon="10.179137708714705"><ele>286.4</ele><time>2026-04-09T14:55:00.001Z</time></trkpt><trkpt lat="44.68706558704877" lon="10.179249253240362"><ele>285.79999999999995</ele><time>2026-04-09T14:55:01.001Z</time></trkpt><trkpt lat="44.68703147113825" lon="10.179386042191314"><ele>285.2</ele><time>2026-04-09T14:55:02.001Z</time></trkpt><trkpt lat="44.68701614455807" lon="10.179523951369593"><ele>284.59999999999997</ele><time>2026-04-09T14:55:03.001Z</time></trkpt><trkpt lat="44.68698751892248" lon="10.179650756973077"><ele>284.0</ele><time>2026-04-09T14:55:04.001Z</time></trkpt><trkpt lat="44.68696011265978" lon="10.17977461758453"><ele>282.4</ele><time>2026-04-09T14:55:05.001Z</time></trkpt><trkpt lat="44.68692875984701" lon="10.17989067017987"><ele>280.79999999999995</ele><time>2026-04-09T14:55:06.001Z</time></trkpt><trkpt lat="44.68690830937518" lon="10.180020728630847"><ele>279.20000000000005</ele><time>2026-04-09T14:55:07.001Z</time></trkpt><trkpt lat="44.68688725974527" lon="10.180154597438046"><ele>277.6</ele><time>2026-04-09T14:55:08.001Z</time></trkpt><trkpt lat="44.686882307578216" lon="10.180280790125511"><ele>276.0</ele><time>2026-04-09T14:55:09.001Z</time></trkpt><trkpt lat="44.686848706822715" lon="10.180412530366839"><ele>293.0</ele><time>2026-04-09T14:55:10.001Z</time></trkpt><trkpt lat="44.686760926723764" lon="10.184198432116846"><ele>293.0</ele><time>2026-04-09T14:56:09Z</time></trkpt><trkpt lat="44.68683003086346" lon="10.184223271638768"><ele>293.0</ele><time>2026-04-09T14:57:19.001Z</time></trkpt><trkpt lat="44.68685402056583" lon="10.184139394469506"><ele>293.0</ele><time>2026-04-09T14:57:24.001Z</time></trkpt><trkpt lat="44.68682058277081" lon="10.184055823967975"><ele>293.0</ele><time>2026-04-09T14:57:26.001Z</time></trkpt><trkpt lat="44.68678728188486" lon="10.183920609484879"><ele>293.0</ele><time>2026-04-09T14:57:28.001Z</time></trkpt><trkpt lat="44.6867800351334" lon="10.183796429884511"><ele>293.0</ele><time>2026-04-09T14:57:30.001Z</time></trkpt><trkpt lat="44.68676774968178" lon="10.183670666814809"><ele>294.0</ele><time>2026-04-09T14:57:32.001Z</time></trkpt><trkpt lat="44.68677155037268" lon="10.183525344710073"><ele>295.0</ele><time>2026-04-09T14:57:34.001Z</time></trkpt><trkpt lat="44.686766369130794" lon="10.183432443756152"><ele>296.0</ele><time>2026-04-09T14:57:35.001Z</time></trkpt><trkpt lat="44.686762928183576" lon="10.183316279559111"><ele>297.0</ele><time>2026-04-09T14:57:36.001Z</time></trkpt><trkpt lat="44.686743558164025" lon="10.183174189492426"><ele>298.0</ele><time>2026-04-09T14:57:37.001Z</time></trkpt><trkpt lat="44.686747746448155" lon="10.183045317221609"><ele>299.0</ele><time>2026-04-09T14:57:38.001Z</time></trkpt><trkpt lat="44.68674633204763" lon="10.182940186914726"><ele>299.33333333333337</ele><time>2026-04-09T14:57:39.001Z</time></trkpt><trkpt lat="44.68675833926038" lon="10.182829834067634"><ele>299.6666666666667</ele><time>2026-04-09T14:57:40.001Z</time></trkpt><trkpt lat="44.68674337664675" lon="10.182714863118477"><ele>300.0</ele><time>2026-04-09T14:57:41.001Z</time></trkpt><trkpt lat="44.68674566020951" lon="10.18260603675111"><ele>300.3333333333333</ele><time>2026-04-09T14:57:41.999Z</time></trkpt><trkpt lat="44.686748262053946" lon="10.182483537986958"><ele>300.66666666666663</ele><time>2026-04-09T14:57:42.999Z</time></trkpt><trkpt lat="44.68674533583633" lon="10.182354690535401"><ele>301.0</ele><time>2026-04-09T14:57:43.999Z</time></trkpt><trkpt lat="44.68675412208345" lon="10.182223603429197"><ele>301.2</ele><time>2026-04-09T14:57:44.999Z</time></trkpt><trkpt lat="44.686751447022985" lon="10.182111294346544"><ele>301.40000000000003</ele><time>2026-04-09T14:57:45.999Z</time></trkpt><trkpt lat="44.68674422554291" lon="10.181939426370688"><ele>301.6</ele><time>2026-04-09T14:57:47.999Z</time></trkpt><trkpt lat="44.68676222597263" lon="10.181784127732715"><ele>301.8</ele><time>2026-04-09T14:57:49.999Z</time></trkpt><trkpt lat="44.68675103183974" lon="10.18163972542483"><ele>302.0</ele><time>2026-04-09T14:57:51.999Z</time></trkpt><trkpt lat="44.68675740888274" lon="10.181501602412625"><ele>301.6666666666667</ele><time>2026-04-09T14:57:53.999Z</time></trkpt><trkpt lat="44.6867616194265" lon="10.181409393409819"><ele>301.33333333333337</ele><time>2026-04-09T14:57:54.999Z</time></trkpt><trkpt lat="44.686767045901675" lon="10.181310964219945"><ele>301.0</ele><time>2026-04-09T14:57:55.999Z</time></trkpt><trkpt lat="44.68677470787911" lon="10.181185443747424"><ele>300.6666666666667</ele><time>2026-04-09T14:57:56.999Z</time></trkpt><trkpt lat="44.68678101683986" lon="10.181058069250389"><ele>300.3333333333333</ele><time>2026-04-09T14:57:57.999Z</time></trkpt><trkpt lat="44.686786057781795" lon="10.180933183767282"><ele>300.0</ele><time>2026-04-09T14:57:58.999Z</time></trkpt><trkpt lat="44.68681657608755" lon="10.18082114488439"><ele>300.0</ele><time>2026-04-09T14:57:59.999Z</time></trkpt><trkpt lat="44.68683509561423" lon="10.180721066173735"><ele>300.0</ele><time>2026-04-09T14:58:00.999Z</time></trkpt><trkpt lat="44.68684910107575" lon="10.180576097476811"><ele>300.0</ele><time>2026-04-09T14:58:01.999Z</time></trkpt><trkpt lat="44.68687948423705" lon="10.180434739365982"><ele>300.0</ele><time>2026-04-09T14:58:02.999Z</time></trkpt><trkpt lat="44.68688348752178" lon="10.180288350099648"><ele>300.0</ele><time>2026-04-09T14:58:03.999Z</time></trkpt><trkpt lat="44.68692219097523" lon="10.180149268522928"><ele>296.8</ele><time>2026-04-09T14:58:04.999Z</time></trkpt><trkpt lat="44.68692794234244" lon="10.18001404213734"><ele>293.6</ele><time>2026-04-09T14:58:05.999Z</time></trkpt><trkpt lat="44.6869611670145" lon="10.179901393451257"><ele>290.4</ele><time>2026-04-09T14:58:06.999Z</time></trkpt><trkpt lat="44.68696719949092" lon="10.17976272602268"><ele>287.2</ele><time>2026-04-09T14:58:08Z</time></trkpt><trkpt lat="44.68699424991601" lon="10.179626864876768"><ele>284.0</ele><time>2026-04-09T14:58:09Z</time></trkpt><trkpt lat="44.6870352519655" lon="10.179520816920085"><ele>284.0</ele><time>2026-04-09T14:58:10Z</time></trkpt></trkseg><trkseg><trkpt lat="44.688378541309156" lon="10.175550100335753"><ele>297.0</ele><time>2026-04-09T14:59:14Z</time></trkpt><trkpt lat="44.68846515143489" lon="10.175535461271858"><ele>297.0</ele><time>2026-04-09T14:59:16Z</time></trkpt><trkpt lat="44.688544387558125" lon="10.175482241144643"><ele>297.0</ele><time>2026-04-09T14:59:18Z</time></trkpt><trkpt lat="44.68860280403658" lon="10.17538586354536"><ele>297.0</ele><time>2026-04-09T14:59:20Z</time></trkpt><trkpt lat="44.688669242937756" lon="10.175331987160389"><ele>297.0</ele><time>2026-04-09T14:59:22Z</time></trkpt><trkpt lat="44.68874166289395" lon="10.175324007546314"><ele>297.0</ele><time>2026-04-09T14:59:24.001Z</time></trkpt><trkpt lat="44.68882791359392" lon="10.175305343235276"><ele>296.0</ele><time>2026-04-09T14:59:26.001Z</time></trkpt><trkpt lat="44.6889587548534" lon="10.17525536449342"><ele>295.0</ele><time>2026-04-09T14:59:28.001Z</time></trkpt><trkpt lat="44.689030342754506" lon="10.1752334235404"><ele>294.0</ele><time>2026-04-09T14:59:29.001Z</time></trkpt><trkpt lat="44.689095785774505" lon="10.175206169815588"><ele>293.0</ele><time>2026-04-09T14:59:30.001Z</time></trkpt><trkpt lat="44.68917669766404" lon="10.17517756638659"><ele>292.0</ele><time>2026-04-09T14:59:31.001Z</time></trkpt><trkpt lat="44.68924726154589" lon="10.175151502214886"><ele>291.0</ele><time>2026-04-09T14:59:32.001Z</time></trkpt><trkpt lat="44.68931799004859" lon="10.175121771853835"><ele>291.0</ele><time>2026-04-09T14:59:33.001Z</time></trkpt><trkpt lat="44.68939775147563" lon="10.175091197570715"><ele>291.0</ele><time>2026-04-09T14:59:34.001Z</time></trkpt><trkpt lat="44.689485420012026" lon="10.175055151740874"><ele>291.0</ele><time>2026-04-09T14:59:35.001Z</time></trkpt><trkpt lat="44.68958511138049" lon="10.175017344290392"><ele>291.0</ele><time>2026-04-09T14:59:36.001Z</time></trkpt><trkpt lat="44.68968393747389" lon="10.174997041090068"><ele>291.0</ele><time>2026-04-09T14:59:37.001Z</time></trkpt><trkpt lat="44.689774347799776" lon="10.174953530951111"><ele>290.1666666666667</ele><time>2026-04-09T14:59:38.001Z</time></trkpt><trkpt lat="44.68985523099515" lon="10.174916270529357"><ele>289.3333333333333</ele><time>2026-04-09T14:59:39.001Z</time></trkpt><trkpt lat="44.68994886309512" lon="10.17489170088532"><ele>288.5</ele><time>2026-04-09T14:59:40.001Z</time></trkpt><trkpt lat="44.69002761650872" lon="10.174849823240313"><ele>287.66666666666663</ele><time>2026-04-09T14:59:41.001Z</time></trkpt><trkpt lat="44.69010893962567" lon="10.17481533466615"><ele>286.8333333333333</ele><time>2026-04-09T14:59:42.001Z</time></trkpt><trkpt lat="44.69020064307249" lon="10.174785656940768"><ele>286.0</ele><time>2026-04-09T14:59:43.001Z</time></trkpt><trkpt lat="44.6902852494348" lon="10.174751818114428"><ele>283.2</ele><time>2026-04-09T14:59:44.001Z</time></trkpt><trkpt lat="44.69038407462883" lon="10.174718924227319"><ele>280.40000000000003</ele><time>2026-04-09T14:59:45.001Z</time></trkpt><trkpt lat="44.6904669381407" lon="10.174688154858469"><ele>277.6</ele><time>2026-04-09T14:59:46.001Z</time></trkpt><trkpt lat="44.69055668541766" lon="10.174652482458091"><ele>274.8</ele><time>2026-04-09T14:59:47.001Z</time></trkpt><trkpt lat="44.69065313981906" lon="10.174616988968491"><ele>272.0</ele><time>2026-04-09T14:59:48Z</time></trkpt><trkpt lat="44.690745376425866" lon="10.174583559666756"><ele>272.0</ele><time>2026-04-09T14:59:49Z</time></trkpt><trkpt lat="44.690829780960605" lon="10.174573534320803"><ele>272.0</ele><time>2026-04-09T14:59:50Z</time></trkpt><trkpt lat="44.69091843401971" lon="10.174551522571212"><ele>272.0</ele><time>2026-04-09T14:59:51Z</time></trkpt><trkpt lat="44.69099371907764" lon="10.17453527812242"><ele>272.0</ele><time>2026-04-09T14:59:52Z</time></trkpt><trkpt lat="44.69107811673033" lon="10.174513146853428"><ele>272.0</ele><time>2026-04-09T14:59:53Z</time></trkpt><trkpt lat="44.69116597050843" lon="10.174455299407665"><ele>272.0</ele><time>2026-04-09T14:59:54Z</time></trkpt><trkpt lat="44.69124617777987" lon="10.174395955717921"><ele>271.6666666666667</ele><time>2026-04-09T14:59:55Z</time></trkpt><trkpt lat="44.6913180920465" lon="10.174353813843405"><ele>271.33333333333337</ele><time>2026-04-09T14:59:56Z</time></trkpt><trkpt lat="44.691391396722665" lon="10.17430977360122"><ele>271.0</ele><time>2026-04-09T14:59:57Z</time></trkpt><trkpt lat="44.6914574860964" lon="10.174291491631484"><ele>270.6666666666667</ele><time>2026-04-09T14:59:58Z</time></trkpt><trkpt lat="44.69152433257482" lon="10.174249791924188"><ele>270.3333333333333</ele><time>2026-04-09T14:59:59Z</time></trkpt><trkpt lat="44.69162046931498" lon="10.174163805180218"><ele>270.0</ele><time>2026-04-09T15:00:01Z</time></trkpt><trkpt lat="44.69169115662584" lon="10.17417672235259"><ele>270.0</ele><time>2026-04-09T15:00:02Z</time></trkpt><trkpt lat="44.69179956552879" lon="10.174197982783832"><ele>270.0</ele><time>2026-04-09T15:00:04Z</time></trkpt><trkpt lat="44.691865387417195" lon="10.174221387749075"><ele>270.0</ele><time>2026-04-09T15:00:05Z</time></trkpt><trkpt lat="44.69194275601701" lon="10.174254261462513"><ele>270.0</ele><time>2026-04-09T15:00:06Z</time></trkpt><trkpt lat="44.692005648531634" lon="10.174288218300047"><ele>270.0</ele><time>2026-04-09T15:00:07Z</time></trkpt><trkpt lat="44.69210901623339" lon="10.174308352407346"><ele>270.0</ele><time>2026-04-09T15:00:09Z</time></trkpt><trkpt lat="44.69217871458556" lon="10.174326329798397"><ele>268.6</ele><time>2026-04-09T15:00:10Z</time></trkpt><trkpt lat="44.69226984772208" lon="10.174371538035597"><ele>267.2</ele><time>2026-04-09T15:00:11Z</time></trkpt><trkpt lat="44.6923482976735" lon="10.17439821628985"><ele>265.8</ele><time>2026-04-09T15:00:12Z</time></trkpt><trkpt lat="44.69245990272005" lon="10.174476228723448"><ele>264.4</ele><time>2026-04-09T15:00:14Z</time></trkpt><trkpt lat="44.692547504866255" lon="10.174554219794382"><ele>263.0</ele><time>2026-04-09T15:00:16Z</time></trkpt><trkpt lat="44.69262017554543" lon="10.174621382281737"><ele>263.0</ele><time>2026-04-09T15:00:19Z</time></trkpt><trkpt lat="44.69267410325468" lon="10.174671291802895"><ele>263.0</ele><time>2026-04-09T15:00:21Z</time></trkpt><trkpt lat="44.692721286097594" lon="10.17476450800244"><ele>263.0</ele><time>2026-04-09T15:00:23Z</time></trkpt><trkpt lat="44.69280568176764" lon="10.174863591026142"><ele>263.0</ele><time>2026-04-09T15:00:25Z</time></trkpt><trkpt lat="44.692882178978095" lon="10.175015490919787"><ele>263.0</ele><time>2026-04-09T15:00:27Z</time></trkpt><trkpt lat="44.692943600480916" lon="10.175102042493274"><ele>261.83333333333337</ele><time>2026-04-09T15:00:28Z</time></trkpt><trkpt lat="44.693005185271375" lon="10.175166489120771"><ele>260.6666666666667</ele><time>2026-04-09T15:00:29Z</time></trkpt><trkpt lat="44.69305867992113" lon="10.175222565189946"><ele>259.5</ele><time>2026-04-09T15:00:30Z</time></trkpt><trkpt lat="44.69314948942488" lon="10.175285390490918"><ele>258.3333333333333</ele><time>2026-04-09T15:00:32Z</time></trkpt><trkpt lat="44.69323198075738" lon="10.175308167742307"><ele>257.16666666666663</ele><time>2026-04-09T15:00:34Z</time></trkpt><trkpt lat="44.693313203248664" lon="10.175339865950171"><ele>256.0</ele><time>2026-04-09T15:00:36Z</time></trkpt><trkpt lat="44.693421561350476" lon="10.175382605137393"><ele>256.0</ele><time>2026-04-09T15:00:38Z</time></trkpt><trkpt lat="44.69354504917752" lon="10.1754570800357"><ele>256.0</ele><time>2026-04-09T15:00:40Z</time></trkpt><trkpt lat="44.693627948367215" lon="10.175500464866195"><ele>256.0</ele><time>2026-04-09T15:00:41Z</time></trkpt><trkpt lat="44.69370434164212" lon="10.175534088499505"><ele>256.0</ele><time>2026-04-09T15:00:42Z</time></trkpt><trkpt lat="44.693792761146305" lon="10.175568632817292"><ele>256.0</ele><time>2026-04-09T15:00:43Z</time></trkpt><trkpt lat="44.69388422946518" lon="10.175614582921396"><ele>254.8</ele><time>2026-04-09T15:00:44Z</time></trkpt><trkpt lat="44.69396527046743" lon="10.175654458072652"><ele>253.60000000000002</ele><time>2026-04-09T15:00:45Z</time></trkpt><trkpt lat="44.69404964237907" lon="10.175696193671456"><ele>252.4</ele><time>2026-04-09T15:00:46Z</time></trkpt><trkpt lat="44.694148505803945" lon="10.17573948085422"><ele>251.2</ele><time>2026-04-09T15:00:47Z</time></trkpt><trkpt lat="44.69425531152934" lon="10.175785715715513"><ele>250.0</ele><time>2026-04-09T15:00:48Z</time></trkpt><trkpt lat="44.69433729470087" lon="10.17582436712031"><ele>249.99999999999997</ele><time>2026-04-09T15:00:49Z</time></trkpt><trkpt lat="44.69440835525334" lon="10.17584416547741"><ele>250.0</ele><time>2026-04-09T15:00:50Z</time></trkpt><trkpt lat="44.694475234734924" lon="10.175839694208982"><ele>250.0</ele><time>2026-04-09T15:00:51Z</time></trkpt><trkpt lat="44.6945705700087" lon="10.175838822487583"><ele>250.0</ele><time>2026-04-09T15:00:52Z</time></trkpt><trkpt lat="44.694674606187355" lon="10.175827654810595"><ele>249.99999999999997</ele><time>2026-04-09T15:00:53Z</time></trkpt><trkpt lat="44.69478143125372" lon="10.175822226633517"><ele>250.0</ele><time>2026-04-09T15:00:54.001Z</time></trkpt><trkpt lat="44.694887432959014" lon="10.175816450719273"><ele>252.75</ele><time>2026-04-09T15:00:55.001Z</time></trkpt><trkpt lat="44.694984404484345" lon="10.17581428337393"><ele>255.5</ele><time>2026-04-09T15:00:56.001Z</time></trkpt><trkpt lat="44.69507704529238" lon="10.175836492508557"><ele>258.25</ele><time>2026-04-09T15:00:58.001Z</time></trkpt><trkpt lat="44.695243593315936" lon="10.175810022368003"><ele>261.0</ele><time>2026-04-09T15:00:59.001Z</time></trkpt><trkpt lat="44.69533973192811" lon="10.1758012597317"><ele>262.3333333333333</ele><time>2026-04-09T15:01:00.001Z</time></trkpt><trkpt lat="44.69542581085914" lon="10.175804780957238"><ele>263.6666666666667</ele><time>2026-04-09T15:01:01.001Z</time></trkpt><trkpt lat="44.695507214462495" lon="10.175815433382999"><ele>265.0</ele><time>2026-04-09T15:01:02.001Z</time></trkpt><trkpt lat="44.69557835448853" lon="10.175828558234208"><ele>266.33333333333337</ele><time>2026-04-09T15:01:03.001Z</time></trkpt><trkpt lat="44.69564410257679" lon="10.17585304604676"><ele>267.6666666666667</ele><time>2026-04-09T15:01:04.001Z</time></trkpt><trkpt lat="44.695716228668914" lon="10.175893315957323"><ele>269.0</ele><time>2026-04-09T15:01:05.001Z</time></trkpt><trkpt lat="44.695788975364884" lon="10.175938293307075"><ele>269.0</ele><time>2026-04-09T15:01:06.001Z</time></trkpt><trkpt lat="44.695859609680845" lon="10.175986589988188"><ele>269.0</ele><time>2026-04-09T15:01:07.001Z</time></trkpt><trkpt lat="44.69593010220754" lon="10.176049212746863"><ele>269.0</ele><time>2026-04-09T15:01:08.001Z</time></trkpt><trkpt lat="44.69598947231792" lon="10.176178404937689"><ele>269.0</ele><time>2026-04-09T15:01:10.001Z</time></trkpt><trkpt lat="44.69605337329384" lon="10.176200746262426"><ele>269.0</ele><time>2026-04-09T15:04:31Z</time></trkpt><trkpt lat="44.69611153525798" lon="10.176271151265402"><ele>269.0</ele><time>2026-04-09T15:06:50Z</time></trkpt><trkpt lat="44.696146177734754" lon="10.176349920329844"><ele>266.6666666666667</ele><time>2026-04-09T15:06:52Z</time></trkpt><trkpt lat="44.69615940918133" lon="10.176439667586397"><ele>264.33333333333337</ele><time>2026-04-09T15:06:54Z</time></trkpt><trkpt lat="44.696166416768435" lon="10.176529504782602"><ele>262.0</ele><time>2026-04-09T15:06:56Z</time></trkpt><trkpt lat="44.69616631845207" lon="10.176628845592695"><ele>259.6666666666667</ele><time>2026-04-09T15:06:58Z</time></trkpt><trkpt lat="44.69613847504623" lon="10.176758689609061"><ele>257.3333333333333</ele><time>2026-04-09T15:07:06Z</time></trkpt><trkpt lat="44.69612476239671" lon="10.176857967689905"><ele>255.0</ele><time>2026-04-09T15:07:08Z</time></trkpt><trkpt lat="44.69613783576466" lon="10.176992294873505"><ele>255.0</ele><time>2026-04-09T15:07:10.001Z</time></trkpt><trkpt lat="44.69621463378615" lon="10.177096793334748"><ele>255.0</ele><time>2026-04-09T15:07:12.001Z</time></trkpt><trkpt lat="44.69627942267618" lon="10.177132674753487"><ele>255.0</ele><time>2026-04-09T15:07:13.001Z</time></trkpt><trkpt lat="44.69641337097401" lon="10.177190210102944"><ele>255.0</ele><time>2026-04-09T15:07:15.001Z</time></trkpt><trkpt lat="44.696483719089926" lon="10.177246397648718"><ele>255.0</ele><time>2026-04-09T15:07:16.001Z</time></trkpt><trkpt lat="44.69655570003676" lon="10.17728778281915"><ele>255.0</ele><time>2026-04-09T15:07:17.001Z</time></trkpt><trkpt lat="44.69662401155294" lon="10.177331943714565"><ele>255.0</ele><time>2026-04-09T15:07:18.001Z</time></trkpt><trkpt lat="44.696702529830986" lon="10.177358414244587"><ele>255.0</ele><time>2026-04-09T15:07:19.001Z</time></trkpt><trkpt lat="44.69676065591298" lon="10.177399354938617"><ele>255.0</ele><time>2026-04-09T15:07:20.001Z</time></trkpt><trkpt lat="44.6968577592955" lon="10.177491501550731"><ele>255.0</ele><time>2026-04-09T15:07:22.001Z</time></trkpt><trkpt lat="44.696969953720796" lon="10.177547373682723"><ele>254.57142857142858</ele><time>2026-04-09T15:07:24.001Z</time></trkpt><trkpt lat="44.6970266363456" lon="10.177587805269813"><ele>254.14285714285717</ele><time>2026-04-09T15:07:25.001Z</time></trkpt><trkpt lat="44.697093396533965" lon="10.177643473447185"><ele>253.71428571428572</ele><time>2026-04-09T15:07:26.001Z</time></trkpt><trkpt lat="44.697160574097275" lon="10.177698920140953"><ele>253.28571428571428</ele><time>2026-04-09T15:07:27.001Z</time></trkpt><trkpt lat="44.69722378172939" lon="10.177755583650255"><ele>252.85714285714286</ele><time>2026-04-09T15:07:28.001Z</time></trkpt><trkpt lat="44.69729123114664" lon="10.17781509079906"><ele>252.42857142857144</ele><time>2026-04-09T15:07:29.001Z</time></trkpt><trkpt lat="44.69734338565829" lon="10.177869494387778"><ele>252.0</ele><time>2026-04-09T15:07:30.001Z</time></trkpt><trkpt lat="44.69740788478893" lon="10.177913668638736"><ele>252.0</ele><time>2026-04-09T15:07:31.001Z</time></trkpt><trkpt lat="44.69747937055707" lon="10.177949479579246"><ele>252.0</ele><time>2026-04-09T15:07:32.001Z</time></trkpt><trkpt lat="44.697558153911814" lon="10.177996907101438"><ele>252.0</ele><time>2026-04-09T15:07:33.001Z</time></trkpt><trkpt lat="44.69762781623774" lon="10.17803615866704"><ele>252.0</ele><time>2026-04-09T15:07:34.001Z</time></trkpt><trkpt lat="44.69774113449835" lon="10.178098829054377"><ele>252.0</ele><time>2026-04-09T15:07:36.001Z</time></trkpt><trkpt lat="44.69780803042475" lon="10.178142361685156"><ele>252.0</ele><time>2026-04-09T15:07:37.001Z</time></trkpt><trkpt lat="44.697905779203225" lon="10.178197771541651"><ele>250.6</ele><time>2026-04-09T15:07:39.001Z</time></trkpt><trkpt lat="44.69800408542828" lon="10.178255685033784"><ele>249.2</ele><time>2026-04-09T15:07:41.001Z</time></trkpt><trkpt lat="44.69808933871449" lon="10.178301761582519"><ele>247.8</ele><time>2026-04-09T15:07:43.001Z</time></trkpt><trkpt lat="44.69817980076108" lon="10.178392295705386"><ele>246.4</ele><time>2026-04-09T15:07:45.001Z</time></trkpt><trkpt lat="44.69824198451944" lon="10.178437152258763"><ele>245.0</ele><time>2026-04-09T15:07:46.001Z</time></trkpt><trkpt lat="44.69831832877922" lon="10.17846466206505"><ele>245.0</ele><time>2026-04-09T15:07:47.001Z</time></trkpt><trkpt lat="44.69837672223885" lon="10.178505027795895"><ele>245.0</ele><time>2026-04-09T15:07:48.001Z</time></trkpt><trkpt lat="44.69843519511083" lon="10.178561541567134"><ele>245.0</ele><time>2026-04-09T15:07:49.001Z</time></trkpt><trkpt lat="44.69849520038955" lon="10.178597833566881"><ele>245.0</ele><time>2026-04-09T15:07:50.001Z</time></trkpt><trkpt lat="44.69855641257635" lon="10.178635251594867"><ele>245.0</ele><time>2026-04-09T15:07:51.001Z</time></trkpt><trkpt lat="44.69861504285361" lon="10.178670093563788"><ele>245.0</ele><time>2026-04-09T15:07:52.001Z</time></trkpt><trkpt lat="44.698686491026685" lon="10.178687975958514"><ele>245.0</ele><time>2026-04-09T15:07:53.001Z</time></trkpt><trkpt lat="44.69875068540329" lon="10.178727787334578"><ele>243.8</ele><time>2026-04-09T15:07:54.001Z</time></trkpt><trkpt lat="44.69883086095054" lon="10.178815660759986"><ele>242.6</ele><time>2026-04-09T15:07:56.001Z</time></trkpt><trkpt lat="44.69890885121943" lon="10.178928991464243"><ele>241.39999999999998</ele><time>2026-04-09T15:07:58.001Z</time></trkpt><trkpt lat="44.69897583549244" lon="10.178969049362951"><ele>240.2</ele><time>2026-04-09T15:07:59.001Z</time></trkpt><trkpt lat="44.699034443571286" lon="10.179027845941139"><ele>239.0</ele><time>2026-04-09T15:08:00.001Z</time></trkpt><trkpt lat="44.699158293566526" lon="10.179097145580485"><ele>239.0</ele><time>2026-04-09T15:08:02.001Z</time></trkpt><trkpt lat="44.69923678827479" lon="10.179149673221277"><ele>238.99999999999997</ele><time>2026-04-09T15:08:03.001Z</time></trkpt><trkpt lat="44.69932838196019" lon="10.179201113916134"><ele>238.99999999999997</ele><time>2026-04-09T15:08:04.001Z</time></trkpt><trkpt lat="44.6994039688517" lon="10.179256892983489"><ele>239.0</ele><time>2026-04-09T15:08:05.001Z</time></trkpt><trkpt lat="44.69946326927216" lon="10.179313545342477"><ele>239.0</ele><time>2026-04-09T15:08:06.001Z</time></trkpt><trkpt lat="44.699579488077816" lon="10.179381974322444"><ele>239.33333333333334</ele><time>2026-04-09T15:08:08.001Z</time></trkpt><trkpt lat="44.69967481670458" lon="10.179465653719742"><ele>239.66666666666669</ele><time>2026-04-09T15:08:10.001Z</time></trkpt><trkpt lat="44.69974753151547" lon="10.17948233306979"><ele>240.0</ele><time>2026-04-09T15:08:12Z</time></trkpt><trkpt lat="44.69983716093632" lon="10.179475382249983"><ele>240.33333333333331</ele><time>2026-04-09T15:08:15Z</time></trkpt><trkpt lat="44.6998733832542" lon="10.17937063009859"><ele>240.66666666666666</ele><time>2026-04-09T15:08:17Z</time></trkpt><trkpt lat="44.69992842387078" lon="10.179304742423401"><ele>241.0</ele><time>2026-04-09T15:08:20Z</time></trkpt><trkpt lat="44.69999239223121" lon="10.17930892711148"><ele>240.99999999999997</ele><time>2026-04-09T15:08:47Z</time></trkpt><trkpt lat="44.700061493146784" lon="10.179271902380368"><ele>241.0</ele><time>2026-04-09T15:08:49Z</time></trkpt><trkpt lat="44.70009198575456" lon="10.179151519764249"><ele>241.0</ele><time>2026-04-09T15:08:51Z</time></trkpt><trkpt lat="44.7001131437975" lon="10.179004906565241"><ele>241.0</ele><time>2026-04-09T15:08:53Z</time></trkpt><trkpt lat="44.70012049362821" lon="10.178887133492399"><ele>240.99999999999997</ele><time>2026-04-09T15:08:55Z</time></trkpt><trkpt lat="44.70014869079616" lon="10.178795122511886"><ele>241.0</ele><time>2026-04-09T15:08:57.001Z</time></trkpt><trkpt lat="44.70024867982074" lon="10.17876413931652"><ele>236.4</ele><time>2026-04-09T15:08:59.001Z</time></trkpt><trkpt lat="44.70030787185934" lon="10.178800790912769"><ele>231.8</ele><time>2026-04-09T15:09:00.001Z</time></trkpt><trkpt lat="44.7004439716661" lon="10.178827924683889"><ele>227.20000000000002</ele><time>2026-04-09T15:09:02.001Z</time></trkpt><trkpt lat="44.700521502412734" lon="10.178857955268743"><ele>222.60000000000002</ele><time>2026-04-09T15:09:03.001Z</time></trkpt><trkpt lat="44.70060169584034" lon="10.178884690188895"><ele>218.0</ele><time>2026-04-09T15:09:04.001Z</time></trkpt><trkpt lat="44.70069841949089" lon="10.178917404233951"><ele>218.0</ele><time>2026-04-09T15:09:05.001Z</time></trkpt><trkpt lat="44.70078920881829" lon="10.178940774929918"><ele>218.0</ele><time>2026-04-09T15:09:06.001Z</time></trkpt><trkpt lat="44.70087635623761" lon="10.17897637893695"><ele>218.0</ele><time>2026-04-09T15:09:07.001Z</time></trkpt><trkpt lat="44.700965586079505" lon="10.179000399734235"><ele>218.0</ele><time>2026-04-09T15:09:08.001Z</time></trkpt><trkpt lat="44.70105576679095" lon="10.179027654066445"><ele>218.0</ele><time>2026-04-09T15:09:09.001Z</time></trkpt><trkpt lat="44.701144294256075" lon="10.179055104652791"><ele>218.33333333333334</ele><time>2026-04-09T15:09:10.001Z</time></trkpt><trkpt lat="44.7012322813385" lon="10.17907700381772"><ele>218.66666666666669</ele><time>2026-04-09T15:09:11.001Z</time></trkpt><trkpt lat="44.70132062807944" lon="10.179116354507245"><ele>219.0</ele><time>2026-04-09T15:09:12.001Z</time></trkpt><trkpt lat="44.70141098410211" lon="10.179144996787802"><ele>219.33333333333331</ele><time>2026-04-09T15:09:13.001Z</time></trkpt><trkpt lat="44.701479963197464" lon="10.179162292058104"><ele>219.66666666666666</ele><time>2026-04-09T15:09:14.001Z</time></trkpt><trkpt lat="44.701545626127945" lon="10.179179458774753"><ele>220.0</ele><time>2026-04-09T15:09:15.001Z</time></trkpt><trkpt lat="44.701615677599015" lon="10.179200314380656"><ele>219.99999999999997</ele><time>2026-04-09T15:09:16.001Z</time></trkpt><trkpt lat="44.701690081207104" lon="10.17921525091862"><ele>220.0</ele><time>2026-04-09T15:09:17.001Z</time></trkpt><trkpt lat="44.70176347302216" lon="10.179229191963298"><ele>220.0</ele><time>2026-04-09T15:09:18.001Z</time></trkpt><trkpt lat="44.70183801729719" lon="10.179248623775656"><ele>220.0</ele><time>2026-04-09T15:09:19.001Z</time></trkpt><trkpt lat="44.701909636408494" lon="10.179267338035896"><ele>220.0</ele><time>2026-04-09T15:09:20.001Z</time></trkpt><trkpt lat="44.70197762435052" lon="10.179288390107093"><ele>219.99999999999997</ele><time>2026-04-09T15:09:21.001Z</time></trkpt><trkpt lat="44.70204186591976" lon="10.17931211955221"><ele>220.0</ele><time>2026-04-09T15:09:22.001Z</time></trkpt><trkpt lat="44.70210656784036" lon="10.179335561945205"><ele>217.66666666666666</ele><time>2026-04-09T15:09:23.001Z</time></trkpt><trkpt lat="44.70218344577352" lon="10.179354171840048"><ele>215.33333333333331</ele><time>2026-04-09T15:09:24.001Z</time></trkpt><trkpt lat="44.70225028106474" lon="10.179373376343069"><ele>213.0</ele><time>2026-04-09T15:09:25.001Z</time></trkpt><trkpt lat="44.7023377857542" lon="10.17940194616346"><ele>210.66666666666669</ele><time>2026-04-09T15:09:26.001Z</time></trkpt><trkpt lat="44.70242410134052" lon="10.17943270257759"><ele>208.33333333333334</ele><time>2026-04-09T15:09:27.001Z</time></trkpt><trkpt lat="44.70248674385091" lon="10.1794561324948"><ele>206.0</ele><time>2026-04-09T15:09:28.001Z</time></trkpt><trkpt lat="44.702563520036094" lon="10.179476283359927"><ele>206.00000000000003</ele><time>2026-04-09T15:09:29.001Z</time></trkpt><trkpt lat="44.7026289377681" lon="10.179496107118512"><ele>206.0</ele><time>2026-04-09T15:09:30.001Z</time></trkpt><trkpt lat="44.70274655120124" lon="10.179549917695608"><ele>206.0</ele><time>2026-04-09T15:09:32.001Z</time></trkpt><trkpt lat="44.702815551103775" lon="10.179552324321605"><ele>206.0</ele><time>2026-04-09T15:09:33.001Z</time></trkpt><trkpt lat="44.702922580908016" lon="10.179581706687266"><ele>206.00000000000003</ele><time>2026-04-09T15:09:35.001Z</time></trkpt><trkpt lat="44.70298546790057" lon="10.17958597277595"><ele>206.0</ele><time>2026-04-09T15:09:36.001Z</time></trkpt><trkpt lat="44.70306255521162" lon="10.179585161213671"><ele>203.33333333333334</ele><time>2026-04-09T15:09:37.001Z</time></trkpt><trkpt lat="44.70312376138936" lon="10.179607243071434"><ele>200.66666666666669</ele><time>2026-04-09T15:09:38.001Z</time></trkpt><trkpt lat="44.70318940420363" lon="10.179629991200846"><ele>198.0</ele><time>2026-04-09T15:09:39.001Z</time></trkpt><trkpt lat="44.703255107182954" lon="10.179656038981786"><ele>195.33333333333334</ele><time>2026-04-09T15:09:40.001Z</time></trkpt><trkpt lat="44.703318225384564" lon="10.179675028068539"><ele>192.66666666666669</ele><time>2026-04-09T15:09:41.001Z</time></trkpt><trkpt lat="44.703381209451365" lon="10.179708772886782"><ele>190.0</ele><time>2026-04-09T15:09:42.001Z</time></trkpt><trkpt lat="44.70348488408686" lon="10.179807338308589"><ele>189.2</ele><time>2026-04-09T15:09:44.001Z</time></trkpt><trkpt lat="44.70355865513584" lon="10.179941429948252"><ele>188.4</ele><time>2026-04-09T15:09:46.001Z</time></trkpt><trkpt lat="44.703586433267525" lon="10.180022521027517"><ele>187.60000000000002</ele><time>2026-04-09T15:09:47.001Z</time></trkpt><trkpt lat="44.70362420758185" lon="10.180197363941474"><ele>186.8</ele><time>2026-04-09T15:09:49.001Z</time></trkpt><trkpt lat="44.703664490734305" lon="10.180316604041945"><ele>186.0</ele><time>2026-04-09T15:09:51.001Z</time></trkpt><trkpt lat="44.70376445887166" lon="10.180358036011366"><ele>186.0</ele><time>2026-04-09T15:09:54.001Z</time></trkpt><trkpt lat="44.70385508884376" lon="10.180326647952517"><ele>186.0</ele><time>2026-04-09T15:09:56.001Z</time></trkpt><trkpt lat="44.70392553856161" lon="10.180291169808266"><ele>186.0</ele><time>2026-04-09T15:09:58.001Z</time></trkpt><trkpt lat="44.703996191104586" lon="10.180226718090925"><ele>186.0</ele><time>2026-04-09T15:10:00.001Z</time></trkpt><trkpt lat="44.70409778446354" lon="10.180182244636985"><ele>186.0</ele><time>2026-04-09T15:10:02.001Z</time></trkpt><trkpt lat="44.70419916290501" lon="10.18012721410146"><ele>186.0</ele><time>2026-04-09T15:10:04.001Z</time></trkpt><trkpt lat="44.70426234338928" lon="10.180093155945572"><ele>186.0</ele><time>2026-04-09T15:10:05.001Z</time></trkpt><trkpt lat="44.704377024630816" lon="10.180038306286324"><ele>186.0</ele><time>2026-04-09T15:10:07.001Z</time></trkpt><trkpt lat="44.704485467468466" lon="10.1800005926565"><ele>186.0</ele><time>2026-04-09T15:10:09.002Z</time></trkpt><trkpt lat="44.704598211907204" lon="10.17998734228179"><ele>186.0</ele><time>2026-04-09T15:10:11.002Z</time></trkpt><trkpt lat="44.704716368479" lon="10.17999998303381"><ele>183.5</ele><time>2026-04-09T15:10:13.002Z</time></trkpt><trkpt lat="44.704782106914564" lon="10.180027911811461"><ele>181.0</ele><time>2026-04-09T15:10:14.002Z</time></trkpt><trkpt lat="44.704844821906875" lon="10.180082172701574"><ele>178.5</ele><time>2026-04-09T15:10:15.002Z</time></trkpt><trkpt lat="44.704914404468795" lon="10.180115712807797"><ele>176.0</ele><time>2026-04-09T15:10:16.002Z</time></trkpt><trkpt lat="44.70497978774962" lon="10.180123139263618"><ele>173.5</ele><time>2026-04-09T15:10:17Z</time></trkpt><trkpt lat="44.70508372232645" lon="10.180188348708871"><ele>171.0</ele><time>2026-04-09T15:10:19Z</time></trkpt><trkpt lat="44.705142680148356" lon="10.18022756898608"><ele>169.0</ele><time>2026-04-09T15:10:20Z</time></trkpt><trkpt lat="44.70526474049649" lon="10.180300294303345"><ele>167.0</ele><time>2026-04-09T15:10:22Z</time></trkpt><trkpt lat="44.70533731549468" lon="10.180346137406591"><ele>165.0</ele><time>2026-04-09T15:10:23Z</time></trkpt><trkpt lat="44.705405006164185" lon="10.180400657645908"><ele>163.0</ele><time>2026-04-09T15:10:24Z</time></trkpt><trkpt lat="44.70547761141961" lon="10.180448853801211"><ele>161.0</ele><time>2026-04-09T15:10:25Z</time></trkpt><trkpt lat="44.70554380461297" lon="10.180514210745145"><ele>161.0</ele><time>2026-04-09T15:10:26Z</time></trkpt><trkpt lat="44.70561209700624" lon="10.180562744132619"><ele>161.0</ele><time>2026-04-09T15:10:27Z</time></trkpt><trkpt lat="44.705680374519574" lon="10.180609005570922"><ele>161.0</ele><time>2026-04-09T15:10:28Z</time></trkpt><trkpt lat="44.70575297460679" lon="10.180658195023327"><ele>161.0</ele><time>2026-04-09T15:10:29Z</time></trkpt><trkpt lat="44.70582709648123" lon="10.180708415842004"><ele>161.0</ele><time>2026-04-09T15:10:30Z</time></trkpt><trkpt lat="44.70591204361732" lon="10.180765585368718"><ele>161.0</ele><time>2026-04-09T15:10:31Z</time></trkpt><trkpt lat="44.70598113420306" lon="10.180810126156647"><ele>161.16666666666666</ele><time>2026-04-09T15:10:32Z</time></trkpt><trkpt lat="44.70604540654006" lon="10.180821387408399"><ele>161.33333333333331</ele><time>2026-04-09T15:10:33Z</time></trkpt><trkpt lat="44.70613582145334" lon="10.180823569819081"><ele>161.5</ele><time>2026-04-09T15:10:35Z</time></trkpt><trkpt lat="44.7061996798012" lon="10.180768716060163"><ele>161.66666666666666</ele><time>2026-04-09T15:10:37Z</time></trkpt><trkpt lat="44.70629127773091" lon="10.18068941298722"><ele>161.83333333333334</ele><time>2026-04-09T15:10:39Z</time></trkpt><trkpt lat="44.70634355948511" lon="10.180615451723574"><ele>162.0</ele><time>2026-04-09T15:10:43Z</time></trkpt><trkpt lat="44.706268145277086" lon="10.180454811479528"><ele>162.2</ele><time>2026-04-09T15:10:45.001Z</time></trkpt><trkpt lat="44.706201604566274" lon="10.180382296477026"><ele>162.39999999999998</ele><time>2026-04-09T15:10:46.001Z</time></trkpt><trkpt lat="44.70613357764805" lon="10.180283556686529"><ele>162.60000000000002</ele><time>2026-04-09T15:10:47.001Z</time></trkpt><trkpt lat="44.70605662280661" lon="10.18016569480123"><ele>162.8</ele><time>2026-04-09T15:10:48.001Z</time></trkpt><trkpt lat="44.70596702452584" lon="10.180032236053572"><ele>163.0</ele><time>2026-04-09T15:10:49.001Z</time></trkpt><trkpt lat="44.705875089958724" lon="10.179889012867495"><ele>162.75</ele><time>2026-04-09T15:10:50.001Z</time></trkpt><trkpt lat="44.70577872286813" lon="10.179744928769695"><ele>162.5</ele><time>2026-04-09T15:10:51.001Z</time></trkpt><trkpt lat="44.70570113737399" lon="10.179587383290391"><ele>162.25</ele><time>2026-04-09T15:10:52.001Z</time></trkpt><trkpt lat="44.70563183729471" lon="10.179436170459496"><ele>162.0</ele><time>2026-04-09T15:10:53.001Z</time></trkpt><trkpt lat="44.70558239046057" lon="10.179283457117393"><ele>162.0</ele><time>2026-04-09T15:10:54.001Z</time></trkpt><trkpt lat="44.70555215942257" lon="10.17912729144048"><ele>162.0</ele><time>2026-04-09T15:10:55.001Z</time></trkpt><trkpt lat="44.70551350755985" lon="10.178978999230026"><ele>162.0</ele><time>2026-04-09T15:10:56.001Z</time></trkpt><trkpt lat="44.705484176503504" lon="10.178835552015267"><ele>162.0</ele><time>2026-04-09T15:10:57.001Z</time></trkpt><trkpt lat="44.70541888979601" lon="10.178698387765337"><ele>162.66666666666666</ele><time>2026-04-09T15:10:58.001Z</time></trkpt><trkpt lat="44.705319355818204" lon="10.178566856014825"><ele>163.33333333333331</ele><time>2026-04-09T15:10:59.001Z</time></trkpt><trkpt lat="44.70519810798453" lon="10.178430612169834"><ele>164.0</ele><time>2026-04-09T15:11:00.001Z</time></trkpt><trkpt lat="44.705085216648065" lon="10.178270889050594"><ele>164.33333333333331</ele><time>2026-04-09T15:11:01.001Z</time></trkpt><trkpt lat="44.70495012422621" lon="10.178140769987253"><ele>164.66666666666666</ele><time>2026-04-09T15:11:02.001Z</time></trkpt><trkpt lat="44.704837948214" lon="10.178004412152976"><ele>165.0</ele><time>2026-04-09T15:11:03.001Z</time></trkpt><trkpt lat="44.70474436332119" lon="10.177858585705296"><ele>165.0</ele><time>2026-04-09T15:11:04.001Z</time></trkpt><trkpt lat="44.704659272474764" lon="10.177722902964893"><ele>165.0</ele><time>2026-04-09T15:11:05.001Z</time></trkpt><trkpt lat="44.70458124914033" lon="10.177548733736995"><ele>165.0</ele><time>2026-04-09T15:11:06.001Z</time></trkpt><trkpt lat="44.70451297642154" lon="10.177372528875768"><ele>165.0</ele><time>2026-04-09T15:11:07.001Z</time></trkpt><trkpt lat="44.70443494657202" lon="10.177226304344249"><ele>165.25</ele><time>2026-04-09T15:11:08.001Z</time></trkpt><trkpt lat="44.7043698816019" lon="10.177079072069594"><ele>165.5</ele><time>2026-04-09T15:11:09.001Z</time></trkpt><trkpt lat="44.70427543144543" lon="10.176958735823785"><ele>165.75</ele><time>2026-04-09T15:11:10.001Z</time></trkpt><trkpt lat="44.704157773460345" lon="10.176872902224632"><ele>166.0</ele><time>2026-04-09T15:11:11.001Z</time></trkpt><trkpt lat="44.70404373725821" lon="10.176803160932666"><ele>166.0</ele><time>2026-04-09T15:11:12.001Z</time></trkpt><trkpt lat="44.703964760207704" lon="10.176687127973064"><ele>166.0</ele><time>2026-04-09T15:11:13.001Z</time></trkpt><trkpt lat="44.7038849606323" lon="10.176555057205343"><ele>166.0</ele><time>2026-04-09T15:11:14.001Z</time></trkpt><trkpt lat="44.703797928527216" lon="10.176400069200362"><ele>166.0</ele><time>2026-04-09T15:11:15.001Z</time></trkpt><trkpt lat="44.70371809551183" lon="10.176258230143379"><ele>166.0</ele><time>2026-04-09T15:11:16.001Z</time></trkpt><trkpt lat="44.7036497930726" lon="10.176136194883028"><ele>166.0</ele><time>2026-04-09T15:11:17.001Z</time></trkpt><trkpt lat="44.7035888102149" lon="10.17602778065039"><ele>166.0</ele><time>2026-04-09T15:11:18.001Z</time></trkpt><trkpt lat="44.70352973178221" lon="10.175931096375441"><ele>166.0</ele><time>2026-04-09T15:11:19.001Z</time></trkpt><trkpt lat="44.703463857672595" lon="10.17586042005465"><ele>166.0</ele><time>2026-04-09T15:11:20.001Z</time></trkpt><trkpt lat="44.70340097743994" lon="10.175782301193799"><ele>166.0</ele><time>2026-04-09T15:11:21.001Z</time></trkpt><trkpt lat="44.703317332953034" lon="10.175693194731062"><ele>166.0</ele><time>2026-04-09T15:11:22.001Z</time></trkpt><trkpt lat="44.70324021972419" lon="10.175582141686762"><ele>166.0</ele><time>2026-04-09T15:11:23.001Z</time></trkpt><trkpt lat="44.70315012635247" lon="10.175517863247096"><ele>166.0</ele><time>2026-04-09T15:11:24.001Z</time></trkpt><trkpt lat="44.70306766298653" lon="10.175425917776026"><ele>166.0</ele><time>2026-04-09T15:11:25.001Z</time></trkpt><trkpt lat="44.70297370711984" lon="10.17533648776601"><ele>166.16666666666669</ele><time>2026-04-09T15:11:26.001Z</time></trkpt><trkpt lat="44.70290131890204" lon="10.175229339397166"><ele>166.33333333333334</ele><time>2026-04-09T15:11:27.001Z</time></trkpt><trkpt lat="44.70282594774351" lon="10.175170428045762"><ele>166.5</ele><time>2026-04-09T15:11:28.001Z</time></trkpt><trkpt lat="44.7027701364826" lon="10.175101842796405"><ele>166.66666666666666</ele><time>2026-04-09T15:11:29.001Z</time></trkpt><trkpt lat="44.702721949985545" lon="10.175038497514953"><ele>166.83333333333331</ele><time>2026-04-09T15:11:30.001Z</time></trkpt><trkpt lat="44.702672262635666" lon="10.174977948668886"><ele>167.0</ele><time>2026-04-09T15:11:31.001Z</time></trkpt><trkpt lat="44.70261113288686" lon="10.174899921904638"><ele>168.5</ele><time>2026-04-09T15:11:32.001Z</time></trkpt><trkpt lat="44.702542825010816" lon="10.174814523419453"><ele>170.0</ele><time>2026-04-09T15:11:33.001Z</time></trkpt><trkpt lat="44.70245250122814" lon="10.174751116206837"><ele>171.5</ele><time>2026-04-09T15:11:34.001Z</time></trkpt><trkpt lat="44.70236945184625" lon="10.174696867835006"><ele>173.0</ele><time>2026-04-09T15:11:35.001Z</time></trkpt><trkpt lat="44.702301347719015" lon="10.174656249599206"><ele>174.5</ele><time>2026-04-09T15:11:36.001Z</time></trkpt><trkpt lat="44.702240242468605" lon="10.174627606670622"><ele>176.0</ele><time>2026-04-09T15:11:37.001Z</time></trkpt><trkpt lat="44.70215411516399" lon="10.174562671849626"><ele>176.0</ele><time>2026-04-09T15:11:39.001Z</time></trkpt><trkpt lat="44.70217172658796" lon="10.174409403941276"><ele>176.0</ele><time>2026-04-09T15:11:41.001Z</time></trkpt><trkpt lat="44.70217519600703" lon="10.174237776923889"><ele>176.0</ele><time>2026-04-09T15:11:43.001Z</time></trkpt><trkpt lat="44.70215381275916" lon="10.17415444557832"><ele>176.0</ele><time>2026-04-09T15:11:44.001Z</time></trkpt><trkpt lat="44.70210752351467" lon="10.174076111108798"><ele>176.0</ele><time>2026-04-09T15:11:45.001Z</time></trkpt><trkpt lat="44.70205993485056" lon="10.173976169753328"><ele>176.8</ele><time>2026-04-09T15:11:46.001Z</time></trkpt><trkpt lat="44.70197805437197" lon="10.173894945497137"><ele>177.60000000000002</ele><time>2026-04-09T15:11:47.001Z</time></trkpt><trkpt lat="44.70190155231326" lon="10.17381418788667"><ele>178.4</ele><time>2026-04-09T15:11:48.001Z</time></trkpt><trkpt lat="44.701820411827455" lon="10.173730641006957"><ele>179.2</ele><time>2026-04-09T15:11:49.001Z</time></trkpt><trkpt lat="44.70174481995445" lon="10.173657677242566"><ele>180.0</ele><time>2026-04-09T15:11:50.001Z</time></trkpt><trkpt lat="44.70170339660985" lon="10.173583150185381"><ele>180.0</ele><time>2026-04-09T15:11:51.001Z</time></trkpt><trkpt lat="44.70168394078987" lon="10.173495630604803"><ele>180.0</ele><time>2026-04-09T15:11:52.001Z</time></trkpt><trkpt lat="44.701691145101535" lon="10.173401364444718"><ele>180.0</ele><time>2026-04-09T15:11:53.001Z</time></trkpt><trkpt lat="44.70172054465577" lon="10.173304099919786"><ele>180.0</ele><time>2026-04-09T15:11:54.002Z</time></trkpt><trkpt lat="44.70176527525177" lon="10.173239480747007"><ele>180.0</ele><time>2026-04-09T15:11:55.002Z</time></trkpt><trkpt lat="44.70188570786939" lon="10.173231492817916"><ele>180.0</ele><time>2026-04-09T15:11:57.002Z</time></trkpt><trkpt lat="44.701973378159614" lon="10.173207965742115"><ele>181.33333333333334</ele><time>2026-04-09T15:11:58.002Z</time></trkpt><trkpt lat="44.70208133025303" lon="10.173212396580592"><ele>182.66666666666666</ele><time>2026-04-09T15:11:59.002Z</time></trkpt><trkpt lat="44.70217585790663" lon="10.173208935335516"><ele>184.0</ele><time>2026-04-09T15:12:00.002Z</time></trkpt><trkpt lat="44.70225219383536" lon="10.173200358291282"><ele>185.33333333333331</ele><time>2026-04-09T15:12:01.002Z</time></trkpt><trkpt lat="44.70231815944859" lon="10.173167733686883"><ele>186.66666666666666</ele><time>2026-04-09T15:12:02.002Z</time></trkpt><trkpt lat="44.70236431454023" lon="10.173105838156445"><ele>188.0</ele><time>2026-04-09T15:12:03.002Z</time></trkpt><trkpt lat="44.70239090368434" lon="10.173021944171294"><ele>190.0</ele><time>2026-04-09T15:12:04.002Z</time></trkpt><trkpt lat="44.70240055528711" lon="10.172927344267409"><ele>192.0</ele><time>2026-04-09T15:12:05.002Z</time></trkpt><trkpt lat="44.70240515019969" lon="10.172826958812987"><ele>194.0</ele><time>2026-04-09T15:12:06.002Z</time></trkpt><trkpt lat="44.70237693574024" lon="10.172722983133637"><ele>196.0</ele><time>2026-04-09T15:12:07.002Z</time></trkpt><trkpt lat="44.7022922899042" lon="10.17267691151093"><ele>198.00000000000003</ele><time>2026-04-09T15:12:08.002Z</time></trkpt><trkpt lat="44.702226254669974" lon="10.172619160822457"><ele>200.0</ele><time>2026-04-09T15:12:09.002Z</time></trkpt><trkpt lat="44.70213645711676" lon="10.172599583912023"><ele>200.00000000000003</ele><time>2026-04-09T15:12:10.002Z</time></trkpt><trkpt lat="44.702049561105305" lon="10.172545608046162"><ele>200.0</ele><time>2026-04-09T15:12:11.002Z</time></trkpt><trkpt lat="44.70197439973137" lon="10.17247966139726"><ele>200.0</ele><time>2026-04-09T15:12:12.002Z</time></trkpt><trkpt lat="44.701925586504174" lon="10.172399991342726"><ele>200.0</ele><time>2026-04-09T15:12:13.002Z</time></trkpt><trkpt lat="44.70192402767681" lon="10.172236213453283"><ele>200.00000000000003</ele><time>2026-04-09T15:12:15.002Z</time></trkpt><trkpt lat="44.70196010721296" lon="10.172154456275917"><ele>200.0</ele><time>2026-04-09T15:12:16.002Z</time></trkpt><trkpt lat="44.702018290271525" lon="10.1720895842304"><ele>202.2</ele><time>2026-04-09T15:12:17.002Z</time></trkpt><trkpt lat="44.702099102486514" lon="10.172049064942634"><ele>204.4</ele><time>2026-04-09T15:12:18.002Z</time></trkpt><trkpt lat="44.70220149154025" lon="10.17202995089324"><ele>206.60000000000002</ele><time>2026-04-09T15:12:19.002Z</time></trkpt><trkpt lat="44.702305853432414" lon="10.172012074874758"><ele>208.8</ele><time>2026-04-09T15:12:20.002Z</time></trkpt><trkpt lat="44.702382505603595" lon="10.171973999948715"><ele>211.0</ele><time>2026-04-09T15:12:21.002Z</time></trkpt><trkpt lat="44.70246212071518" lon="10.17187064329213"><ele>210.99999999999997</ele><time>2026-04-09T15:12:23.001Z</time></trkpt><trkpt lat="44.7024983639401" lon="10.17178585059907"><ele>211.0</ele><time>2026-04-09T15:12:24.001Z</time></trkpt><trkpt lat="44.70250687943779" lon="10.171689331578307"><ele>211.0</ele><time>2026-04-09T15:12:25.001Z</time></trkpt><trkpt lat="44.7024380000973" lon="10.171522289958727"><ele>211.0</ele><time>2026-04-09T15:12:27.001Z</time></trkpt><trkpt lat="44.70236236026732" lon="10.17148370165226"><ele>210.99999999999997</ele><time>2026-04-09T15:12:28.001Z</time></trkpt><trkpt lat="44.70229047685096" lon="10.171434016305529"><ele>211.0</ele><time>2026-04-09T15:12:29.001Z</time></trkpt><trkpt lat="44.70220078288098" lon="10.171381719959552"><ele>212.85714285714286</ele><time>2026-04-09T15:12:30.001Z</time></trkpt><trkpt lat="44.70211193375872" lon="10.171337760315444"><ele>214.71428571428572</ele><time>2026-04-09T15:12:31.001Z</time></trkpt><trkpt lat="44.70204398353551" lon="10.171267207645606"><ele>216.57142857142856</ele><time>2026-04-09T15:12:32.001Z</time></trkpt><trkpt lat="44.70199039580837" lon="10.171215769197286"><ele>218.42857142857144</ele><time>2026-04-09T15:12:33.001Z</time></trkpt><trkpt lat="44.70197556300683" lon="10.171129361449733"><ele>220.28571428571428</ele><time>2026-04-09T15:12:34.001Z</time></trkpt><trkpt lat="44.70197899191371" lon="10.17103252160006"><ele>222.14285714285714</ele><time>2026-04-09T15:12:35.001Z</time></trkpt><trkpt lat="44.701994466361576" lon="10.170938831907081"><ele>224.0</ele><time>2026-04-09T15:12:36.001Z</time></trkpt><trkpt lat="44.7020594483309" lon="10.170867338969739"><ele>224.00000000000003</ele><time>2026-04-09T15:12:37.001Z</time></trkpt><trkpt lat="44.7021476449184" lon="10.17082127982523"><ele>224.0</ele><time>2026-04-09T15:12:38.001Z</time></trkpt><trkpt lat="44.702231741684564" lon="10.170785932861458"><ele>224.0</ele><time>2026-04-09T15:12:39.001Z</time></trkpt><trkpt lat="44.70229589962287" lon="10.170738491651898"><ele>224.0</ele><time>2026-04-09T15:12:40.001Z</time></trkpt><trkpt lat="44.702344513313136" lon="10.1706627289992"><ele>224.00000000000003</ele><time>2026-04-09T15:12:41.001Z</time></trkpt><trkpt lat="44.70236355312368" lon="10.17056810581946"><ele>224.0</ele><time>2026-04-09T15:12:42.001Z</time></trkpt><trkpt lat="44.70235344247193" lon="10.170466164438391"><ele>226.6</ele><time>2026-04-09T15:12:43.001Z</time></trkpt><trkpt lat="44.702328350914634" lon="10.170357074336609"><ele>229.2</ele><time>2026-04-09T15:12:44.001Z</time></trkpt><trkpt lat="44.70224286930383" lon="10.170288042054553"><ele>231.79999999999998</ele><time>2026-04-09T15:12:45.001Z</time></trkpt><trkpt lat="44.70215391190753" lon="10.170242433041315"><ele>234.39999999999998</ele><time>2026-04-09T15:12:46.001Z</time></trkpt><trkpt lat="44.70206044071449" lon="10.17022371944733"><ele>237.0</ele><time>2026-04-09T15:12:47.001Z</time></trkpt><trkpt lat="44.70197360532018" lon="10.170197818696828"><ele>237.6</ele><time>2026-04-09T15:12:48.001Z</time></trkpt><trkpt lat="44.70191156579108" lon="10.170168195867499"><ele>238.2</ele><time>2026-04-09T15:12:49.001Z</time></trkpt><trkpt lat="44.70182335527385" lon="10.170048486398274"><ele>238.8</ele><time>2026-04-09T15:12:51.001Z</time></trkpt><trkpt lat="44.70179729341238" lon="10.169951864390475"><ele>239.4</ele><time>2026-04-09T15:12:52.001Z</time></trkpt><trkpt lat="44.701819147159355" lon="10.169850431640212"><ele>240.0</ele><time>2026-04-09T15:12:53.001Z</time></trkpt><trkpt lat="44.701879041515284" lon="10.169695015720697"><ele>241.16666666666666</ele><time>2026-04-09T15:12:55.001Z</time></trkpt><trkpt lat="44.70196341303855" lon="10.169684800756992"><ele>242.33333333333331</ele><time>2026-04-09T15:12:56.001Z</time></trkpt><trkpt lat="44.702030609721405" lon="10.169617067634299"><ele>243.5</ele><time>2026-04-09T15:12:57.001Z</time></trkpt><trkpt lat="44.70210795819303" lon="10.169572907627112"><ele>244.66666666666666</ele><time>2026-04-09T15:12:58.001Z</time></trkpt><trkpt lat="44.70217647128573" lon="10.16949649315604"><ele>245.83333333333331</ele><time>2026-04-09T15:12:59.001Z</time></trkpt><trkpt lat="44.70223434781556" lon="10.169393556249712"><ele>247.0</ele><time>2026-04-09T15:13:00.001Z</time></trkpt><trkpt lat="44.702279619513675" lon="10.16926657029246"><ele>246.99999999999997</ele><time>2026-04-09T15:13:01.001Z</time></trkpt><trkpt lat="44.702307014834496" lon="10.169125671324819"><ele>247.0</ele><time>2026-04-09T15:13:02.001Z</time></trkpt><trkpt lat="44.70232159838341" lon="10.16901448031732"><ele>247.0</ele><time>2026-04-09T15:13:03.001Z</time></trkpt><trkpt lat="44.70233520789409" lon="10.16890216194522"><ele>247.0</ele><time>2026-04-09T15:13:04.001Z</time></trkpt><trkpt lat="44.70234632317463" lon="10.16877983661226"><ele>246.99999999999997</ele><time>2026-04-09T15:13:05.001Z</time></trkpt><trkpt lat="44.70234150450666" lon="10.168690224255954"><ele>247.0</ele><time>2026-04-09T15:13:06.001Z</time></trkpt><trkpt lat="44.70225896027914" lon="10.168541331071879"><ele>247.33333333333331</ele><time>2026-04-09T15:13:08.001Z</time></trkpt><trkpt lat="44.70218368378003" lon="10.168483469439167"><ele>247.66666666666666</ele><time>2026-04-09T15:13:09.001Z</time></trkpt><trkpt lat="44.7020918537951" lon="10.168434832572352"><ele>248.0</ele><time>2026-04-09T15:13:10.001Z</time></trkpt><trkpt lat="44.70201654324587" lon="10.168353860550233"><ele>248.33333333333331</ele><time>2026-04-09T15:13:11.001Z</time></trkpt><trkpt lat="44.701939959819924" lon="10.168277804776858"><ele>248.66666666666666</ele><time>2026-04-09T15:13:12.001Z</time></trkpt><trkpt lat="44.70189370769031" lon="10.16820830400269"><ele>249.0</ele><time>2026-04-09T15:13:13.001Z</time></trkpt><trkpt lat="44.70186709797353" lon="10.168126577025475"><ele>250.6</ele><time>2026-04-09T15:13:14.001Z</time></trkpt><trkpt lat="44.70185743927774" lon="10.168032045277755"><ele>252.2</ele><time>2026-04-09T15:13:15.001Z</time></trkpt><trkpt lat="44.70185389988227" lon="10.167903837253673"><ele>253.79999999999998</ele><time>2026-04-09T15:13:16.001Z</time></trkpt><trkpt lat="44.701843712731254" lon="10.167762162112394"><ele>255.39999999999998</ele><time>2026-04-09T15:13:17.001Z</time></trkpt><trkpt lat="44.701872715602796" lon="10.16761225791547"><ele>257.0</ele><time>2026-04-09T15:13:18.001Z</time></trkpt><trkpt lat="44.70188785716209" lon="10.167460997720106"><ele>258.2</ele><time>2026-04-09T15:13:19.001Z</time></trkpt><trkpt lat="44.70190636035782" lon="10.167309689247261"><ele>259.4</ele><time>2026-04-09T15:13:20.001Z</time></trkpt><trkpt lat="44.70190906371754" lon="10.167173163975086"><ele>260.6</ele><time>2026-04-09T15:13:21.001Z</time></trkpt><trkpt lat="44.70192611993897" lon="10.16707116830375"><ele>261.8</ele><time>2026-04-09T15:13:22.001Z</time></trkpt><trkpt lat="44.70194049260336" lon="10.166973673858987"><ele>263.0</ele><time>2026-04-09T15:13:23.001Z</time></trkpt><trkpt lat="44.701956571833456" lon="10.166815476832527"><ele>263.0</ele><time>2026-04-09T15:13:25.001Z</time></trkpt><trkpt lat="44.70197890615641" lon="10.166688961075572"><ele>263.0</ele><time>2026-04-09T15:13:27.001Z</time></trkpt><trkpt lat="44.701777426860566" lon="10.16652127189783"><ele>263.0</ele><time>2026-04-09T15:13:30.001Z</time></trkpt><trkpt lat="44.7016965182081" lon="10.166395847606513"><ele>263.0</ele><time>2026-04-09T15:13:32.001Z</time></trkpt><trkpt lat="44.7016512969438" lon="10.166326594191494"><ele>262.42857142857144</ele><time>2026-04-09T15:13:33.001Z</time></trkpt><trkpt lat="44.701599375539836" lon="10.166247735402758"><ele>261.85714285714283</ele><time>2026-04-09T15:13:34.001Z</time></trkpt><trkpt lat="44.70154763363955" lon="10.166170016482614"><ele>261.2857142857143</ele><time>2026-04-09T15:13:35.001Z</time></trkpt><trkpt lat="44.70149676004568" lon="10.166093213062233"><ele>260.7142857142857</ele><time>2026-04-09T15:13:36.001Z</time></trkpt><trkpt lat="44.70144576226516" lon="10.166020621888212"><ele>260.1428571428571</ele><time>2026-04-09T15:13:37.001Z</time></trkpt><trkpt lat="44.701394660375016" lon="10.165945243787407"><ele>259.57142857142856</ele><time>2026-04-09T15:13:38.002Z</time></trkpt><trkpt lat="44.70135410463292" lon="10.165867808707354"><ele>259.0</ele><time>2026-04-09T15:13:39.002Z</time></trkpt><trkpt lat="44.7012937399063" lon="10.165741755401662"><ele>259.2</ele><time>2026-04-09T15:13:41.002Z</time></trkpt><trkpt lat="44.701186324760634" lon="10.165602122512984"><ele>259.4</ele><time>2026-04-09T15:13:43.002Z</time></trkpt><trkpt lat="44.70112325560498" lon="10.16551936577517"><ele>259.6</ele><time>2026-04-09T15:13:44.002Z</time></trkpt><trkpt lat="44.701072749302405" lon="10.165431507541319"><ele>259.8</ele><time>2026-04-09T15:13:45.002Z</time></trkpt><trkpt lat="44.701029985078165" lon="10.165344746233592"><ele>260.0</ele><time>2026-04-09T15:13:46.002Z</time></trkpt><trkpt lat="44.70097079824394" lon="10.16517290907529"><ele>260.0</ele><time>2026-04-09T15:13:48.002Z</time></trkpt><trkpt lat="44.70095531558385" lon="10.165067564559571"><ele>260.0</ele><time>2026-04-09T15:13:49.002Z</time></trkpt><trkpt lat="44.70094338932507" lon="10.164961776996089"><ele>260.0</ele><time>2026-04-09T15:13:50.002Z</time></trkpt><trkpt lat="44.70092438848036" lon="10.164839578094902"><ele>260.0</ele><time>2026-04-09T15:13:51.002Z</time></trkpt><trkpt lat="44.70089630842712" lon="10.164709752732769"><ele>260.0</ele><time>2026-04-09T15:13:52.002Z</time></trkpt><trkpt lat="44.70086603601569" lon="10.1645875185128"><ele>260.0</ele><time>2026-04-09T15:13:53.002Z</time></trkpt><trkpt lat="44.700832065352415" lon="10.164473785087544"><ele>261.0</ele><time>2026-04-09T15:13:54.002Z</time></trkpt><trkpt lat="44.70079461208735" lon="10.16436101780084"><ele>262.0</ele><time>2026-04-09T15:13:55.002Z</time></trkpt><trkpt lat="44.7007497252583" lon="10.164252470316784"><ele>263.0</ele><time>2026-04-09T15:13:56.002Z</time></trkpt><trkpt lat="44.700700710336974" lon="10.164146534262379"><ele>264.0</ele><time>2026-04-09T15:13:57.002Z</time></trkpt><trkpt lat="44.700645306223144" lon="10.164052950087582"><ele>265.0</ele><time>2026-04-09T15:13:58.002Z</time></trkpt><trkpt lat="44.70057646532558" lon="10.1639683202555"><ele>266.0</ele><time>2026-04-09T15:13:59.002Z</time></trkpt><trkpt lat="44.70050025993578" lon="10.163896306976918"><ele>266.0</ele><time>2026-04-09T15:14:00.002Z</time></trkpt><trkpt lat="44.70043491562236" lon="10.163822579740161"><ele>266.0</ele><time>2026-04-09T15:14:01.002Z</time></trkpt><trkpt lat="44.70037121534544" lon="10.163731172178075"><ele>266.0</ele><time>2026-04-09T15:14:02.002Z</time></trkpt><trkpt lat="44.70031463242983" lon="10.16362923534876"><ele>266.0</ele><time>2026-04-09T15:14:03.002Z</time></trkpt><trkpt lat="44.70026852813692" lon="10.163527480528144"><ele>266.0</ele><time>2026-04-09T15:14:04.002Z</time></trkpt><trkpt lat="44.700214840409366" lon="10.163406954231117"><ele>267.2</ele><time>2026-04-09T15:14:05.002Z</time></trkpt><trkpt lat="44.70016115487799" lon="10.163298352867729"><ele>268.40000000000003</ele><time>2026-04-09T15:14:06.002Z</time></trkpt><trkpt lat="44.70010398114888" lon="10.163186565919716"><ele>269.6</ele><time>2026-04-09T15:14:07.002Z</time></trkpt><trkpt lat="44.70004565643847" lon="10.163066121377698"><ele>270.8</ele><time>2026-04-09T15:14:08.002Z</time></trkpt><trkpt lat="44.69998060739765" lon="10.162940757767235"><ele>272.0</ele><time>2026-04-09T15:14:09.002Z</time></trkpt><trkpt lat="44.69991578483766" lon="10.162807618490902"><ele>272.0</ele><time>2026-04-09T15:14:10.002Z</time></trkpt><trkpt lat="44.699849035559694" lon="10.16266482213186"><ele>272.0</ele><time>2026-04-09T15:14:11.002Z</time></trkpt><trkpt lat="44.699785389248404" lon="10.16251835586853"><ele>272.0</ele><time>2026-04-09T15:14:12.002Z</time></trkpt><trkpt lat="44.699730207728365" lon="10.162393789532063"><ele>272.0</ele><time>2026-04-09T15:14:13.002Z</time></trkpt><trkpt lat="44.69967928661328" lon="10.162269424744984"><ele>271.2</ele><time>2026-04-09T15:14:14.002Z</time></trkpt><trkpt lat="44.69962440925907" lon="10.162145736425556"><ele>270.4</ele><time>2026-04-09T15:14:15.002Z</time></trkpt><trkpt lat="44.699581334412386" lon="10.162034187903831"><ele>269.6</ele><time>2026-04-09T15:14:16.002Z</time></trkpt><trkpt lat="44.69953891161268" lon="10.16191416059338"><ele>268.8</ele><time>2026-04-09T15:14:17.002Z</time></trkpt><trkpt lat="44.6995020751055" lon="10.161795705680351"><ele>268.0</ele><time>2026-04-09T15:14:18.002Z</time></trkpt><trkpt lat="44.699474472533474" lon="10.161703459556367"><ele>268.0</ele><time>2026-04-09T15:14:19.002Z</time></trkpt><trkpt lat="44.6994398866056" lon="10.161615166874137"><ele>268.0</ele><time>2026-04-09T15:14:20.002Z</time></trkpt><trkpt lat="44.69938470634195" lon="10.161536833342389"><ele>268.0</ele><time>2026-04-09T15:14:21.002Z</time></trkpt><trkpt lat="44.699331369519406" lon="10.161487296221406"><ele>268.0</ele><time>2026-04-09T15:14:22.002Z</time></trkpt><trkpt lat="44.69927570534323" lon="10.161439304251816"><ele>268.0</ele><time>2026-04-09T15:14:23.002Z</time></trkpt><trkpt lat="44.69921105749564" lon="10.161388480945432"><ele>268.0</ele><time>2026-04-09T15:14:24.002Z</time></trkpt><trkpt lat="44.69912131471042" lon="10.161307130126602"><ele>269.8</ele><time>2026-04-09T15:14:26.002Z</time></trkpt><trkpt lat="44.69903215556551" lon="10.161221592078737"><ele>271.6</ele><time>2026-04-09T15:14:28.002Z</time></trkpt><trkpt lat="44.698968625302975" lon="10.161153010655596"><ele>273.4</ele><time>2026-04-09T15:14:30.002Z</time></trkpt><trkpt lat="44.69891131130511" lon="10.161090618039706"><ele>275.2</ele><time>2026-04-09T15:15:38.001Z</time></trkpt><trkpt lat="44.698818233619505" lon="10.160979545472065"><ele>277.0</ele><time>2026-04-09T15:15:51.001Z</time></trkpt><trkpt lat="44.698743100305904" lon="10.160892831196534"><ele>277.0</ele><time>2026-04-09T15:15:52.001Z</time></trkpt><trkpt lat="44.698670801533716" lon="10.160808329669955"><ele>277.0</ele><time>2026-04-09T15:15:53.001Z</time></trkpt><trkpt lat="44.69861033322698" lon="10.16074370583478"><ele>277.0</ele><time>2026-04-09T15:15:54.001Z</time></trkpt><trkpt lat="44.6985496894777" lon="10.160687696979975"><ele>277.0</ele><time>2026-04-09T15:15:55.001Z</time></trkpt><trkpt lat="44.698487800152385" lon="10.160629761328517"><ele>277.0</ele><time>2026-04-09T15:15:56.001Z</time></trkpt><trkpt lat="44.69841511180828" lon="10.16056408635843"><ele>277.0</ele><time>2026-04-09T15:15:57.001Z</time></trkpt><trkpt lat="44.698346618447225" lon="10.16051127193801"><ele>276.3333333333333</ele><time>2026-04-09T15:15:58.001Z</time></trkpt><trkpt lat="44.698278446237545" lon="10.160457975713806"><ele>275.66666666666663</ele><time>2026-04-09T15:15:59.001Z</time></trkpt><trkpt lat="44.698209199289195" lon="10.160414087365577"><ele>275.0</ele><time>2026-04-09T15:16:00.001Z</time></trkpt><trkpt lat="44.698134316546906" lon="10.16039225599923"><ele>274.3333333333333</ele><time>2026-04-09T15:16:01.001Z</time></trkpt><trkpt lat="44.69804780170319" lon="10.160382694632334"><ele>273.6666666666667</ele><time>2026-04-09T15:16:02.001Z</time></trkpt><trkpt lat="44.69795991547524" lon="10.160377705146622"><ele>273.0</ele><time>2026-04-09T15:16:03.001Z</time></trkpt><trkpt lat="44.697872344561766" lon="10.160370178452334"><ele>273.0</ele><time>2026-04-09T15:16:04.001Z</time></trkpt><trkpt lat="44.697791350284945" lon="10.160366024570225"><ele>273.0</ele><time>2026-04-09T15:16:05.001Z</time></trkpt><trkpt lat="44.69771258869999" lon="10.160344658503845"><ele>273.0</ele><time>2026-04-09T15:16:06.001Z</time></trkpt><trkpt lat="44.69762932748558" lon="10.160291231743198"><ele>273.0</ele><time>2026-04-09T15:16:07.001Z</time></trkpt><trkpt lat="44.69754233066027" lon="10.16021726004778"><ele>273.0</ele><time>2026-04-09T15:16:08.001Z</time></trkpt><trkpt lat="44.69745068564263" lon="10.160140611592347"><ele>273.3333333333333</ele><time>2026-04-09T15:16:09.001Z</time></trkpt><trkpt lat="44.697369016752745" lon="10.160077652947649"><ele>273.6666666666667</ele><time>2026-04-09T15:16:10.001Z</time></trkpt><trkpt lat="44.69729399494727" lon="10.160017675974352"><ele>274.0</ele><time>2026-04-09T15:16:11.001Z</time></trkpt><trkpt lat="44.69721900693742" lon="10.159959196492292"><ele>274.33333333333337</ele><time>2026-04-09T15:16:12.001Z</time></trkpt><trkpt lat="44.6971487989257" lon="10.159906742293606"><ele>274.6666666666667</ele><time>2026-04-09T15:16:13.001Z</time></trkpt><trkpt lat="44.69706926157899" lon="10.159851992871063"><ele>275.0</ele><time>2026-04-09T15:16:14.001Z</time></trkpt><trkpt lat="44.696974671704965" lon="10.159790390475317"><ele>275.5</ele><time>2026-04-09T15:16:15.001Z</time></trkpt><trkpt lat="44.696879724407104" lon="10.159734911506366"><ele>276.0</ele><time>2026-04-09T15:16:16.001Z</time></trkpt><trkpt lat="44.69678730913623" lon="10.159683106377582"><ele>276.5</ele><time>2026-04-09T15:16:17.001Z</time></trkpt><trkpt lat="44.69669766341394" lon="10.159638809572193"><ele>277.0</ele><time>2026-04-09T15:16:18.001Z</time></trkpt><trkpt lat="44.69661995489479" lon="10.15959998555643"><ele>277.5</ele><time>2026-04-09T15:16:19.001Z</time></trkpt><trkpt lat="44.696559204348574" lon="10.159572046142289"><ele>278.0</ele><time>2026-04-09T15:16:20.001Z</time></trkpt><trkpt lat="44.696453056947014" lon="10.159542504268417"><ele>278.0</ele><time>2026-04-09T15:16:22.001Z</time></trkpt><trkpt lat="44.6963901667262" lon="10.159537807625732"><ele>278.0</ele><time>2026-04-09T15:16:25.001Z</time></trkpt><trkpt lat="44.69628121922997" lon="10.159549985349008"><ele>278.0</ele><time>2026-04-09T15:16:31.001Z</time></trkpt><trkpt lat="44.696217056424665" lon="10.159581406447318"><ele>278.0</ele><time>2026-04-09T15:16:32.001Z</time></trkpt><trkpt lat="44.696141485686965" lon="10.159618286441525"><ele>278.0</ele><time>2026-04-09T15:16:33.001Z</time></trkpt><trkpt lat="44.69606443785649" lon="10.159662829606305"><ele>278.0</ele><time>2026-04-09T15:16:34.001Z</time></trkpt><trkpt lat="44.69599077028625" lon="10.159710837515135"><ele>279.6666666666667</ele><time>2026-04-09T15:16:35Z</time></trkpt><trkpt lat="44.69592962594536" lon="10.159755761546352"><ele>281.33333333333337</ele><time>2026-04-09T15:16:36Z</time></trkpt><trkpt lat="44.69582220001346" lon="10.159828432817372"><ele>283.0</ele><time>2026-04-09T15:16:38Z</time></trkpt><trkpt lat="44.695759779507014" lon="10.159850114044737"><ele>284.6666666666667</ele><time>2026-04-09T15:16:39Z</time></trkpt><trkpt lat="44.69568958688606" lon="10.159870464617661"><ele>286.3333333333333</ele><time>2026-04-09T15:16:40Z</time></trkpt><trkpt lat="44.69562709166435" lon="10.159883412576152"><ele>288.0</ele><time>2026-04-09T15:16:41Z</time></trkpt><trkpt lat="44.69556052464636" lon="10.159882612410168"><ele>288.2</ele><time>2026-04-09T15:16:42Z</time></trkpt><trkpt lat="44.69544543176032" lon="10.159853116421573"><ele>288.4</ele><time>2026-04-09T15:16:44Z</time></trkpt><trkpt lat="44.69532972945262" lon="10.159775852509915"><ele>288.59999999999997</ele><time>2026-04-09T15:16:46Z</time></trkpt><trkpt lat="44.69526961356813" lon="10.159723489134798"><ele>288.8</ele><time>2026-04-09T15:16:47Z</time></trkpt><trkpt lat="44.6952026124663" lon="10.159670505915683"><ele>289.0</ele><time>2026-04-09T15:16:48Z</time></trkpt><trkpt lat="44.69512398944989" lon="10.159602971858735"><ele>290.4</ele><time>2026-04-09T15:16:49Z</time></trkpt><trkpt lat="44.695057331403824" lon="10.159541151143609"><ele>291.79999999999995</ele><time>2026-04-09T15:16:50Z</time></trkpt><trkpt lat="44.694993420968316" lon="10.159490733266688"><ele>293.20000000000005</ele><time>2026-04-09T15:16:51Z</time></trkpt><trkpt lat="44.694891732653154" lon="10.159419658319106"><ele>294.6</ele><time>2026-04-09T15:16:53Z</time></trkpt><trkpt lat="44.69478194760412" lon="10.159399949836697"><ele>296.0</ele><time>2026-04-09T15:16:55Z</time></trkpt><trkpt lat="44.69466729709625" lon="10.159405938307076"><ele>296.0</ele><time>2026-04-09T15:16:57Z</time></trkpt><trkpt lat="44.69459340241114" lon="10.159430648517121"><ele>296.0</ele><time>2026-04-09T15:16:59Z</time></trkpt><trkpt lat="44.694525948712524" lon="10.159470105336519"><ele>296.0</ele><time>2026-04-09T15:17:01Z</time></trkpt><trkpt lat="44.69445661194499" lon="10.159500404423694"><ele>296.0</ele><time>2026-04-09T15:17:24Z</time></trkpt><trkpt lat="44.69439143019186" lon="10.15953392527046"><ele>296.0</ele><time>2026-04-09T15:17:26Z</time></trkpt><trkpt lat="44.69430686845952" lon="10.159570403008997"><ele>296.0</ele><time>2026-04-09T15:17:28Z</time></trkpt><trkpt lat="44.69421184255262" lon="10.159598351626881"><ele>296.0</ele><time>2026-04-09T15:17:30Z</time></trkpt><trkpt lat="44.69411407322694" lon="10.159616839546606"><ele>296.0</ele><time>2026-04-09T15:17:32Z</time></trkpt><trkpt lat="44.6940368106562" lon="10.159654020624874"><ele>296.0</ele><time>2026-04-09T15:17:34.001Z</time></trkpt><trkpt lat="44.693974952607824" lon="10.15968094829975"><ele>296.0</ele><time>2026-04-09T15:17:35.001Z</time></trkpt><trkpt lat="44.69388296162302" lon="10.159721344922042"><ele>296.0</ele><time>2026-04-09T15:17:37.001Z</time></trkpt><trkpt lat="44.69382145474434" lon="10.159750344217349"><ele>296.0</ele><time>2026-04-09T15:17:39.001Z</time></trkpt><trkpt lat="44.69374486937211" lon="10.159801042265123"><ele>296.0</ele><time>2026-04-09T15:17:42.001Z</time></trkpt><trkpt lat="44.69365118179185" lon="10.159855016794719"><ele>296.0</ele><time>2026-04-09T15:17:45.001Z</time></trkpt><trkpt lat="44.69355944122725" lon="10.159901373760594"><ele>296.0</ele><time>2026-04-09T15:17:47.001Z</time></trkpt><trkpt lat="44.69345823840971" lon="10.15994013691033"><ele>296.0</ele><time>2026-04-09T15:17:49.001Z</time></trkpt><trkpt lat="44.69336410024584" lon="10.159949509972236"><ele>296.0</ele><time>2026-04-09T15:17:51.001Z</time></trkpt><trkpt lat="44.69329963437672" lon="10.159959506603494"><ele>297.6666666666667</ele><time>2026-04-09T15:17:52.001Z</time></trkpt><trkpt lat="44.69318478326546" lon="10.159977116339663"><ele>299.33333333333337</ele><time>2026-04-09T15:17:54.001Z</time></trkpt><trkpt lat="44.69307870508318" lon="10.159974497771556"><ele>301.0</ele><time>2026-04-09T15:17:56.001Z</time></trkpt><trkpt lat="44.69301619431394" lon="10.159948892132807"><ele>302.6666666666667</ele><time>2026-04-09T15:17:57.001Z</time></trkpt><trkpt lat="44.6929429395421" lon="10.15992129750123"><ele>304.3333333333333</ele><time>2026-04-09T15:17:58.001Z</time></trkpt><trkpt lat="44.692877448269904" lon="10.15989236058789"><ele>306.0</ele><time>2026-04-09T15:17:59.001Z</time></trkpt><trkpt lat="44.69277193533611" lon="10.159896216254944"><ele>305.6666666666667</ele><time>2026-04-09T15:18:01.001Z</time></trkpt><trkpt lat="44.69270251029516" lon="10.159870144169021"><ele>305.3333333333333</ele><time>2026-04-09T15:18:04.001Z</time></trkpt><trkpt lat="44.69264381803362" lon="10.159832443908764"><ele>305.0</ele><time>2026-04-09T15:18:24.001Z</time></trkpt><trkpt lat="44.69257421997183" lon="10.159795578613203"><ele>304.66666666666663</ele><time>2026-04-09T15:18:25.001Z</time></trkpt><trkpt lat="44.69248653764012" lon="10.159755723418405"><ele>304.3333333333333</ele><time>2026-04-09T15:18:26.001Z</time></trkpt><trkpt lat="44.69239167690054" lon="10.159715301165928"><ele>304.0</ele><time>2026-04-09T15:18:27.001Z</time></trkpt><trkpt lat="44.69230057085353" lon="10.159676149580081"><ele>305.3333333333333</ele><time>2026-04-09T15:18:28.001Z</time></trkpt><trkpt lat="44.692230682443494" lon="10.159634480251405"><ele>306.66666666666663</ele><time>2026-04-09T15:18:29.001Z</time></trkpt><trkpt lat="44.69217826915048" lon="10.159583454540074"><ele>308.0</ele><time>2026-04-09T15:18:30.001Z</time></trkpt><trkpt lat="44.69212023760731" lon="10.159525628041292"><ele>309.3333333333333</ele><time>2026-04-09T15:18:31.001Z</time></trkpt><trkpt lat="44.69207798893998" lon="10.159428413371572"><ele>310.6666666666667</ele><time>2026-04-09T15:18:32.001Z</time></trkpt><trkpt lat="44.69205014756819" lon="10.159295192681476"><ele>312.0</ele><time>2026-04-09T15:18:33.001Z</time></trkpt><trkpt lat="44.69199781929486" lon="10.15914264034469"><ele>312.25</ele><time>2026-04-09T15:18:34.001Z</time></trkpt><trkpt lat="44.69192670983966" lon="10.158997981912124"><ele>312.5</ele><time>2026-04-09T15:18:35.001Z</time></trkpt><trkpt lat="44.691860393359164" lon="10.158846359468331"><ele>312.75</ele><time>2026-04-09T15:18:36.001Z</time></trkpt><trkpt lat="44.69185513003643" lon="10.158683942782769"><ele>313.0</ele><time>2026-04-09T15:18:37.001Z</time></trkpt><trkpt lat="44.6918359908413" lon="10.15852158959728"><ele>313.0</ele><time>2026-04-09T15:18:38.001Z</time></trkpt><trkpt lat="44.691798371179836" lon="10.158385393885593"><ele>313.0</ele><time>2026-04-09T15:18:39.001Z</time></trkpt><trkpt lat="44.69177237872779" lon="10.158267991516654"><ele>313.0</ele><time>2026-04-09T15:18:40.001Z</time></trkpt><trkpt lat="44.69173326896491" lon="10.158143249376414"><ele>313.0</ele><time>2026-04-09T15:18:41Z</time></trkpt><trkpt lat="44.69166839579274" lon="10.15800758443001"><ele>313.0</ele><time>2026-04-09T15:18:42Z</time></trkpt><trkpt lat="44.69157941427714" lon="10.157860616811556"><ele>311.66666666666663</ele><time>2026-04-09T15:18:43Z</time></trkpt><trkpt lat="44.69147655550103" lon="10.15770191073374"><ele>310.3333333333333</ele><time>2026-04-09T15:18:44Z</time></trkpt><trkpt lat="44.69137742897074" lon="10.1575427415234"><ele>309.0</ele><time>2026-04-09T15:18:45Z</time></trkpt><trkpt lat="44.69126899722466" lon="10.157402372881121"><ele>308.75</ele><time>2026-04-09T15:18:46Z</time></trkpt><trkpt lat="44.69116697350874" lon="10.157266557600583"><ele>308.5</ele><time>2026-04-09T15:18:47Z</time></trkpt><trkpt lat="44.69107917383614" lon="10.157150684049316"><ele>308.25</ele><time>2026-04-09T15:18:48Z</time></trkpt><trkpt lat="44.69100049553287" lon="10.15705608501387"><ele>308.0</ele><time>2026-04-09T15:18:49Z</time></trkpt><trkpt lat="44.69091347533162" lon="10.156952096058307"><ele>308.0</ele><time>2026-04-09T15:18:50Z</time></trkpt><trkpt lat="44.690791972201325" lon="10.156860945416337"><ele>308.0</ele><time>2026-04-09T15:18:51Z</time></trkpt><trkpt lat="44.690659672536015" lon="10.156777262739412"><ele>308.0</ele><time>2026-04-09T15:18:52Z</time></trkpt><trkpt lat="44.69051553990581" lon="10.156714775830768"><ele>308.0</ele><time>2026-04-09T15:18:53Z</time></trkpt><trkpt lat="44.69037821059007" lon="10.156651070007419"><ele>308.0</ele><time>2026-04-09T15:18:54Z</time></trkpt><trkpt lat="44.690240385579024" lon="10.156613828721202"><ele>308.0</ele><time>2026-04-09T15:18:55Z</time></trkpt><trkpt lat="44.6901095625823" lon="10.156609691791829"><ele>308.0</ele><time>2026-04-09T15:18:56Z</time></trkpt><trkpt lat="44.68998701995578" lon="10.15663019591817"><ele>308.0</ele><time>2026-04-09T15:18:57Z</time></trkpt><trkpt lat="44.68987917509965" lon="10.156632058168721"><ele>308.0</ele><time>2026-04-09T15:18:58Z</time></trkpt><trkpt lat="44.689788174392625" lon="10.156635329573506"><ele>308.0</ele><time>2026-04-09T15:18:59Z</time></trkpt><trkpt lat="44.68971052428245" lon="10.156634310506645"><ele>308.0</ele><time>2026-04-09T15:19:00Z</time></trkpt><trkpt lat="44.689636973527655" lon="10.156626449477722"><ele>308.0</ele><time>2026-04-09T15:19:01Z</time></trkpt><trkpt lat="44.68954765254799" lon="10.156598610581252"><ele>308.0</ele><time>2026-04-09T15:19:02Z</time></trkpt><trkpt lat="44.68946645662083" lon="10.156543015907927"><ele>308.0</ele><time>2026-04-09T15:19:03Z</time></trkpt><trkpt lat="44.68936181562757" lon="10.156466320713982"><ele>311.5</ele><time>2026-04-09T15:19:04Z</time></trkpt><trkpt lat="44.689249006593954" lon="10.156405211692892"><ele>315.0</ele><time>2026-04-09T15:19:05Z</time></trkpt><trkpt lat="44.68913686958641" lon="10.156338618428533"><ele>318.5</ele><time>2026-04-09T15:19:06Z</time></trkpt><trkpt lat="44.68902569138971" lon="10.156271711964399"><ele>322.0</ele><time>2026-04-09T15:19:07Z</time></trkpt><trkpt lat="44.68892710931599" lon="10.156213747223138"><ele>322.0</ele><time>2026-04-09T15:19:08Z</time></trkpt><trkpt lat="44.68883692067324" lon="10.15616138236805"><ele>322.0</ele><time>2026-04-09T15:19:09Z</time></trkpt><trkpt lat="44.68877275069282" lon="10.156089455327832"><ele>322.0</ele><time>2026-04-09T15:19:10Z</time></trkpt><trkpt lat="44.68871316033263" lon="10.156002235864861"><ele>322.0</ele><time>2026-04-09T15:19:11Z</time></trkpt><trkpt lat="44.688657086052395" lon="10.155897505227692"><ele>322.0</ele><time>2026-04-09T15:19:12Z</time></trkpt><trkpt lat="44.6886045074135" lon="10.155793278092483"><ele>323.20000000000005</ele><time>2026-04-09T15:19:13Z</time></trkpt><trkpt lat="44.688544572007345" lon="10.155697640162122"><ele>324.4</ele><time>2026-04-09T15:19:14Z</time></trkpt><trkpt lat="44.688461477278985" lon="10.15561776527494"><ele>325.6</ele><time>2026-04-09T15:19:15Z</time></trkpt><trkpt lat="44.68838283259252" lon="10.155493961698962"><ele>326.79999999999995</ele><time>2026-04-09T15:19:16Z</time></trkpt><trkpt lat="44.68826752895272" lon="10.155391654656931"><ele>328.0</ele><time>2026-04-09T15:19:17Z</time></trkpt><trkpt lat="44.688145027228394" lon="10.155299232601873"><ele>328.0</ele><time>2026-04-09T15:19:18Z</time></trkpt><trkpt lat="44.68805062149975" lon="10.155218726472752"><ele>328.0</ele><time>2026-04-09T15:19:19Z</time></trkpt><trkpt lat="44.68797437583336" lon="10.155147886257692"><ele>328.0</ele><time>2026-04-09T15:19:20Z</time></trkpt><trkpt lat="44.68791331264813" lon="10.155062571829893"><ele>328.0</ele><time>2026-04-09T15:19:21Z</time></trkpt><trkpt lat="44.68787443335545" lon="10.154959017050912"><ele>328.0</ele><time>2026-04-09T15:19:22Z</time></trkpt><trkpt lat="44.687835130404075" lon="10.15483983807327"><ele>326.5</ele><time>2026-04-09T15:19:23Z</time></trkpt><trkpt lat="44.687772379276794" lon="10.154742209864487"><ele>325.0</ele><time>2026-04-09T15:19:24Z</time></trkpt><trkpt lat="44.687715026566984" lon="10.154664625836718"><ele>323.5</ele><time>2026-04-09T15:19:25Z</time></trkpt><trkpt lat="44.68763729285354" lon="10.154611096076213"><ele>322.0</ele><time>2026-04-09T15:19:26Z</time></trkpt><trkpt lat="44.687558117126144" lon="10.154563118271124"><ele>320.5</ele><time>2026-04-09T15:19:27Z</time></trkpt><trkpt lat="44.68747005568689" lon="10.154535110163932"><ele>319.0</ele><time>2026-04-09T15:19:28Z</time></trkpt><trkpt lat="44.687381141391754" lon="10.154511039669554"><ele>318.4</ele><time>2026-04-09T15:19:29Z</time></trkpt><trkpt lat="44.68728758651946" lon="10.15451238448079"><ele>317.79999999999995</ele><time>2026-04-09T15:19:30Z</time></trkpt><trkpt lat="44.68719686433809" lon="10.154489183582044"><ele>317.20000000000005</ele><time>2026-04-09T15:19:31Z</time></trkpt><trkpt lat="44.687106486922104" lon="10.15444689635261"><ele>316.6</ele><time>2026-04-09T15:19:32Z</time></trkpt><trkpt lat="44.68701497070084" lon="10.15442912400417"><ele>316.0</ele><time>2026-04-09T15:19:33Z</time></trkpt><trkpt lat="44.68692367549034" lon="10.15441348006407"><ele>314.75</ele><time>2026-04-09T15:19:34Z</time></trkpt><trkpt lat="44.686814325286484" lon="10.154407881277901"><ele>313.5</ele><time>2026-04-09T15:19:35Z</time></trkpt><trkpt lat="44.6866706326375" lon="10.154385765631387"><ele>312.25</ele><time>2026-04-09T15:19:36Z</time></trkpt><trkpt lat="44.68652586437355" lon="10.154355234249719"><ele>311.0</ele><time>2026-04-09T15:19:37Z</time></trkpt><trkpt lat="44.68640338341528" lon="10.154320608193215"><ele>311.0</ele><time>2026-04-09T15:19:38Z</time></trkpt><trkpt lat="44.68627377361938" lon="10.154278352326827"><ele>311.0</ele><time>2026-04-09T15:19:39Z</time></trkpt><trkpt lat="44.686138931778096" lon="10.154228468564682"><ele>311.0</ele><time>2026-04-09T15:19:40Z</time></trkpt><trkpt lat="44.686001004186465" lon="10.154162182580045"><ele>311.0</ele><time>2026-04-09T15:19:41Z</time></trkpt><trkpt lat="44.685862921813744" lon="10.154097121106787"><ele>308.0</ele><time>2026-04-09T15:19:42Z</time></trkpt><trkpt lat="44.68572765143391" lon="10.154031809072267"><ele>305.0</ele><time>2026-04-09T15:19:43Z</time></trkpt><trkpt lat="44.68558971289711" lon="10.153981419708712"><ele>302.0</ele><time>2026-04-09T15:19:44Z</time></trkpt><trkpt lat="44.68546966424683" lon="10.153896288057227"><ele>299.0</ele><time>2026-04-09T15:19:45Z</time></trkpt><trkpt lat="44.68534565058505" lon="10.153843210112496"><ele>302.2</ele><time>2026-04-09T15:19:46Z</time></trkpt><trkpt lat="44.68522624242653" lon="10.15381663207094"><ele>305.4</ele><time>2026-04-09T15:19:47Z</time></trkpt><trkpt lat="44.685126871865236" lon="10.15375929100098"><ele>308.6</ele><time>2026-04-09T15:19:48Z</time></trkpt><trkpt lat="44.68503466871353" lon="10.153719218391277"><ele>311.8</ele><time>2026-04-09T15:19:49Z</time></trkpt><trkpt lat="44.684951794419796" lon="10.153668197656652"><ele>315.0</ele><time>2026-04-09T15:19:50Z</time></trkpt><trkpt lat="44.6848833853896" lon="10.153609952649854"><ele>315.0</ele><time>2026-04-09T15:19:51Z</time></trkpt><trkpt lat="44.68481903690734" lon="10.153531529986186"><ele>315.0</ele><time>2026-04-09T15:19:52Z</time></trkpt><trkpt lat="44.68477858548019" lon="10.15341463929164"><ele>315.0</ele><time>2026-04-09T15:19:53Z</time></trkpt><trkpt lat="44.68471373912958" lon="10.15332489935444"><ele>315.0</ele><time>2026-04-09T15:19:54.001Z</time></trkpt><trkpt lat="44.68468229973437" lon="10.153190387568827"><ele>315.0</ele><time>2026-04-09T15:19:55.001Z</time></trkpt><trkpt lat="44.6846490339" lon="10.153056240133907"><ele>313.6</ele><time>2026-04-09T15:19:56.001Z</time></trkpt><trkpt lat="44.6846263454711" lon="10.152909127567908"><ele>312.2</ele><time>2026-04-09T15:19:57.001Z</time></trkpt><trkpt lat="44.68461288394695" lon="10.15275392147024"><ele>310.8</ele><time>2026-04-09T15:19:58.001Z</time></trkpt><trkpt lat="44.684603396850996" lon="10.152598254217546"><ele>309.4</ele><time>2026-04-09T15:19:59.001Z</time></trkpt><trkpt lat="44.684573650796935" lon="10.15245967119382"><ele>308.0</ele><time>2026-04-09T15:20:00.001Z</time></trkpt><trkpt lat="44.684549004754494" lon="10.152341085859145"><ele>307.6</ele><time>2026-04-09T15:20:01.001Z</time></trkpt><trkpt lat="44.68451694111132" lon="10.152231343482981"><ele>307.20000000000005</ele><time>2026-04-09T15:20:02.001Z</time></trkpt><trkpt lat="44.68445491689675" lon="10.152129042324297"><ele>306.8</ele><time>2026-04-09T15:20:03.001Z</time></trkpt><trkpt lat="44.684405760553574" lon="10.152005629052809"><ele>306.40000000000003</ele><time>2026-04-09T15:20:04.001Z</time></trkpt><trkpt lat="44.68435024365275" lon="10.151891090355754"><ele>306.0</ele><time>2026-04-09T15:20:05.001Z</time></trkpt><trkpt lat="44.68432036893358" lon="10.151773136277411"><ele>308.3333333333333</ele><time>2026-04-09T15:20:06.001Z</time></trkpt><trkpt lat="44.684271699085095" lon="10.151692395835253"><ele>310.6666666666667</ele><time>2026-04-09T15:20:07.001Z</time></trkpt><trkpt lat="44.684242299719" lon="10.151603638861776"><ele>313.0</ele><time>2026-04-09T15:20:08.001Z</time></trkpt><trkpt lat="44.684185042659266" lon="10.151487434939773"><ele>315.33333333333337</ele><time>2026-04-09T15:20:10.001Z</time></trkpt><trkpt lat="44.6841354872701" lon="10.151403236801757"><ele>317.6666666666667</ele><time>2026-04-09T15:20:13.001Z</time></trkpt><trkpt lat="44.68412495678695" lon="10.15131270704143"><ele>320.0</ele><time>2026-04-09T15:20:16.001Z</time></trkpt><trkpt lat="44.68409438758643" lon="10.151153477368599"><ele>320.6666666666667</ele><time>2026-04-09T15:20:18.001Z</time></trkpt><trkpt lat="44.684106146938696" lon="10.15105313265925"><ele>321.33333333333337</ele><time>2026-04-09T15:20:19.001Z</time></trkpt><trkpt lat="44.6841060919598" lon="10.150946266660899"><ele>322.0</ele><time>2026-04-09T15:20:20.001Z</time></trkpt><trkpt lat="44.684103093805795" lon="10.150838333187082"><ele>322.6666666666667</ele><time>2026-04-09T15:20:21.001Z</time></trkpt><trkpt lat="44.68408860631514" lon="10.150742377280762"><ele>323.3333333333333</ele><time>2026-04-09T15:20:22.001Z</time></trkpt><trkpt lat="44.68407754229947" lon="10.150584688995753"><ele>324.0</ele><time>2026-04-09T15:20:24.001Z</time></trkpt><trkpt lat="44.68403655832217" lon="10.150420736286367"><ele>324.0</ele><time>2026-04-09T15:20:26.001Z</time></trkpt><trkpt lat="44.683970706923" lon="10.15036523067284"><ele>324.0</ele><time>2026-04-09T15:20:27.001Z</time></trkpt><trkpt lat="44.6839102982251" lon="10.150306486864741"><ele>324.0</ele><time>2026-04-09T15:20:28.001Z</time></trkpt><trkpt lat="44.68383834596474" lon="10.150250056288815"><ele>324.0</ele><time>2026-04-09T15:20:29.001Z</time></trkpt><trkpt lat="44.68375768305774" lon="10.150190400834791"><ele>324.0</ele><time>2026-04-09T15:20:30.001Z</time></trkpt><trkpt lat="44.68368003422073" lon="10.150141306344723"><ele>324.0</ele><time>2026-04-09T15:20:31.001Z</time></trkpt><trkpt lat="44.683585776487554" lon="10.150078687555721"><ele>326.2</ele><time>2026-04-09T15:20:32.001Z</time></trkpt><trkpt lat="44.68349705667301" lon="10.150030998091854"><ele>328.4</ele><time>2026-04-09T15:20:33.001Z</time></trkpt><trkpt lat="44.68341998870485" lon="10.149990275080063"><ele>330.6</ele><time>2026-04-09T15:20:34.001Z</time></trkpt><trkpt lat="44.68335305033847" lon="10.149960746979847"><ele>332.8</ele><time>2026-04-09T15:20:35.001Z</time></trkpt><trkpt lat="44.68325841515646" lon="10.14996568386378"><ele>335.0</ele><time>2026-04-09T15:20:37.001Z</time></trkpt><trkpt lat="44.68314884641594" lon="10.149977648924086"><ele>335.0</ele><time>2026-04-09T15:20:39.001Z</time></trkpt><trkpt lat="44.68307610271173" lon="10.149985949676212"><ele>335.0</ele><time>2026-04-09T15:20:40.001Z</time></trkpt><trkpt lat="44.68299871296895" lon="10.149994780593891"><ele>335.0</ele><time>2026-04-09T15:20:41.001Z</time></trkpt><trkpt lat="44.68292989890943" lon="10.15000263294494"><ele>335.0</ele><time>2026-04-09T15:20:42.001Z</time></trkpt><trkpt lat="44.68286549255552" lon="10.150009982337021"><ele>335.0</ele><time>2026-04-09T15:20:43.001Z</time></trkpt><trkpt lat="44.68278715839005" lon="10.14983251960447"><ele>335.0</ele><time>2026-04-09T15:20:44.001Z</time></trkpt><trkpt lat="44.682706292755896" lon="10.149820264467063"><ele>334.1666666666667</ele><time>2026-04-09T15:20:45.001Z</time></trkpt><trkpt lat="44.68262518851302" lon="10.149802640753784"><ele>333.33333333333337</ele><time>2026-04-09T15:20:46.001Z</time></trkpt><trkpt lat="44.68255266557639" lon="10.149792461786959"><ele>332.5</ele><time>2026-04-09T15:20:47.001Z</time></trkpt><trkpt lat="44.68243533690864" lon="10.14977364626307"><ele>331.6666666666667</ele><time>2026-04-09T15:20:49.001Z</time></trkpt><trkpt lat="44.68235049766653" lon="10.149759934077064"><ele>330.8333333333333</ele><time>2026-04-09T15:20:51.001Z</time></trkpt><trkpt lat="44.68231354699108" lon="10.149683937743282"><ele>330.0</ele><time>2026-04-09T15:20:54.001Z</time></trkpt><trkpt lat="44.682338022750535" lon="10.14957066275242"><ele>330.00000000000006</ele><time>2026-04-09T15:20:56.001Z</time></trkpt><trkpt lat="44.68231980018268" lon="10.14944944749821"><ele>330.0</ele><time>2026-04-09T15:20:58.001Z</time></trkpt><trkpt lat="44.68230674210192" lon="10.149360412804436"><ele>330.0</ele><time>2026-04-09T15:21:00Z</time></trkpt><trkpt lat="44.68229450489008" lon="10.149228938481821"><ele>330.0</ele><time>2026-04-09T15:21:03Z</time></trkpt><trkpt lat="44.68227117896465" lon="10.14914093752703"><ele>330.0</ele><time>2026-04-09T15:21:05Z</time></trkpt><trkpt lat="44.682263239373775" lon="10.149044414330032"><ele>330.00000000000006</ele><time>2026-04-09T15:23:00.001Z</time></trkpt><trkpt lat="44.68225349630172" lon="10.148954142718672"><ele>330.0</ele><time>2026-04-09T15:23:16.001Z</time></trkpt><trkpt lat="44.682249808229784" lon="10.148863213150975"><ele>330.00000000000006</ele><time>2026-04-09T15:25:02.001Z</time></trkpt><trkpt lat="44.68223834852602" lon="10.148772647370343"><ele>330.0</ele><time>2026-04-09T15:25:20.001Z</time></trkpt><trkpt lat="44.682227176959266" lon="10.14866948170069"><ele>330.0</ele><time>2026-04-09T15:25:26.001Z</time></trkpt><trkpt lat="44.68221946969963" lon="10.148789473300555"><ele>330.0</ele><time>2026-04-09T15:26:45.001Z</time></trkpt><trkpt lat="44.68222969415149" lon="10.148884359276963"><ele>330.0</ele><time>2026-04-09T15:26:47.001Z</time></trkpt><trkpt lat="44.68224134642618" lon="10.148990673644793"><ele>330.00000000000006</ele><time>2026-04-09T15:26:50.001Z</time></trkpt><trkpt lat="44.68225769636643" lon="10.149097691883531"><ele>330.0</ele><time>2026-04-09T15:26:52.001Z</time></trkpt><trkpt lat="44.682267228393066" lon="10.149204983094496"><ele>330.00000000000006</ele><time>2026-04-09T15:26:54.001Z</time></trkpt><trkpt lat="44.682280800703566" lon="10.149297549648704"><ele>330.0</ele><time>2026-04-09T15:26:56.001Z</time></trkpt><trkpt lat="44.682294873632785" lon="10.149389911877167"><ele>330.0</ele><time>2026-04-09T15:26:58.001Z</time></trkpt><trkpt lat="44.682308445740034" lon="10.149478173975327"><ele>330.0</ele><time>2026-04-09T15:27:00.001Z</time></trkpt><trkpt lat="44.68231825361782" lon="10.14957760505793"><ele>330.0</ele><time>2026-04-09T15:27:10.001Z</time></trkpt><trkpt lat="44.682320447897574" lon="10.149679988544285"><ele>330.00000000000006</ele><time>2026-04-09T15:27:14.001Z</time></trkpt><trkpt lat="44.68239165029978" lon="10.149761194481611"><ele>330.0</ele><time>2026-04-09T15:27:18.001Z</time></trkpt><trkpt lat="44.682470614299376" lon="10.149771785354746"><ele>330.0</ele><time>2026-04-09T15:27:21.001Z</time></trkpt><trkpt lat="44.6825591677183" lon="10.149786623266829"><ele>330.0</ele><time>2026-04-09T15:27:24.001Z</time></trkpt><trkpt lat="44.6826309063792" lon="10.149793800241707"><ele>330.0</ele><time>2026-04-09T15:27:26.001Z</time></trkpt><trkpt lat="44.682701521222704" lon="10.149807426302118"><ele>330.0</ele><time>2026-04-09T15:27:28.001Z</time></trkpt><trkpt lat="44.68279694470882" lon="10.1498185800454"><ele>330.0</ele><time>2026-04-09T15:27:30.001Z</time></trkpt><trkpt lat="44.68288050965188" lon="10.149815845053203"><ele>330.0</ele><time>2026-04-09T15:27:32Z</time></trkpt><trkpt lat="44.68295954014805" lon="10.149837845226957"><ele>331.0</ele><time>2026-04-09T15:27:34Z</time></trkpt><trkpt lat="44.683025639226486" lon="10.149861769759498"><ele>332.0</ele><time>2026-04-09T15:27:35Z</time></trkpt><trkpt lat="44.68309623029077" lon="10.149882141147312"><ele>333.0</ele><time>2026-04-09T15:27:36Z</time></trkpt><trkpt lat="44.6831655941197" lon="10.150022560009457"><ele>334.0</ele><time>2026-04-09T15:27:37Z</time></trkpt><trkpt lat="44.683278604244705" lon="10.150009033878325"><ele>335.0</ele><time>2026-04-09T15:27:39Z</time></trkpt><trkpt lat="44.68337944092643" lon="10.150010995537398"><ele>335.0</ele><time>2026-04-09T15:27:41Z</time></trkpt><trkpt lat="44.683499999261514" lon="10.150035440257923"><ele>335.0</ele><time>2026-04-09T15:27:43Z</time></trkpt><trkpt lat="44.68355750116675" lon="10.150074682597104"><ele>335.0</ele><time>2026-04-09T15:27:44Z</time></trkpt><trkpt lat="44.683678837769946" lon="10.150144798459387"><ele>335.0</ele><time>2026-04-09T15:27:46Z</time></trkpt><trkpt lat="44.68374765619672" lon="10.150190365914778"><ele>335.0</ele><time>2026-04-09T15:27:47Z</time></trkpt><trkpt lat="44.68380082129103" lon="10.150254938705505"><ele>333.4</ele><time>2026-04-09T15:27:48Z</time></trkpt><trkpt lat="44.68386780817085" lon="10.150285178810192"><ele>331.8</ele><time>2026-04-09T15:27:49Z</time></trkpt><trkpt lat="44.68396752476097" lon="10.150379211138155"><ele>330.20000000000005</ele><time>2026-04-09T15:27:51Z</time></trkpt><trkpt lat="44.684037130680665" lon="10.150501108049959"><ele>328.6</ele><time>2026-04-09T15:27:53Z</time></trkpt><trkpt lat="44.684071942136114" lon="10.150655974221793"><ele>327.0</ele><time>2026-04-09T15:27:55Z</time></trkpt><trkpt lat="44.68407095189793" lon="10.150810249327835"><ele>327.0</ele><time>2026-04-09T15:27:57Z</time></trkpt><trkpt lat="44.68407415655485" lon="10.150977388995255"><ele>327.0</ele><time>2026-04-09T15:27:59Z</time></trkpt><trkpt lat="44.68407977976315" lon="10.151069630531127"><ele>327.0</ele><time>2026-04-09T15:28:00Z</time></trkpt><trkpt lat="44.68408779245835" lon="10.151222741313335"><ele>327.0</ele><time>2026-04-09T15:28:02Z</time></trkpt><trkpt lat="44.684102857815596" lon="10.151348248412702"><ele>327.0</ele><time>2026-04-09T15:28:04Z</time></trkpt><trkpt lat="44.68414289670293" lon="10.151451719479574"><ele>325.6</ele><time>2026-04-09T15:28:06Z</time></trkpt><trkpt lat="44.68418619262114" lon="10.151562282246253"><ele>324.20000000000005</ele><time>2026-04-09T15:28:08Z</time></trkpt><trkpt lat="44.684242455114685" lon="10.151666956710013"><ele>322.8</ele><time>2026-04-09T15:28:10Z</time></trkpt><trkpt lat="44.68429269309761" lon="10.151782466638538"><ele>321.4</ele><time>2026-04-09T15:28:12Z</time></trkpt><trkpt lat="44.68434362047385" lon="10.15188707558067"><ele>320.0</ele><time>2026-04-09T15:28:14Z</time></trkpt><trkpt lat="44.684383165600586" lon="10.151988774635235"><ele>317.6</ele><time>2026-04-09T15:28:16Z</time></trkpt><trkpt lat="44.6844341914334" lon="10.15209743471428"><ele>315.2</ele><time>2026-04-09T15:28:18Z</time></trkpt><trkpt lat="44.684488509898365" lon="10.15223399607826"><ele>312.8</ele><time>2026-04-09T15:28:20.001Z</time></trkpt><trkpt lat="44.68453547994507" lon="10.15235487500618"><ele>310.4</ele><time>2026-04-09T15:28:22.001Z</time></trkpt><trkpt lat="44.684571236267494" lon="10.152523356669446"><ele>308.0</ele><time>2026-04-09T15:28:24.001Z</time></trkpt><trkpt lat="44.6845847186059" lon="10.152699725803028"><ele>308.0</ele><time>2026-04-09T15:28:26.001Z</time></trkpt><trkpt lat="44.684588740992965" lon="10.15279303796779"><ele>308.0</ele><time>2026-04-09T15:28:27.001Z</time></trkpt><trkpt lat="44.684597572897594" lon="10.15288563770613"><ele>308.0</ele><time>2026-04-09T15:28:28.001Z</time></trkpt><trkpt lat="44.68460931133561" lon="10.152976494905902"><ele>308.0</ele><time>2026-04-09T15:28:29.001Z</time></trkpt><trkpt lat="44.68462894642512" lon="10.153068309770003"><ele>308.0</ele><time>2026-04-09T15:28:30.001Z</time></trkpt><trkpt lat="44.684653725927156" lon="10.153161805665095"><ele>308.0</ele><time>2026-04-09T15:28:31.001Z</time></trkpt><trkpt lat="44.68468274849376" lon="10.153245695590183"><ele>308.0</ele><time>2026-04-09T15:28:32.001Z</time></trkpt><trkpt lat="44.68473809707755" lon="10.153388184719141"><ele>309.4</ele><time>2026-04-09T15:28:34.001Z</time></trkpt><trkpt lat="44.68479716667866" lon="10.153519824330981"><ele>310.8</ele><time>2026-04-09T15:28:36.001Z</time></trkpt><trkpt lat="44.684862005773674" lon="10.153618090047107"><ele>312.2</ele><time>2026-04-09T15:28:38.001Z</time></trkpt><trkpt lat="44.68494587089651" lon="10.153665788755387"><ele>313.6</ele><time>2026-04-09T15:28:40.001Z</time></trkpt><trkpt lat="44.685029399931025" lon="10.153743734957693"><ele>315.0</ele><time>2026-04-09T15:28:42.001Z</time></trkpt><trkpt lat="44.68515108243236" lon="10.15380854115312"><ele>315.0</ele><time>2026-04-09T15:28:44.001Z</time></trkpt><trkpt lat="44.68523754263185" lon="10.15382247338296"><ele>315.0</ele><time>2026-04-09T15:28:45.001Z</time></trkpt><trkpt lat="44.685327806697295" lon="10.153861758039621"><ele>315.0</ele><time>2026-04-09T15:28:46.001Z</time></trkpt><trkpt lat="44.68541838269107" lon="10.153900056064625"><ele>315.0</ele><time>2026-04-09T15:28:47.001Z</time></trkpt><trkpt lat="44.68550382908975" lon="10.153938485584664"><ele>315.0</ele><time>2026-04-09T15:28:48.001Z</time></trkpt><trkpt lat="44.68558010998208" lon="10.153978724553758"><ele>315.0</ele><time>2026-04-09T15:28:49.001Z</time></trkpt><trkpt lat="44.68563849259445" lon="10.154032410280573"><ele>314.6666666666667</ele><time>2026-04-09T15:28:50.001Z</time></trkpt><trkpt lat="44.68572829066032" lon="10.154073713007541"><ele>314.3333333333333</ele><time>2026-04-09T15:28:52.001Z</time></trkpt><trkpt lat="44.68579960860174" lon="10.15410418299788"><ele>314.0</ele><time>2026-04-09T15:29:02.001Z</time></trkpt><trkpt lat="44.68591209837431" lon="10.154152243302956"><ele>313.66666666666663</ele><time>2026-04-09T15:29:04.001Z</time></trkpt><trkpt lat="44.685977276454864" lon="10.154181216621058"><ele>313.3333333333333</ele><time>2026-04-09T15:29:05.001Z</time></trkpt><trkpt lat="44.686045650312096" lon="10.154211620743448"><ele>313.0</ele><time>2026-04-09T15:29:06.001Z</time></trkpt><trkpt lat="44.686110282040914" lon="10.15424036083625"><ele>312.66666666666663</ele><time>2026-04-09T15:29:07.001Z</time></trkpt><trkpt lat="44.686216210024675" lon="10.154285016542318"><ele>312.3333333333333</ele><time>2026-04-09T15:29:09.001Z</time></trkpt><trkpt lat="44.68628173370447" lon="10.154311887648056"><ele>312.0</ele><time>2026-04-09T15:29:10.001Z</time></trkpt><trkpt lat="44.686353061409015" lon="10.154336594216517"><ele>311.6666666666667</ele><time>2026-04-09T15:29:11Z</time></trkpt><trkpt lat="44.68643310768834" lon="10.154364320736308"><ele>311.33333333333337</ele><time>2026-04-09T15:29:12Z</time></trkpt><trkpt lat="44.68651574052014" lon="10.154387864917814"><ele>311.0</ele><time>2026-04-09T15:29:13Z</time></trkpt><trkpt lat="44.686610588827286" lon="10.154402339691257"><ele>311.0</ele><time>2026-04-09T15:29:14Z</time></trkpt><trkpt lat="44.686708934119096" lon="10.154419838145433"><ele>311.0</ele><time>2026-04-09T15:29:15Z</time></trkpt><trkpt lat="44.686810748049794" lon="10.154439629092987"><ele>311.0</ele><time>2026-04-09T15:29:16Z</time></trkpt><trkpt lat="44.68690699986581" lon="10.154457639878657"><ele>311.0</ele><time>2026-04-09T15:29:17Z</time></trkpt><trkpt lat="44.68700576269246" lon="10.154474563427934"><ele>311.0</ele><time>2026-04-09T15:29:18Z</time></trkpt><trkpt lat="44.687110192855286" lon="10.154494793620222"><ele>312.0</ele><time>2026-04-09T15:29:19Z</time></trkpt><trkpt lat="44.68721950766827" lon="10.154520253285611"><ele>313.0</ele><time>2026-04-09T15:29:20Z</time></trkpt><trkpt lat="44.68733224983829" lon="10.154546836936849"><ele>314.0</ele><time>2026-04-09T15:29:21Z</time></trkpt><trkpt lat="44.68744081087109" lon="10.154574091724372"><ele>315.0</ele><time>2026-04-09T15:29:22Z</time></trkpt><trkpt lat="44.68754567015999" lon="10.154607137262854"><ele>316.0</ele><time>2026-04-09T15:29:23Z</time></trkpt><trkpt lat="44.687640901856646" lon="10.154651126283754"><ele>316.0</ele><time>2026-04-09T15:29:24Z</time></trkpt><trkpt lat="44.68772097896331" lon="10.15470677551163"><ele>316.0</ele><time>2026-04-09T15:29:25Z</time></trkpt><trkpt lat="44.68778485939599" lon="10.154776365673147"><ele>316.0</ele><time>2026-04-09T15:29:26Z</time></trkpt><trkpt lat="44.68781605818589" lon="10.154886412070672"><ele>316.0</ele><time>2026-04-09T15:29:27Z</time></trkpt><trkpt lat="44.68786824414441" lon="10.154994066025246"><ele>316.0</ele><time>2026-04-09T15:29:28Z</time></trkpt><trkpt lat="44.687898003156086" lon="10.155092398896576"><ele>316.0</ele><time>2026-04-09T15:29:29Z</time></trkpt><trkpt lat="44.68794428852036" lon="10.155160420614173"><ele>318.4</ele><time>2026-04-09T15:29:30Z</time></trkpt><trkpt lat="44.688006247179686" lon="10.15522490645585"><ele>320.8</ele><time>2026-04-09T15:29:31Z</time></trkpt><trkpt lat="44.68808699831459" lon="10.155290954656367"><ele>323.2</ele><time>2026-04-09T15:29:32Z</time></trkpt><trkpt lat="44.68817188592693" lon="10.155353752222798"><ele>325.59999999999997</ele><time>2026-04-09T15:29:33Z</time></trkpt><trkpt lat="44.6882557739409" lon="10.155414427189832"><ele>328.0</ele><time>2026-04-09T15:29:34Z</time></trkpt><trkpt lat="44.68833972453878" lon="10.155481179774656"><ele>328.0</ele><time>2026-04-09T15:29:35Z</time></trkpt><trkpt lat="44.68840050696268" lon="10.155572184011886"><ele>328.0</ele><time>2026-04-09T15:29:36Z</time></trkpt><trkpt lat="44.68845892809074" lon="10.155648608914193"><ele>328.0</ele><time>2026-04-09T15:29:37Z</time></trkpt><trkpt lat="44.688526961803625" lon="10.15571474627338"><ele>328.0</ele><time>2026-04-09T15:29:38Z</time></trkpt><trkpt lat="44.6885882464856" lon="10.155837985414603"><ele>328.0</ele><time>2026-04-09T15:29:39Z</time></trkpt><trkpt lat="44.68862490936719" lon="10.155915152885967"><ele>328.0</ele><time>2026-04-09T15:29:40Z</time></trkpt><trkpt lat="44.68868149795692" lon="10.156037263806313"><ele>327.1428571428571</ele><time>2026-04-09T15:29:42Z</time></trkpt><trkpt lat="44.68873814655662" lon="10.156109560089034"><ele>326.2857142857143</ele><time>2026-04-09T15:29:43Z</time></trkpt><trkpt lat="44.68878793013906" lon="10.156168376030582"><ele>325.42857142857144</ele><time>2026-04-09T15:29:44Z</time></trkpt><trkpt lat="44.68884275916415" lon="10.156215634334458"><ele>324.57142857142856</ele><time>2026-04-09T15:29:45Z</time></trkpt><trkpt lat="44.688905119663566" lon="10.156252596432044"><ele>323.7142857142857</ele><time>2026-04-09T15:29:46Z</time></trkpt><trkpt lat="44.68897246107967" lon="10.156283347299434"><ele>322.85714285714283</ele><time>2026-04-09T15:29:47Z</time></trkpt><trkpt lat="44.689052315238115" lon="10.156330964787585"><ele>322.0</ele><time>2026-04-09T15:29:48Z</time></trkpt><trkpt lat="44.68913585273729" lon="10.156375976203252"><ele>322.0</ele><time>2026-04-09T15:29:49Z</time></trkpt><trkpt lat="44.68921332904364" lon="10.156422632547725"><ele>322.0</ele><time>2026-04-09T15:29:50Z</time></trkpt><trkpt lat="44.68928507806815" lon="10.156466275703126"><ele>322.0</ele><time>2026-04-09T15:29:51Z</time></trkpt><trkpt lat="44.68936203360602" lon="10.156512401749751"><ele>322.0</ele><time>2026-04-09T15:29:52Z</time></trkpt><trkpt lat="44.689437891353364" lon="10.156563047227406"><ele>322.0</ele><time>2026-04-09T15:29:53Z</time></trkpt><trkpt lat="44.68950244601737" lon="10.156611274336871"><ele>322.0</ele><time>2026-04-09T15:29:54Z</time></trkpt><trkpt lat="44.6895715330934" lon="10.156651385805915"><ele>319.66666666666663</ele><time>2026-04-09T15:29:55Z</time></trkpt><trkpt lat="44.689642186422596" lon="10.156672082578424"><ele>317.3333333333333</ele><time>2026-04-09T15:29:56Z</time></trkpt><trkpt lat="44.68977310095943" lon="10.156682510008002"><ele>315.0</ele><time>2026-04-09T15:29:58Z</time></trkpt><trkpt lat="44.68984329489814" lon="10.156680210453208"><ele>312.6666666666667</ele><time>2026-04-09T15:29:59Z</time></trkpt><trkpt lat="44.6899105371267" lon="10.1566756041566"><ele>310.33333333333337</ele><time>2026-04-09T15:30:00Z</time></trkpt><trkpt lat="44.68997631661054" lon="10.156668775584789"><ele>308.0</ele><time>2026-04-09T15:30:01Z</time></trkpt><trkpt lat="44.69005304258576" lon="10.156660810656055"><ele>308.0</ele><time>2026-04-09T15:30:02Z</time></trkpt><trkpt lat="44.69013370135892" lon="10.156653451769305"><ele>308.0</ele><time>2026-04-09T15:30:03Z</time></trkpt><trkpt lat="44.69021999735013" lon="10.156629001653151"><ele>308.0</ele><time>2026-04-09T15:30:04Z</time></trkpt><trkpt lat="44.69030237961048" lon="10.156640785100933"><ele>308.0</ele><time>2026-04-09T15:30:05Z</time></trkpt><trkpt lat="44.69038694828254" lon="10.156688939224576"><ele>308.0</ele><time>2026-04-09T15:30:06Z</time></trkpt><trkpt lat="44.69047571755921" lon="10.156726915295152"><ele>308.0</ele><time>2026-04-09T15:30:07Z</time></trkpt><trkpt lat="44.69056383124385" lon="10.156770481218535"><ele>308.0</ele><time>2026-04-09T15:30:08Z</time></trkpt><trkpt lat="44.690648079854185" lon="10.156821096227592"><ele>308.0</ele><time>2026-04-09T15:30:09Z</time></trkpt><trkpt lat="44.69073444964604" lon="10.156850364232298"><ele>308.0</ele><time>2026-04-09T15:30:10Z</time></trkpt><trkpt lat="44.6908139025316" lon="10.15690331389703"><ele>308.0</ele><time>2026-04-09T15:30:11Z</time></trkpt><trkpt lat="44.690875062975394" lon="10.156975854408957"><ele>308.0</ele><time>2026-04-09T15:30:12Z</time></trkpt><trkpt lat="44.690937134250504" lon="10.157030068618168"><ele>308.0</ele><time>2026-04-09T15:30:13Z</time></trkpt><trkpt lat="44.69099684456162" lon="10.157089886343652"><ele>308.0</ele><time>2026-04-09T15:30:14Z</time></trkpt><trkpt lat="44.691053239406074" lon="10.157156147714034"><ele>308.0</ele><time>2026-04-09T15:30:15Z</time></trkpt><trkpt lat="44.69114734022468" lon="10.157255269922135"><ele>308.0</ele><time>2026-04-09T15:30:17Z</time></trkpt><trkpt lat="44.69119722742615" lon="10.157322250410587"><ele>308.0</ele><time>2026-04-09T15:30:20Z</time></trkpt><trkpt lat="44.69127068606324" lon="10.157409474388695"><ele>308.0</ele><time>2026-04-09T15:34:55Z</time></trkpt><trkpt lat="44.69131788446067" lon="10.15750523784374"><ele>308.0</ele><time>2026-04-09T15:34:56Z</time></trkpt><trkpt lat="44.691383286475855" lon="10.157599397411177"><ele>308.2</ele><time>2026-04-09T15:34:57Z</time></trkpt><trkpt lat="44.691453374960574" lon="10.157710644674141"><ele>308.4</ele><time>2026-04-09T15:34:58Z</time></trkpt><trkpt lat="44.691525574585235" lon="10.15782834864363"><ele>308.59999999999997</ele><time>2026-04-09T15:34:59Z</time></trkpt><trkpt lat="44.69159309051767" lon="10.157936754515088"><ele>308.8</ele><time>2026-04-09T15:35:00Z</time></trkpt><trkpt lat="44.69166857811808" lon="10.158038477165167"><ele>309.0</ele><time>2026-04-09T15:35:01Z</time></trkpt><trkpt lat="44.69171656891134" lon="10.158155027557005"><ele>309.6666666666667</ele><time>2026-04-09T15:35:02Z</time></trkpt><trkpt lat="44.69175502589584" lon="10.158266033497526"><ele>310.3333333333333</ele><time>2026-04-09T15:35:03Z</time></trkpt><trkpt lat="44.691776839113764" lon="10.158368890876364"><ele>311.0</ele><time>2026-04-09T15:35:04Z</time></trkpt><trkpt lat="44.69179415510792" lon="10.158474169209764"><ele>311.66666666666663</ele><time>2026-04-09T15:35:05Z</time></trkpt><trkpt lat="44.69180145739804" lon="10.158575568609688"><ele>312.3333333333333</ele><time>2026-04-09T15:35:07Z</time></trkpt><trkpt lat="44.69182385583003" lon="10.1587473068922"><ele>313.0</ele><time>2026-04-09T15:35:08Z</time></trkpt><trkpt lat="44.69184671441174" lon="10.158859596811721"><ele>313.0</ele><time>2026-04-09T15:35:09Z</time></trkpt><trkpt lat="44.69188570166476" lon="10.15898029583714"><ele>313.0</ele><time>2026-04-09T15:35:10Z</time></trkpt><trkpt lat="44.691932359457795" lon="10.159107515068671"><ele>313.0</ele><time>2026-04-09T15:35:11Z</time></trkpt><trkpt lat="44.6919866837529" lon="10.159231409762679"><ele>313.0</ele><time>2026-04-09T15:35:12Z</time></trkpt><trkpt lat="44.6920330254468" lon="10.15935390905591"><ele>313.0</ele><time>2026-04-09T15:35:13Z</time></trkpt><trkpt lat="44.692072255880426" lon="10.15945652666687"><ele>312.85714285714283</ele><time>2026-04-09T15:35:14Z</time></trkpt><trkpt lat="44.692105022002295" lon="10.159544456333697"><ele>312.7142857142857</ele><time>2026-04-09T15:35:15Z</time></trkpt><trkpt lat="44.69214389234902" lon="10.159620508966183"><ele>312.57142857142856</ele><time>2026-04-09T15:35:16Z</time></trkpt><trkpt lat="44.69219749742653" lon="10.159670504284522"><ele>312.42857142857144</ele><time>2026-04-09T15:35:17Z</time></trkpt><trkpt lat="44.69225749711816" lon="10.159710917702695"><ele>312.2857142857143</ele><time>2026-04-09T15:35:18Z</time></trkpt><trkpt lat="44.69232983011086" lon="10.159747838237035"><ele>312.14285714285717</ele><time>2026-04-09T15:35:19Z</time></trkpt><trkpt lat="44.6924165956782" lon="10.159774350956278"><ele>312.0</ele><time>2026-04-09T15:35:20Z</time></trkpt><trkpt lat="44.692494157689175" lon="10.15980201969977"><ele>312.0</ele><time>2026-04-09T15:35:21Z</time></trkpt><trkpt lat="44.69255714886242" lon="10.15982756480273"><ele>312.0</ele><time>2026-04-09T15:35:22Z</time></trkpt><trkpt lat="44.692638187226954" lon="10.15987928099221"><ele>312.0</ele><time>2026-04-09T15:35:24Z</time></trkpt><trkpt lat="44.692709157510706" lon="10.159931116704438"><ele>312.0</ele><time>2026-04-09T15:35:46Z</time></trkpt><trkpt lat="44.69276725913438" lon="10.159986993449403"><ele>312.0</ele><time>2026-04-09T15:35:48Z</time></trkpt><trkpt lat="44.69280350905948" lon="10.160081427861687"><ele>312.0</ele><time>2026-04-09T15:35:50Z</time></trkpt><trkpt lat="44.69288168905575" lon="10.160195700658623"><ele>309.0</ele><time>2026-04-09T15:35:52Z</time></trkpt><trkpt lat="44.69294489048068" lon="10.160277187583274"><ele>306.0</ele><time>2026-04-09T15:35:54Z</time></trkpt><trkpt lat="44.693330262669" lon="10.159942155013606"><ele>306.0</ele><time>2026-04-09T15:35:56Z</time></trkpt><trkpt lat="44.693394142497404" lon="10.159932242088658"><ele>306.0</ele><time>2026-04-09T15:35:57Z</time></trkpt><trkpt lat="44.69350019943521" lon="10.159913152019714"><ele>306.0</ele><time>2026-04-09T15:35:59Z</time></trkpt><trkpt lat="44.693597876853744" lon="10.159868666816543"><ele>306.0</ele><time>2026-04-09T15:36:01Z</time></trkpt><trkpt lat="44.69366066452454" lon="10.15983319511216"><ele>306.0</ele><time>2026-04-09T15:36:03Z</time></trkpt><trkpt lat="44.693719968982116" lon="10.159801825413554"><ele>306.0</ele><time>2026-04-09T15:37:08Z</time></trkpt><trkpt lat="44.69378623969453" lon="10.159768884036485"><ele>304.3333333333333</ele><time>2026-04-09T15:37:10Z</time></trkpt><trkpt lat="44.69387088153311" lon="10.159721798490134"><ele>302.6666666666667</ele><time>2026-04-09T15:37:13Z</time></trkpt><trkpt lat="44.69393174698898" lon="10.159693985198325"><ele>301.0</ele><time>2026-04-09T15:37:15Z</time></trkpt><trkpt lat="44.693993987055784" lon="10.159669931593498"><ele>299.33333333333337</ele><time>2026-04-09T15:37:17Z</time></trkpt><trkpt lat="44.694059285698906" lon="10.159638507670163"><ele>297.6666666666667</ele><time>2026-04-09T15:37:19Z</time></trkpt><trkpt lat="44.69412585899391" lon="10.159604396020594"><ele>296.0</ele><time>2026-04-09T15:37:21Z</time></trkpt><trkpt lat="44.694216825596286" lon="10.159576114577428"><ele>296.0</ele><time>2026-04-09T15:37:24Z</time></trkpt><trkpt lat="44.694290711237905" lon="10.159560589178188"><ele>296.0</ele><time>2026-04-09T15:37:26Z</time></trkpt><trkpt lat="44.694371543779006" lon="10.159520847062474"><ele>296.0</ele><time>2026-04-09T15:37:28Z</time></trkpt><trkpt lat="44.69443667802775" lon="10.159486807415043"><ele>296.0</ele><time>2026-04-09T15:37:30Z</time></trkpt><trkpt lat="44.694512301458516" lon="10.159447155953815"><ele>296.0</ele><time>2026-04-09T15:37:32Z</time></trkpt><trkpt lat="44.69459310896944" lon="10.159411979397388"><ele>296.0</ele><time>2026-04-09T15:37:34Z</time></trkpt><trkpt lat="44.694662002618735" lon="10.159387049065396"><ele>296.0</ele><time>2026-04-09T15:37:35.999Z</time></trkpt><trkpt lat="44.69473171507724" lon="10.159387636691726"><ele>296.0</ele><time>2026-04-09T15:37:37.999Z</time></trkpt><trkpt lat="44.6948298015601" lon="10.159409445043806"><ele>296.0</ele><time>2026-04-09T15:37:40.999Z</time></trkpt><trkpt lat="44.69491370862617" lon="10.159441102345639"><ele>296.0</ele><time>2026-04-09T15:37:42.999Z</time></trkpt><trkpt lat="44.69500909822446" lon="10.159507063576767"><ele>296.0</ele><time>2026-04-09T15:37:45Z</time></trkpt><trkpt lat="44.69510505808536" lon="10.159585421528496"><ele>296.0</ele><time>2026-04-09T15:37:47Z</time></trkpt><trkpt lat="44.695191432195216" lon="10.15965497054878"><ele>296.0</ele><time>2026-04-09T15:37:49Z</time></trkpt><trkpt lat="44.695269566039144" lon="10.159714831042464"><ele>296.0</ele><time>2026-04-09T15:37:51Z</time></trkpt><trkpt lat="44.695353041055526" lon="10.159780232545184"><ele>296.0</ele><time>2026-04-09T15:37:53Z</time></trkpt><trkpt lat="44.69544000976537" lon="10.159831741267643"><ele>296.0</ele><time>2026-04-09T15:37:55Z</time></trkpt><trkpt lat="44.69554916574058" lon="10.159852597810225"><ele>294.25</ele><time>2026-04-09T15:37:57Z</time></trkpt><trkpt lat="44.695657463725375" lon="10.159841751428464"><ele>292.5</ele><time>2026-04-09T15:37:59Z</time></trkpt><trkpt lat="44.69577843903686" lon="10.159808971233641"><ele>290.75</ele><time>2026-04-09T15:38:01Z</time></trkpt><trkpt lat="44.69588724748503" lon="10.159760328310762"><ele>289.0</ele><time>2026-04-09T15:38:03Z</time></trkpt><trkpt lat="44.696001739585384" lon="10.159684887075342"><ele>289.0</ele><time>2026-04-09T15:38:05Z</time></trkpt><trkpt lat="44.69606259838183" lon="10.159641534992502"><ele>289.0</ele><time>2026-04-09T15:38:06Z</time></trkpt><trkpt lat="44.69612356021358" lon="10.159612875357475"><ele>289.0</ele><time>2026-04-09T15:38:07Z</time></trkpt><trkpt lat="44.69622170672978" lon="10.15956770125524"><ele>289.0</ele><time>2026-04-09T15:38:09Z</time></trkpt><trkpt lat="44.69632587926025" lon="10.15953594284661"><ele>289.0</ele><time>2026-04-09T15:38:11Z</time></trkpt><trkpt lat="44.69646026474014" lon="10.15953863093923"><ele>287.42857142857144</ele><time>2026-04-09T15:38:13Z</time></trkpt><trkpt lat="44.696522023498204" lon="10.159561122067247"><ele>285.85714285714283</ele><time>2026-04-09T15:38:14Z</time></trkpt><trkpt lat="44.69659262052071" lon="10.159593338852916"><ele>284.2857142857143</ele><time>2026-04-09T15:38:15Z</time></trkpt><trkpt lat="44.696668104002875" lon="10.15963069622326"><ele>282.7142857142857</ele><time>2026-04-09T15:38:16Z</time></trkpt><trkpt lat="44.69673820532981" lon="10.159665102034909"><ele>281.14285714285717</ele><time>2026-04-09T15:38:17Z</time></trkpt><trkpt lat="44.69681076066789" lon="10.15970444867408"><ele>279.57142857142856</ele><time>2026-04-09T15:38:18Z</time></trkpt><trkpt lat="44.69687966978779" lon="10.159743598655593"><ele>278.0</ele><time>2026-04-09T15:38:19Z</time></trkpt><trkpt lat="44.696952977657766" lon="10.159788408143779"><ele>277.5</ele><time>2026-04-09T15:38:20Z</time></trkpt><trkpt lat="44.69701725743341" lon="10.159828420804548"><ele>277.0</ele><time>2026-04-09T15:38:21Z</time></trkpt><trkpt lat="44.69708954079509" lon="10.15987525032214"><ele>276.5</ele><time>2026-04-09T15:38:22Z</time></trkpt><trkpt lat="44.69715874845055" lon="10.159924872738838"><ele>276.0</ele><time>2026-04-09T15:38:23Z</time></trkpt><trkpt lat="44.69722169785523" lon="10.159972530483497"><ele>275.5</ele><time>2026-04-09T15:38:24Z</time></trkpt><trkpt lat="44.69728057758976" lon="10.160018332963658"><ele>275.0</ele><time>2026-04-09T15:38:25Z</time></trkpt><trkpt lat="44.69738228487245" lon="10.160097392123369"><ele>275.0</ele><time>2026-04-09T15:38:27Z</time></trkpt><trkpt lat="44.697482333658925" lon="10.160169356492222"><ele>275.0</ele><time>2026-04-09T15:38:29Z</time></trkpt><trkpt lat="44.69758854033622" lon="10.160248205636755"><ele>275.0</ele><time>2026-04-09T15:38:31Z</time></trkpt><trkpt lat="44.69766721234405" lon="10.160316497723391"><ele>275.0</ele><time>2026-04-09T15:38:33Z</time></trkpt><trkpt lat="44.69773509888971" lon="10.160351051316962"><ele>275.0</ele><time>2026-04-09T15:38:35Z</time></trkpt><trkpt lat="44.69785338128413" lon="10.160380439435965"><ele>274.6666666666667</ele><time>2026-04-09T15:38:37Z</time></trkpt><trkpt lat="44.69793789667371" lon="10.160390902263943"><ele>274.33333333333337</ele><time>2026-04-09T15:38:38Z</time></trkpt><trkpt lat="44.69801052022892" lon="10.160392327656272"><ele>274.0</ele><time>2026-04-09T15:38:39Z</time></trkpt><trkpt lat="44.69809471695759" lon="10.160402720906278"><ele>273.6666666666667</ele><time>2026-04-09T15:38:41Z</time></trkpt><trkpt lat="44.69819959067544" lon="10.160426147345738"><ele>273.3333333333333</ele><time>2026-04-09T15:38:43Z</time></trkpt><trkpt lat="44.69826668585989" lon="10.1604587826286"><ele>273.0</ele><time>2026-04-09T15:38:44Z</time></trkpt><trkpt lat="44.698335165141884" lon="10.160504760780807"><ele>273.0</ele><time>2026-04-09T15:38:45Z</time></trkpt><trkpt lat="44.69840911629981" lon="10.16056419537696"><ele>273.0</ele><time>2026-04-09T15:38:46Z</time></trkpt><trkpt lat="44.69848975049057" lon="10.160641524464687"><ele>273.0</ele><time>2026-04-09T15:38:47Z</time></trkpt><trkpt lat="44.69857486225399" lon="10.16072517893548"><ele>273.0</ele><time>2026-04-09T15:38:48Z</time></trkpt><trkpt lat="44.69866115763111" lon="10.160812989535904"><ele>273.0</ele><time>2026-04-09T15:38:49Z</time></trkpt><trkpt lat="44.69873952521712" lon="10.160896109004398"><ele>273.8</ele><time>2026-04-09T15:38:50Z</time></trkpt><trkpt lat="44.69883204633777" lon="10.161001927517667"><ele>274.6</ele><time>2026-04-09T15:38:51Z</time></trkpt><trkpt lat="44.69891399585229" lon="10.161102300396609"><ele>275.4</ele><time>2026-04-09T15:38:52Z</time></trkpt><trkpt lat="44.69900272150266" lon="10.161203491434211"><ele>276.2</ele><time>2026-04-09T15:38:53Z</time></trkpt><trkpt lat="44.69907923162398" lon="10.16128826449087"><ele>277.0</ele><time>2026-04-09T15:38:54Z</time></trkpt><trkpt lat="44.69915424986916" lon="10.16135913465185"><ele>277.0</ele><time>2026-04-09T15:38:55Z</time></trkpt><trkpt lat="44.69922653767855" lon="10.161422830273523"><ele>277.0</ele><time>2026-04-09T15:38:56Z</time></trkpt><trkpt lat="44.69929224781438" lon="10.161476829886134"><ele>277.0</ele><time>2026-04-09T15:38:57Z</time></trkpt><trkpt lat="44.699349287566534" lon="10.161526032727378"><ele>277.0</ele><time>2026-04-09T15:38:58Z</time></trkpt><trkpt lat="44.6994388421984" lon="10.161638466380447"><ele>277.0</ele><time>2026-04-09T15:39:00Z</time></trkpt><trkpt lat="44.69947817105484" lon="10.161717954681066"><ele>277.0</ele><time>2026-04-09T15:39:01Z</time></trkpt><trkpt lat="44.69951085816913" lon="10.161811469172275"><ele>276.16666666666663</ele><time>2026-04-09T15:39:02Z</time></trkpt><trkpt lat="44.69953673227834" lon="10.161913962076607"><ele>275.3333333333333</ele><time>2026-04-09T15:39:03Z</time></trkpt><trkpt lat="44.699563593496585" lon="10.162011511409538"><ele>274.5</ele><time>2026-04-09T15:39:04Z</time></trkpt><trkpt lat="44.699599096343796" lon="10.162114766746912"><ele>273.6666666666667</ele><time>2026-04-09T15:39:05Z</time></trkpt><trkpt lat="44.69964113506833" lon="10.162211563233893"><ele>272.83333333333337</ele><time>2026-04-09T15:39:06Z</time></trkpt><trkpt lat="44.69968167190356" lon="10.162302908398045"><ele>272.0</ele><time>2026-04-09T15:39:07Z</time></trkpt><trkpt lat="44.69971752057149" lon="10.162389036070078"><ele>271.99999999999994</ele><time>2026-04-09T15:39:08Z</time></trkpt><trkpt lat="44.69975271888526" lon="10.162473794467301"><ele>272.0</ele><time>2026-04-09T15:39:09Z</time></trkpt><trkpt lat="44.6997906473325" lon="10.162560487703738"><ele>272.0</ele><time>2026-04-09T15:39:10Z</time></trkpt><trkpt lat="44.699827894989326" lon="10.16264283915048"><ele>272.0</ele><time>2026-04-09T15:39:11Z</time></trkpt><trkpt lat="44.699867185517796" lon="10.162721928159302"><ele>272.0</ele><time>2026-04-09T15:39:12.001Z</time></trkpt><trkpt lat="44.69991103920586" lon="10.162810463071063"><ele>271.99999999999994</ele><time>2026-04-09T15:39:13.001Z</time></trkpt><trkpt lat="44.699947556264675" lon="10.162892656466273"><ele>272.0</ele><time>2026-04-09T15:39:14.001Z</time></trkpt><trkpt lat="44.69998456672388" lon="10.162971199340623"><ele>272.0</ele><time>2026-04-09T15:39:15.001Z</time></trkpt><trkpt lat="44.70002761570907" lon="10.163053625826468"><ele>272.0</ele><time>2026-04-09T15:39:16.001Z</time></trkpt><trkpt lat="44.70007237612898" lon="10.163141333328124"><ele>272.0</ele><time>2026-04-09T15:39:17.001Z</time></trkpt><trkpt lat="44.700122299843414" lon="10.163237416131714"><ele>272.0</ele><time>2026-04-09T15:39:18.001Z</time></trkpt><trkpt lat="44.700172161829336" lon="10.163336203630527"><ele>272.0</ele><time>2026-04-09T15:39:19.001Z</time></trkpt><trkpt lat="44.70022472659878" lon="10.163439371731164"><ele>272.0</ele><time>2026-04-09T15:39:20.001Z</time></trkpt><trkpt lat="44.70027454296162" lon="10.163538038992696"><ele>271.0</ele><time>2026-04-09T15:39:21.001Z</time></trkpt><trkpt lat="44.70031897272365" lon="10.163624290789702"><ele>270.0</ele><time>2026-04-09T15:39:22.001Z</time></trkpt><trkpt lat="44.70036221116056" lon="10.163711242318726"><ele>269.0</ele><time>2026-04-09T15:39:23.001Z</time></trkpt><trkpt lat="44.70041201127646" lon="10.163798147301831"><ele>268.0</ele><time>2026-04-09T15:39:24.001Z</time></trkpt><trkpt lat="44.70047312827984" lon="10.16388096447088"><ele>267.0</ele><time>2026-04-09T15:39:25.001Z</time></trkpt><trkpt lat="44.7005292150595" lon="10.163942735132197"><ele>266.0</ele><time>2026-04-09T15:39:26.001Z</time></trkpt><trkpt lat="44.700591984476056" lon="10.164005110121655"><ele>266.1666666666667</ele><time>2026-04-09T15:39:27.001Z</time></trkpt><trkpt lat="44.700654349988625" lon="10.164079943351048"><ele>266.33333333333337</ele><time>2026-04-09T15:39:28.001Z</time></trkpt><trkpt lat="44.700702781086044" lon="10.164158235930488"><ele>266.5</ele><time>2026-04-09T15:39:29.001Z</time></trkpt><trkpt lat="44.70074553412278" lon="10.16425674241381"><ele>266.6666666666667</ele><time>2026-04-09T15:39:30.001Z</time></trkpt><trkpt lat="44.70078553520207" lon="10.164359565921965"><ele>266.8333333333333</ele><time>2026-04-09T15:39:31.001Z</time></trkpt><trkpt lat="44.70081796549594" lon="10.16446839193861"><ele>267.0</ele><time>2026-04-09T15:39:32.001Z</time></trkpt><trkpt lat="44.70084908597364" lon="10.164574621107556"><ele>267.0</ele><time>2026-04-09T15:39:33.001Z</time></trkpt><trkpt lat="44.70087827140531" lon="10.164690251351058"><ele>267.0</ele><time>2026-04-09T15:39:34.001Z</time></trkpt><trkpt lat="44.700906162038514" lon="10.164801828339904"><ele>267.0</ele><time>2026-04-09T15:39:35.001Z</time></trkpt><trkpt lat="44.700927978668" lon="10.16489844399646"><ele>267.0</ele><time>2026-04-09T15:39:36.001Z</time></trkpt><trkpt lat="44.70094109580364" lon="10.164987118472533"><ele>267.0</ele><time>2026-04-09T15:39:37.001Z</time></trkpt><trkpt lat="44.700949601176205" lon="10.165087112003183"><ele>267.0</ele><time>2026-04-09T15:39:38.001Z</time></trkpt><trkpt lat="44.700966326840316" lon="10.165187431450619"><ele>265.6</ele><time>2026-04-09T15:39:39.001Z</time></trkpt><trkpt lat="44.70099861129632" lon="10.165297061510477"><ele>264.2</ele><time>2026-04-09T15:39:40.001Z</time></trkpt><trkpt lat="44.70103955733471" lon="10.16540592499928"><ele>262.8</ele><time>2026-04-09T15:39:41Z</time></trkpt><trkpt lat="44.70112371305383" lon="10.165527742355886"><ele>261.4</ele><time>2026-04-09T15:39:43Z</time></trkpt><trkpt lat="44.701191073189676" lon="10.165601108847017"><ele>260.0</ele><time>2026-04-09T15:39:44Z</time></trkpt><trkpt lat="44.701241331515035" lon="10.165685692502374"><ele>259.83333333333337</ele><time>2026-04-09T15:39:45Z</time></trkpt><trkpt lat="44.70130163197788" lon="10.16576731866891"><ele>259.6666666666667</ele><time>2026-04-09T15:39:46Z</time></trkpt><trkpt lat="44.701356278985116" lon="10.16585296345912"><ele>259.5</ele><time>2026-04-09T15:39:47Z</time></trkpt><trkpt lat="44.70139269794457" lon="10.165932787370076"><ele>259.3333333333333</ele><time>2026-04-09T15:39:48Z</time></trkpt><trkpt lat="44.70142937744039" lon="10.166006897486168"><ele>259.16666666666663</ele><time>2026-04-09T15:39:49Z</time></trkpt><trkpt lat="44.70152932286588" lon="10.166156498575516"><ele>259.0</ele><time>2026-04-09T15:39:51Z</time></trkpt><trkpt lat="44.70160228881322" lon="10.16626161100443"><ele>259.0</ele><time>2026-04-09T15:39:52Z</time></trkpt><trkpt lat="44.7016714134384" lon="10.166363124831875"><ele>259.0</ele><time>2026-04-09T15:39:53Z</time></trkpt><trkpt lat="44.701749061350114" lon="10.166460588726054"><ele>259.0</ele><time>2026-04-09T15:39:54Z</time></trkpt><trkpt lat="44.70181944567248" lon="10.166549641553216"><ele>259.0</ele><time>2026-04-09T15:39:55Z</time></trkpt><trkpt lat="44.70187576118622" lon="10.16662747297038"><ele>259.0</ele><time>2026-04-09T15:39:56Z</time></trkpt><trkpt lat="44.70195431688193" lon="10.166699718951103"><ele>260.0</ele><time>2026-04-09T15:39:57Z</time></trkpt><trkpt lat="44.70205586717386" lon="10.16677385266108"><ele>261.0</ele><time>2026-04-09T15:39:58Z</time></trkpt><trkpt lat="44.702164966239366" lon="10.166851732588356"><ele>262.0</ele><time>2026-04-09T15:39:59Z</time></trkpt><trkpt lat="44.70227876603349" lon="10.166925230592478"><ele>263.0</ele><time>2026-04-09T15:40:00Z</time></trkpt><trkpt lat="44.70238362240134" lon="10.166991374436606"><ele>263.0</ele><time>2026-04-09T15:40:01Z</time></trkpt><trkpt lat="44.70246895886957" lon="10.16705163390774"><ele>263.0</ele><time>2026-04-09T15:40:02Z</time></trkpt><trkpt lat="44.702551546607445" lon="10.167111004056213"><ele>263.0</ele><time>2026-04-09T15:40:03Z</time></trkpt><trkpt lat="44.70262939411853" lon="10.167161303821004"><ele>263.0</ele><time>2026-04-09T15:40:04Z</time></trkpt><trkpt lat="44.702705087617645" lon="10.16720639043095"><ele>263.0</ele><time>2026-04-09T15:40:05Z</time></trkpt><trkpt lat="44.70276829757606" lon="10.16724320467701"><ele>263.0</ele><time>2026-04-09T15:40:06Z</time></trkpt><trkpt lat="44.702868298211804" lon="10.167303387110742"><ele>264.8</ele><time>2026-04-09T15:40:08Z</time></trkpt><trkpt lat="44.70298424833945" lon="10.167372658092647"><ele>266.6</ele><time>2026-04-09T15:40:10Z</time></trkpt><trkpt lat="44.70306451811616" lon="10.167422602091179"><ele>268.4</ele><time>2026-04-09T15:40:11Z</time></trkpt><trkpt lat="44.703149275860504" lon="10.167485832777931"><ele>270.2</ele><time>2026-04-09T15:40:12Z</time></trkpt><trkpt lat="44.70324407816591" lon="10.167566829299599"><ele>272.0</ele><time>2026-04-09T15:40:13Z</time></trkpt><trkpt lat="44.70334864687764" lon="10.167666548473074"><ele>272.0</ele><time>2026-04-09T15:40:14Z</time></trkpt><trkpt lat="44.703450963582526" lon="10.167763921472876"><ele>272.0</ele><time>2026-04-09T15:40:15Z</time></trkpt><trkpt lat="44.70353657665288" lon="10.167849929454325"><ele>272.0</ele><time>2026-04-09T15:40:16Z</time></trkpt><trkpt lat="44.70362716906404" lon="10.167918340563759"><ele>272.0</ele><time>2026-04-09T15:40:17Z</time></trkpt><trkpt lat="44.703710579937216" lon="10.167966596194232"><ele>272.0</ele><time>2026-04-09T15:40:18Z</time></trkpt><trkpt lat="44.70379761822453" lon="10.16799861579865"><ele>271.85714285714283</ele><time>2026-04-09T15:40:19Z</time></trkpt><trkpt lat="44.7038726421078" lon="10.167999415051561"><ele>271.7142857142857</ele><time>2026-04-09T15:40:20Z</time></trkpt><trkpt lat="44.7039483195008" lon="10.167990903817424"><ele>271.57142857142856</ele><time>2026-04-09T15:40:21Z</time></trkpt><trkpt lat="44.704022455985964" lon="10.167990871655249"><ele>271.42857142857144</ele><time>2026-04-09T15:40:22Z</time></trkpt><trkpt lat="44.70408010198632" lon="10.168027387510545"><ele>271.2857142857143</ele><time>2026-04-09T15:40:23Z</time></trkpt><trkpt lat="44.70414900611167" lon="10.16805609284772"><ele>271.1428571428571</ele><time>2026-04-09T15:40:24Z</time></trkpt><trkpt lat="44.7042324133183" lon="10.168077119382438"><ele>271.0</ele><time>2026-04-09T15:40:25Z</time></trkpt><trkpt lat="44.704328244283964" lon="10.168118227298061"><ele>269.8</ele><time>2026-04-09T15:40:26Z</time></trkpt><trkpt lat="44.70442698344745" lon="10.168155612187174"><ele>268.6</ele><time>2026-04-09T15:40:27Z</time></trkpt><trkpt lat="44.704520891201646" lon="10.168190619954789"><ele>267.4</ele><time>2026-04-09T15:40:28.001Z</time></trkpt><trkpt lat="44.70461876533127" lon="10.1682258292516"><ele>266.2</ele><time>2026-04-09T15:40:29.001Z</time></trkpt><trkpt lat="44.70470932354854" lon="10.168262528012976"><ele>265.0</ele><time>2026-04-09T15:40:30.001Z</time></trkpt><trkpt lat="44.70479538303692" lon="10.168308499355932"><ele>265.0</ele><time>2026-04-09T15:40:31.001Z</time></trkpt><trkpt lat="44.704870097505626" lon="10.168373595805395"><ele>265.0</ele><time>2026-04-09T15:40:32.001Z</time></trkpt><trkpt lat="44.70493433012954" lon="10.168446905349406"><ele>265.0</ele><time>2026-04-09T15:40:33.001Z</time></trkpt><trkpt lat="44.70498529160073" lon="10.16852288262788"><ele>265.0</ele><time>2026-04-09T15:40:34.001Z</time></trkpt><trkpt lat="44.70503829391653" lon="10.168592693684982"><ele>265.0</ele><time>2026-04-09T15:40:35.001Z</time></trkpt><trkpt lat="44.70512193441475" lon="10.168695100675492"><ele>265.0</ele><time>2026-04-09T15:40:37.001Z</time></trkpt><trkpt lat="44.705180274060226" lon="10.168802162885306"><ele>265.0</ele><time>2026-04-09T15:40:39.001Z</time></trkpt><trkpt lat="44.705235165103716" lon="10.168972739184134"><ele>265.0</ele><time>2026-04-09T15:40:41.001Z</time></trkpt><trkpt lat="44.70525822862118" lon="10.169070913433481"><ele>265.0</ele><time>2026-04-09T15:40:42.001Z</time></trkpt><trkpt lat="44.705286361093385" lon="10.169169584888497"><ele>265.0</ele><time>2026-04-09T15:40:43.001Z</time></trkpt><trkpt lat="44.70532188506616" lon="10.169277896799848"><ele>265.0</ele><time>2026-04-09T15:40:44.001Z</time></trkpt><trkpt lat="44.705368769384414" lon="10.169392120431061"><ele>263.8</ele><time>2026-04-09T15:40:45.001Z</time></trkpt><trkpt lat="44.705422760096525" lon="10.169506488814482"><ele>262.6</ele><time>2026-04-09T15:40:46.001Z</time></trkpt><trkpt lat="44.70548589412076" lon="10.16962909160768"><ele>261.4</ele><time>2026-04-09T15:40:47.001Z</time></trkpt><trkpt lat="44.70555193637578" lon="10.169757643027806"><ele>260.2</ele><time>2026-04-09T15:40:48.001Z</time></trkpt><trkpt lat="44.705618864164826" lon="10.169882564543803"><ele>259.0</ele><time>2026-04-09T15:40:49.001Z</time></trkpt><trkpt lat="44.705684799439354" lon="10.170011617527843"><ele>258.0</ele><time>2026-04-09T15:40:50.001Z</time></trkpt><trkpt lat="44.70574987603359" lon="10.170145196480535"><ele>257.0</ele><time>2026-04-09T15:40:51.001Z</time></trkpt><trkpt lat="44.705812390105855" lon="10.170280565249156"><ele>256.0</ele><time>2026-04-09T15:40:52.001Z</time></trkpt><trkpt lat="44.70587094765645" lon="10.170409410570404"><ele>255.0</ele><time>2026-04-09T15:40:53.001Z</time></trkpt><trkpt lat="44.70592131617543" lon="10.170551669719236"><ele>253.5</ele><time>2026-04-09T15:40:54.001Z</time></trkpt><trkpt lat="44.70596519822603" lon="10.170697380717986"><ele>252.0</ele><time>2026-04-09T15:40:55.001Z</time></trkpt><trkpt lat="44.70598707256796" lon="10.170862415910044"><ele>250.5</ele><time>2026-04-09T15:40:56.001Z</time></trkpt><trkpt lat="44.706028857336264" lon="10.171031926757534"><ele>249.0</ele><time>2026-04-09T15:40:57.001Z</time></trkpt><trkpt lat="44.70605478168509" lon="10.171200774650824"><ele>248.6</ele><time>2026-04-09T15:40:58.001Z</time></trkpt><trkpt lat="44.706087740993325" lon="10.171346797844476"><ele>248.2</ele><time>2026-04-09T15:40:59.001Z</time></trkpt><trkpt lat="44.70613145548502" lon="10.17147833279805"><ele>247.79999999999998</ele><time>2026-04-09T15:41:00.001Z</time></trkpt><trkpt lat="44.70619762540561" lon="10.171602441573146"><ele>247.39999999999998</ele><time>2026-04-09T15:41:01.001Z</time></trkpt><trkpt lat="44.706277536592054" lon="10.171725538611062"><ele>247.0</ele><time>2026-04-09T15:41:02.001Z</time></trkpt><trkpt lat="44.7063552219473" lon="10.171846650443957"><ele>247.0</ele><time>2026-04-09T15:41:03.001Z</time></trkpt><trkpt lat="44.70643354532674" lon="10.171962445286473"><ele>247.0</ele><time>2026-04-09T15:41:04.001Z</time></trkpt><trkpt lat="44.70652386928906" lon="10.172061988676571"><ele>247.0</ele><time>2026-04-09T15:41:05.001Z</time></trkpt><trkpt lat="44.70662456330554" lon="10.17216426121589"><ele>247.0</ele><time>2026-04-09T15:41:06.001Z</time></trkpt><trkpt lat="44.70672835358692" lon="10.17226131021993"><ele>246.25</ele><time>2026-04-09T15:41:07.001Z</time></trkpt><trkpt lat="44.70683105863155" lon="10.172362296782675"><ele>245.5</ele><time>2026-04-09T15:41:08.001Z</time></trkpt><trkpt lat="44.70693269842479" lon="10.172457352691207"><ele>244.75</ele><time>2026-04-09T15:41:09.001Z</time></trkpt><trkpt lat="44.70703165207538" lon="10.172548327132652"><ele>244.0</ele><time>2026-04-09T15:41:10.001Z</time></trkpt><trkpt lat="44.70712796086438" lon="10.172635880771004"><ele>244.0</ele><time>2026-04-09T15:41:11.001Z</time></trkpt><trkpt lat="44.707208936525966" lon="10.172709567119664"><ele>243.99999999999997</ele><time>2026-04-09T15:41:12.001Z</time></trkpt><trkpt lat="44.707293079065636" lon="10.17277827222886"><ele>243.99999999999997</ele><time>2026-04-09T15:41:13.001Z</time></trkpt><trkpt lat="44.70738618080117" lon="10.172863883649715"><ele>244.0</ele><time>2026-04-09T15:41:14.001Z</time></trkpt><trkpt lat="44.70746927521689" lon="10.172981721676305"><ele>244.0</ele><time>2026-04-09T15:41:15.001Z</time></trkpt><trkpt lat="44.70755616685188" lon="10.17310051614453"><ele>244.2</ele><time>2026-04-09T15:41:16.001Z</time></trkpt><trkpt lat="44.70765237977573" lon="10.173209296966316"><ele>244.39999999999998</ele><time>2026-04-09T15:41:17.001Z</time></trkpt><trkpt lat="44.70772589888502" lon="10.173325788145634"><ele>244.6</ele><time>2026-04-09T15:41:18.001Z</time></trkpt><trkpt lat="44.70779587624799" lon="10.173432007850582"><ele>244.8</ele><time>2026-04-09T15:41:19.001Z</time></trkpt><trkpt lat="44.70785175285282" lon="10.173551862454413"><ele>245.0</ele><time>2026-04-09T15:41:20.001Z</time></trkpt><trkpt lat="44.70793247177199" lon="10.173658197222414"><ele>245.0</ele><time>2026-04-09T15:41:21.001Z</time></trkpt><trkpt lat="44.7079973394142" lon="10.173786263430049"><ele>245.0</ele><time>2026-04-09T15:41:22.001Z</time></trkpt><trkpt lat="44.70805268033758" lon="10.173907637596562"><ele>245.0</ele><time>2026-04-09T15:41:23.001Z</time></trkpt><trkpt lat="44.708080952502705" lon="10.174025489313848"><ele>245.0</ele><time>2026-04-09T15:41:24.001Z</time></trkpt><trkpt lat="44.708121037110864" lon="10.174129174909226"><ele>245.0</ele><time>2026-04-09T15:41:25.001Z</time></trkpt><trkpt lat="44.70816876415886" lon="10.174247240793955"><ele>245.50000000000003</ele><time>2026-04-09T15:41:26.001Z</time></trkpt><trkpt lat="44.708217469635024" lon="10.17436506499937"><ele>246.0</ele><time>2026-04-09T15:41:27.001Z</time></trkpt><trkpt lat="44.70827014356672" lon="10.174482915934664"><ele>246.5</ele><time>2026-04-09T15:41:28.001Z</time></trkpt><trkpt lat="44.70833130610489" lon="10.174567691705445"><ele>247.0</ele><time>2026-04-09T15:41:29.001Z</time></trkpt><trkpt lat="44.708372010318854" lon="10.174659831036161"><ele>247.50000000000003</ele><time>2026-04-09T15:41:30.001Z</time></trkpt><trkpt lat="44.708414266906594" lon="10.17473475574667"><ele>248.0</ele><time>2026-04-09T15:41:31.001Z</time></trkpt><trkpt lat="44.708461375178686" lon="10.174809536799124"><ele>248.0</ele><time>2026-04-09T15:41:32.001Z</time></trkpt><trkpt lat="44.70850192957102" lon="10.174878102642118"><ele>248.00000000000003</ele><time>2026-04-09T15:41:33.001Z</time></trkpt><trkpt lat="44.708547031990406" lon="10.174949531250132"><ele>248.0</ele><time>2026-04-09T15:41:34.001Z</time></trkpt><trkpt lat="44.708595316379" lon="10.175024466911852"><ele>248.0</ele><time>2026-04-09T15:41:35.001Z</time></trkpt><trkpt lat="44.70865038312393" lon="10.175105533136218"><ele>248.00000000000003</ele><time>2026-04-09T15:41:36.001Z</time></trkpt><trkpt lat="44.708697023633235" lon="10.175186572122907"><ele>248.0</ele><time>2026-04-09T15:41:37.001Z</time></trkpt><trkpt lat="44.708749038575256" lon="10.175274766856772"><ele>248.0</ele><time>2026-04-09T15:41:38.001Z</time></trkpt><trkpt lat="44.70879360308627" lon="10.175352480455711"><ele>246.85714285714286</ele><time>2026-04-09T15:41:39.001Z</time></trkpt><trkpt lat="44.70883014781023" lon="10.175424914884918"><ele>245.71428571428572</ele><time>2026-04-09T15:41:40.001Z</time></trkpt><trkpt lat="44.708861563137454" lon="10.175539581895515"><ele>244.57142857142858</ele><time>2026-04-09T15:41:41.001Z</time></trkpt><trkpt lat="44.70891076714816" lon="10.17561699915949"><ele>243.42857142857144</ele><time>2026-04-09T15:41:42.001Z</time></trkpt><trkpt lat="44.70894822729679" lon="10.17570573827217"><ele>242.28571428571428</ele><time>2026-04-09T15:41:43.001Z</time></trkpt><trkpt lat="44.708969272430146" lon="10.17579613501195"><ele>241.14285714285717</ele><time>2026-04-09T15:41:44.001Z</time></trkpt><trkpt lat="44.70900533804402" lon="10.175880265392474"><ele>240.0</ele><time>2026-04-09T15:41:45.001Z</time></trkpt><trkpt lat="44.709042549765456" lon="10.17596706929629"><ele>240.0</ele><time>2026-04-09T15:41:46.001Z</time></trkpt><trkpt lat="44.709092587158096" lon="10.176030728959402"><ele>240.0</ele><time>2026-04-09T15:41:47.001Z</time></trkpt><trkpt lat="44.70915259777637" lon="10.176147226200241"><ele>240.0</ele><time>2026-04-09T15:41:49.001Z</time></trkpt><trkpt lat="44.70920829323683" lon="10.176262267557542"><ele>240.0</ele><time>2026-04-09T15:41:51.001Z</time></trkpt><trkpt lat="44.709273923581705" lon="10.176375832859629"><ele>240.0</ele><time>2026-04-09T15:41:53.001Z</time></trkpt><trkpt lat="44.709338387650206" lon="10.176490424024108"><ele>239.8</ele><time>2026-04-09T15:41:55.001Z</time></trkpt><trkpt lat="44.70940235280216" lon="10.176590045510748"><ele>239.6</ele><time>2026-04-09T15:41:57.001Z</time></trkpt><trkpt lat="44.70946351182008" lon="10.176687233108112"><ele>239.39999999999998</ele><time>2026-04-09T15:41:59.001Z</time></trkpt><trkpt lat="44.70951174814593" lon="10.176802102758833"><ele>239.2</ele><time>2026-04-09T15:42:01.001Z</time></trkpt><trkpt lat="44.70955853201163" lon="10.17692632610659"><ele>239.0</ele><time>2026-04-09T15:42:03.001Z</time></trkpt><trkpt lat="44.70960345333325" lon="10.177055003344163"><ele>235.2</ele><time>2026-04-09T15:42:05.001Z</time></trkpt><trkpt lat="44.709657121452466" lon="10.177206590038223"><ele>231.39999999999998</ele><time>2026-04-09T15:42:07.001Z</time></trkpt><trkpt lat="44.70969782849741" lon="10.177304454369853"><ele>227.6</ele><time>2026-04-09T15:42:08.001Z</time></trkpt><trkpt lat="44.709749448800395" lon="10.177412000194275"><ele>223.8</ele><time>2026-04-09T15:42:09.001Z</time></trkpt><trkpt lat="44.709817553708795" lon="10.177527452812212"><ele>220.0</ele><time>2026-04-09T15:42:10.001Z</time></trkpt><trkpt lat="44.7098949261343" lon="10.177633423105581"><ele>220.0</ele><time>2026-04-09T15:42:11.001Z</time></trkpt><trkpt lat="44.70996939774576" lon="10.177729696856144"><ele>220.0</ele><time>2026-04-09T15:42:12.001Z</time></trkpt><trkpt lat="44.710035261597945" lon="10.177810945201532"><ele>220.0</ele><time>2026-04-09T15:42:13.001Z</time></trkpt><trkpt lat="44.71009176347237" lon="10.17787203726141"><ele>220.0</ele><time>2026-04-09T15:42:14.001Z</time></trkpt><trkpt lat="44.71017371259933" lon="10.177996995650469"><ele>220.0</ele><time>2026-04-09T15:42:16.001Z</time></trkpt><trkpt lat="44.710286159250984" lon="10.178115123465451"><ele>219.0</ele><time>2026-04-09T15:42:18.001Z</time></trkpt><trkpt lat="44.71035509210914" lon="10.178203104906823"><ele>218.0</ele><time>2026-04-09T15:42:19.001Z</time></trkpt><trkpt lat="44.71043277627702" lon="10.17829275020142"><ele>217.0</ele><time>2026-04-09T15:42:20.001Z</time></trkpt><trkpt lat="44.71052250342772" lon="10.178388094425836"><ele>216.0</ele><time>2026-04-09T15:42:21.001Z</time></trkpt><trkpt lat="44.71060746566643" lon="10.178476538140256"><ele>215.0</ele><time>2026-04-09T15:42:22.001Z</time></trkpt><trkpt lat="44.710685056187714" lon="10.178561241073158"><ele>215.0</ele><time>2026-04-09T15:42:23.001Z</time></trkpt><trkpt lat="44.71075765971855" lon="10.178655305031647"><ele>215.0</ele><time>2026-04-09T15:42:24.001Z</time></trkpt><trkpt lat="44.71082357390738" lon="10.17874610279491"><ele>215.0</ele><time>2026-04-09T15:42:25.001Z</time></trkpt><trkpt lat="44.710884229403355" lon="10.178840979562594"><ele>215.0</ele><time>2026-04-09T15:42:26.001Z</time></trkpt><trkpt lat="44.71094542727151" lon="10.178950594980744"><ele>215.0</ele><time>2026-04-09T15:42:27.001Z</time></trkpt><trkpt lat="44.71100287914971" lon="10.179056271840368"><ele>215.6</ele><time>2026-04-09T15:42:28.001Z</time></trkpt><trkpt lat="44.71105925997068" lon="10.179166460430277"><ele>216.2</ele><time>2026-04-09T15:42:29.001Z</time></trkpt><trkpt lat="44.71111393431451" lon="10.179273464677896"><ele>216.8</ele><time>2026-04-09T15:42:30.001Z</time></trkpt><trkpt lat="44.71116868250517" lon="10.17938223807529"><ele>217.4</ele><time>2026-04-09T15:42:31.001Z</time></trkpt><trkpt lat="44.71123113242463" lon="10.179477907099875"><ele>218.0</ele><time>2026-04-09T15:42:32.001Z</time></trkpt><trkpt lat="44.71129398421597" lon="10.179580836187636"><ele>216.4</ele><time>2026-04-09T15:42:33.001Z</time></trkpt><trkpt lat="44.711382070750766" lon="10.179648238684278"><ele>214.8</ele><time>2026-04-09T15:42:34.001Z</time></trkpt><trkpt lat="44.711487890535075" lon="10.17968573426434"><ele>213.2</ele><time>2026-04-09T15:42:35.001Z</time></trkpt><trkpt lat="44.71159655501683" lon="10.179707161333093"><ele>211.6</ele><time>2026-04-09T15:42:36.001Z</time></trkpt><trkpt lat="44.71171218564892" lon="10.179700515226092"><ele>210.0</ele><time>2026-04-09T15:42:37.001Z</time></trkpt><trkpt lat="44.71182499130966" lon="10.179716587003382"><ele>206.8</ele><time>2026-04-09T15:42:38.001Z</time></trkpt><trkpt lat="44.71193586958328" lon="10.17974374770166"><ele>203.6</ele><time>2026-04-09T15:42:39.001Z</time></trkpt><trkpt lat="44.71204493375716" lon="10.179768237482925"><ele>200.39999999999998</ele><time>2026-04-09T15:42:40.001Z</time></trkpt><trkpt lat="44.71215274927931" lon="10.179816771968246"><ele>197.2</ele><time>2026-04-09T15:42:41.001Z</time></trkpt><trkpt lat="44.7122608575118" lon="10.179843562749822"><ele>194.0</ele><time>2026-04-09T15:42:42.001Z</time></trkpt><trkpt lat="44.712370469014864" lon="10.17987072606351"><ele>193.2</ele><time>2026-04-09T15:42:43.001Z</time></trkpt><trkpt lat="44.712481420446416" lon="10.179875357171616"><ele>192.39999999999998</ele><time>2026-04-09T15:42:44.001Z</time></trkpt><trkpt lat="44.71259026316254" lon="10.179900955295269"><ele>191.6</ele><time>2026-04-09T15:42:45.001Z</time></trkpt><trkpt lat="44.71269124431573" lon="10.17992660955948"><ele>190.8</ele><time>2026-04-09T15:42:46.001Z</time></trkpt><trkpt lat="44.71278502537642" lon="10.179941074866196"><ele>190.0</ele><time>2026-04-09T15:42:47.001Z</time></trkpt><trkpt lat="44.71287424803357" lon="10.179978125554939"><ele>187.5</ele><time>2026-04-09T15:42:48.001Z</time></trkpt><trkpt lat="44.71296442592593" lon="10.179992610125119"><ele>185.0</ele><time>2026-04-09T15:42:49.001Z</time></trkpt><trkpt lat="44.71305161177044" lon="10.18000372575679"><ele>182.5</ele><time>2026-04-09T15:42:50.001Z</time></trkpt><trkpt lat="44.71313416669357" lon="10.180011486452289"><ele>180.0</ele><time>2026-04-09T15:42:51.001Z</time></trkpt><trkpt lat="44.713217040652765" lon="10.179994566508906"><ele>177.5</ele><time>2026-04-09T15:42:52.001Z</time></trkpt><trkpt lat="44.71329123752411" lon="10.179999784853361"><ele>175.0</ele><time>2026-04-09T15:42:53.001Z</time></trkpt><trkpt lat="44.713362682639016" lon="10.180004330901543"><ele>175.0</ele><time>2026-04-09T15:42:54.001Z</time></trkpt><trkpt lat="44.71345141421857" lon="10.180044543648624"><ele>175.0</ele><time>2026-04-09T15:42:56.001Z</time></trkpt><trkpt lat="44.713469352672305" lon="10.180179129095967"><ele>175.0</ele><time>2026-04-09T15:42:58.001Z</time></trkpt><trkpt lat="44.71344332871722" lon="10.180284898194019"><ele>175.0</ele><time>2026-04-09T15:42:59.001Z</time></trkpt><trkpt lat="44.71339334844196" lon="10.18038508562695"><ele>175.0</ele><time>2026-04-09T15:43:00.001Z</time></trkpt><trkpt lat="44.71335363524902" lon="10.180471823089785"><ele>175.0</ele><time>2026-04-09T15:43:01.001Z</time></trkpt><trkpt lat="44.713319518599995" lon="10.18056723506983"><ele>175.0</ele><time>2026-04-09T15:43:02.001Z</time></trkpt><trkpt lat="44.71328993639635" lon="10.18066113019703"><ele>175.0</ele><time>2026-04-09T15:43:03.001Z</time></trkpt><trkpt lat="44.71327257401391" lon="10.180760442120853"><ele>175.0</ele><time>2026-04-09T15:43:04.001Z</time></trkpt><trkpt lat="44.71327747400823" lon="10.180870598126921"><ele>175.0</ele><time>2026-04-09T15:43:05.001Z</time></trkpt><trkpt lat="44.713313664187375" lon="10.180971792462232"><ele>175.0</ele><time>2026-04-09T15:43:06.001Z</time></trkpt><trkpt lat="44.713366979617994" lon="10.1810626622078"><ele>175.0</ele><time>2026-04-09T15:43:07.001Z</time></trkpt><trkpt lat="44.71343554219597" lon="10.181139571781307"><ele>173.83333333333334</ele><time>2026-04-09T15:43:08.001Z</time></trkpt><trkpt lat="44.71350695627041" lon="10.18121341713078"><ele>172.66666666666669</ele><time>2026-04-09T15:43:09.001Z</time></trkpt><trkpt lat="44.71357094140059" lon="10.181282891701768"><ele>171.5</ele><time>2026-04-09T15:43:10.001Z</time></trkpt><trkpt lat="44.71363278288186" lon="10.18136249603342"><ele>170.33333333333334</ele><time>2026-04-09T15:43:11.001Z</time></trkpt><trkpt lat="44.71368781045403" lon="10.181462710181552"><ele>169.16666666666666</ele><time>2026-04-09T15:43:12.001Z</time></trkpt><trkpt lat="44.71371042183956" lon="10.181588794873498"><ele>168.0</ele><time>2026-04-09T15:43:13.001Z</time></trkpt><trkpt lat="44.71372057421453" lon="10.181722690320843"><ele>164.8</ele><time>2026-04-09T15:43:14.001Z</time></trkpt><trkpt lat="44.71374416873286" lon="10.181853062204292"><ele>161.60000000000002</ele><time>2026-04-09T15:43:15.001Z</time></trkpt><trkpt lat="44.713737948122045" lon="10.181977899829901"><ele>158.39999999999998</ele><time>2026-04-09T15:43:16.001Z</time></trkpt><trkpt lat="44.71372663643967" lon="10.182097456753375"><ele>155.2</ele><time>2026-04-09T15:43:17.001Z</time></trkpt><trkpt lat="44.71370572899367" lon="10.182213825786848"><ele>152.0</ele><time>2026-04-09T15:43:18.001Z</time></trkpt><trkpt lat="44.71366700532027" lon="10.182339710533281"><ele>152.0</ele><time>2026-04-09T15:43:19.001Z</time></trkpt><trkpt lat="44.7136196553536" lon="10.182452536028265"><ele>152.0</ele><time>2026-04-09T15:43:20.001Z</time></trkpt><trkpt lat="44.71355839432802" lon="10.182547221867456"><ele>152.0</ele><time>2026-04-09T15:43:21.001Z</time></trkpt><trkpt lat="44.71352300071951" lon="10.182665154095838"><ele>152.0</ele><time>2026-04-09T15:43:22.001Z</time></trkpt><trkpt lat="44.71346617043065" lon="10.182781749062574"><ele>152.0</ele><time>2026-04-09T15:43:23.001Z</time></trkpt><trkpt lat="44.713420972060916" lon="10.182907065091072"><ele>151.66666666666666</ele><time>2026-04-09T15:43:24.001Z</time></trkpt><trkpt lat="44.713378746371085" lon="10.18301844216061"><ele>151.33333333333331</ele><time>2026-04-09T15:43:25.001Z</time></trkpt><trkpt lat="44.713335390590245" lon="10.183114484718551"><ele>151.0</ele><time>2026-04-09T15:43:26.001Z</time></trkpt><trkpt lat="44.713297156286" lon="10.183199082850114"><ele>150.66666666666666</ele><time>2026-04-09T15:43:27.001Z</time></trkpt><trkpt lat="44.713243541061274" lon="10.18332644859305"><ele>150.33333333333334</ele><time>2026-04-09T15:43:29.001Z</time></trkpt><trkpt lat="44.71320020627722" lon="10.183430825768012"><ele>150.0</ele><time>2026-04-09T15:43:31.001Z</time></trkpt><trkpt lat="44.71318006974348" lon="10.183522540961334"><ele>150.0</ele><time>2026-04-09T15:43:33.001Z</time></trkpt><trkpt lat="44.71314821803915" lon="10.183612427165937"><ele>150.0</ele><time>2026-04-09T15:43:52.001Z</time></trkpt><trkpt lat="44.71306360282083" lon="10.183621712112796"><ele>150.0</ele><time>2026-04-09T15:44:13.001Z</time></trkpt><trkpt lat="44.71298996953593" lon="10.183618102287044"><ele>150.0</ele><time>2026-04-09T15:44:14.001Z</time></trkpt><trkpt lat="44.712891272470756" lon="10.183618696333179"><ele>150.0</ele><time>2026-04-09T15:44:15.001Z</time></trkpt><trkpt lat="44.71279219219768" lon="10.183630432708187"><ele>150.0</ele><time>2026-04-09T15:44:16.001Z</time></trkpt><trkpt lat="44.71270871102931" lon="10.183640321324331"><ele>152.66666666666666</ele><time>2026-04-09T15:44:17.001Z</time></trkpt><trkpt lat="44.712527742908236" lon="10.183642695175633"><ele>155.33333333333331</ele><time>2026-04-09T15:44:18.001Z</time></trkpt><trkpt lat="44.71238476918957" lon="10.183665728881067"><ele>158.0</ele><time>2026-04-09T15:44:19.001Z</time></trkpt><trkpt lat="44.71223579646066" lon="10.183691666241483"><ele>158.0</ele><time>2026-04-09T15:44:20.001Z</time></trkpt><trkpt lat="44.71211601312917" lon="10.183713046049448"><ele>158.0</ele><time>2026-04-09T15:44:21.001Z</time></trkpt><trkpt lat="44.71198399894033" lon="10.183723649588519"><ele>158.0</ele><time>2026-04-09T15:44:22.001Z</time></trkpt><trkpt lat="44.71184525954116" lon="10.18372136209981"><ele>158.0</ele><time>2026-04-09T15:44:23.001Z</time></trkpt><trkpt lat="44.71171046043156" lon="10.183706935156083"><ele>158.33333333333331</ele><time>2026-04-09T15:44:24.001Z</time></trkpt><trkpt lat="44.711560499698784" lon="10.183679124334112"><ele>158.66666666666666</ele><time>2026-04-09T15:44:25.001Z</time></trkpt><trkpt lat="44.71140691620173" lon="10.183614168194747"><ele>159.0</ele><time>2026-04-09T15:44:26.001Z</time></trkpt><trkpt lat="44.71125292666038" lon="10.183572703322943"><ele>159.0</ele><time>2026-04-09T15:44:27.001Z</time></trkpt><trkpt lat="44.711091125883144" lon="10.18352814511069"><ele>159.0</ele><time>2026-04-09T15:44:28.001Z</time></trkpt><trkpt lat="44.710908886084326" lon="10.183478123485648"><ele>159.0</ele><time>2026-04-09T15:44:29.001Z</time></trkpt><trkpt lat="44.7107234936535" lon="10.183428010041892"><ele>158.33333333333334</ele><time>2026-04-09T15:44:30.001Z</time></trkpt><trkpt lat="44.71052718610787" lon="10.18337438755572"><ele>157.66666666666669</ele><time>2026-04-09T15:44:31.001Z</time></trkpt><trkpt lat="44.710290908267666" lon="10.183311410297145"><ele>157.0</ele><time>2026-04-09T15:44:32.001Z</time></trkpt><trkpt lat="44.71009677488105" lon="10.183262324649668"><ele>156.33333333333334</ele><time>2026-04-09T15:44:33.001Z</time></trkpt><trkpt lat="44.709937977954866" lon="10.183216314731823"><ele>155.66666666666666</ele><time>2026-04-09T15:44:34.001Z</time></trkpt><trkpt lat="44.70979659744079" lon="10.18317499623672"><ele>155.0</ele><time>2026-04-09T15:44:35.001Z</time></trkpt><trkpt lat="44.70965353368798" lon="10.183114776618797"><ele>154.75</ele><time>2026-04-09T15:44:36.001Z</time></trkpt><trkpt lat="44.70950693986408" lon="10.183105864130019"><ele>154.5</ele><time>2026-04-09T15:44:37.001Z</time></trkpt><trkpt lat="44.70936395311953" lon="10.183128589626078"><ele>154.25</ele><time>2026-04-09T15:44:38.001Z</time></trkpt><trkpt lat="44.709218247150204" lon="10.183172530355945"><ele>154.0</ele><time>2026-04-09T15:44:39.001Z</time></trkpt><trkpt lat="44.709088612881395" lon="10.183229701044803"><ele>154.0</ele><time>2026-04-09T15:44:40.001Z</time></trkpt><trkpt lat="44.70894790871352" lon="10.183289135299239"><ele>154.0</ele><time>2026-04-09T15:44:41.001Z</time></trkpt><trkpt lat="44.708810996417576" lon="10.18334694616312"><ele>154.0</ele><time>2026-04-09T15:44:42.001Z</time></trkpt><trkpt lat="44.708643464941886" lon="10.183379339471115"><ele>154.25</ele><time>2026-04-09T15:44:43.001Z</time></trkpt><trkpt lat="44.708494528018996" lon="10.183375139890474"><ele>154.5</ele><time>2026-04-09T15:44:44.001Z</time></trkpt><trkpt lat="44.70839824146487" lon="10.183369045804298"><ele>154.75</ele><time>2026-04-09T15:44:45.001Z</time></trkpt><trkpt lat="44.708273343803235" lon="10.183363372189191"><ele>155.0</ele><time>2026-04-09T15:44:46.001Z</time></trkpt><trkpt lat="44.70813615418506" lon="10.183391935970187"><ele>155.0</ele><time>2026-04-09T15:44:47.001Z</time></trkpt><trkpt lat="44.70800024937508" lon="10.183494716024112"><ele>155.0</ele><time>2026-04-09T15:44:48.001Z</time></trkpt><trkpt lat="44.707880399872835" lon="10.183594683454162"><ele>155.0</ele><time>2026-04-09T15:44:49.001Z</time></trkpt><trkpt lat="44.7077567098536" lon="10.183691838159117"><ele>155.0</ele><time>2026-04-09T15:44:50.001Z</time></trkpt><trkpt lat="44.70762057158501" lon="10.183770781082279"><ele>154.75</ele><time>2026-04-09T15:44:51.001Z</time></trkpt><trkpt lat="44.70748265218327" lon="10.183822198143309"><ele>154.5</ele><time>2026-04-09T15:44:52.001Z</time></trkpt><trkpt lat="44.70735126097196" lon="10.183840932271123"><ele>154.25</ele><time>2026-04-09T15:44:53.001Z</time></trkpt><trkpt lat="44.70723686907343" lon="10.183836829925104"><ele>154.0</ele><time>2026-04-09T15:44:54.001Z</time></trkpt><trkpt lat="44.707158604901906" lon="10.183785605735741"><ele>154.0</ele><time>2026-04-09T15:44:55.001Z</time></trkpt><trkpt lat="44.707075791776305" lon="10.183700815394262"><ele>154.0</ele><time>2026-04-09T15:44:56.001Z</time></trkpt><trkpt lat="44.70701180180285" lon="10.183598843900178"><ele>154.0</ele><time>2026-04-09T15:44:57.001Z</time></trkpt><trkpt lat="44.70694603414951" lon="10.183485881809188"><ele>154.0</ele><time>2026-04-09T15:44:58.001Z</time></trkpt><trkpt lat="44.70686450383057" lon="10.183332506113848"><ele>154.0</ele><time>2026-04-09T15:44:59.001Z</time></trkpt><trkpt lat="44.70679878995471" lon="10.183142721248696"><ele>154.33333333333334</ele><time>2026-04-09T15:45:00.001Z</time></trkpt><trkpt lat="44.70674205960356" lon="10.182944835750101"><ele>154.66666666666666</ele><time>2026-04-09T15:45:01.001Z</time></trkpt><trkpt lat="44.70668880024516" lon="10.182710546078114"><ele>155.0</ele><time>2026-04-09T15:45:02.001Z</time></trkpt><trkpt lat="44.70663477816353" lon="10.18247824943426"><ele>155.0</ele><time>2026-04-09T15:45:03.001Z</time></trkpt><trkpt lat="44.70658073702704" lon="10.18225592360457"><ele>155.0</ele><time>2026-04-09T15:45:04.001Z</time></trkpt><trkpt lat="44.70653868422943" lon="10.182054134931478"><ele>155.0</ele><time>2026-04-09T15:45:05.001Z</time></trkpt><trkpt lat="44.70651977298728" lon="10.181849725673098"><ele>155.0</ele><time>2026-04-09T15:45:06.001Z</time></trkpt><trkpt lat="44.70651774199666" lon="10.181644441753976"><ele>155.0</ele><time>2026-04-09T15:45:07.001Z</time></trkpt><trkpt lat="44.70652536153301" lon="10.181437288123279"><ele>155.0</ele><time>2026-04-09T15:45:08.001Z</time></trkpt><trkpt lat="44.706535344567506" lon="10.181258773115028"><ele>155.0</ele><time>2026-04-09T15:45:09.001Z</time></trkpt><trkpt lat="44.70651962431104" lon="10.181096326374758"><ele>155.5</ele><time>2026-04-09T15:45:10.001Z</time></trkpt><trkpt lat="44.70650778947076" lon="10.180949150716806"><ele>156.0</ele><time>2026-04-09T15:45:11.001Z</time></trkpt><trkpt lat="44.70648554072409" lon="10.180823206795306"><ele>156.5</ele><time>2026-04-09T15:45:12.001Z</time></trkpt><trkpt lat="44.706452670466945" lon="10.180711905715507"><ele>157.0</ele><time>2026-04-09T15:45:13.001Z</time></trkpt><trkpt lat="44.70640669207263" lon="10.180635972927284"><ele>157.5</ele><time>2026-04-09T15:45:14.001Z</time></trkpt><trkpt lat="44.70634521297803" lon="10.180570577146707"><ele>158.0</ele><time>2026-04-09T15:45:16.001Z</time></trkpt><trkpt lat="44.70627113667869" lon="10.180656618067497"><ele>158.0</ele><time>2026-04-09T15:45:17.001Z</time></trkpt><trkpt lat="44.706206935494926" lon="10.180746623047684"><ele>158.0</ele><time>2026-04-09T15:45:20.001Z</time></trkpt><trkpt lat="44.706148907165826" lon="10.180792469991191"><ele>158.0</ele><time>2026-04-09T15:45:22.001Z</time></trkpt><trkpt lat="44.706049637689844" lon="10.180822152117187"><ele>158.0</ele><time>2026-04-09T15:45:40.001Z</time></trkpt><trkpt lat="44.70596080636094" lon="10.180748370863597"><ele>158.0</ele><time>2026-04-09T15:45:42.001Z</time></trkpt><trkpt lat="44.70585984050348" lon="10.180678750462352"><ele>158.5</ele><time>2026-04-09T15:45:44.001Z</time></trkpt><trkpt lat="44.70577846835834" lon="10.180646239260005"><ele>159.0</ele><time>2026-04-09T15:45:45.001Z</time></trkpt><trkpt lat="44.705712280579974" lon="10.180578772150701"><ele>159.5</ele><time>2026-04-09T15:45:46.001Z</time></trkpt><trkpt lat="44.70563702626078" lon="10.1805277840511"><ele>160.0</ele><time>2026-04-09T15:45:47.001Z</time></trkpt><trkpt lat="44.70554925594001" lon="10.180465757678961"><ele>160.5</ele><time>2026-04-09T15:45:48.001Z</time></trkpt><trkpt lat="44.7054644737751" lon="10.180405620620466"><ele>161.0</ele><time>2026-04-09T15:45:49.001Z</time></trkpt><trkpt lat="44.705376855847064" lon="10.18034345348089"><ele>161.0</ele><time>2026-04-09T15:45:50.001Z</time></trkpt><trkpt lat="44.70529375045292" lon="10.180284247959515"><ele>161.0</ele><time>2026-04-09T15:45:51.001Z</time></trkpt><trkpt lat="44.70520509442543" lon="10.18025070355215"><ele>161.0</ele><time>2026-04-09T15:45:52.001Z</time></trkpt><trkpt lat="44.705142759815196" lon="10.180190771867187"><ele>161.0</ele><time>2026-04-09T15:45:53.001Z</time></trkpt><trkpt lat="44.70505636524291" lon="10.180163589473153"><ele>161.0</ele><time>2026-04-09T15:45:54.001Z</time></trkpt><trkpt lat="44.70496581321903" lon="10.180108614873543"><ele>161.0</ele><time>2026-04-09T15:45:55.001Z</time></trkpt><trkpt lat="44.704892205446754" lon="10.180072793144225"><ele>163.5</ele><time>2026-04-09T15:45:56.001Z</time></trkpt><trkpt lat="44.704804128405044" lon="10.180013190024152"><ele>166.0</ele><time>2026-04-09T15:45:57.001Z</time></trkpt><trkpt lat="44.704693677600865" lon="10.179968036180517"><ele>168.5</ele><time>2026-04-09T15:45:58.001Z</time></trkpt><trkpt lat="44.704578800676074" lon="10.179944389928155"><ele>171.0</ele><time>2026-04-09T15:46:00.001Z</time></trkpt><trkpt lat="44.70445181510491" lon="10.17996234476509"><ele>173.5</ele><time>2026-04-09T15:46:02.001Z</time></trkpt><trkpt lat="44.70438830344895" lon="10.179984838318068"><ele>176.0</ele><time>2026-04-09T15:46:03Z</time></trkpt><trkpt lat="44.7043236002055" lon="10.180012545250023"><ele>178.5</ele><time>2026-04-09T15:46:04Z</time></trkpt><trkpt lat="44.70425141656106" lon="10.180049028804872"><ele>181.0</ele><time>2026-04-09T15:46:05Z</time></trkpt><trkpt lat="44.70418103988328" lon="10.18010915560352"><ele>183.5</ele><time>2026-04-09T15:46:06Z</time></trkpt><trkpt lat="44.70410427771343" lon="10.18012834586858"><ele>186.0</ele><time>2026-04-09T15:46:07Z</time></trkpt><trkpt lat="44.7040297736094" lon="10.180189221006243"><ele>186.0</ele><time>2026-04-09T15:46:08Z</time></trkpt><trkpt lat="44.70396698436008" lon="10.180215032520303"><ele>186.0</ele><time>2026-04-09T15:46:09Z</time></trkpt><trkpt lat="44.70388277799752" lon="10.180280184557423"><ele>186.0</ele><time>2026-04-09T15:46:11Z</time></trkpt><trkpt lat="44.70379854032448" lon="10.180314096855279"><ele>186.0</ele><time>2026-04-09T15:46:13Z</time></trkpt><trkpt lat="44.70371591383892" lon="10.180321661942596"><ele>186.0</ele><time>2026-04-09T15:46:15Z</time></trkpt><trkpt lat="44.70365582520349" lon="10.180232455451131"><ele>186.0</ele><time>2026-04-09T15:46:17Z</time></trkpt><trkpt lat="44.70363294351658" lon="10.180139265894967"><ele>186.0</ele><time>2026-04-09T15:46:18Z</time></trkpt><trkpt lat="44.70362309139706" lon="10.180042647188964"><ele>186.0</ele><time>2026-04-09T15:46:19Z</time></trkpt><trkpt lat="44.703602130550834" lon="10.179957325393225"><ele>186.0</ele><time>2026-04-09T15:46:20Z</time></trkpt><trkpt lat="44.70356632539359" lon="10.17987695007826"><ele>186.0</ele><time>2026-04-09T15:46:21Z</time></trkpt><trkpt lat="44.7035237823075" lon="10.17980723192491"><ele>186.0</ele><time>2026-04-09T15:46:22Z</time></trkpt><trkpt lat="44.70343650862945" lon="10.179706480109775"><ele>186.0</ele><time>2026-04-09T15:46:24Z</time></trkpt><trkpt lat="44.70335259468892" lon="10.179682925115818"><ele>186.66666666666666</ele><time>2026-04-09T15:46:25Z</time></trkpt><trkpt lat="44.70326830763603" lon="10.17965018527664"><ele>187.33333333333334</ele><time>2026-04-09T15:46:26Z</time></trkpt><trkpt lat="44.70319922400229" lon="10.179601533727627"><ele>188.0</ele><time>2026-04-09T15:46:27Z</time></trkpt><trkpt lat="44.703121630365615" lon="10.179575204183305"><ele>188.66666666666669</ele><time>2026-04-09T15:46:28Z</time></trkpt><trkpt lat="44.703047849754334" lon="10.179571655159588"><ele>189.33333333333334</ele><time>2026-04-09T15:46:29Z</time></trkpt><trkpt lat="44.7029673363295" lon="10.179548589429963"><ele>190.0</ele><time>2026-04-09T15:46:30Z</time></trkpt><trkpt lat="44.70290019872853" lon="10.17955602909158"><ele>190.0</ele><time>2026-04-09T15:46:31Z</time></trkpt><trkpt lat="44.702796721744726" lon="10.179519754855352"><ele>190.0</ele><time>2026-04-09T15:46:33Z</time></trkpt><trkpt lat="44.70266678789092" lon="10.179499814408674"><ele>190.0</ele><time>2026-04-09T15:46:35Z</time></trkpt><trkpt lat="44.70260449355806" lon="10.179477166560936"><ele>190.0</ele><time>2026-04-09T15:46:36Z</time></trkpt><trkpt lat="44.70253702283464" lon="10.179438071010598"><ele>190.0</ele><time>2026-04-09T15:46:37Z</time></trkpt><trkpt lat="44.70247090832932" lon="10.179418627448737"><ele>190.0</ele><time>2026-04-09T15:46:38Z</time></trkpt><trkpt lat="44.702398072370215" lon="10.179395158029092"><ele>192.66666666666669</ele><time>2026-04-09T15:46:39Z</time></trkpt><trkpt lat="44.70232804053659" lon="10.17937258035669"><ele>195.33333333333334</ele><time>2026-04-09T15:46:40Z</time></trkpt><trkpt lat="44.702241320543365" lon="10.179346655670987"><ele>198.0</ele><time>2026-04-09T15:46:41Z</time></trkpt><trkpt lat="44.70215697415041" lon="10.179322393605984"><ele>200.66666666666669</ele><time>2026-04-09T15:46:42Z</time></trkpt><trkpt lat="44.70207636498463" lon="10.179295083942781"><ele>203.33333333333334</ele><time>2026-04-09T15:46:43Z</time></trkpt><trkpt lat="44.702001506917185" lon="10.179290058037605"><ele>206.0</ele><time>2026-04-09T15:46:44Z</time></trkpt><trkpt lat="44.70193333134243" lon="10.179269577226602"><ele>208.33333333333334</ele><time>2026-04-09T15:46:45Z</time></trkpt><trkpt lat="44.701858674395254" lon="10.1792463015671"><ele>210.66666666666669</ele><time>2026-04-09T15:46:46Z</time></trkpt><trkpt lat="44.70178131283258" lon="10.17922506601853"><ele>213.0</ele><time>2026-04-09T15:46:47Z</time></trkpt><trkpt lat="44.70168980965996" lon="10.179184234392826"><ele>215.33333333333331</ele><time>2026-04-09T15:46:48Z</time></trkpt><trkpt lat="44.70160532478615" lon="10.179164777974158"><ele>217.66666666666666</ele><time>2026-04-09T15:46:49Z</time></trkpt><trkpt lat="44.70153329667076" lon="10.179165965272663"><ele>220.0</ele><time>2026-04-09T15:46:50Z</time></trkpt><trkpt lat="44.70144370854967" lon="10.179119534693877"><ele>219.99999999999997</ele><time>2026-04-09T15:46:51Z</time></trkpt><trkpt lat="44.70136809064246" lon="10.179097356116007"><ele>220.0</ele><time>2026-04-09T15:46:52Z</time></trkpt><trkpt lat="44.70129130599922" lon="10.179072094715973"><ele>220.0</ele><time>2026-04-09T15:46:53Z</time></trkpt><trkpt lat="44.70119776937967" lon="10.179060621066535"><ele>220.0</ele><time>2026-04-09T15:46:54Z</time></trkpt><trkpt lat="44.701112457911414" lon="10.179014144678094"><ele>219.99999999999997</ele><time>2026-04-09T15:46:55Z</time></trkpt><trkpt lat="44.7010203059748" lon="10.178985461103066"><ele>220.0</ele><time>2026-04-09T15:46:56Z</time></trkpt><trkpt lat="44.700939078463705" lon="10.17896017790863"><ele>219.6</ele><time>2026-04-09T15:46:57Z</time></trkpt><trkpt lat="44.700845330295714" lon="10.178930997483727"><ele>219.2</ele><time>2026-04-09T15:46:58Z</time></trkpt><trkpt lat="44.700749262859595" lon="10.178900915018456"><ele>218.8</ele><time>2026-04-09T15:46:59Z</time></trkpt><trkpt lat="44.700651500078884" lon="10.178869020783315"><ele>218.4</ele><time>2026-04-09T15:47:00Z</time></trkpt><trkpt lat="44.700564505073814" lon="10.178840639438418"><ele>218.0</ele><time>2026-04-09T15:47:01Z</time></trkpt><trkpt lat="44.70046821814062" lon="10.178831417434525"><ele>218.00000000000003</ele><time>2026-04-09T15:47:02Z</time></trkpt><trkpt lat="44.700385438540316" lon="10.178799973333263"><ele>218.0</ele><time>2026-04-09T15:47:03Z</time></trkpt><trkpt lat="44.70031682925607" lon="10.178772738945792"><ele>218.0</ele><time>2026-04-09T15:47:04Z</time></trkpt><trkpt lat="44.700246894393096" lon="10.178752075484635"><ele>218.0</ele><time>2026-04-09T15:47:05Z</time></trkpt><trkpt lat="44.700140259055026" lon="10.178773938462568"><ele>218.00000000000003</ele><time>2026-04-09T15:47:07Z</time></trkpt><trkpt lat="44.700089926189854" lon="10.178890481155515"><ele>218.0</ele><time>2026-04-09T15:47:09Z</time></trkpt><trkpt lat="44.70009101207995" lon="10.178981969742246"><ele>222.60000000000002</ele><time>2026-04-09T15:47:10Z</time></trkpt><trkpt lat="44.70007807676781" lon="10.179083010735201"><ele>227.20000000000002</ele><time>2026-04-09T15:47:11Z</time></trkpt><trkpt lat="44.70007612808693" lon="10.179227281738559"><ele>231.8</ele><time>2026-04-09T15:47:13Z</time></trkpt><trkpt lat="44.70000572189303" lon="10.179302947115417"><ele>236.4</ele><time>2026-04-09T15:47:15Z</time></trkpt><trkpt lat="44.69989383975705" lon="10.179305538849487"><ele>241.0</ele><time>2026-04-09T15:47:17Z</time></trkpt><trkpt lat="44.69982264749816" lon="10.179436989734091"><ele>241.0</ele><time>2026-04-09T15:47:19Z</time></trkpt><trkpt lat="44.699743634070714" lon="10.17948318565895"><ele>241.00000000000003</ele><time>2026-04-09T15:47:21Z</time></trkpt><trkpt lat="44.699665608122444" lon="10.179414955171495"><ele>241.00000000000003</ele><time>2026-04-09T15:47:23Z</time></trkpt><trkpt lat="44.69956946017789" lon="10.179349179135949"><ele>241.0</ele><time>2026-04-09T15:47:25Z</time></trkpt><trkpt lat="44.69948680606529" lon="10.179312105929826"><ele>241.0</ele><time>2026-04-09T15:47:27Z</time></trkpt><trkpt lat="44.69940678462828" lon="10.179254908617448"><ele>240.66666666666666</ele><time>2026-04-09T15:47:29Z</time></trkpt><trkpt lat="44.69932040557282" lon="10.179190678574242"><ele>240.33333333333331</ele><time>2026-04-09T15:47:31Z</time></trkpt><trkpt lat="44.6992082295271" lon="10.17911616317427"><ele>240.0</ele><time>2026-04-09T15:47:33Z</time></trkpt><trkpt lat="44.699140899717435" lon="10.17907210548378"><ele>239.66666666666669</ele><time>2026-04-09T15:47:34Z</time></trkpt><trkpt lat="44.699069834394926" lon="10.179024018998113"><ele>239.33333333333334</ele><time>2026-04-09T15:47:35Z</time></trkpt><trkpt lat="44.699014031786845" lon="10.178963466819303"><ele>239.0</ele><time>2026-04-09T15:47:36Z</time></trkpt><trkpt lat="44.698956368353954" lon="10.178915504950405"><ele>239.00000000000003</ele><time>2026-04-09T15:47:37Z</time></trkpt><trkpt lat="44.69889787736242" lon="10.178878927581394"><ele>239.0</ele><time>2026-04-09T15:47:38Z</time></trkpt><trkpt lat="44.69885954774783" lon="10.178792438845733"><ele>239.00000000000003</ele><time>2026-04-09T15:47:39Z</time></trkpt><trkpt lat="44.69881010499739" lon="10.17873465981705"><ele>239.00000000000003</ele><time>2026-04-09T15:47:40Z</time></trkpt><trkpt lat="44.698750180655146" lon="10.178702689074674"><ele>239.0</ele><time>2026-04-09T15:47:41Z</time></trkpt><trkpt lat="44.698690137619344" lon="10.178670704279648"><ele>239.00000000000003</ele><time>2026-04-09T15:47:42Z</time></trkpt><trkpt lat="44.69861870059711" lon="10.178644169688448"><ele>239.00000000000003</ele><time>2026-04-09T15:47:43Z</time></trkpt><trkpt lat="44.698559055375846" lon="10.178610093196658"><ele>239.8571428571429</ele><time>2026-04-09T15:47:44Z</time></trkpt><trkpt lat="44.69849702386122" lon="10.178572107997722"><ele>240.71428571428572</ele><time>2026-04-09T15:47:45Z</time></trkpt><trkpt lat="44.69843376333753" lon="10.178509982325723"><ele>241.57142857142858</ele><time>2026-04-09T15:47:46Z</time></trkpt><trkpt lat="44.698365268434586" lon="10.178469239196621"><ele>242.42857142857144</ele><time>2026-04-09T15:47:47Z</time></trkpt><trkpt lat="44.698298783915654" lon="10.178424983795303"><ele>243.28571428571428</ele><time>2026-04-09T15:47:48Z</time></trkpt><trkpt lat="44.698230931348505" lon="10.178400136772925"><ele>244.14285714285714</ele><time>2026-04-09T15:47:49Z</time></trkpt><trkpt lat="44.698176230656436" lon="10.178337224169448"><ele>245.0</ele><time>2026-04-09T15:47:50Z</time></trkpt><trkpt lat="44.69810769126821" lon="10.178287782902546"><ele>245.0</ele><time>2026-04-09T15:47:51Z</time></trkpt><trkpt lat="44.69801645823641" lon="10.17825185452712"><ele>245.0</ele><time>2026-04-09T15:47:52Z</time></trkpt><trkpt lat="44.697906282164205" lon="10.17818515137226"><ele>245.0</ele><time>2026-04-09T15:47:54Z</time></trkpt><trkpt lat="44.69784760974503" lon="10.17812633832617"><ele>245.0</ele><time>2026-04-09T15:47:55Z</time></trkpt><trkpt lat="44.69774049229536" lon="10.178086216651806"><ele>245.0</ele><time>2026-04-09T15:47:57Z</time></trkpt><trkpt lat="44.697682476095615" lon="10.178051454549657"><ele>246.16666666666669</ele><time>2026-04-09T15:47:58Z</time></trkpt><trkpt lat="44.697623466664545" lon="10.178019829557707"><ele>247.33333333333334</ele><time>2026-04-09T15:47:59Z</time></trkpt><trkpt lat="44.697550155419265" lon="10.17797716307966"><ele>248.5</ele><time>2026-04-09T15:48:00Z</time></trkpt><trkpt lat="44.69748251519366" lon="10.177934568073912"><ele>249.66666666666669</ele><time>2026-04-09T15:48:01Z</time></trkpt><trkpt lat="44.69741200351645" lon="10.177892518514376"><ele>250.83333333333334</ele><time>2026-04-09T15:48:02Z</time></trkpt><trkpt lat="44.69734135535993" lon="10.177845216302265"><ele>252.0</ele><time>2026-04-09T15:48:03Z</time></trkpt><trkpt lat="44.697270039333034" lon="10.177791472036505"><ele>252.0</ele><time>2026-04-09T15:48:04Z</time></trkpt><trkpt lat="44.6972097139721" lon="10.177713664303317"><ele>252.0</ele><time>2026-04-09T15:48:05Z</time></trkpt><trkpt lat="44.69713237127613" lon="10.177672611619041"><ele>252.0</ele><time>2026-04-09T15:48:06Z</time></trkpt><trkpt lat="44.69705894348805" lon="10.17760956211049"><ele>252.0</ele><time>2026-04-09T15:48:07Z</time></trkpt><trkpt lat="44.6969828935847" lon="10.177550691541478"><ele>252.0</ele><time>2026-04-09T15:48:08Z</time></trkpt><trkpt lat="44.696909602085405" lon="10.177496704533992"><ele>252.0</ele><time>2026-04-09T15:48:09Z</time></trkpt><trkpt lat="44.696840790290196" lon="10.177445967535734"><ele>252.5</ele><time>2026-04-09T15:48:10Z</time></trkpt><trkpt lat="44.69677189682018" lon="10.177398722403563"><ele>253.0</ele><time>2026-04-09T15:48:11Z</time></trkpt><trkpt lat="44.69669889340781" lon="10.17735091518397"><ele>253.5</ele><time>2026-04-09T15:48:12Z</time></trkpt><trkpt lat="44.69662995793587" lon="10.177307343175185"><ele>254.0</ele><time>2026-04-09T15:48:13Z</time></trkpt><trkpt lat="44.696556109945206" lon="10.177259997547818"><ele>254.5</ele><time>2026-04-09T15:48:14Z</time></trkpt><trkpt lat="44.696489347944144" lon="10.177220626168523"><ele>255.0</ele><time>2026-04-09T15:48:15Z</time></trkpt><trkpt lat="44.69640782791901" lon="10.177170254272031"><ele>255.0</ele><time>2026-04-09T15:48:16Z</time></trkpt><trkpt lat="44.69633092549321" lon="10.177111653909378"><ele>255.0</ele><time>2026-04-09T15:48:17Z</time></trkpt><trkpt lat="44.696258878827784" lon="10.177077266354274"><ele>255.0</ele><time>2026-04-09T15:48:18Z</time></trkpt><trkpt lat="44.69620242322023" lon="10.177026775457993"><ele>255.0</ele><time>2026-04-09T15:48:19Z</time></trkpt><trkpt lat="44.69613907477824" lon="10.176897935359408"><ele>255.0</ele><time>2026-04-09T15:48:21Z</time></trkpt><trkpt lat="44.6961708983207" lon="10.176777646675829"><ele>255.0</ele><time>2026-04-09T15:48:22Z</time></trkpt><trkpt lat="44.696171319075646" lon="10.17667170938534"><ele>255.0</ele><time>2026-04-09T15:48:23Z</time></trkpt><trkpt lat="44.69618136461029" lon="10.176535516167107"><ele>255.0</ele><time>2026-04-09T15:48:25Z</time></trkpt><trkpt lat="44.69616717481926" lon="10.176435773950738"><ele>255.0</ele><time>2026-04-09T15:48:27Z</time></trkpt><trkpt lat="44.69614814071886" lon="10.176328395022239"><ele>255.0</ele><time>2026-04-09T15:48:29Z</time></trkpt><trkpt lat="44.69610873611393" lon="10.176248249038402"><ele>255.0</ele><time>2026-04-09T15:48:31Z</time></trkpt><trkpt lat="44.69604975941526" lon="10.176203563281973"><ele>255.0</ele><time>2026-04-09T15:48:33Z</time></trkpt><trkpt lat="44.69596954627795" lon="10.176131038770427"><ele>257.8</ele><time>2026-04-09T15:48:35Z</time></trkpt><trkpt lat="44.69593735795228" lon="10.176024149832163"><ele>260.6</ele><time>2026-04-09T15:48:37Z</time></trkpt><trkpt lat="44.69585784755388" lon="10.175928721510905"><ele>263.4</ele><time>2026-04-09T15:48:39Z</time></trkpt><trkpt lat="44.69576450836362" lon="10.175864214778642"><ele>266.2</ele><time>2026-04-09T15:48:41Z</time></trkpt><trkpt lat="44.69570121508171" lon="10.175831716848053"><ele>269.0</ele><time>2026-04-09T15:48:42Z</time></trkpt><trkpt lat="44.695609300301086" lon="10.175794070292147"><ele>269.0</ele><time>2026-04-09T15:48:44Z</time></trkpt><trkpt lat="44.69552536077031" lon="10.175773027474532"><ele>269.0</ele><time>2026-04-09T15:48:46Z</time></trkpt><trkpt lat="44.69543499480764" lon="10.175769063177427"><ele>269.0</ele><time>2026-04-09T15:48:48Z</time></trkpt><trkpt lat="44.69532425786873" lon="10.175787315060004"><ele>269.0</ele><time>2026-04-09T15:48:50Z</time></trkpt><trkpt lat="44.695234246493314" lon="10.175797054241439"><ele>269.0</ele><time>2026-04-09T15:48:52Z</time></trkpt><trkpt lat="44.695121146347375" lon="10.175806297892883"><ele>267.4</ele><time>2026-04-09T15:48:54Z</time></trkpt><trkpt lat="44.695010110436016" lon="10.175807230271154"><ele>265.79999999999995</ele><time>2026-04-09T15:48:56Z</time></trkpt><trkpt lat="44.69490430656101" lon="10.175811798635642"><ele>264.20000000000005</ele><time>2026-04-09T15:48:58Z</time></trkpt><trkpt lat="44.694795243237685" lon="10.175789179958281"><ele>262.6</ele><time>2026-04-09T15:49:00Z</time></trkpt><trkpt lat="44.69468235151929" lon="10.17581245833337"><ele>261.0</ele><time>2026-04-09T15:49:02Z</time></trkpt><trkpt lat="44.69461599515046" lon="10.175791042919602"><ele>261.0</ele><time>2026-04-09T15:49:03Z</time></trkpt><trkpt lat="44.694549967645536" lon="10.17579310736007"><ele>261.0</ele><time>2026-04-09T15:49:04Z</time></trkpt><trkpt lat="44.69442317701294" lon="10.175825132328146"><ele>261.0</ele><time>2026-04-09T15:49:06Z</time></trkpt><trkpt lat="44.69435463314557" lon="10.17582125406429"><ele>261.0</ele><time>2026-04-09T15:49:07Z</time></trkpt><trkpt lat="44.69428660398288" lon="10.17575832194555"><ele>261.0</ele><time>2026-04-09T15:49:08Z</time></trkpt><trkpt lat="44.69418715500637" lon="10.175713481880303"><ele>261.0</ele><time>2026-04-09T15:49:09Z</time></trkpt><trkpt lat="44.694082521041615" lon="10.175665930388192"><ele>258.6666666666667</ele><time>2026-04-09T15:49:10Z</time></trkpt><trkpt lat="44.69399402420407" lon="10.175624428738407"><ele>256.3333333333333</ele><time>2026-04-09T15:49:11Z</time></trkpt><trkpt lat="44.69390743946011" lon="10.17560726206423"><ele>254.0</ele><time>2026-04-09T15:49:12Z</time></trkpt><trkpt lat="44.69383400962908" lon="10.175572882098798"><ele>251.66666666666666</ele><time>2026-04-09T15:49:13Z</time></trkpt><trkpt lat="44.693767203022816" lon="10.175543863034259"><ele>249.33333333333331</ele><time>2026-04-09T15:49:14Z</time></trkpt><trkpt lat="44.69369461720053" lon="10.175507284235815"><ele>247.0</ele><time>2026-04-09T15:49:15Z</time></trkpt><trkpt lat="44.693624088913054" lon="10.17545481398495"><ele>248.49999999999997</ele><time>2026-04-09T15:49:16Z</time></trkpt><trkpt lat="44.69355359302147" lon="10.175398033132915"><ele>250.0</ele><time>2026-04-09T15:49:17Z</time></trkpt><trkpt lat="44.69347899983962" lon="10.175333492399837"><ele>251.5</ele><time>2026-04-09T15:49:18Z</time></trkpt><trkpt lat="44.6933983766765" lon="10.175297460956426"><ele>253.0</ele><time>2026-04-09T15:49:19Z</time></trkpt><trkpt lat="44.69331390973641" lon="10.175275037542635"><ele>254.49999999999997</ele><time>2026-04-09T15:49:20Z</time></trkpt><trkpt lat="44.69321267260302" lon="10.175276104469528"><ele>256.0</ele><time>2026-04-09T15:49:21Z</time></trkpt><trkpt lat="44.6930976061089" lon="10.175207745367045"><ele>255.99999999999997</ele><time>2026-04-09T15:49:23Z</time></trkpt><trkpt lat="44.69303348222747" lon="10.175133614971658"><ele>256.0</ele><time>2026-04-09T15:49:24Z</time></trkpt><trkpt lat="44.69295063524999" lon="10.175072468470733"><ele>256.0</ele><time>2026-04-09T15:49:25Z</time></trkpt><trkpt lat="44.6928818169623" lon="10.174991355775637"><ele>256.0</ele><time>2026-04-09T15:49:26Z</time></trkpt><trkpt lat="44.692828995023774" lon="10.174910509808186"><ele>255.99999999999997</ele><time>2026-04-09T15:49:27Z</time></trkpt><trkpt lat="44.69278169139845" lon="10.174818306394563"><ele>256.0</ele><time>2026-04-09T15:49:28Z</time></trkpt><trkpt lat="44.692738967150255" lon="10.174731538490528"><ele>257.0</ele><time>2026-04-09T15:49:29Z</time></trkpt><trkpt lat="44.69269046045599" lon="10.174655065626114"><ele>258.0</ele><time>2026-04-09T15:49:30Z</time></trkpt><trkpt lat="44.69263227217784" lon="10.17458969563617"><ele>259.0</ele><time>2026-04-09T15:49:31Z</time></trkpt><trkpt lat="44.69256383948328" lon="10.17453129793493"><ele>260.0</ele><time>2026-04-09T15:49:32Z</time></trkpt><trkpt lat="44.69250542936727" lon="10.174486351902253"><ele>261.0</ele><time>2026-04-09T15:49:33Z</time></trkpt><trkpt lat="44.692436335791854" lon="10.174428556390142"><ele>262.0</ele><time>2026-04-09T15:49:34Z</time></trkpt><trkpt lat="44.69237009348429" lon="10.174384722510267"><ele>263.0</ele><time>2026-04-09T15:49:35Z</time></trkpt><trkpt lat="44.69230214997653" lon="10.174347521953107"><ele>263.0</ele><time>2026-04-09T15:49:36Z</time></trkpt><trkpt lat="44.692226190309206" lon="10.174329739473002"><ele>263.0</ele><time>2026-04-09T15:49:37Z</time></trkpt><trkpt lat="44.69214612167666" lon="10.174301029973929"><ele>263.0</ele><time>2026-04-09T15:49:38Z</time></trkpt><trkpt lat="44.69206734163735" lon="10.17427967715863"><ele>263.0</ele><time>2026-04-09T15:49:39Z</time></trkpt><trkpt lat="44.691992785907345" lon="10.174253707074744"><ele>263.0</ele><time>2026-04-09T15:49:40Z</time></trkpt><trkpt lat="44.69191872016121" lon="10.174216514437735"><ele>263.0</ele><time>2026-04-09T15:49:41Z</time></trkpt><trkpt lat="44.69183712409727" lon="10.17417902635541"><ele>264.1666666666667</ele><time>2026-04-09T15:49:42Z</time></trkpt><trkpt lat="44.69175659061896" lon="10.174149809612198"><ele>265.33333333333337</ele><time>2026-04-09T15:49:43Z</time></trkpt><trkpt lat="44.69167374939032" lon="10.174139652721731"><ele>266.5</ele><time>2026-04-09T15:49:44Z</time></trkpt><trkpt lat="44.691592990534915" lon="10.174152868585713"><ele>267.6666666666667</ele><time>2026-04-09T15:49:45Z</time></trkpt><trkpt lat="44.691528506301104" lon="10.17418591969515"><ele>268.8333333333333</ele><time>2026-04-09T15:49:46Z</time></trkpt><trkpt lat="44.69147445117049" lon="10.174235937007593"><ele>270.0</ele><time>2026-04-09T15:49:47Z</time></trkpt><trkpt lat="44.6914141998783" lon="10.174286663248633"><ele>270.0</ele><time>2026-04-09T15:49:48Z</time></trkpt><trkpt lat="44.69133720094165" lon="10.174334029625815"><ele>270.0</ele><time>2026-04-09T15:49:49Z</time></trkpt><trkpt lat="44.69124954687129" lon="10.174386052460182"><ele>270.0</ele><time>2026-04-09T15:49:50Z</time></trkpt><trkpt lat="44.69116169284989" lon="10.174440831392758"><ele>270.0</ele><time>2026-04-09T15:49:51Z</time></trkpt><trkpt lat="44.691077923984096" lon="10.174484482753742"><ele>270.0</ele><time>2026-04-09T15:49:52Z</time></trkpt><trkpt lat="44.69098873894377" lon="10.174489123825222"><ele>270.3333333333333</ele><time>2026-04-09T15:49:53Z</time></trkpt><trkpt lat="44.69089278197608" lon="10.17451043773631"><ele>270.6666666666667</ele><time>2026-04-09T15:49:54Z</time></trkpt><trkpt lat="44.69082191456028" lon="10.174544338447163"><ele>271.0</ele><time>2026-04-09T15:49:55Z</time></trkpt><trkpt lat="44.69075762443885" lon="10.174572331886544"><ele>271.33333333333337</ele><time>2026-04-09T15:49:56Z</time></trkpt><trkpt lat="44.69068427028148" lon="10.17461799878546"><ele>271.6666666666667</ele><time>2026-04-09T15:49:57Z</time></trkpt><trkpt lat="44.69060280859714" lon="10.174647240324584"><ele>272.0</ele><time>2026-04-09T15:49:58Z</time></trkpt><trkpt lat="44.69051453625782" lon="10.174672474832038"><ele>272.0</ele><time>2026-04-09T15:49:59Z</time></trkpt><trkpt lat="44.69042477712403" lon="10.174700005380705"><ele>272.0</ele><time>2026-04-09T15:50:00Z</time></trkpt><trkpt lat="44.69033201260145" lon="10.174734252604887"><ele>272.0</ele><time>2026-04-09T15:50:01Z</time></trkpt><trkpt lat="44.690224883500456" lon="10.174778638850611"><ele>272.0</ele><time>2026-04-09T15:50:02Z</time></trkpt><trkpt lat="44.69014283307117" lon="10.174810189548904"><ele>272.0</ele><time>2026-04-09T15:50:03Z</time></trkpt><trkpt lat="44.690042151577494" lon="10.174837881313977"><ele>274.8</ele><time>2026-04-09T15:50:04Z</time></trkpt><trkpt lat="44.68995269750219" lon="10.174877919479314"><ele>277.6</ele><time>2026-04-09T15:50:05Z</time></trkpt><trkpt lat="44.689869935296706" lon="10.174916179889609"><ele>280.40000000000003</ele><time>2026-04-09T15:50:06Z</time></trkpt><trkpt lat="44.68976990354038" lon="10.174942579563654"><ele>283.2</ele><time>2026-04-09T15:50:07Z</time></trkpt><trkpt lat="44.68965614620925" lon="10.174980653342203"><ele>286.0</ele><time>2026-04-09T15:50:08Z</time></trkpt><trkpt lat="44.68955238729058" lon="10.175017734452112"><ele>286.0</ele><time>2026-04-09T15:50:09Z</time></trkpt><trkpt lat="44.68945846022786" lon="10.175056813990528"><ele>286.0</ele><time>2026-04-09T15:50:10Z</time></trkpt><trkpt lat="44.68935487567692" lon="10.175096662804313"><ele>286.0</ele><time>2026-04-09T15:50:11Z</time></trkpt><trkpt lat="44.68925991055052" lon="10.175130847474813"><ele>286.0</ele><time>2026-04-09T15:50:12Z</time></trkpt><trkpt lat="44.68916640116269" lon="10.175167537499698"><ele>286.0</ele><time>2026-04-09T15:50:13Z</time></trkpt><trkpt lat="44.68907175886208" lon="10.1752054720302"><ele>286.8333333333333</ele><time>2026-04-09T15:50:14Z</time></trkpt><trkpt lat="44.688972628062636" lon="10.175240215103859"><ele>287.66666666666663</ele><time>2026-04-09T15:50:15Z</time></trkpt><trkpt lat="44.688894626655575" lon="10.175268224216952"><ele>288.5</ele><time>2026-04-09T15:50:16Z</time></trkpt><trkpt lat="44.688810725481964" lon="10.175291041606837"><ele>289.3333333333333</ele><time>2026-04-09T15:50:17Z</time></trkpt><trkpt lat="44.688736722106015" lon="10.17530918037987"><ele>290.1666666666667</ele><time>2026-04-09T15:50:18Z</time></trkpt><trkpt lat="44.6886383990035" lon="10.175334451406886"><ele>291.0</ele><time>2026-04-09T15:50:20Z</time></trkpt><trkpt lat="44.68854773569034" lon="10.17541295925162"><ele>292.0</ele><time>2026-04-09T15:50:22Z</time></trkpt><trkpt lat="44.68850313308368" lon="10.175491561412013"><ele>293.0</ele><time>2026-04-09T15:50:23Z</time></trkpt><trkpt lat="44.68839964201537" lon="10.175549087358926"><ele>294.0</ele><time>2026-04-09T15:50:25Z</time></trkpt><trkpt lat="44.6883315370892" lon="10.175536222512315"><ele>295.0</ele><time>2026-04-09T15:50:26Z</time></trkpt><trkpt lat="44.688266285239514" lon="10.175523810098444"><ele>296.0</ele><time>2026-04-09T15:50:27Z</time></trkpt><trkpt lat="44.688174726271676" lon="10.175542267803783"><ele>297.0</ele><time>2026-04-09T15:50:29Z</time></trkpt><trkpt lat="44.68810129600403" lon="10.175642163164845"><ele>296.8333333333333</ele><time>2026-04-09T15:50:31Z</time></trkpt><trkpt lat="44.68806211885857" lon="10.175720683859621"><ele>296.6666666666667</ele><time>2026-04-09T15:50:32Z</time></trkpt><trkpt lat="44.688038487213234" lon="10.175817126960784"><ele>296.5</ele><time>2026-04-09T15:50:33Z</time></trkpt><trkpt lat="44.687990080290916" lon="10.175916304338328"><ele>296.33333333333337</ele><time>2026-04-09T15:50:34Z</time></trkpt><trkpt lat="44.687954776340646" lon="10.175995316967766"><ele>296.1666666666667</ele><time>2026-04-09T15:50:35Z</time></trkpt><trkpt lat="44.68788323736332" lon="10.176138922207723"><ele>296.0</ele><time>2026-04-09T15:50:37Z</time></trkpt><trkpt lat="44.687851091574615" lon="10.176216562896563"><ele>296.0</ele><time>2026-04-09T15:50:38Z</time></trkpt><trkpt lat="44.68779801059109" lon="10.176305601516566"><ele>296.0</ele><time>2026-04-09T15:50:39Z</time></trkpt><trkpt lat="44.687748807900924" lon="10.176379472007248"><ele>296.0</ele><time>2026-04-09T15:50:40Z</time></trkpt><trkpt lat="44.687695764050495" lon="10.176461368675746"><ele>296.0</ele><time>2026-04-09T15:50:41Z</time></trkpt><trkpt lat="44.6876527316532" lon="10.176569161953308"><ele>296.0</ele><time>2026-04-09T15:50:42Z</time></trkpt><trkpt lat="44.6875938456712" lon="10.176674781730055"><ele>296.0</ele><time>2026-04-09T15:50:43Z</time></trkpt><trkpt lat="44.68753947231444" lon="10.176776633380348"><ele>296.2</ele><time>2026-04-09T15:50:44Z</time></trkpt><trkpt lat="44.687489597717956" lon="10.176895083542691"><ele>296.40000000000003</ele><time>2026-04-09T15:50:45Z</time></trkpt><trkpt lat="44.68744781355056" lon="10.17702383911454"><ele>296.6</ele><time>2026-04-09T15:50:46Z</time></trkpt><trkpt lat="44.687425246631804" lon="10.177150940531604"><ele>296.8</ele><time>2026-04-09T15:50:47Z</time></trkpt><trkpt lat="44.68740300841819" lon="10.177275939530103"><ele>297.0</ele><time>2026-04-09T15:50:48Z</time></trkpt><trkpt lat="44.687379207669125" lon="10.177404525364771"><ele>296.4</ele><time>2026-04-09T15:50:49Z</time></trkpt><trkpt lat="44.68735555972192" lon="10.177524667610099"><ele>295.79999999999995</ele><time>2026-04-09T15:50:50Z</time></trkpt><trkpt lat="44.68733294132803" lon="10.177631005050833"><ele>295.2</ele><time>2026-04-09T15:50:51Z</time></trkpt><trkpt lat="44.687316267748045" lon="10.177723578364573"><ele>294.59999999999997</ele><time>2026-04-09T15:50:52Z</time></trkpt><trkpt lat="44.68729237559862" lon="10.177892029225525"><ele>294.0</ele><time>2026-04-09T15:50:54Z</time></trkpt><trkpt lat="44.68728716988749" lon="10.178054159161194"><ele>294.0</ele><time>2026-04-09T15:50:56Z</time></trkpt><trkpt lat="44.687285108035624" lon="10.178151748478706"><ele>294.0</ele><time>2026-04-09T15:50:57Z</time></trkpt><trkpt lat="44.68728315883146" lon="10.178261555253425"><ele>294.0</ele><time>2026-04-09T15:50:58Z</time></trkpt><trkpt lat="44.6872617425603" lon="10.17839517944648"><ele>294.0</ele><time>2026-04-09T15:50:59Z</time></trkpt><trkpt lat="44.68723662605527" lon="10.17853377355619"><ele>294.0</ele><time>2026-04-09T15:51:00Z</time></trkpt><trkpt lat="44.68720907080938" lon="10.178653024624854"><ele>294.0</ele><time>2026-04-09T15:51:01Z</time></trkpt><trkpt lat="44.68718340886686" lon="10.17876704846246"><ele>292.8333333333333</ele><time>2026-04-09T15:51:02Z</time></trkpt><trkpt lat="44.6871717807028" lon="10.178872888381756"><ele>291.6666666666667</ele><time>2026-04-09T15:51:03Z</time></trkpt><trkpt lat="44.68714505134386" lon="10.178985569398824"><ele>290.5</ele><time>2026-04-09T15:51:04Z</time></trkpt><trkpt lat="44.68711941504919" lon="10.17909878402345"><ele>289.33333333333337</ele><time>2026-04-09T15:51:05Z</time></trkpt><trkpt lat="44.68709770185507" lon="10.17920773227286"><ele>288.1666666666667</ele><time>2026-04-09T15:51:06Z</time></trkpt><trkpt lat="44.68707756090602" lon="10.179324648224176"><ele>287.0</ele><time>2026-04-09T15:51:07Z</time></trkpt><trkpt lat="44.687050069884414" lon="10.179436725457698"><ele>286.5</ele><time>2026-04-09T15:51:08Z</time></trkpt><trkpt lat="44.687018937241454" lon="10.179540710023822"><ele>286.0</ele><time>2026-04-09T15:51:09Z</time></trkpt><trkpt lat="44.68699363916239" lon="10.179662429087433"><ele>285.5</ele><time>2026-04-09T15:51:10Z</time></trkpt><trkpt lat="44.68697238234964" lon="10.179791732790978"><ele>285.0</ele><time>2026-04-09T15:51:11Z</time></trkpt><trkpt lat="44.68695606318157" lon="10.179912851978925"><ele>284.5</ele><time>2026-04-09T15:51:12Z</time></trkpt><trkpt lat="44.68693095615252" lon="10.180033553564815"><ele>284.0</ele><time>2026-04-09T15:51:13Z</time></trkpt><trkpt lat="44.686911374817434" lon="10.180152921262044"><ele>286.6666666666667</ele><time>2026-04-09T15:51:14Z</time></trkpt><trkpt lat="44.68689203371344" lon="10.180298970598608"><ele>289.33333333333337</ele><time>2026-04-09T15:51:15Z</time></trkpt><trkpt lat="44.68687162019785" lon="10.180422167179863"><ele>292.0</ele><time>2026-04-09T15:51:16Z</time></trkpt><trkpt lat="44.68684734934709" lon="10.180540057316668"><ele>294.6666666666667</ele><time>2026-04-09T15:51:17Z</time></trkpt><trkpt lat="44.68682993221863" lon="10.180650065397069"><ele>297.3333333333333</ele><time>2026-04-09T15:51:18Z</time></trkpt><trkpt lat="44.686816723153356" lon="10.18076218815989"><ele>300.0</ele><time>2026-04-09T15:51:19Z</time></trkpt><trkpt lat="44.68679807542216" lon="10.18085903448758"><ele>300.0</ele><time>2026-04-09T15:51:20Z</time></trkpt><trkpt lat="44.68678924638605" lon="10.180975161459733"><ele>300.0</ele><time>2026-04-09T15:51:21Z</time></trkpt><trkpt lat="44.68678119001921" lon="10.181121383972904"><ele>300.0</ele><time>2026-04-09T15:51:22Z</time></trkpt><trkpt lat="44.68678092515355" lon="10.1812611072695"><ele>300.0</ele><time>2026-04-09T15:51:23Z</time></trkpt><trkpt lat="44.68676609836978" lon="10.181388896148283"><ele>300.0</ele><time>2026-04-09T15:51:24Z</time></trkpt><trkpt lat="44.68675820458152" lon="10.18150824126422"><ele>300.4</ele><time>2026-04-09T15:51:25Z</time></trkpt><trkpt lat="44.686755672019956" lon="10.181656583090508"><ele>300.8</ele><time>2026-04-09T15:51:26Z</time></trkpt><trkpt lat="44.6867524004537" lon="10.181774311521854"><ele>301.2</ele><time>2026-04-09T15:51:27Z</time></trkpt><trkpt lat="44.68675209511946" lon="10.18192860541697"><ele>301.6</ele><time>2026-04-09T15:51:28Z</time></trkpt><trkpt lat="44.68674323689935" lon="10.182066403650408"><ele>302.0</ele><time>2026-04-09T15:51:29Z</time></trkpt><trkpt lat="44.68673578911336" lon="10.182179342630189"><ele>302.0</ele><time>2026-04-09T15:51:30Z</time></trkpt><trkpt lat="44.68673511858294" lon="10.182307381848055"><ele>302.0</ele><time>2026-04-09T15:51:31Z</time></trkpt><trkpt lat="44.68674881744402" lon="10.182442782892883"><ele>302.0</ele><time>2026-04-09T15:51:32Z</time></trkpt><trkpt lat="44.686754567338994" lon="10.182591436908435"><ele>302.0</ele><time>2026-04-09T15:51:33Z</time></trkpt><trkpt lat="44.686750714546434" lon="10.182738656623654"><ele>302.0</ele><time>2026-04-09T15:51:34Z</time></trkpt><trkpt lat="44.68674719711194" lon="10.182896163846383"><ele>301.8</ele><time>2026-04-09T15:51:35Z</time></trkpt><trkpt lat="44.686743591322696" lon="10.183054165167837"><ele>301.6</ele><time>2026-04-09T15:51:36Z</time></trkpt><trkpt lat="44.68674620512689" lon="10.183211717311169"><ele>301.40000000000003</ele><time>2026-04-09T15:51:37Z</time></trkpt><trkpt lat="44.68674710119977" lon="10.183342165495098"><ele>301.2</ele><time>2026-04-09T15:51:38Z</time></trkpt><trkpt lat="44.686751312100334" lon="10.183460401534678"><ele>301.0</ele><time>2026-04-09T15:51:39Z</time></trkpt><trkpt lat="44.68675868154821" lon="10.18356773381734"><ele>300.6</ele><time>2026-04-09T15:51:40Z</time></trkpt><trkpt lat="44.68677313439676" lon="10.183740674920589"><ele>300.20000000000005</ele><time>2026-04-09T15:51:42Z</time></trkpt><trkpt lat="44.68679047993826" lon="10.183897508467565"><ele>299.79999999999995</ele><time>2026-04-09T15:51:44Z</time></trkpt><trkpt lat="44.686795782103204" lon="10.18403124716897"><ele>299.4</ele><time>2026-04-09T15:51:46Z</time></trkpt><trkpt lat="44.68679974847025" lon="10.1841525023423"><ele>299.0</ele><time>2026-04-09T15:51:48Z</time></trkpt><trkpt lat="44.68681809713346" lon="10.184238299272362"><ele>297.5</ele><time>2026-04-09T15:51:50Z</time></trkpt><trkpt lat="44.686887987445964" lon="10.184379080427137"><ele>296.0</ele><time>2026-04-09T15:51:52Z</time></trkpt><trkpt lat="44.68696313469339" lon="10.184477964979198"><ele>294.5</ele><time>2026-04-09T15:51:53Z</time></trkpt><trkpt lat="44.68705818498923" lon="10.184592152930279"><ele>293.0</ele><time>2026-04-09T15:51:54Z</time></trkpt><trkpt lat="44.687136483561716" lon="10.1847046812532"><ele>292.5</ele><time>2026-04-09T15:51:55Z</time></trkpt><trkpt lat="44.68719356296763" lon="10.184803246680959"><ele>292.0</ele><time>2026-04-09T15:51:56Z</time></trkpt><trkpt lat="44.68724456220569" lon="10.18489279162345"><ele>291.5</ele><time>2026-04-09T15:51:57Z</time></trkpt><trkpt lat="44.687286081954575" lon="10.184986480999065"><ele>291.0</ele><time>2026-04-09T15:51:58Z</time></trkpt><trkpt lat="44.68732086391711" lon="10.185093669992165"><ele>290.5</ele><time>2026-04-09T15:51:59Z</time></trkpt><trkpt lat="44.687362127139046" lon="10.185191574475326"><ele>290.0</ele><time>2026-04-09T15:52:00Z</time></trkpt><trkpt lat="44.68742193359472" lon="10.18525855576485"><ele>290.0</ele><time>2026-04-09T15:52:01Z</time></trkpt><trkpt lat="44.68749928685812" lon="10.185297616037202"><ele>290.0</ele><time>2026-04-09T15:52:02Z</time></trkpt><trkpt lat="44.68758362485562" lon="10.18530219261113"><ele>290.0</ele><time>2026-04-09T15:52:03Z</time></trkpt><trkpt lat="44.68767678656374" lon="10.185276629940738"><ele>290.0</ele><time>2026-04-09T15:52:04Z</time></trkpt><trkpt lat="44.68777718133856" lon="10.185251636278469"><ele>290.0</ele><time>2026-04-09T15:52:05Z</time></trkpt><trkpt lat="44.68789970466642" lon="10.185240853343132"><ele>288.0</ele><time>2026-04-09T15:52:06Z</time></trkpt><trkpt lat="44.688024491740244" lon="10.185260770578369"><ele>286.0</ele><time>2026-04-09T15:52:07Z</time></trkpt><trkpt lat="44.688127284019025" lon="10.185286088068306"><ele>284.0</ele><time>2026-04-09T15:52:08Z</time></trkpt><trkpt lat="44.68821755732835" lon="10.185310995483059"><ele>282.0</ele><time>2026-04-09T15:52:09Z</time></trkpt><trkpt lat="44.688321477292895" lon="10.185354530912472"><ele>280.0</ele><time>2026-04-09T15:52:10Z</time></trkpt><trkpt lat="44.688434315483704" lon="10.185414999016752"><ele>280.0</ele><time>2026-04-09T15:52:11Z</time></trkpt><trkpt lat="44.68853684426398" lon="10.18547263298247"><ele>280.0</ele><time>2026-04-09T15:52:12.001Z</time></trkpt><trkpt lat="44.68862301774542" lon="10.185528965618591"><ele>280.0</ele><time>2026-04-09T15:52:13.001Z</time></trkpt><trkpt lat="44.68869188590018" lon="10.185584662876023"><ele>280.0</ele><time>2026-04-09T15:52:14.001Z</time></trkpt><trkpt lat="44.688754455348786" lon="10.185668218110536"><ele>280.0</ele><time>2026-04-09T15:52:15.001Z</time></trkpt><trkpt lat="44.68881025296587" lon="10.185785375760284"><ele>282.0</ele><time>2026-04-09T15:52:16.001Z</time></trkpt><trkpt lat="44.68887591326251" lon="10.185922471486238"><ele>284.0</ele><time>2026-04-09T15:52:17.001Z</time></trkpt><trkpt lat="44.688947120316236" lon="10.186048516386624"><ele>286.0</ele><time>2026-04-09T15:52:18.001Z</time></trkpt><trkpt lat="44.689044005209496" lon="10.186162917291446"><ele>288.0</ele><time>2026-04-09T15:52:19.001Z</time></trkpt><trkpt lat="44.68916318317611" lon="10.186255356353126"><ele>288.0</ele><time>2026-04-09T15:52:20.001Z</time></trkpt><trkpt lat="44.68929520648456" lon="10.186317334276078"><ele>288.0</ele><time>2026-04-09T15:52:21.001Z</time></trkpt><trkpt lat="44.68941846133445" lon="10.186365116443273"><ele>288.0</ele><time>2026-04-09T15:52:22.001Z</time></trkpt><trkpt lat="44.689555354048366" lon="10.186395827893612"><ele>288.0</ele><time>2026-04-09T15:52:23.001Z</time></trkpt><trkpt lat="44.6897065908178" lon="10.186406994154684"><ele>287.75</ele><time>2026-04-09T15:52:24.001Z</time></trkpt><trkpt lat="44.689862818749" lon="10.186402220573909"><ele>287.5</ele><time>2026-04-09T15:52:25.001Z</time></trkpt><trkpt lat="44.69001348283962" lon="10.186376582317763"><ele>287.25</ele><time>2026-04-09T15:52:26.001Z</time></trkpt><trkpt lat="44.69015155114789" lon="10.186360919397666"><ele>287.0</ele><time>2026-04-09T15:52:27.001Z</time></trkpt><trkpt lat="44.690266952458764" lon="10.186343611874095"><ele>287.0</ele><time>2026-04-09T15:52:28.001Z</time></trkpt><trkpt lat="44.690370978519724" lon="10.186338690777111"><ele>287.0</ele><time>2026-04-09T15:52:29Z</time></trkpt><trkpt lat="44.690447660393126" lon="10.186353235101008"><ele>287.0</ele><time>2026-04-09T15:52:30Z</time></trkpt><trkpt lat="44.69054033930591" lon="10.18644593045784"><ele>287.0</ele><time>2026-04-09T15:52:32Z</time></trkpt><trkpt lat="44.690578708095494" lon="10.186517551673388"><ele>287.0</ele><time>2026-04-09T15:52:33Z</time></trkpt><trkpt lat="44.690608357184274" lon="10.186601355296856"><ele>287.0</ele><time>2026-04-09T15:52:34Z</time></trkpt><trkpt lat="44.69062527135659" lon="10.186688796336675"><ele>288.2</ele><time>2026-04-09T15:52:35Z</time></trkpt><trkpt lat="44.690643681133324" lon="10.186855290680757"><ele>289.4</ele><time>2026-04-09T15:52:37Z</time></trkpt><trkpt lat="44.69068415988157" lon="10.187004684061602"><ele>290.6</ele><time>2026-04-09T15:52:39Z</time></trkpt><trkpt lat="44.69072233629314" lon="10.187147418349939"><ele>291.8</ele><time>2026-04-09T15:52:41Z</time></trkpt><trkpt lat="44.69076358252863" lon="10.18726702439944"><ele>293.0</ele><time>2026-04-09T15:52:43Z</time></trkpt><trkpt lat="44.69080363624901" lon="10.18739782571095"><ele>293.0</ele><time>2026-04-09T15:52:45Z</time></trkpt><trkpt lat="44.690835214265796" lon="10.18755191595866"><ele>293.0</ele><time>2026-04-09T15:52:47Z</time></trkpt><trkpt lat="44.690849407871546" lon="10.187651787360458"><ele>293.0</ele><time>2026-04-09T15:52:48Z</time></trkpt><trkpt lat="44.69085238586213" lon="10.187771819037843"><ele>293.0</ele><time>2026-04-09T15:52:49Z</time></trkpt><trkpt lat="44.69084863716988" lon="10.18790979447129"><ele>293.0</ele><time>2026-04-09T15:52:50Z</time></trkpt><trkpt lat="44.690838569955424" lon="10.188072173605518"><ele>291.8</ele><time>2026-04-09T15:52:51Z</time></trkpt><trkpt lat="44.690826903247135" lon="10.1882214070905"><ele>290.6</ele><time>2026-04-09T15:52:52Z</time></trkpt><trkpt lat="44.69082281361939" lon="10.188364748140323"><ele>289.4</ele><time>2026-04-09T15:52:53Z</time></trkpt><trkpt lat="44.69084166828378" lon="10.188513825993796"><ele>288.2</ele><time>2026-04-09T15:52:54Z</time></trkpt><trkpt lat="44.690882432651875" lon="10.188656199313224"><ele>287.0</ele><time>2026-04-09T15:52:55Z</time></trkpt><trkpt lat="44.690942359775235" lon="10.188797693966677"><ele>287.0</ele><time>2026-04-09T15:52:56Z</time></trkpt><trkpt lat="44.69101965943294" lon="10.188954501730485"><ele>287.0</ele><time>2026-04-09T15:52:57Z</time></trkpt><trkpt lat="44.69110299293638" lon="10.189113779750775"><ele>287.0</ele><time>2026-04-09T15:52:58Z</time></trkpt><trkpt lat="44.69120033687045" lon="10.18926601742466"><ele>287.0</ele><time>2026-04-09T15:52:59Z</time></trkpt><trkpt lat="44.69130800326653" lon="10.18938678435479"><ele>286.25</ele><time>2026-04-09T15:53:00Z</time></trkpt><trkpt lat="44.691428485907736" lon="10.189488192493648"><ele>285.5</ele><time>2026-04-09T15:53:01Z</time></trkpt><trkpt lat="44.69155867279772" lon="10.189573684881926"><ele>284.75</ele><time>2026-04-09T15:53:02Z</time></trkpt><trkpt lat="44.69167258300052" lon="10.189636015272852"><ele>284.0</ele><time>2026-04-09T15:53:03Z</time></trkpt><trkpt lat="44.691773692724176" lon="10.189687290780935"><ele>284.0</ele><time>2026-04-09T15:53:04Z</time></trkpt><trkpt lat="44.69185235996413" lon="10.18974171208642"><ele>284.0</ele><time>2026-04-09T15:53:05Z</time></trkpt><trkpt lat="44.69191847220466" lon="10.1898124119368"><ele>284.0</ele><time>2026-04-09T15:53:06Z</time></trkpt><trkpt lat="44.691969315932965" lon="10.189917202786335"><ele>284.0</ele><time>2026-04-09T15:53:07Z</time></trkpt><trkpt lat="44.69199939507605" lon="10.190047726733434"><ele>284.0</ele><time>2026-04-09T15:53:08Z</time></trkpt><trkpt lat="44.69202195258025" lon="10.190191500072133"><ele>285.0</ele><time>2026-04-09T15:53:09Z</time></trkpt><trkpt lat="44.69206718228769" lon="10.190320343395603"><ele>286.0</ele><time>2026-04-09T15:53:10Z</time></trkpt><trkpt lat="44.69214031661493" lon="10.190422890948124"><ele>287.0</ele><time>2026-04-09T15:53:11Z</time></trkpt><trkpt lat="44.69223596325654" lon="10.190490553702903"><ele>288.0</ele><time>2026-04-09T15:53:12Z</time></trkpt><trkpt lat="44.692349850602064" lon="10.190535135753096"><ele>289.0</ele><time>2026-04-09T15:53:13Z</time></trkpt><trkpt lat="44.69248318274699" lon="10.190567217940771"><ele>289.0</ele><time>2026-04-09T15:53:14Z</time></trkpt><trkpt lat="44.69263527052652" lon="10.190597772663509"><ele>289.0</ele><time>2026-04-09T15:53:15Z</time></trkpt><trkpt lat="44.69277524308917" lon="10.19062519288357"><ele>289.0</ele><time>2026-04-09T15:53:16Z</time></trkpt><trkpt lat="44.69289122461193" lon="10.190654006817864"><ele>289.0</ele><time>2026-04-09T15:53:17Z</time></trkpt><trkpt lat="44.6929917819548" lon="10.190686628896055"><ele>290.59999999999997</ele><time>2026-04-09T15:53:18Z</time></trkpt><trkpt lat="44.69308202054243" lon="10.190740183945282"><ele>292.2</ele><time>2026-04-09T15:53:19Z</time></trkpt><trkpt lat="44.69315847364185" lon="10.190815214300223"><ele>293.79999999999995</ele><time>2026-04-09T15:53:20Z</time></trkpt><trkpt lat="44.69323629983337" lon="10.190907884738216"><ele>295.4</ele><time>2026-04-09T15:53:21Z</time></trkpt><trkpt lat="44.69331255935" lon="10.191037754183794"><ele>297.0</ele><time>2026-04-09T15:53:22Z</time></trkpt><trkpt lat="44.69338101059077" lon="10.191154827288969"><ele>297.0</ele><time>2026-04-09T15:53:23Z</time></trkpt><trkpt lat="44.69344542678159" lon="10.191261614191788"><ele>297.0</ele><time>2026-04-09T15:53:24Z</time></trkpt><trkpt lat="44.69351444709189" lon="10.191384186723678"><ele>297.0</ele><time>2026-04-09T15:53:25Z</time></trkpt><trkpt lat="44.69358608873167" lon="10.19149580092303"><ele>297.0</ele><time>2026-04-09T15:53:26Z</time></trkpt><trkpt lat="44.69365831800176" lon="10.191602582048965"><ele>297.0</ele><time>2026-04-09T15:53:27Z</time></trkpt><trkpt lat="44.69372431861284" lon="10.191716260304164"><ele>295.2</ele><time>2026-04-09T15:53:28Z</time></trkpt><trkpt lat="44.69378057592317" lon="10.191841230552669"><ele>293.4</ele><time>2026-04-09T15:53:29Z</time></trkpt><trkpt lat="44.693820593510765" lon="10.191979278652104"><ele>291.6</ele><time>2026-04-09T15:53:30Z</time></trkpt><trkpt lat="44.69384704076484" lon="10.192133723440298"><ele>289.8</ele><time>2026-04-09T15:53:31Z</time></trkpt><trkpt lat="44.69385848081741" lon="10.192274643060395"><ele>288.0</ele><time>2026-04-09T15:53:32Z</time></trkpt><trkpt lat="44.69385909784223" lon="10.192414230440896"><ele>288.0</ele><time>2026-04-09T15:53:33Z</time></trkpt><trkpt lat="44.693868336248585" lon="10.192552873351037"><ele>288.0</ele><time>2026-04-09T15:53:34Z</time></trkpt><trkpt lat="44.69389834541236" lon="10.192683108202608"><ele>288.0</ele><time>2026-04-09T15:53:35Z</time></trkpt><trkpt lat="44.693940600150064" lon="10.192783518422187"><ele>288.0</ele><time>2026-04-09T15:53:36Z</time></trkpt><trkpt lat="44.69399403440926" lon="10.19287327223215"><ele>288.0</ele><time>2026-04-09T15:53:37Z</time></trkpt><trkpt lat="44.69405431672743" lon="10.19295095294074"><ele>288.0</ele><time>2026-04-09T15:53:38Z</time></trkpt><trkpt lat="44.694102773687" lon="10.19303023945278"><ele>288.0</ele><time>2026-04-09T15:53:39Z</time></trkpt><trkpt lat="44.69414926663048" lon="10.193131728766165"><ele>288.0</ele><time>2026-04-09T15:53:40Z</time></trkpt><trkpt lat="44.69420586204986" lon="10.19323724417859"><ele>288.0</ele><time>2026-04-09T15:53:41Z</time></trkpt><trkpt lat="44.69426599512767" lon="10.193359697329731"><ele>288.0</ele><time>2026-04-09T15:53:42Z</time></trkpt><trkpt lat="44.694314875636074" lon="10.193501615220969"><ele>288.0</ele><time>2026-04-09T15:53:43Z</time></trkpt><trkpt lat="44.69434669097363" lon="10.193669377304476"><ele>288.25</ele><time>2026-04-09T15:53:44Z</time></trkpt><trkpt lat="44.69437044150294" lon="10.193855025406465"><ele>288.5</ele><time>2026-04-09T15:53:45Z</time></trkpt><trkpt lat="44.694401855352226" lon="10.194052036237307"><ele>288.75</ele><time>2026-04-09T15:53:46Z</time></trkpt><trkpt lat="44.69444989864525" lon="10.194243521109684"><ele>289.0</ele><time>2026-04-09T15:53:47Z</time></trkpt><trkpt lat="44.69450094021354" lon="10.194428079820218"><ele>284.3333333333333</ele><time>2026-04-09T15:53:48Z</time></trkpt><trkpt lat="44.69456186757313" lon="10.194624230714233"><ele>279.6666666666667</ele><time>2026-04-09T15:53:49Z</time></trkpt><trkpt lat="44.69464614144297" lon="10.194815349673766"><ele>275.0</ele><time>2026-04-09T15:53:50Z</time></trkpt><trkpt lat="44.694740666524154" lon="10.195005231080009"><ele>275.0</ele><time>2026-04-09T15:53:51Z</time></trkpt><trkpt lat="44.694839643222124" lon="10.195210194542362"><ele>275.0</ele><time>2026-04-09T15:53:52Z</time></trkpt><trkpt lat="44.69493588192189" lon="10.19540512502718"><ele>275.0</ele><time>2026-04-09T15:53:53Z</time></trkpt><trkpt lat="44.695030532487664" lon="10.195599251223806"><ele>273.6666666666667</ele><time>2026-04-09T15:53:54Z</time></trkpt><trkpt lat="44.69512950645528" lon="10.195795893984387"><ele>272.3333333333333</ele><time>2026-04-09T15:53:55Z</time></trkpt><trkpt lat="44.69522235962293" lon="10.195979224621453"><ele>271.0</ele><time>2026-04-09T15:53:56Z</time></trkpt><trkpt lat="44.695293138208584" lon="10.19613893143068"><ele>271.0</ele><time>2026-04-09T15:53:57Z</time></trkpt><trkpt lat="44.69535774701267" lon="10.196278451150388"><ele>271.0</ele><time>2026-04-09T15:53:58Z</time></trkpt><trkpt lat="44.6954502927606" lon="10.196397034948564"><ele>271.0</ele><time>2026-04-09T15:53:59Z</time></trkpt><trkpt lat="44.69550005622665" lon="10.19646596894202"><ele>271.0</ele><time>2026-04-09T15:54:00Z</time></trkpt><trkpt lat="44.69553520672525" lon="10.196551301661408"><ele>271.0</ele><time>2026-04-09T15:54:01Z</time></trkpt><trkpt lat="44.695546080652186" lon="10.1966806414623"><ele>273.2</ele><time>2026-04-09T15:54:02Z</time></trkpt><trkpt lat="44.695531804073966" lon="10.196821067445025"><ele>275.40000000000003</ele><time>2026-04-09T15:54:03Z</time></trkpt><trkpt lat="44.69553401554647" lon="10.196970242924376"><ele>277.6</ele><time>2026-04-09T15:54:04Z</time></trkpt><trkpt lat="44.69556709625141" lon="10.197126944824578"><ele>279.8</ele><time>2026-04-09T15:54:05Z</time></trkpt><trkpt lat="44.695616581759786" lon="10.197268090387265"><ele>282.0</ele><time>2026-04-09T15:54:06Z</time></trkpt><trkpt lat="44.69568240649551" lon="10.197384895883339"><ele>282.5</ele><time>2026-04-09T15:54:07Z</time></trkpt><trkpt lat="44.69576711293179" lon="10.19746944358656"><ele>283.0</ele><time>2026-04-09T15:54:08Z</time></trkpt><trkpt lat="44.69587876402275" lon="10.197531915859914"><ele>283.5</ele><time>2026-04-09T15:54:09Z</time></trkpt><trkpt lat="44.696008186856716" lon="10.197584055851598"><ele>284.0</ele><time>2026-04-09T15:54:10Z</time></trkpt><trkpt lat="44.69613376473378" lon="10.19764688265259"><ele>284.0</ele><time>2026-04-09T15:54:11Z</time></trkpt><trkpt lat="44.69624813621505" lon="10.197704085286922"><ele>284.0</ele><time>2026-04-09T15:54:12Z</time></trkpt><trkpt lat="44.69637168199918" lon="10.197753002089703"><ele>284.0</ele><time>2026-04-09T15:54:13Z</time></trkpt><trkpt lat="44.696521923888774" lon="10.197801040497437"><ele>284.0</ele><time>2026-04-09T15:54:14Z</time></trkpt><trkpt lat="44.69668086822834" lon="10.197847855565119"><ele>284.0</ele><time>2026-04-09T15:54:15Z</time></trkpt><trkpt lat="44.69683026014607" lon="10.197890208564196"><ele>284.0</ele><time>2026-04-09T15:54:16Z</time></trkpt><trkpt lat="44.696964048925715" lon="10.197922214438242"><ele>284.0</ele><time>2026-04-09T15:54:17Z</time></trkpt><trkpt lat="44.697076390363065" lon="10.197948935389023"><ele>284.0</ele><time>2026-04-09T15:54:18Z</time></trkpt><trkpt lat="44.697164802940065" lon="10.197981065141315"><ele>284.0</ele><time>2026-04-09T15:54:19Z</time></trkpt><trkpt lat="44.69722608185789" lon="10.198029576871093"><ele>284.0</ele><time>2026-04-09T15:54:20Z</time></trkpt><trkpt lat="44.69724760923544" lon="10.198114426908868"><ele>284.0</ele><time>2026-04-09T15:54:21Z</time></trkpt><trkpt lat="44.697319476822386" lon="10.198183590631963"><ele>284.0</ele><time>2026-04-09T15:54:22Z</time></trkpt><trkpt lat="44.697325372345006" lon="10.19828112547437"><ele>284.0</ele><time>2026-04-09T15:54:23Z</time></trkpt><trkpt lat="44.69724635842173" lon="10.198384359325294"><ele>284.0</ele><time>2026-04-09T15:54:25Z</time></trkpt><trkpt lat="44.69718651689756" lon="10.198427814144566"><ele>284.0</ele><time>2026-04-09T15:54:26Z</time></trkpt><trkpt lat="44.69711270183357" lon="10.198482057687606"><ele>284.0</ele><time>2026-04-09T15:54:27Z</time></trkpt><trkpt lat="44.6970232636198" lon="10.198532189576065"><ele>284.0</ele><time>2026-04-09T15:54:28Z</time></trkpt><trkpt lat="44.69691604525164" lon="10.198599061059182"><ele>284.0</ele><time>2026-04-09T15:54:29Z</time></trkpt><trkpt lat="44.6968616867197" lon="10.198670930387888"><ele>284.0</ele><time>2026-04-09T15:54:30Z</time></trkpt><trkpt lat="44.69681445860553" lon="10.198791516500782"><ele>286.0</ele><time>2026-04-09T15:54:31Z</time></trkpt><trkpt lat="44.6967775870425" lon="10.198918431482582"><ele>288.0</ele><time>2026-04-09T15:54:32Z</time></trkpt><trkpt lat="44.69678353402337" lon="10.199084870066503"><ele>290.0</ele><time>2026-04-09T15:54:33Z</time></trkpt><trkpt lat="44.69678707310673" lon="10.199293486195064"><ele>292.0</ele><time>2026-04-09T15:54:34Z</time></trkpt><trkpt lat="44.696791315723594" lon="10.199509733075006"><ele>292.0</ele><time>2026-04-09T15:54:35Z</time></trkpt><trkpt lat="44.696800745836406" lon="10.199740129922366"><ele>292.0</ele><time>2026-04-09T15:54:36Z</time></trkpt><trkpt lat="44.696799820819884" lon="10.199956155468806"><ele>292.0</ele><time>2026-04-09T15:54:37Z</time></trkpt><trkpt lat="44.6968254855513" lon="10.200134567883637"><ele>292.0</ele><time>2026-04-09T15:54:38Z</time></trkpt><trkpt lat="44.696824837825645" lon="10.200292574350444"><ele>293.0</ele><time>2026-04-09T15:54:39Z</time></trkpt><trkpt lat="44.69680610180052" lon="10.200407403644133"><ele>294.0</ele><time>2026-04-09T15:54:40Z</time></trkpt><trkpt lat="44.696771427583954" lon="10.20055678507664"><ele>295.0</ele><time>2026-04-09T15:54:41Z</time></trkpt><trkpt lat="44.696720557212515" lon="10.200677213363376"><ele>296.0</ele><time>2026-04-09T15:54:42Z</time></trkpt><trkpt lat="44.69662625054131" lon="10.200807394235012"><ele>297.0</ele><time>2026-04-09T15:54:43Z</time></trkpt><trkpt lat="44.69654714700427" lon="10.200995581811979"><ele>297.5</ele><time>2026-04-09T15:54:44Z</time></trkpt><trkpt lat="44.69645171814618" lon="10.201174513083158"><ele>298.0</ele><time>2026-04-09T15:54:45Z</time></trkpt><trkpt lat="44.69630597449932" lon="10.201294394609993"><ele>298.5</ele><time>2026-04-09T15:54:46Z</time></trkpt><trkpt lat="44.69626728786947" lon="10.201445013844575"><ele>299.0</ele><time>2026-04-09T15:54:47Z</time></trkpt><trkpt lat="44.696191162016966" lon="10.201586900880464"><ele>297.25</ele><time>2026-04-09T15:54:48Z</time></trkpt><trkpt lat="44.69626642036783" lon="10.201745730222054"><ele>295.5</ele><time>2026-04-09T15:54:49Z</time></trkpt><trkpt lat="44.696295532218706" lon="10.201888544243406"><ele>293.75</ele><time>2026-04-09T15:54:50Z</time></trkpt><trkpt lat="44.696337410435895" lon="10.202041638106904"><ele>292.0</ele><time>2026-04-09T15:54:51Z</time></trkpt><trkpt lat="44.69643379106132" lon="10.202199726437753"><ele>292.0</ele><time>2026-04-09T15:54:52Z</time></trkpt><trkpt lat="44.696544984128714" lon="10.202329582542118"><ele>292.0</ele><time>2026-04-09T15:54:53Z</time></trkpt><trkpt lat="44.69664046483765" lon="10.202475073129074"><ele>292.0</ele><time>2026-04-09T15:54:54Z</time></trkpt><trkpt lat="44.696733186138246" lon="10.202667984067512"><ele>291.66666666666663</ele><time>2026-04-09T15:54:55Z</time></trkpt><trkpt lat="44.69681154496797" lon="10.202893991696815"><ele>291.3333333333333</ele><time>2026-04-09T15:54:56Z</time></trkpt><trkpt lat="44.69687124323839" lon="10.203102081930252"><ele>291.0</ele><time>2026-04-09T15:54:57Z</time></trkpt><trkpt lat="44.69693941657094" lon="10.203298344693048"><ele>290.0</ele><time>2026-04-09T15:54:58Z</time></trkpt><trkpt lat="44.697037508973104" lon="10.203463758391548"><ele>289.0</ele><time>2026-04-09T15:54:59Z</time></trkpt><trkpt lat="44.69716721532822" lon="10.203627021493704"><ele>288.0</ele><time>2026-04-09T15:55:00Z</time></trkpt><trkpt lat="44.69729148491309" lon="10.203767197576493"><ele>288.0</ele><time>2026-04-09T15:55:01Z</time></trkpt><trkpt lat="44.69738626126857" lon="10.20389215755027"><ele>288.0</ele><time>2026-04-09T15:55:02Z</time></trkpt><trkpt lat="44.69748050483415" lon="10.204037151423936"><ele>288.0</ele><time>2026-04-09T15:55:03Z</time></trkpt><trkpt lat="44.6975278459702" lon="10.204220307366612"><ele>288.0</ele><time>2026-04-09T15:55:04Z</time></trkpt><trkpt lat="44.69757067963568" lon="10.20441637647385"><ele>291.0</ele><time>2026-04-09T15:55:05Z</time></trkpt><trkpt lat="44.69763642834055" lon="10.204601397349993"><ele>294.0</ele><time>2026-04-09T15:55:06Z</time></trkpt><trkpt lat="44.697663845135274" lon="10.204762460004673"><ele>297.0</ele><time>2026-04-09T15:55:07Z</time></trkpt><trkpt lat="44.697674706947716" lon="10.204905766498731"><ele>300.0</ele><time>2026-04-09T15:55:08Z</time></trkpt><trkpt lat="44.69769748230174" lon="10.2050449549008"><ele>300.0</ele><time>2026-04-09T15:55:09Z</time></trkpt><trkpt lat="44.69772572585407" lon="10.205180805241877"><ele>300.0</ele><time>2026-04-09T15:55:10Z</time></trkpt><trkpt lat="44.697753014586276" lon="10.205333042623787"><ele>300.0</ele><time>2026-04-09T15:55:11Z</time></trkpt><trkpt lat="44.69779841964576" lon="10.205500340779482"><ele>300.0</ele><time>2026-04-09T15:55:12Z</time></trkpt><trkpt lat="44.697852229636524" lon="10.205690276911671"><ele>300.0</ele><time>2026-04-09T15:55:13Z</time></trkpt><trkpt lat="44.69792589817746" lon="10.205895886335863"><ele>300.0</ele><time>2026-04-09T15:55:14Z</time></trkpt><trkpt lat="44.6980058746014" lon="10.206102860710665"><ele>300.0</ele><time>2026-04-09T15:55:15Z</time></trkpt><trkpt lat="44.69807985073899" lon="10.20628531486368"><ele>300.0</ele><time>2026-04-09T15:55:16Z</time></trkpt><trkpt lat="44.698161262012384" lon="10.206463389157456"><ele>300.0</ele><time>2026-04-09T15:55:17Z</time></trkpt><trkpt lat="44.69823881958162" lon="10.206645318772093"><ele>300.0</ele><time>2026-04-09T15:55:18Z</time></trkpt><trkpt lat="44.698311639961325" lon="10.206814836437761"><ele>300.0</ele><time>2026-04-09T15:55:19Z</time></trkpt><trkpt lat="44.69838139861786" lon="10.206982397376823"><ele>299.25</ele><time>2026-04-09T15:55:20Z</time></trkpt><trkpt lat="44.69844616998849" lon="10.207154761551804"><ele>298.5</ele><time>2026-04-09T15:55:21Z</time></trkpt><trkpt lat="44.69851180441583" lon="10.207310160893712"><ele>297.75</ele><time>2026-04-09T15:55:22Z</time></trkpt><trkpt lat="44.69857696362696" lon="10.207471840548328"><ele>297.0</ele><time>2026-04-09T15:55:23Z</time></trkpt><trkpt lat="44.69864188463395" lon="10.207626290232481"><ele>294.25</ele><time>2026-04-09T15:55:24Z</time></trkpt><trkpt lat="44.698701425465934" lon="10.20776851940648"><ele>291.5</ele><time>2026-04-09T15:55:25Z</time></trkpt><trkpt lat="44.6987636147733" lon="10.207917571337232"><ele>288.75</ele><time>2026-04-09T15:55:26Z</time></trkpt><trkpt lat="44.69882740577112" lon="10.208059323560368"><ele>286.0</ele><time>2026-04-09T15:55:27Z</time></trkpt><trkpt lat="44.69889409832123" lon="10.208191133586475"><ele>285.75</ele><time>2026-04-09T15:55:28Z</time></trkpt><trkpt lat="44.69895907400362" lon="10.208323292468368"><ele>285.5</ele><time>2026-04-09T15:55:29Z</time></trkpt><trkpt lat="44.699024969299295" lon="10.208459372166114"><ele>285.25</ele><time>2026-04-09T15:55:30Z</time></trkpt><trkpt lat="44.69909625040511" lon="10.208600881320812"><ele>285.0</ele><time>2026-04-09T15:55:31Z</time></trkpt><trkpt lat="44.699189968328874" lon="10.208769607976675"><ele>285.0</ele><time>2026-04-09T15:55:32Z</time></trkpt><trkpt lat="44.69928509391449" lon="10.208949877489948"><ele>285.0</ele><time>2026-04-09T15:55:33Z</time></trkpt><trkpt lat="44.699373972809774" lon="10.20911909695849"><ele>285.0</ele><time>2026-04-09T15:55:34Z</time></trkpt><trkpt lat="44.69945535872638" lon="10.209270976332643"><ele>285.0</ele><time>2026-04-09T15:55:35Z</time></trkpt><trkpt lat="44.699527580132745" lon="10.209407708574371"><ele>284.6</ele><time>2026-04-09T15:55:36Z</time></trkpt><trkpt lat="44.69959837457563" lon="10.209525887723265"><ele>284.2</ele><time>2026-04-09T15:55:37Z</time></trkpt><trkpt lat="44.69966927652446" lon="10.209630935289015"><ele>283.8</ele><time>2026-04-09T15:55:38Z</time></trkpt><trkpt lat="44.699761009276294" lon="10.209703217864849"><ele>283.4</ele><time>2026-04-09T15:55:39Z</time></trkpt><trkpt lat="44.69985467855002" lon="10.209752860771506"><ele>283.0</ele><time>2026-04-09T15:55:40Z</time></trkpt><trkpt lat="44.699945158061496" lon="10.209803344441827"><ele>282.0</ele><time>2026-04-09T15:55:41Z</time></trkpt><trkpt lat="44.70002516106233" lon="10.209870236720842"><ele>281.0</ele><time>2026-04-09T15:55:42Z</time></trkpt><trkpt lat="44.70009434117802" lon="10.20995176366274"><ele>280.0</ele><time>2026-04-09T15:55:43Z</time></trkpt><trkpt lat="44.70015611488012" lon="10.21005651398597"><ele>279.0</ele><time>2026-04-09T15:55:44Z</time></trkpt><trkpt lat="44.70020996157502" lon="10.210164152326723"><ele>278.0</ele><time>2026-04-09T15:55:45Z</time></trkpt><trkpt lat="44.70026736785284" lon="10.210272083841764"><ele>277.6</ele><time>2026-04-09T15:55:46Z</time></trkpt><trkpt lat="44.70032662669419" lon="10.210361984625253"><ele>277.20000000000005</ele><time>2026-04-09T15:55:47Z</time></trkpt><trkpt lat="44.700396808068575" lon="10.210460362643856"><ele>276.8</ele><time>2026-04-09T15:55:48Z</time></trkpt><trkpt lat="44.70046569981292" lon="10.210557871726596"><ele>276.40000000000003</ele><time>2026-04-09T15:55:49Z</time></trkpt><trkpt lat="44.700540809055944" lon="10.210646047306652"><ele>276.0</ele><time>2026-04-09T15:55:50Z</time></trkpt><trkpt lat="44.70062335815723" lon="10.210716143738628"><ele>273.8</ele><time>2026-04-09T15:55:51Z</time></trkpt><trkpt lat="44.70071647543414" lon="10.210785350763592"><ele>271.6</ele><time>2026-04-09T15:55:52Z</time></trkpt><trkpt lat="44.70080866965458" lon="10.210848542393071"><ele>269.4</ele><time>2026-04-09T15:55:53Z</time></trkpt><trkpt lat="44.700911662717395" lon="10.210908154535717"><ele>267.2</ele><time>2026-04-09T15:55:54Z</time></trkpt><trkpt lat="44.70102897264438" lon="10.210985987906982"><ele>265.0</ele><time>2026-04-09T15:55:55Z</time></trkpt><trkpt lat="44.70115737842603" lon="10.211063000640706"><ele>262.75</ele><time>2026-04-09T15:55:56Z</time></trkpt><trkpt lat="44.70129937904719" lon="10.211131008220255"><ele>260.5</ele><time>2026-04-09T15:55:57Z</time></trkpt><trkpt lat="44.70143195845291" lon="10.211185637231923"><ele>258.25</ele><time>2026-04-09T15:55:58Z</time></trkpt><trkpt lat="44.70156468269309" lon="10.211234362719486"><ele>256.0</ele><time>2026-04-09T15:55:59Z</time></trkpt><trkpt lat="44.70167983432633" lon="10.21127704672733"><ele>255.99999999999997</ele><time>2026-04-09T15:56:00Z</time></trkpt><trkpt lat="44.70177872587526" lon="10.211312105981937"><ele>256.0</ele><time>2026-04-09T15:56:01Z</time></trkpt><trkpt lat="44.701854234210245" lon="10.21133735649295"><ele>256.0</ele><time>2026-04-09T15:56:02Z</time></trkpt><trkpt lat="44.70193744368698" lon="10.211387811336817"><ele>256.0</ele><time>2026-04-09T15:56:04Z</time></trkpt><trkpt lat="44.70196774829391" lon="10.211477674334956"><ele>255.99999999999997</ele><time>2026-04-09T15:56:06Z</time></trkpt><trkpt lat="44.70194484550498" lon="10.211602914750575"><ele>256.0</ele><time>2026-04-09T15:56:09Z</time></trkpt><trkpt lat="44.701918513485715" lon="10.211684612868337"><ele>254.8</ele><time>2026-04-09T15:56:11Z</time></trkpt><trkpt lat="44.70187177641862" lon="10.211821059640425"><ele>253.60000000000002</ele><time>2026-04-09T15:56:14Z</time></trkpt><trkpt lat="44.701847803965364" lon="10.211935783655937"><ele>252.4</ele><time>2026-04-09T15:56:15Z</time></trkpt><trkpt lat="44.70180474997427" lon="10.212082440956962"><ele>251.2</ele><time>2026-04-09T15:56:16Z</time></trkpt><trkpt lat="44.70175971926878" lon="10.212238121298054"><ele>250.0</ele><time>2026-04-09T15:56:17Z</time></trkpt><trkpt lat="44.70170857847572" lon="10.212405966573789"><ele>249.5</ele><time>2026-04-09T15:56:18Z</time></trkpt><trkpt lat="44.701663005634735" lon="10.212578396252383"><ele>249.0</ele><time>2026-04-09T15:56:19Z</time></trkpt><trkpt lat="44.70162175896969" lon="10.21274191912918"><ele>248.5</ele><time>2026-04-09T15:56:20Z</time></trkpt><trkpt lat="44.70156898675672" lon="10.212912812674569"><ele>248.0</ele><time>2026-04-09T15:56:21Z</time></trkpt><trkpt lat="44.701517887172166" lon="10.213073608084212"><ele>246.5</ele><time>2026-04-09T15:56:22Z</time></trkpt><trkpt lat="44.70147425444029" lon="10.213230273287971"><ele>245.0</ele><time>2026-04-09T15:56:23Z</time></trkpt><trkpt lat="44.70142714341722" lon="10.213382799358003"><ele>243.5</ele><time>2026-04-09T15:56:24Z</time></trkpt><trkpt lat="44.701371156552696" lon="10.213544414814322"><ele>242.0</ele><time>2026-04-09T15:56:25Z</time></trkpt><trkpt lat="44.70130784609616" lon="10.213713820281319"><ele>242.0</ele><time>2026-04-09T15:56:26Z</time></trkpt><trkpt lat="44.701243300804904" lon="10.213874459293793"><ele>242.0</ele><time>2026-04-09T15:56:27Z</time></trkpt><trkpt lat="44.70117984394909" lon="10.214031651290115"><ele>242.0</ele><time>2026-04-09T15:56:28Z</time></trkpt><trkpt lat="44.70111747869249" lon="10.214195429516872"><ele>242.0</ele><time>2026-04-09T15:56:29Z</time></trkpt><trkpt lat="44.70105547285588" lon="10.21436960477037"><ele>240.25</ele><time>2026-04-09T15:56:30Z</time></trkpt><trkpt lat="44.70098840965668" lon="10.214540553673418"><ele>238.5</ele><time>2026-04-09T15:56:31Z</time></trkpt><trkpt lat="44.70092398949423" lon="10.214698317841576"><ele>236.75</ele><time>2026-04-09T15:56:32Z</time></trkpt><trkpt lat="44.700863188452516" lon="10.214853934541017"><ele>235.0</ele><time>2026-04-09T15:56:33Z</time></trkpt><trkpt lat="44.70080579398163" lon="10.215001062366898"><ele>234.33333333333331</ele><time>2026-04-09T15:56:34Z</time></trkpt><trkpt lat="44.70075128104146" lon="10.215137608193118"><ele>233.66666666666666</ele><time>2026-04-09T15:56:35Z</time></trkpt><trkpt lat="44.70070278568179" lon="10.2152574609667"><ele>233.0</ele><time>2026-04-09T15:56:36Z</time></trkpt><trkpt lat="44.70065917790661" lon="10.215361632622033"><ele>232.33333333333331</ele><time>2026-04-09T15:56:37Z</time></trkpt><trkpt lat="44.700625319713275" lon="10.215440048947528"><ele>231.66666666666666</ele><time>2026-04-09T15:56:38Z</time></trkpt><trkpt lat="44.700590806612944" lon="10.215531311731619"><ele>231.0</ele><time>2026-04-09T15:56:40Z</time></trkpt><trkpt lat="44.700626361129714" lon="10.215641163920012"><ele>230.0</ele><time>2026-04-09T15:56:49Z</time></trkpt><trkpt lat="44.70074465861763" lon="10.215721117320927"><ele>229.00000000000003</ele><time>2026-04-09T15:56:50.999Z</time></trkpt><trkpt lat="44.70084193913031" lon="10.215791735986635"><ele>228.00000000000003</ele><time>2026-04-09T15:56:52.999Z</time></trkpt><trkpt lat="44.7009225725893" lon="10.21584787111153"><ele>227.0</ele><time>2026-04-09T15:56:54.999Z</time></trkpt><trkpt lat="44.70099830657285" lon="10.215923923688399"><ele>226.0</ele><time>2026-04-09T15:56:56.999Z</time></trkpt><trkpt lat="44.70106463360013" lon="10.215980458734645"><ele>225.49999999999997</ele><time>2026-04-09T15:56:57.999Z</time></trkpt><trkpt lat="44.701140708900745" lon="10.216041406032799"><ele>225.0</ele><time>2026-04-09T15:56:58.999Z</time></trkpt><trkpt lat="44.70122631340357" lon="10.216116496602039"><ele>224.5</ele><time>2026-04-09T15:56:59.999Z</time></trkpt><trkpt lat="44.7013091870246" lon="10.216186856193522"><ele>224.0</ele><time>2026-04-09T15:57:00.999Z</time></trkpt><trkpt lat="44.70138020959144" lon="10.216245259851982"><ele>223.49999999999997</ele><time>2026-04-09T15:57:01.999Z</time></trkpt><trkpt lat="44.701440649143144" lon="10.21629465283177"><ele>223.0</ele><time>2026-04-09T15:57:02.999Z</time></trkpt><trkpt lat="44.70154104963106" lon="10.216364798547662"><ele>223.0</ele><time>2026-04-09T15:57:04.999Z</time></trkpt><trkpt lat="44.70158596610339" lon="10.216502933357201"><ele>223.0</ele><time>2026-04-09T15:57:06.999Z</time></trkpt><trkpt lat="44.70158299004617" lon="10.216617157195586"><ele>223.0</ele><time>2026-04-09T15:57:07.999Z</time></trkpt><trkpt lat="44.70156262760441" lon="10.216785367371726"><ele>223.0</ele><time>2026-04-09T15:57:08.999Z</time></trkpt><trkpt lat="44.7015478772761" lon="10.216942329995328"><ele>223.0</ele><time>2026-04-09T15:57:09.999Z</time></trkpt><trkpt lat="44.7015371482051" lon="10.217075436719439"><ele>222.99999999999997</ele><time>2026-04-09T15:57:10.999Z</time></trkpt><trkpt lat="44.70153030684003" lon="10.217193222390659"><ele>223.0</ele><time>2026-04-09T15:57:11.999Z</time></trkpt><trkpt lat="44.701522766553104" lon="10.217307258286416"><ele>223.0</ele><time>2026-04-09T15:57:12.999Z</time></trkpt><trkpt lat="44.70151121309172" lon="10.217413301805202"><ele>223.0</ele><time>2026-04-09T15:57:13.999Z</time></trkpt><trkpt lat="44.70149932444799" lon="10.217532182107764"><ele>222.99999999999997</ele><time>2026-04-09T15:57:14.999Z</time></trkpt><trkpt lat="44.701485293247615" lon="10.217676244474424"><ele>223.0</ele><time>2026-04-09T15:57:15.999Z</time></trkpt><trkpt lat="44.70147526901589" lon="10.217837797283744"><ele>222.25</ele><time>2026-04-09T15:57:16.999Z</time></trkpt><trkpt lat="44.701474087651015" lon="10.217999373440161"><ele>221.5</ele><time>2026-04-09T15:57:17.999Z</time></trkpt><trkpt lat="44.70147462398897" lon="10.218153616723518"><ele>220.75</ele><time>2026-04-09T15:57:18.999Z</time></trkpt><trkpt lat="44.70147348636782" lon="10.218306949897489"><ele>220.0</ele><time>2026-04-09T15:57:19.999Z</time></trkpt><trkpt lat="44.70147819590974" lon="10.218475548265404"><ele>218.5</ele><time>2026-04-09T15:57:20.999Z</time></trkpt><trkpt lat="44.701479983329804" lon="10.218645277584583"><ele>217.0</ele><time>2026-04-09T15:57:21.999Z</time></trkpt><trkpt lat="44.70148454368738" lon="10.218813257642326"><ele>215.5</ele><time>2026-04-09T15:57:22.999Z</time></trkpt><trkpt lat="44.70148961342971" lon="10.218975438687684"><ele>214.0</ele><time>2026-04-09T15:57:23.999Z</time></trkpt><trkpt lat="44.701489681833536" lon="10.219135962698727"><ele>212.0</ele><time>2026-04-09T15:57:24.999Z</time></trkpt><trkpt lat="44.70148289415509" lon="10.219289624861043"><ele>210.0</ele><time>2026-04-09T15:57:25.999Z</time></trkpt><trkpt lat="44.701463725464365" lon="10.219443635890322"><ele>208.0</ele><time>2026-04-09T15:57:26.999Z</time></trkpt><trkpt lat="44.7014268179963" lon="10.219608886331319"><ele>206.0</ele><time>2026-04-09T15:57:27.999Z</time></trkpt><trkpt lat="44.70137525584822" lon="10.21978923027843"><ele>205.25</ele><time>2026-04-09T15:57:28.999Z</time></trkpt><trkpt lat="44.70132282855362" lon="10.219972298749484"><ele>204.5</ele><time>2026-04-09T15:57:29.999Z</time></trkpt><trkpt lat="44.70126933309892" lon="10.220149240690855"><ele>203.75</ele><time>2026-04-09T15:57:30.999Z</time></trkpt><trkpt lat="44.70121637499504" lon="10.220324698323523"><ele>203.0</ele><time>2026-04-09T15:57:31.999Z</time></trkpt><trkpt lat="44.70117024024993" lon="10.220490626074673"><ele>203.0</ele><time>2026-04-09T15:57:32.999Z</time></trkpt><trkpt lat="44.70112498943767" lon="10.220642759774703"><ele>203.0</ele><time>2026-04-09T15:57:33.999Z</time></trkpt><trkpt lat="44.70108225481657" lon="10.22078677124106"><ele>203.0</ele><time>2026-04-09T15:57:34.999Z</time></trkpt><trkpt lat="44.70103416382509" lon="10.220925611870298"><ele>203.0</ele><time>2026-04-09T15:57:35.999Z</time></trkpt><trkpt lat="44.70098562224401" lon="10.22106735938744"><ele>201.75</ele><time>2026-04-09T15:57:36.999Z</time></trkpt><trkpt lat="44.70094316039732" lon="10.221211166193752"><ele>200.5</ele><time>2026-04-09T15:57:37.999Z</time></trkpt><trkpt lat="44.700904190971066" lon="10.221364541490335"><ele>199.25</ele><time>2026-04-09T15:57:38.999Z</time></trkpt><trkpt lat="44.700870344351586" lon="10.221519457941108"><ele>198.0</ele><time>2026-04-09T15:57:39.999Z</time></trkpt><trkpt lat="44.70084011493528" lon="10.221668555397905"><ele>196.60000000000002</ele><time>2026-04-09T15:57:40.999Z</time></trkpt><trkpt lat="44.700811438858686" lon="10.22179709524171"><ele>195.20000000000002</ele><time>2026-04-09T15:57:41.999Z</time></trkpt><trkpt lat="44.7007888718059" lon="10.221909843199892"><ele>193.8</ele><time>2026-04-09T15:57:42.999Z</time></trkpt><trkpt lat="44.70075927005013" lon="10.222054808998259"><ele>192.4</ele><time>2026-04-09T15:57:44.999Z</time></trkpt><trkpt lat="44.700672938994536" lon="10.222163993916563"><ele>191.0</ele><time>2026-04-09T15:57:47.999Z</time></trkpt><trkpt lat="44.70059074836283" lon="10.222193560903222"><ele>191.0</ele><time>2026-04-09T15:57:48.999Z</time></trkpt><trkpt lat="44.70049089745945" lon="10.222220581034591"><ele>191.0</ele><time>2026-04-09T15:57:49.999Z</time></trkpt><trkpt lat="44.7003909521157" lon="10.222255858562463"><ele>191.0</ele><time>2026-04-09T15:57:50.999Z</time></trkpt><trkpt lat="44.70030101376733" lon="10.222285134814367"><ele>191.0</ele><time>2026-04-09T15:57:51.999Z</time></trkpt><trkpt lat="44.700232199983354" lon="10.222298222864488"><ele>191.0</ele><time>2026-04-09T15:57:52.999Z</time></trkpt><trkpt lat="44.70012096041886" lon="10.222324268952322"><ele>191.0</ele><time>2026-04-09T15:57:54.999Z</time></trkpt><trkpt lat="44.70004753650188" lon="10.22233494906332"><ele>191.0</ele><time>2026-04-09T15:57:55.999Z</time></trkpt><trkpt lat="44.699946806192195" lon="10.222330667442439"><ele>191.0</ele><time>2026-04-09T15:57:56.999Z</time></trkpt><trkpt lat="44.69982534625435" lon="10.222312999499849"><ele>191.0</ele><time>2026-04-09T15:57:57.999Z</time></trkpt><trkpt lat="44.69969696634186" lon="10.222288906530432"><ele>191.0</ele><time>2026-04-09T15:57:58.999Z</time></trkpt><trkpt lat="44.69956770933633" lon="10.22225181491731"><ele>191.0</ele><time>2026-04-09T15:57:59.999Z</time></trkpt><trkpt lat="44.69942707761559" lon="10.222198172557983"><ele>191.0</ele><time>2026-04-09T15:58:00.999Z</time></trkpt><trkpt lat="44.69929107520902" lon="10.222147684581902"><ele>191.0</ele><time>2026-04-09T15:58:01.999Z</time></trkpt><trkpt lat="44.699167884831105" lon="10.222102229865058"><ele>191.0</ele><time>2026-04-09T15:58:02.999Z</time></trkpt><trkpt lat="44.69905051512887" lon="10.222053206642553"><ele>191.20000000000002</ele><time>2026-04-09T15:58:03.999Z</time></trkpt><trkpt lat="44.698933025428744" lon="10.222005862081042"><ele>191.4</ele><time>2026-04-09T15:58:04.999Z</time></trkpt><trkpt lat="44.698828526137966" lon="10.221958768988346"><ele>191.6</ele><time>2026-04-09T15:58:05.999Z</time></trkpt><trkpt lat="44.69873370778063" lon="10.221911887682845"><ele>191.8</ele><time>2026-04-09T15:58:06.999Z</time></trkpt><trkpt lat="44.6986461227595" lon="10.22188224181274"><ele>192.0</ele><time>2026-04-09T15:58:07.999Z</time></trkpt><trkpt lat="44.698559378056785" lon="10.221888781736004"><ele>191.0</ele><time>2026-04-09T15:58:08.999Z</time></trkpt><trkpt lat="44.69847693496731" lon="10.221937839324726"><ele>190.0</ele><time>2026-04-09T15:58:09.999Z</time></trkpt><trkpt lat="44.698414191432185" lon="10.222034359931218"><ele>189.0</ele><time>2026-04-09T15:58:10.999Z</time></trkpt><trkpt lat="44.69837336718638" lon="10.222171941010352"><ele>188.0</ele><time>2026-04-09T15:58:11.999Z</time></trkpt><trkpt lat="44.69833699100477" lon="10.222321593316895"><ele>187.0</ele><time>2026-04-09T15:58:12.999Z</time></trkpt><trkpt lat="44.69829716581026" lon="10.22245792151039"><ele>186.5</ele><time>2026-04-09T15:58:13.999Z</time></trkpt><trkpt lat="44.69826024626511" lon="10.222574338932455"><ele>186.0</ele><time>2026-04-09T15:58:14.999Z</time></trkpt><trkpt lat="44.698227049772306" lon="10.222675479350949"><ele>185.5</ele><time>2026-04-09T15:58:15.999Z</time></trkpt><trkpt lat="44.69819420164028" lon="10.222772329371116"><ele>185.0</ele><time>2026-04-09T15:58:16.999Z</time></trkpt><trkpt lat="44.69815692045386" lon="10.222853177358314"><ele>184.5</ele><time>2026-04-09T15:58:17.999Z</time></trkpt><trkpt lat="44.698083207550106" lon="10.222957422116387"><ele>184.0</ele><time>2026-04-09T15:58:19.999Z</time></trkpt><trkpt lat="44.69812413010749" lon="10.223087813503767"><ele>184.0</ele><time>2026-04-09T15:58:30.999Z</time></trkpt><trkpt lat="44.69819001838038" lon="10.223134577104661"><ele>184.0</ele><time>2026-04-09T15:58:31.999Z</time></trkpt><trkpt lat="44.69829093929221" lon="10.223202521520294"><ele>184.0</ele><time>2026-04-09T15:58:32.999Z</time></trkpt><trkpt lat="44.69841000944763" lon="10.22328941040465"><ele>184.0</ele><time>2026-04-09T15:58:33.999Z</time></trkpt><trkpt lat="44.69854363361222" lon="10.223394094748219"><ele>183.66666666666669</ele><time>2026-04-09T15:58:34.999Z</time></trkpt><trkpt lat="44.69869487306565" lon="10.223508206280215"><ele>183.33333333333334</ele><time>2026-04-09T15:58:35.999Z</time></trkpt><trkpt lat="44.698843035990215" lon="10.223618325525688"><ele>183.0</ele><time>2026-04-09T15:58:36.999Z</time></trkpt><trkpt lat="44.6990102416116" lon="10.223738873237972"><ele>183.0</ele><time>2026-04-09T15:58:37.999Z</time></trkpt><trkpt lat="44.69916996533617" lon="10.223853277764508"><ele>183.0</ele><time>2026-04-09T15:58:38.999Z</time></trkpt><trkpt lat="44.69932736487499" lon="10.223969556097712"><ele>183.0</ele><time>2026-04-09T15:58:39.999Z</time></trkpt><trkpt lat="44.69947791761407" lon="10.224079359204106"><ele>184.0</ele><time>2026-04-09T15:58:40.999Z</time></trkpt><trkpt lat="44.69962545298134" lon="10.224185148207097"><ele>185.0</ele><time>2026-04-09T15:58:41.999Z</time></trkpt><trkpt lat="44.69977221231709" lon="10.224294158529185"><ele>186.0</ele><time>2026-04-09T15:58:42.999Z</time></trkpt><trkpt lat="44.69991928936764" lon="10.224405027735006"><ele>186.0</ele><time>2026-04-09T15:58:43.999Z</time></trkpt><trkpt lat="44.70006992498024" lon="10.22452385355072"><ele>186.0</ele><time>2026-04-09T15:58:44.999Z</time></trkpt><trkpt lat="44.7002160662158" lon="10.224637884314092"><ele>186.0</ele><time>2026-04-09T15:58:45.999Z</time></trkpt><trkpt lat="44.700369370152636" lon="10.22474964384266"><ele>185.0</ele><time>2026-04-09T15:58:46.999Z</time></trkpt><trkpt lat="44.700526971426726" lon="10.224864625803178"><ele>184.0</ele><time>2026-04-09T15:58:48Z</time></trkpt><trkpt lat="44.70068131036021" lon="10.224982431467161"><ele>183.0</ele><time>2026-04-09T15:58:49Z</time></trkpt><trkpt lat="44.700828985746284" lon="10.225097809239175"><ele>183.0</ele><time>2026-04-09T15:58:49.999Z</time></trkpt><trkpt lat="44.70096617215758" lon="10.225214257859058"><ele>183.0</ele><time>2026-04-09T15:58:50.999Z</time></trkpt><trkpt lat="44.70110121564857" lon="10.225334912190506"><ele>183.0</ele><time>2026-04-09T15:58:51.999Z</time></trkpt><trkpt lat="44.70123402489922" lon="10.225456629151271"><ele>181.0</ele><time>2026-04-09T15:58:52.999Z</time></trkpt><trkpt lat="44.70137115008632" lon="10.22557624486822"><ele>179.0</ele><time>2026-04-09T15:58:53.999Z</time></trkpt><trkpt lat="44.70151463818456" lon="10.225704314145704"><ele>177.0</ele><time>2026-04-09T15:58:54.999Z</time></trkpt><trkpt lat="44.70167177059757" lon="10.225840004917721"><ele>176.66666666666666</ele><time>2026-04-09T15:58:55.999Z</time></trkpt><trkpt lat="44.701838620864436" lon="10.226016387665208"><ele>176.33333333333331</ele><time>2026-04-09T15:58:56.999Z</time></trkpt><trkpt lat="44.702014788304325" lon="10.22617821455902"><ele>176.0</ele><time>2026-04-09T15:58:57.999Z</time></trkpt><trkpt lat="44.70220457884371" lon="10.226352598321819"><ele>175.5</ele><time>2026-04-09T15:58:58.999Z</time></trkpt><trkpt lat="44.70240273824939" lon="10.226535837139402"><ele>175.0</ele><time>2026-04-09T15:58:59.999Z</time></trkpt><trkpt lat="44.702608788097784" lon="10.226726372448185"><ele>175.0</ele><time>2026-04-09T15:59:00.999Z</time></trkpt><trkpt lat="44.70281005082992" lon="10.22689263163258"><ele>175.0</ele><time>2026-04-09T15:59:01.999Z</time></trkpt><trkpt lat="44.70300568844774" lon="10.227076985062574"><ele>175.0</ele><time>2026-04-09T15:59:02.999Z</time></trkpt><trkpt lat="44.703201198140924" lon="10.227259190531354"><ele>175.0</ele><time>2026-04-09T15:59:03.999Z</time></trkpt><trkpt lat="44.70339513782244" lon="10.227437935169306"><ele>175.33333333333334</ele><time>2026-04-09T15:59:04.999Z</time></trkpt><trkpt lat="44.70358358660757" lon="10.227611037806772"><ele>175.66666666666666</ele><time>2026-04-09T15:59:05.999Z</time></trkpt><trkpt lat="44.70376011233817" lon="10.227772635956029"><ele>176.0</ele><time>2026-04-09T15:59:06.999Z</time></trkpt><trkpt lat="44.7039379699156" lon="10.22793584335146"><ele>176.0</ele><time>2026-04-09T15:59:07.999Z</time></trkpt><trkpt lat="44.70411211926827" lon="10.228094710239333"><ele>176.0</ele><time>2026-04-09T15:59:08.999Z</time></trkpt><trkpt lat="44.70428392548109" lon="10.228249267744049"><ele>176.0</ele><time>2026-04-09T15:59:09.999Z</time></trkpt><trkpt lat="44.704452872118544" lon="10.228401087161705"><ele>175.66666666666666</ele><time>2026-04-09T15:59:10.999Z</time></trkpt><trkpt lat="44.704624093003936" lon="10.228558849370152"><ele>175.33333333333334</ele><time>2026-04-09T15:59:11.999Z</time></trkpt><trkpt lat="44.704794946934946" lon="10.228717799347246"><ele>175.0</ele><time>2026-04-09T15:59:12.999Z</time></trkpt><trkpt lat="44.7049659330598" lon="10.228874539489942"><ele>174.33333333333334</ele><time>2026-04-09T15:59:13.999Z</time></trkpt><trkpt lat="44.705129966156925" lon="10.22902558014863"><ele>173.66666666666666</ele><time>2026-04-09T15:59:14.999Z</time></trkpt><trkpt lat="44.705296047413015" lon="10.229179388005731"><ele>173.0</ele><time>2026-04-09T15:59:15.999Z</time></trkpt><trkpt lat="44.70546197719158" lon="10.22933015225402"><ele>173.0</ele><time>2026-04-09T15:59:16.999Z</time></trkpt><trkpt lat="44.70563032344826" lon="10.229481204694663"><ele>173.0</ele><time>2026-04-09T15:59:17.999Z</time></trkpt><trkpt lat="44.70579108878341" lon="10.229620785717934"><ele>173.0</ele><time>2026-04-09T15:59:18.999Z</time></trkpt><trkpt lat="44.70595612560273" lon="10.229750091648102"><ele>172.0</ele><time>2026-04-09T15:59:19.999Z</time></trkpt><trkpt lat="44.706129028104755" lon="10.229854641985636"><ele>171.0</ele><time>2026-04-09T15:59:20.999Z</time></trkpt><trkpt lat="44.70630854314481" lon="10.22994345566382"><ele>170.0</ele><time>2026-04-09T15:59:21.999Z</time></trkpt><trkpt lat="44.70649000973411" lon="10.230014131495963"><ele>170.0</ele><time>2026-04-09T15:59:22.999Z</time></trkpt><trkpt lat="44.706674684867" lon="10.23007486719502"><ele>170.0</ele><time>2026-04-09T15:59:23.999Z</time></trkpt><trkpt lat="44.706857460057044" lon="10.230134999742052"><ele>170.0</ele><time>2026-04-09T15:59:24.999Z</time></trkpt><trkpt lat="44.7070342316926" lon="10.23019273476791"><ele>170.33333333333331</ele><time>2026-04-09T15:59:25.999Z</time></trkpt><trkpt lat="44.707201486611275" lon="10.23024758846139"><ele>170.66666666666666</ele><time>2026-04-09T15:59:26.999Z</time></trkpt><trkpt lat="44.70736444578645" lon="10.230302812202549"><ele>171.0</ele><time>2026-04-09T15:59:27.999Z</time></trkpt><trkpt lat="44.70752473849269" lon="10.230357775874822"><ele>171.0</ele><time>2026-04-09T15:59:28.999Z</time></trkpt><trkpt lat="44.707685567514424" lon="10.230411465235399"><ele>171.0</ele><time>2026-04-09T15:59:29.998Z</time></trkpt><trkpt lat="44.70784655675949" lon="10.230463149621713"><ele>171.0</ele><time>2026-04-09T15:59:30.998Z</time></trkpt><trkpt lat="44.70800530050986" lon="10.230516750458076"><ele>171.0</ele><time>2026-04-09T15:59:31.998Z</time></trkpt><trkpt lat="44.708169095780484" lon="10.230574403255062"><ele>171.0</ele><time>2026-04-09T15:59:32.998Z</time></trkpt><trkpt lat="44.708333430797055" lon="10.23062772464012"><ele>171.0</ele><time>2026-04-09T15:59:33.998Z</time></trkpt><trkpt lat="44.708483763909065" lon="10.230676133864517"><ele>170.5</ele><time>2026-04-09T15:59:34.998Z</time></trkpt><trkpt lat="44.708626219293464" lon="10.230722826687533"><ele>170.0</ele><time>2026-04-09T15:59:35.998Z</time></trkpt><trkpt lat="44.70875699885527" lon="10.230767277574293"><ele>169.5</ele><time>2026-04-09T15:59:36.998Z</time></trkpt><trkpt lat="44.70888110767865" lon="10.230806264245993"><ele>169.0</ele><time>2026-04-09T15:59:37.998Z</time></trkpt><trkpt lat="44.70899990551486" lon="10.230845304071662"><ele>169.0</ele><time>2026-04-09T15:59:38.998Z</time></trkpt><trkpt lat="44.709109222461976" lon="10.230880724057764"><ele>169.0</ele><time>2026-04-09T15:59:39.998Z</time></trkpt><trkpt lat="44.70921500896755" lon="10.230917799958782"><ele>169.0</ele><time>2026-04-09T15:59:40.998Z</time></trkpt><trkpt lat="44.70932392725791" lon="10.230957372548806"><ele>169.0</ele><time>2026-04-09T15:59:41.998Z</time></trkpt><trkpt lat="44.70944658520217" lon="10.230998288843374"><ele>168.75</ele><time>2026-04-09T15:59:42.998Z</time></trkpt><trkpt lat="44.70957200554003" lon="10.231038484681745"><ele>168.5</ele><time>2026-04-09T15:59:43.998Z</time></trkpt><trkpt lat="44.70971003016385" lon="10.231081009991268"><ele>168.25</ele><time>2026-04-09T15:59:44.998Z</time></trkpt><trkpt lat="44.70985078572295" lon="10.231125524755631"><ele>168.0</ele><time>2026-04-09T15:59:45.998Z</time></trkpt><trkpt lat="44.70999104146076" lon="10.231172863758845"><ele>168.0</ele><time>2026-04-09T15:59:46.998Z</time></trkpt><trkpt lat="44.71012498330198" lon="10.231216981762536"><ele>168.0</ele><time>2026-04-09T15:59:47.998Z</time></trkpt><trkpt lat="44.71026033064489" lon="10.231260995984131"><ele>168.0</ele><time>2026-04-09T15:59:48.998Z</time></trkpt><trkpt lat="44.71038324635262" lon="10.231302170829945"><ele>168.0</ele><time>2026-04-09T15:59:49.998Z</time></trkpt><trkpt lat="44.71050029593233" lon="10.231341882921596"><ele>168.0</ele><time>2026-04-09T15:59:50.998Z</time></trkpt><trkpt lat="44.710608718099365" lon="10.231379580659157"><ele>168.0</ele><time>2026-04-09T15:59:51.998Z</time></trkpt><trkpt lat="44.710715083422826" lon="10.23141948452449"><ele>168.0</ele><time>2026-04-09T15:59:52.998Z</time></trkpt><trkpt lat="44.71084076972414" lon="10.231460146878277"><ele>168.0</ele><time>2026-04-09T15:59:53.998Z</time></trkpt><trkpt lat="44.71098532019276" lon="10.231507079271198"><ele>168.0</ele><time>2026-04-09T15:59:54.998Z</time></trkpt><trkpt lat="44.711137977935415" lon="10.231560083689377"><ele>168.0</ele><time>2026-04-09T15:59:55.998Z</time></trkpt><trkpt lat="44.711283534327" lon="10.231613081318155"><ele>168.0</ele><time>2026-04-09T15:59:56.998Z</time></trkpt><trkpt lat="44.71142265800278" lon="10.231660044393928"><ele>168.0</ele><time>2026-04-09T15:59:57.998Z</time></trkpt><trkpt lat="44.71155789772084" lon="10.231700291319948"><ele>168.0</ele><time>2026-04-09T15:59:58.998Z</time></trkpt><trkpt lat="44.71168718275897" lon="10.231740902224272"><ele>168.0</ele><time>2026-04-09T15:59:59.998Z</time></trkpt><trkpt lat="44.711809377286045" lon="10.231784032128866"><ele>168.0</ele><time>2026-04-09T16:00:00.998Z</time></trkpt><trkpt lat="44.71192079706494" lon="10.231821257462428"><ele>167.66666666666666</ele><time>2026-04-09T16:00:01.998Z</time></trkpt><trkpt lat="44.712026133044624" lon="10.231868488838339"><ele>167.33333333333334</ele><time>2026-04-09T16:00:02.998Z</time></trkpt><trkpt lat="44.71210974433223" lon="10.231933244657316"><ele>167.0</ele><time>2026-04-09T16:00:03.998Z</time></trkpt><trkpt lat="44.71216872157295" lon="10.231990054683259"><ele>166.66666666666669</ele><time>2026-04-09T16:00:04.998Z</time></trkpt><trkpt lat="44.71224014487727" lon="10.231990623664872"><ele>166.33333333333334</ele><time>2026-04-09T16:00:06.998Z</time></trkpt><trkpt lat="44.712226609198886" lon="10.232087087691333"><ele>166.0</ele><time>2026-04-09T16:00:07.998Z</time></trkpt><trkpt lat="44.71222612502529" lon="10.23222423314405"><ele>166.16666666666669</ele><time>2026-04-09T16:00:10.998Z</time></trkpt><trkpt lat="44.712180328257645" lon="10.23231539745092"><ele>166.33333333333334</ele><time>2026-04-09T16:00:11.998Z</time></trkpt><trkpt lat="44.712139256131294" lon="10.23241201810777"><ele>166.5</ele><time>2026-04-09T16:00:12.998Z</time></trkpt><trkpt lat="44.71209344145727" lon="10.232516048594297"><ele>166.66666666666666</ele><time>2026-04-09T16:00:13.998Z</time></trkpt><trkpt lat="44.712043320705256" lon="10.232627624426902"><ele>166.83333333333331</ele><time>2026-04-09T16:00:14.998Z</time></trkpt><trkpt lat="44.71199332024265" lon="10.232748273755343"><ele>167.0</ele><time>2026-04-09T16:00:15.998Z</time></trkpt><trkpt lat="44.71195110320045" lon="10.232848585644533"><ele>167.0</ele><time>2026-04-09T16:00:16.998Z</time></trkpt><trkpt lat="44.711912830362174" lon="10.23295014066275"><ele>167.0</ele><time>2026-04-09T16:00:17.998Z</time></trkpt><trkpt lat="44.711863650029265" lon="10.233070179686763"><ele>167.0</ele><time>2026-04-09T16:00:18.998Z</time></trkpt><trkpt lat="44.71179109988091" lon="10.233197692813803"><ele>167.0</ele><time>2026-04-09T16:00:19.998Z</time></trkpt><trkpt lat="44.7117379768838" lon="10.233372122645383"><ele>167.0</ele><time>2026-04-09T16:00:20.998Z</time></trkpt><trkpt lat="44.71164995776769" lon="10.233567083330444"><ele>167.0</ele><time>2026-04-09T16:00:21.998Z</time></trkpt><trkpt lat="44.711571923835024" lon="10.23373802861589"><ele>167.0</ele><time>2026-04-09T16:00:22.998Z</time></trkpt><trkpt lat="44.71150742990052" lon="10.23387601480358"><ele>167.0</ele><time>2026-04-09T16:00:23.998Z</time></trkpt><trkpt lat="44.711455383810126" lon="10.233992878800633"><ele>167.0</ele><time>2026-04-09T16:00:24.998Z</time></trkpt><trkpt lat="44.71140725463831" lon="10.234100980869403"><ele>166.5</ele><time>2026-04-09T16:00:25.998Z</time></trkpt><trkpt lat="44.711362703789646" lon="10.234199083323958"><ele>166.0</ele><time>2026-04-09T16:00:26.998Z</time></trkpt><trkpt lat="44.71131729881661" lon="10.234304119012576"><ele>165.5</ele><time>2026-04-09T16:00:27.998Z</time></trkpt><trkpt lat="44.711273168428285" lon="10.234406935266431"><ele>165.0</ele><time>2026-04-09T16:00:28.998Z</time></trkpt><trkpt lat="44.71123304772053" lon="10.2344999922208"><ele>164.5</ele><time>2026-04-09T16:00:29.998Z</time></trkpt><trkpt lat="44.71119623334813" lon="10.234590734308044"><ele>164.0</ele><time>2026-04-09T16:00:30.998Z</time></trkpt><trkpt lat="44.711164197597924" lon="10.234667723772843"><ele>164.0</ele><time>2026-04-09T16:00:31.998Z</time></trkpt><trkpt lat="44.71111523994761" lon="10.234740114024941"><ele>164.0</ele><time>2026-04-09T16:00:32.998Z</time></trkpt><trkpt lat="44.71107235018387" lon="10.234838652440157"><ele>164.0</ele><time>2026-04-09T16:00:33.998Z</time></trkpt><trkpt lat="44.71104855561427" lon="10.234937059121037"><ele>164.0</ele><time>2026-04-09T16:00:34.998Z</time></trkpt><trkpt lat="44.71099841576992" lon="10.235007456840517"><ele>164.0</ele><time>2026-04-09T16:00:35.998Z</time></trkpt><trkpt lat="44.71095705603097" lon="10.235102121306578"><ele>164.0</ele><time>2026-04-09T16:00:36.998Z</time></trkpt><trkpt lat="44.71091053659632" lon="10.235208800365651"><ele>164.0</ele><time>2026-04-09T16:00:37.998Z</time></trkpt><trkpt lat="44.71085843442444" lon="10.235328281189739"><ele>164.0</ele><time>2026-04-09T16:00:38.998Z</time></trkpt><trkpt lat="44.710811155765526" lon="10.235436701086194"><ele>164.0</ele><time>2026-04-09T16:00:39.998Z</time></trkpt><trkpt lat="44.71075742345997" lon="10.235560242"><ele>164.0</ele><time>2026-04-09T16:00:41.999Z</time></trkpt><trkpt lat="44.710722194464125" lon="10.235684867929752"><ele>164.0</ele><time>2026-04-09T16:00:43.999Z</time></trkpt><trkpt lat="44.71067158040811" lon="10.2357993020888"><ele>163.83333333333331</ele><time>2026-04-09T16:00:45.999Z</time></trkpt><trkpt lat="44.71059836731457" lon="10.235960723942028"><ele>163.66666666666666</ele><time>2026-04-09T16:00:47.999Z</time></trkpt><trkpt lat="44.71055985654213" lon="10.236052810489305"><ele>163.5</ele><time>2026-04-09T16:00:48.999Z</time></trkpt><trkpt lat="44.71052245608832" lon="10.236141644873312"><ele>163.33333333333334</ele><time>2026-04-09T16:00:49.999Z</time></trkpt><trkpt lat="44.710485441831096" lon="10.236227286921109"><ele>163.16666666666669</ele><time>2026-04-09T16:00:50.999Z</time></trkpt><trkpt lat="44.710445098636505" lon="10.236319619560765"><ele>163.0</ele><time>2026-04-09T16:00:51.999Z</time></trkpt><trkpt lat="44.71040426074125" lon="10.236416109008267"><ele>163.0</ele><time>2026-04-09T16:00:52.999Z</time></trkpt><trkpt lat="44.71036459536139" lon="10.236510815681399"><ele>163.0</ele><time>2026-04-09T16:00:53.999Z</time></trkpt><trkpt lat="44.710300223901605" lon="10.23661962501362"><ele>163.0</ele><time>2026-04-09T16:00:54.999Z</time></trkpt><trkpt lat="44.71023431693145" lon="10.236772338567533"><ele>163.0</ele><time>2026-04-09T16:00:55.999Z</time></trkpt><trkpt lat="44.71016010761859" lon="10.236945864137311"><ele>163.0</ele><time>2026-04-09T16:00:57Z</time></trkpt><trkpt lat="44.71009869136863" lon="10.237123687365957"><ele>163.0</ele><time>2026-04-09T16:00:58Z</time></trkpt><trkpt lat="44.71003568960257" lon="10.237269462629804"><ele>163.0</ele><time>2026-04-09T16:00:59Z</time></trkpt><trkpt lat="44.70998043078585" lon="10.237404187693755"><ele>163.0</ele><time>2026-04-09T16:01:00Z</time></trkpt><trkpt lat="44.709928759176364" lon="10.237526147564596"><ele>163.60000000000002</ele><time>2026-04-09T16:01:01Z</time></trkpt><trkpt lat="44.709870628973796" lon="10.237623397155637"><ele>164.20000000000002</ele><time>2026-04-09T16:01:02Z</time></trkpt><trkpt lat="44.70982224445675" lon="10.237737138315122"><ele>164.8</ele><time>2026-04-09T16:01:03Z</time></trkpt><trkpt lat="44.70976370765098" lon="10.237874745322298"><ele>165.4</ele><time>2026-04-09T16:01:04Z</time></trkpt><trkpt lat="44.709710341727245" lon="10.238000196376884"><ele>166.0</ele><time>2026-04-09T16:01:05Z</time></trkpt><trkpt lat="44.7096704780012" lon="10.238093906951041"><ele>166.16666666666669</ele><time>2026-04-09T16:01:06Z</time></trkpt><trkpt lat="44.70963730439901" lon="10.238171890747584"><ele>166.33333333333334</ele><time>2026-04-09T16:01:07Z</time></trkpt><trkpt lat="44.70959665805064" lon="10.238266674046056"><ele>166.5</ele><time>2026-04-09T16:01:08Z</time></trkpt><trkpt lat="44.709562921698165" lon="10.238345298852057"><ele>166.66666666666666</ele><time>2026-04-09T16:01:09Z</time></trkpt><trkpt lat="44.70950392452546" lon="10.23848279589261"><ele>166.83333333333331</ele><time>2026-04-09T16:01:11Z</time></trkpt><trkpt lat="44.70944221951816" lon="10.23862660397911"><ele>167.0</ele><time>2026-04-09T16:01:12Z</time></trkpt><trkpt lat="44.70937337320442" lon="10.238787054595429"><ele>167.5</ele><time>2026-04-09T16:01:13Z</time></trkpt><trkpt lat="44.70930436565688" lon="10.238943209557476"><ele>168.0</ele><time>2026-04-09T16:01:14Z</time></trkpt><trkpt lat="44.70924180061911" lon="10.239083500182419"><ele>168.5</ele><time>2026-04-09T16:01:15Z</time></trkpt><trkpt lat="44.709178723767344" lon="10.239217881512054"><ele>169.0</ele><time>2026-04-09T16:01:16Z</time></trkpt><trkpt lat="44.709123227742914" lon="10.239331352822592"><ele>169.39999999999998</ele><time>2026-04-09T16:01:17Z</time></trkpt><trkpt lat="44.7090620096479" lon="10.239453727577368"><ele>169.8</ele><time>2026-04-09T16:01:18Z</time></trkpt><trkpt lat="44.70900787542346" lon="10.239589982959965"><ele>170.2</ele><time>2026-04-09T16:01:19Z</time></trkpt><trkpt lat="44.708936743119985" lon="10.239675314724124"><ele>170.60000000000002</ele><time>2026-04-09T16:01:20Z</time></trkpt><trkpt lat="44.708850918423295" lon="10.239734640624755"><ele>171.0</ele><time>2026-04-09T16:01:21Z</time></trkpt><trkpt lat="44.70875903399125" lon="10.23976697309646"><ele>171.0</ele><time>2026-04-09T16:01:22Z</time></trkpt><trkpt lat="44.70868152673395" lon="10.23978983667869"><ele>171.0</ele><time>2026-04-09T16:01:23Z</time></trkpt><trkpt lat="44.70861970091651" lon="10.239845202539914"><ele>171.0</ele><time>2026-04-09T16:01:24Z</time></trkpt><trkpt lat="44.70856098907021" lon="10.239924971951755"><ele>171.0</ele><time>2026-04-09T16:01:25Z</time></trkpt><trkpt lat="44.708542966116084" lon="10.240047299463342"><ele>171.0</ele><time>2026-04-09T16:01:26Z</time></trkpt><trkpt lat="44.70857908871083" lon="10.240164386722078"><ele>171.0</ele><time>2026-04-09T16:01:27Z</time></trkpt><trkpt lat="44.708620936849606" lon="10.240259129674175"><ele>171.0</ele><time>2026-04-09T16:01:28Z</time></trkpt><trkpt lat="44.70862747923405" lon="10.24037517907712"><ele>171.0</ele><time>2026-04-09T16:01:29Z</time></trkpt><trkpt lat="44.70864313696643" lon="10.240507852802054"><ele>171.0</ele><time>2026-04-09T16:01:30Z</time></trkpt><trkpt lat="44.70861893442554" lon="10.240671385375874"><ele>171.0</ele><time>2026-04-09T16:01:31Z</time></trkpt><trkpt lat="44.70858066842377" lon="10.240862245092618"><ele>171.0</ele><time>2026-04-09T16:01:32Z</time></trkpt><trkpt lat="44.70854353005671" lon="10.241070162045606"><ele>171.0</ele><time>2026-04-09T16:01:33Z</time></trkpt><trkpt lat="44.70851122884557" lon="10.241280923324146"><ele>171.0</ele><time>2026-04-09T16:01:34Z</time></trkpt><trkpt lat="44.70847557582423" lon="10.241490057412937"><ele>171.0</ele><time>2026-04-09T16:01:35Z</time></trkpt><trkpt lat="44.70843682111793" lon="10.241703065811048"><ele>169.66666666666666</ele><time>2026-04-09T16:01:36Z</time></trkpt><trkpt lat="44.7084016884481" lon="10.241916566594346"><ele>168.33333333333331</ele><time>2026-04-09T16:01:37Z</time></trkpt><trkpt lat="44.708369845229065" lon="10.242126248293987"><ele>167.0</ele><time>2026-04-09T16:01:38Z</time></trkpt><trkpt lat="44.708335302868406" lon="10.242343950616874"><ele>166.66666666666666</ele><time>2026-04-09T16:01:39Z</time></trkpt><trkpt lat="44.708300767081944" lon="10.24256215329457"><ele>166.33333333333334</ele><time>2026-04-09T16:01:40Z</time></trkpt><trkpt lat="44.70826539143142" lon="10.242790655970055"><ele>166.0</ele><time>2026-04-09T16:01:41Z</time></trkpt><trkpt lat="44.70823207122947" lon="10.243024701725309"><ele>166.0</ele><time>2026-04-09T16:01:42Z</time></trkpt><trkpt lat="44.70820028515719" lon="10.243264751011392"><ele>166.0</ele><time>2026-04-09T16:01:43Z</time></trkpt><trkpt lat="44.7081747171931" lon="10.243509516549533"><ele>166.0</ele><time>2026-04-09T16:01:44Z</time></trkpt><trkpt lat="44.708157183792736" lon="10.243761774643708"><ele>165.33333333333334</ele><time>2026-04-09T16:01:45Z</time></trkpt><trkpt lat="44.708144779021" lon="10.244012380134107"><ele>164.66666666666666</ele><time>2026-04-09T16:01:46Z</time></trkpt><trkpt lat="44.70814189014215" lon="10.244270814819654"><ele>164.0</ele><time>2026-04-09T16:01:47Z</time></trkpt><trkpt lat="44.708149017883365" lon="10.244518470789828"><ele>164.0</ele><time>2026-04-09T16:01:48Z</time></trkpt><trkpt lat="44.70816465433154" lon="10.244780186699462"><ele>164.0</ele><time>2026-04-09T16:01:49Z</time></trkpt><trkpt lat="44.708184786759205" lon="10.245043733957038"><ele>164.0</ele><time>2026-04-09T16:01:50Z</time></trkpt><trkpt lat="44.70820660471132" lon="10.24531412253133"><ele>163.66666666666666</ele><time>2026-04-09T16:01:51Z</time></trkpt><trkpt lat="44.70824197138469" lon="10.245591042536718"><ele>163.33333333333334</ele><time>2026-04-09T16:01:52Z</time></trkpt><trkpt lat="44.70829227220048" lon="10.245877318412237"><ele>163.0</ele><time>2026-04-09T16:01:53Z</time></trkpt><trkpt lat="44.70835052229722" lon="10.246158816208672"><ele>162.66666666666669</ele><time>2026-04-09T16:01:54Z</time></trkpt><trkpt lat="44.70841998008312" lon="10.246440266930275"><ele>162.33333333333334</ele><time>2026-04-09T16:01:55Z</time></trkpt><trkpt lat="44.70849674648518" lon="10.246728944066113"><ele>162.0</ele><time>2026-04-09T16:01:56Z</time></trkpt><trkpt lat="44.70858147635719" lon="10.247033516887711"><ele>160.0</ele><time>2026-04-09T16:01:57Z</time></trkpt><trkpt lat="44.70866765371122" lon="10.24734082146205"><ele>158.0</ele><time>2026-04-09T16:01:58Z</time></trkpt><trkpt lat="44.70875890161068" lon="10.247669033570537"><ele>158.0</ele><time>2026-04-09T16:01:59Z</time></trkpt><trkpt lat="44.708844825064126" lon="10.247981272243386"><ele>158.0</ele><time>2026-04-09T16:02:00Z</time></trkpt><trkpt lat="44.70892525666707" lon="10.248290957534445"><ele>158.66666666666666</ele><time>2026-04-09T16:02:01Z</time></trkpt><trkpt lat="44.70899731268398" lon="10.24857471423339"><ele>159.33333333333334</ele><time>2026-04-09T16:02:02Z</time></trkpt><trkpt lat="44.709066661333125" lon="10.248852611648168"><ele>160.0</ele><time>2026-04-09T16:02:03Z</time></trkpt><trkpt lat="44.70913084403656" lon="10.249134858461298"><ele>160.33333333333334</ele><time>2026-04-09T16:02:04Z</time></trkpt><trkpt lat="44.70918916678955" lon="10.249427976443775"><ele>160.66666666666666</ele><time>2026-04-09T16:02:05Z</time></trkpt><trkpt lat="44.7092355802631" lon="10.249721597385918"><ele>161.0</ele><time>2026-04-09T16:02:06Z</time></trkpt><trkpt lat="44.7092714152882" lon="10.25002199647021"><ele>160.33333333333331</ele><time>2026-04-09T16:02:07Z</time></trkpt><trkpt lat="44.709296728557376" lon="10.250325081262648"><ele>159.66666666666666</ele><time>2026-04-09T16:02:08Z</time></trkpt><trkpt lat="44.709309165799574" lon="10.25063500878608"><ele>159.0</ele><time>2026-04-09T16:02:09Z</time></trkpt><trkpt lat="44.70930915410489" lon="10.250947490227414"><ele>158.0</ele><time>2026-04-09T16:02:10Z</time></trkpt><trkpt lat="44.70930107910654" lon="10.2512493856473"><ele>157.0</ele><time>2026-04-09T16:02:11Z</time></trkpt><trkpt lat="44.709282777581336" lon="10.251538620833141"><ele>156.0</ele><time>2026-04-09T16:02:12Z</time></trkpt><trkpt lat="44.709254173574145" lon="10.251826625212896"><ele>156.0</ele><time>2026-04-09T16:02:13Z</time></trkpt><trkpt lat="44.70921751555095" lon="10.252113472752203"><ele>156.0</ele><time>2026-04-09T16:02:14Z</time></trkpt><trkpt lat="44.70917265347893" lon="10.252404524179276"><ele>156.0</ele><time>2026-04-09T16:02:15Z</time></trkpt><trkpt lat="44.70911879299258" lon="10.252685598664884"><ele>156.66666666666666</ele><time>2026-04-09T16:02:16Z</time></trkpt><trkpt lat="44.709055324558726" lon="10.252964628568137"><ele>157.33333333333331</ele><time>2026-04-09T16:02:17Z</time></trkpt><trkpt lat="44.708985102579724" lon="10.253238035369344"><ele>158.0</ele><time>2026-04-09T16:02:18Z</time></trkpt><trkpt lat="44.708908809314416" lon="10.253511885097568"><ele>158.0</ele><time>2026-04-09T16:02:19Z</time></trkpt><trkpt lat="44.70882882155409" lon="10.253786157182534"><ele>158.0</ele><time>2026-04-09T16:02:20Z</time></trkpt><trkpt lat="44.7087451583982" lon="10.254070136640848"><ele>158.0</ele><time>2026-04-09T16:02:21Z</time></trkpt><trkpt lat="44.708660996481306" lon="10.254362114443007"><ele>158.0</ele><time>2026-04-09T16:02:22Z</time></trkpt><trkpt lat="44.708577110012136" lon="10.25466063514758"><ele>158.0</ele><time>2026-04-09T16:02:23Z</time></trkpt><trkpt lat="44.70848975317827" lon="10.254963897113578"><ele>158.0</ele><time>2026-04-09T16:02:24Z</time></trkpt><trkpt lat="44.70839849745071" lon="10.25527321052446"><ele>158.0</ele><time>2026-04-09T16:02:25Z</time></trkpt><trkpt lat="44.708314924134825" lon="10.255565260030682"><ele>157.33333333333331</ele><time>2026-04-09T16:02:26Z</time></trkpt><trkpt lat="44.70823073763168" lon="10.255855619082503"><ele>156.66666666666666</ele><time>2026-04-09T16:02:27Z</time></trkpt><trkpt lat="44.70815065623725" lon="10.256132569960936"><ele>156.0</ele><time>2026-04-09T16:02:28Z</time></trkpt><trkpt lat="44.70807524954396" lon="10.256390145576754"><ele>155.0</ele><time>2026-04-09T16:02:29Z</time></trkpt><trkpt lat="44.70800478415954" lon="10.256629197449321"><ele>154.0</ele><time>2026-04-09T16:02:30Z</time></trkpt><trkpt lat="44.707939615971156" lon="10.2568579295002"><ele>153.0</ele><time>2026-04-09T16:02:31Z</time></trkpt><trkpt lat="44.70787932160774" lon="10.257079554941892"><ele>153.0</ele><time>2026-04-09T16:02:32Z</time></trkpt><trkpt lat="44.707823618742495" lon="10.257279419626135"><ele>153.0</ele><time>2026-04-09T16:02:33Z</time></trkpt><trkpt lat="44.70776608095612" lon="10.257477037039571"><ele>153.0</ele><time>2026-04-09T16:02:34Z</time></trkpt><trkpt lat="44.70771343890593" lon="10.25765680811014"><ele>153.0</ele><time>2026-04-09T16:02:35Z</time></trkpt><trkpt lat="44.70766301298448" lon="10.257830613871985"><ele>153.0</ele><time>2026-04-09T16:02:36Z</time></trkpt><trkpt lat="44.70760984381795" lon="10.25802169309402"><ele>153.0</ele><time>2026-04-09T16:02:37Z</time></trkpt><trkpt lat="44.70755179386799" lon="10.258218785473316"><ele>153.0</ele><time>2026-04-09T16:02:38Z</time></trkpt><trkpt lat="44.70749537250775" lon="10.258410568688253"><ele>153.0</ele><time>2026-04-09T16:02:39Z</time></trkpt><trkpt lat="44.707447322472504" lon="10.25859820713594"><ele>153.25</ele><time>2026-04-09T16:02:40Z</time></trkpt><trkpt lat="44.70740397731588" lon="10.25876884493308"><ele>153.5</ele><time>2026-04-09T16:02:41Z</time></trkpt><trkpt lat="44.70735579464478" lon="10.258919860546454"><ele>153.75</ele><time>2026-04-09T16:02:42Z</time></trkpt><trkpt lat="44.7072991382582" lon="10.259053817561664"><ele>154.0</ele><time>2026-04-09T16:02:43Z</time></trkpt><trkpt lat="44.707228117718536" lon="10.259161521652327"><ele>154.2</ele><time>2026-04-09T16:02:44Z</time></trkpt><trkpt lat="44.707146923441876" lon="10.25925647519296"><ele>154.4</ele><time>2026-04-09T16:02:45Z</time></trkpt><trkpt lat="44.7070632743666" lon="10.259335969401103"><ele>154.6</ele><time>2026-04-09T16:02:46Z</time></trkpt><trkpt lat="44.707015883553396" lon="10.259435675329312"><ele>154.8</ele><time>2026-04-09T16:02:47Z</time></trkpt><trkpt lat="44.70701190825736" lon="10.259547145736017"><ele>155.0</ele><time>2026-04-09T16:02:48Z</time></trkpt><trkpt lat="44.70703710091599" lon="10.259655753087298"><ele>155.0</ele><time>2026-04-09T16:02:49Z</time></trkpt><trkpt lat="44.70708851625137" lon="10.2597399266914"><ele>155.0</ele><time>2026-04-09T16:02:50Z</time></trkpt><trkpt lat="44.70716035667037" lon="10.259801120480901"><ele>155.0</ele><time>2026-04-09T16:02:51Z</time></trkpt><trkpt lat="44.707256561990185" lon="10.25983029218464"><ele>155.0</ele><time>2026-04-09T16:02:52Z</time></trkpt><trkpt lat="44.70736173962677" lon="10.259830776756152"><ele>155.0</ele><time>2026-04-09T16:02:53Z</time></trkpt><trkpt lat="44.70748168217855" lon="10.259863411966325"><ele>154.0</ele><time>2026-04-09T16:02:54Z</time></trkpt><trkpt lat="44.707606338575594" lon="10.259949579329962"><ele>153.0</ele><time>2026-04-09T16:02:55Z</time></trkpt><trkpt lat="44.70773222093402" lon="10.26009222469024"><ele>152.0</ele><time>2026-04-09T16:02:56Z</time></trkpt><trkpt lat="44.70785848131921" lon="10.260266964322337"><ele>152.0</ele><time>2026-04-09T16:02:57Z</time></trkpt><trkpt lat="44.70799239544793" lon="10.260441218981724"><ele>152.0</ele><time>2026-04-09T16:02:58Z</time></trkpt><trkpt lat="44.70812391012909" lon="10.260604807403974"><ele>152.0</ele><time>2026-04-09T16:02:59Z</time></trkpt><trkpt lat="44.70824510572987" lon="10.260753844404041"><ele>152.25</ele><time>2026-04-09T16:03:00Z</time></trkpt><trkpt lat="44.70835661263405" lon="10.260887468236211"><ele>152.5</ele><time>2026-04-09T16:03:01Z</time></trkpt><trkpt lat="44.70846868512541" lon="10.261023493202902"><ele>152.75</ele><time>2026-04-09T16:03:02Z</time></trkpt><trkpt lat="44.708580423334475" lon="10.261166565299694"><ele>153.0</ele><time>2026-04-09T16:03:03Z</time></trkpt><trkpt lat="44.70869657463079" lon="10.26132017862631"><ele>153.0</ele><time>2026-04-09T16:03:04Z</time></trkpt><trkpt lat="44.70881659625343" lon="10.261474836778865"><ele>153.0</ele><time>2026-04-09T16:03:05Z</time></trkpt><trkpt lat="44.70894159546123" lon="10.26163372864313"><ele>153.0</ele><time>2026-04-09T16:03:06Z</time></trkpt><trkpt lat="44.70907497908564" lon="10.261801197151373"><ele>153.0</ele><time>2026-04-09T16:03:07Z</time></trkpt><trkpt lat="44.70921353694263" lon="10.26196527324964"><ele>153.0</ele><time>2026-04-09T16:03:08Z</time></trkpt><trkpt lat="44.70936109049768" lon="10.262119778742761"><ele>153.0</ele><time>2026-04-09T16:03:09Z</time></trkpt><trkpt lat="44.709520281411834" lon="10.262271450598528"><ele>151.66666666666666</ele><time>2026-04-09T16:03:10Z</time></trkpt><trkpt lat="44.709683514162585" lon="10.262426928477941"><ele>150.33333333333331</ele><time>2026-04-09T16:03:11Z</time></trkpt><trkpt lat="44.70984531667384" lon="10.26258510540005"><ele>149.0</ele><time>2026-04-09T16:03:12Z</time></trkpt><trkpt lat="44.7100134253051" lon="10.26274776997173"><ele>149.0</ele><time>2026-04-09T16:03:13Z</time></trkpt><trkpt lat="44.7101816078729" lon="10.262909266888608"><ele>149.0</ele><time>2026-04-09T16:03:14Z</time></trkpt><trkpt lat="44.7103448708482" lon="10.263070555632577"><ele>149.0</ele><time>2026-04-09T16:03:15Z</time></trkpt><trkpt lat="44.71050006173747" lon="10.263224246780611"><ele>148.66666666666666</ele><time>2026-04-09T16:03:16Z</time></trkpt><trkpt lat="44.71063653922645" lon="10.263354685256308"><ele>148.33333333333334</ele><time>2026-04-09T16:03:17Z</time></trkpt><trkpt lat="44.7107720183076" lon="10.263488207773879"><ele>148.0</ele><time>2026-04-09T16:03:18Z</time></trkpt><trkpt lat="44.71091105621355" lon="10.263628015148536"><ele>148.0</ele><time>2026-04-09T16:03:19Z</time></trkpt><trkpt lat="44.71104417333704" lon="10.263760926497536"><ele>148.0</ele><time>2026-04-09T16:03:20Z</time></trkpt><trkpt lat="44.71116873051305" lon="10.263884688677255"><ele>148.0</ele><time>2026-04-09T16:03:21Z</time></trkpt><trkpt lat="44.71128649525317" lon="10.264006541128312"><ele>148.25</ele><time>2026-04-09T16:03:22Z</time></trkpt><trkpt lat="44.71140193170808" lon="10.26412256447508"><ele>148.5</ele><time>2026-04-09T16:03:23Z</time></trkpt><trkpt lat="44.711524088061275" lon="10.264239392892064"><ele>148.75</ele><time>2026-04-09T16:03:24Z</time></trkpt><trkpt lat="44.71165292486671" lon="10.264347197924426"><ele>149.0</ele><time>2026-04-09T16:03:25Z</time></trkpt><trkpt lat="44.71179153174093" lon="10.26445376105621"><ele>149.33333333333331</ele><time>2026-04-09T16:03:26Z</time></trkpt><trkpt lat="44.71194035067593" lon="10.264557079720204"><ele>149.66666666666666</ele><time>2026-04-09T16:03:27Z</time></trkpt><trkpt lat="44.712104006282836" lon="10.264664601095138"><ele>150.0</ele><time>2026-04-09T16:03:28Z</time></trkpt><trkpt lat="44.71228154269383" lon="10.26478076439845"><ele>149.33333333333334</ele><time>2026-04-09T16:03:29Z</time></trkpt><trkpt lat="44.712467841047896" lon="10.264902865314856"><ele>148.66666666666669</ele><time>2026-04-09T16:03:30Z</time></trkpt><trkpt lat="44.71265783533779" lon="10.26502694557339"><ele>148.0</ele><time>2026-04-09T16:03:31Z</time></trkpt><trkpt lat="44.71284039573523" lon="10.265147487024583"><ele>146.33333333333334</ele><time>2026-04-09T16:03:32Z</time></trkpt><trkpt lat="44.71302514227438" lon="10.265271954759514"><ele>144.66666666666666</ele><time>2026-04-09T16:03:33Z</time></trkpt><trkpt lat="44.713212234079" lon="10.265396909724798"><ele>143.0</ele><time>2026-04-09T16:03:34Z</time></trkpt><trkpt lat="44.71339901056266" lon="10.265522041730009"><ele>143.66666666666666</ele><time>2026-04-09T16:03:35Z</time></trkpt><trkpt lat="44.713589364994746" lon="10.265646956644146"><ele>144.33333333333334</ele><time>2026-04-09T16:03:36Z</time></trkpt><trkpt lat="44.71377848158631" lon="10.26577239114331"><ele>145.0</ele><time>2026-04-09T16:03:37Z</time></trkpt><trkpt lat="44.713969689942935" lon="10.26589726072616"><ele>145.0</ele><time>2026-04-09T16:03:38Z</time></trkpt><trkpt lat="44.71415215453355" lon="10.2660119035961"><ele>145.0</ele><time>2026-04-09T16:03:39Z</time></trkpt><trkpt lat="44.71433079838756" lon="10.2661300212893"><ele>145.0</ele><time>2026-04-09T16:03:40Z</time></trkpt><trkpt lat="44.71450255624959" lon="10.266252766922667"><ele>144.66666666666669</ele><time>2026-04-09T16:03:41Z</time></trkpt><trkpt lat="44.71466929229222" lon="10.266374227179503"><ele>144.33333333333334</ele><time>2026-04-09T16:03:42Z</time></trkpt><trkpt lat="44.71483763907023" lon="10.266497119332024"><ele>144.0</ele><time>2026-04-09T16:03:43Z</time></trkpt><trkpt lat="44.715003583024505" lon="10.26662550078168"><ele>143.66666666666666</ele><time>2026-04-09T16:03:44Z</time></trkpt><trkpt lat="44.7151636707688" lon="10.266755272566373"><ele>143.33333333333331</ele><time>2026-04-09T16:03:45Z</time></trkpt><trkpt lat="44.71532771394283" lon="10.266885740085332"><ele>143.0</ele><time>2026-04-09T16:03:46Z</time></trkpt><trkpt lat="44.71548876040333" lon="10.267011450120629"><ele>143.0</ele><time>2026-04-09T16:03:47Z</time></trkpt><trkpt lat="44.71564587372381" lon="10.26713203504253"><ele>143.0</ele><time>2026-04-09T16:03:48Z</time></trkpt><trkpt lat="44.7157973223765" lon="10.26724661886048"><ele>143.0</ele><time>2026-04-09T16:03:49Z</time></trkpt><trkpt lat="44.71594257796518" lon="10.267345061128207"><ele>142.0</ele><time>2026-04-09T16:03:50Z</time></trkpt><trkpt lat="44.71609398456472" lon="10.267439592999692"><ele>141.0</ele><time>2026-04-09T16:03:51Z</time></trkpt><trkpt lat="44.71624466682132" lon="10.267537945198574"><ele>140.0</ele><time>2026-04-09T16:03:52Z</time></trkpt><trkpt lat="44.71639637523455" lon="10.267644913794626"><ele>140.0</ele><time>2026-04-09T16:03:53Z</time></trkpt><trkpt lat="44.716543119517496" lon="10.267775429577044"><ele>140.0</ele><time>2026-04-09T16:03:54Z</time></trkpt><trkpt lat="44.71666509176115" lon="10.267956336026124"><ele>140.0</ele><time>2026-04-09T16:03:55Z</time></trkpt><trkpt lat="44.71680384559078" lon="10.268140202423352"><ele>139.33333333333331</ele><time>2026-04-09T16:03:56Z</time></trkpt><trkpt lat="44.71694643634387" lon="10.26832020665075"><ele>138.66666666666666</ele><time>2026-04-09T16:03:57Z</time></trkpt><trkpt lat="44.717106440237025" lon="10.268475521023513"><ele>138.0</ele><time>2026-04-09T16:03:58Z</time></trkpt><trkpt lat="44.71729792041558" lon="10.268581579220466"><ele>138.0</ele><time>2026-04-09T16:03:59Z</time></trkpt><trkpt lat="44.717489035728285" lon="10.268677786306064"><ele>138.0</ele><time>2026-04-09T16:04:00Z</time></trkpt><trkpt lat="44.717693166402285" lon="10.268778064099346"><ele>138.0</ele><time>2026-04-09T16:04:01Z</time></trkpt><trkpt lat="44.71789947557431" lon="10.268887649664512"><ele>138.0</ele><time>2026-04-09T16:04:02Z</time></trkpt><trkpt lat="44.71811029637602" lon="10.269045041816618"><ele>138.0</ele><time>2026-04-09T16:04:03Z</time></trkpt><trkpt lat="44.718304425983796" lon="10.269175350161708"><ele>138.0</ele><time>2026-04-09T16:04:04Z</time></trkpt><trkpt lat="44.7185058433861" lon="10.269300250674723"><ele>138.0</ele><time>2026-04-09T16:04:05Z</time></trkpt><trkpt lat="44.71872080097545" lon="10.269398578679823"><ele>138.0</ele><time>2026-04-09T16:04:06Z</time></trkpt><trkpt lat="44.71893412700925" lon="10.269518883667006"><ele>137.66666666666666</ele><time>2026-04-09T16:04:07Z</time></trkpt><trkpt lat="44.71914177497193" lon="10.269634504617958"><ele>137.33333333333331</ele><time>2026-04-09T16:04:08Z</time></trkpt><trkpt lat="44.71934129313238" lon="10.269745865027677"><ele>137.0</ele><time>2026-04-09T16:04:09Z</time></trkpt><trkpt lat="44.71952913437483" lon="10.269851637280594"><ele>137.66666666666666</ele><time>2026-04-09T16:04:10Z</time></trkpt><trkpt lat="44.719704478938986" lon="10.269948867023283"><ele>138.33333333333334</ele><time>2026-04-09T16:04:11Z</time></trkpt><trkpt lat="44.71988170848656" lon="10.27004104351612"><ele>139.0</ele><time>2026-04-09T16:04:12Z</time></trkpt><trkpt lat="44.720058967067466" lon="10.27012334471268"><ele>138.33333333333334</ele><time>2026-04-09T16:04:13Z</time></trkpt><trkpt lat="44.72023346159625" lon="10.270198729698253"><ele>137.66666666666666</ele><time>2026-04-09T16:04:14Z</time></trkpt><trkpt lat="44.720414008417634" lon="10.270291873324782"><ele>137.0</ele><time>2026-04-09T16:04:15Z</time></trkpt><trkpt lat="44.720573864826925" lon="10.270447057264212"><ele>137.0</ele><time>2026-04-09T16:04:16Z</time></trkpt><trkpt lat="44.720712903783976" lon="10.270603225556014"><ele>137.0</ele><time>2026-04-09T16:04:17Z</time></trkpt><trkpt lat="44.72087136777655" lon="10.270741972361108"><ele>137.0</ele><time>2026-04-09T16:04:18Z</time></trkpt><trkpt lat="44.721056936932506" lon="10.270844229720074"><ele>136.66666666666666</ele><time>2026-04-09T16:04:19Z</time></trkpt><trkpt lat="44.721261135384445" lon="10.270946493986223"><ele>136.33333333333334</ele><time>2026-04-09T16:04:20Z</time></trkpt><trkpt lat="44.721481518092375" lon="10.27105188183015"><ele>136.0</ele><time>2026-04-09T16:04:21Z</time></trkpt><trkpt lat="44.721696556740476" lon="10.271161221483966"><ele>135.0</ele><time>2026-04-09T16:04:22Z</time></trkpt><trkpt lat="44.721911069230636" lon="10.271271832162363"><ele>134.0</ele><time>2026-04-09T16:04:23Z</time></trkpt><trkpt lat="44.722129565615724" lon="10.271385448403825"><ele>134.0</ele><time>2026-04-09T16:04:24Z</time></trkpt><trkpt lat="44.72234602633299" lon="10.27149760826594"><ele>134.0</ele><time>2026-04-09T16:04:25Z</time></trkpt><trkpt lat="44.72255945797087" lon="10.271603532842686"><ele>133.33333333333331</ele><time>2026-04-09T16:04:26Z</time></trkpt><trkpt lat="44.722758381170934" lon="10.2717016733016"><ele>132.66666666666666</ele><time>2026-04-09T16:04:27Z</time></trkpt><trkpt lat="44.72295839728313" lon="10.271808824599749"><ele>132.0</ele><time>2026-04-09T16:04:28Z</time></trkpt><trkpt lat="44.72316241766891" lon="10.271909713791322"><ele>132.0</ele><time>2026-04-09T16:04:29Z</time></trkpt><trkpt lat="44.72336818488524" lon="10.272010062899746"><ele>132.0</ele><time>2026-04-09T16:04:30Z</time></trkpt><trkpt lat="44.72356980003017" lon="10.272120239147013"><ele>132.0</ele><time>2026-04-09T16:04:31Z</time></trkpt><trkpt lat="44.72376302068689" lon="10.272217261959529"><ele>132.66666666666666</ele><time>2026-04-09T16:04:32Z</time></trkpt><trkpt lat="44.72395470346268" lon="10.272310231451863"><ele>133.33333333333331</ele><time>2026-04-09T16:04:33Z</time></trkpt><trkpt lat="44.72414531264767" lon="10.27239168425797"><ele>134.0</ele><time>2026-04-09T16:04:34Z</time></trkpt><trkpt lat="44.72432854797977" lon="10.272457171639527"><ele>133.66666666666666</ele><time>2026-04-09T16:04:35Z</time></trkpt><trkpt lat="44.72449251365263" lon="10.272512038474483"><ele>133.33333333333334</ele><time>2026-04-09T16:04:36Z</time></trkpt><trkpt lat="44.72465510055271" lon="10.272564246414886"><ele>133.0</ele><time>2026-04-09T16:04:37Z</time></trkpt><trkpt lat="44.72479760780497" lon="10.2726054430555"><ele>133.0</ele><time>2026-04-09T16:04:38Z</time></trkpt><trkpt lat="44.72491208776612" lon="10.272642266154984"><ele>133.0</ele><time>2026-04-09T16:04:39Z</time></trkpt><trkpt lat="44.72502352402505" lon="10.272680652573822"><ele>133.0</ele><time>2026-04-09T16:04:40Z</time></trkpt><trkpt lat="44.7251270322925" lon="10.272711744042708"><ele>133.0</ele><time>2026-04-09T16:04:41Z</time></trkpt><trkpt lat="44.72522581741972" lon="10.272727786988607"><ele>133.0</ele><time>2026-04-09T16:04:42Z</time></trkpt><trkpt lat="44.725318110859625" lon="10.272741468130082"><ele>132.6</ele><time>2026-04-09T16:04:43Z</time></trkpt><trkpt lat="44.725399264068606" lon="10.272756641136816"><ele>132.20000000000002</ele><time>2026-04-09T16:04:44Z</time></trkpt><trkpt lat="44.7254716399202" lon="10.272772819474415"><ele>131.8</ele><time>2026-04-09T16:04:45Z</time></trkpt><trkpt lat="44.7255850961336" lon="10.272784694223839"><ele>131.4</ele><time>2026-04-09T16:04:47Z</time></trkpt><trkpt lat="44.72567629082713" lon="10.272928990980075"><ele>131.0</ele><time>2026-04-09T16:04:50Z</time></trkpt><trkpt lat="44.7257025471205" lon="10.273045451843231"><ele>131.25</ele><time>2026-04-09T16:04:51Z</time></trkpt><trkpt lat="44.72572728655574" lon="10.273208006554928"><ele>131.5</ele><time>2026-04-09T16:04:52Z</time></trkpt><trkpt lat="44.72574870760072" lon="10.273397650681595"><ele>131.75</ele><time>2026-04-09T16:04:53Z</time></trkpt><trkpt lat="44.72577979440688" lon="10.273592173803822"><ele>132.0</ele><time>2026-04-09T16:04:54Z</time></trkpt><trkpt lat="44.72580391888641" lon="10.273785331960706"><ele>132.25</ele><time>2026-04-09T16:04:55Z</time></trkpt><trkpt lat="44.72583073755108" lon="10.273993184405144"><ele>132.5</ele><time>2026-04-09T16:04:56Z</time></trkpt><trkpt lat="44.725858636715245" lon="10.274182569203049"><ele>132.75</ele><time>2026-04-09T16:04:57Z</time></trkpt><trkpt lat="44.72587838246989" lon="10.274361044546739"><ele>133.0</ele><time>2026-04-09T16:04:58Z</time></trkpt><trkpt lat="44.72588575732417" lon="10.274519926024533"><ele>133.0</ele><time>2026-04-09T16:04:59Z</time></trkpt><trkpt lat="44.72588454842576" lon="10.274661782536695"><ele>133.0</ele><time>2026-04-09T16:05:00Z</time></trkpt><trkpt lat="44.72588987029702" lon="10.274794430540668"><ele>133.0</ele><time>2026-04-09T16:05:01Z</time></trkpt><trkpt lat="44.72587463261074" lon="10.274910271758804"><ele>133.0</ele><time>2026-04-09T16:05:02Z</time></trkpt><trkpt lat="44.72587241639055" lon="10.274999880189208"><ele>133.0</ele><time>2026-04-09T16:05:03Z</time></trkpt><trkpt lat="44.725988401579045" lon="10.275076072346764"><ele>132.16666666666669</ele><time>2026-04-09T16:05:04Z</time></trkpt><trkpt lat="44.726066956283276" lon="10.275088249575537"><ele>131.33333333333334</ele><time>2026-04-09T16:05:05Z</time></trkpt><trkpt lat="44.72614824325677" lon="10.275113629764972"><ele>130.5</ele><time>2026-04-09T16:05:06Z</time></trkpt><trkpt lat="44.72623217238686" lon="10.275152259716242"><ele>129.66666666666666</ele><time>2026-04-09T16:05:07Z</time></trkpt><trkpt lat="44.72630492390858" lon="10.275146747917397"><ele>128.83333333333331</ele><time>2026-04-09T16:05:08Z</time></trkpt><trkpt lat="44.72636916377864" lon="10.275151172265723"><ele>128.0</ele><time>2026-04-09T16:05:09Z</time></trkpt><trkpt lat="44.72646326154893" lon="10.275161708433066"><ele>128.0</ele><time>2026-04-09T16:05:11Z</time></trkpt><trkpt lat="44.72652737027172" lon="10.275144450648412"><ele>128.0</ele><time>2026-04-09T16:05:13Z</time></trkpt></trkseg></trk></gpx>